<?xml version="1.0" encoding="UTF-8" standalone="no" ?>
<gpx xmlns="http://www.topografix.com/GPX/1/1" xmlns:xsi="http://www.w3.org/2001/XMLSchema-instance" xsi:schemaLocation="http://www.topografix.com/GPX/1/1 http://www.topografix.com/GPX/1/1/gpx.xsd" version="1.1" creator="VisuGPX - https://www.visugpx.com">
  <metadata>
    <name>Boucle au départ d'Orvault grand val</name>
    <desc><![CDATA[Boucle au départ d'Orvault Grand Val de 13,4 Km par le Bois Ragenet et le bois Cesbron]]></desc>
  </metadata>
  <trk>
    <name><![CDATA[Tracé]]></name>
    <trkseg>
      <trkpt lat="47.26167" lon="-1.59106">
        <ele>33.1727905</ele>
        <time>2016-10-25T06:49:25Z</time>
      </trkpt>
      <trkpt lat="47.26168" lon="-1.59108">
        <ele>33.1576843</ele>
        <time>2016-10-25T06:49:25Z</time>
      </trkpt>
      <trkpt lat="47.2617" lon="-1.59109">
        <ele>33.1446648</ele>
        <time>2016-10-25T06:49:28Z</time>
      </trkpt>
      <trkpt lat="47.26171" lon="-1.59112">
        <ele>33.1183167</ele>
        <time>2016-10-25T06:49:31Z</time>
      </trkpt>
      <trkpt lat="47.26173" lon="-1.59114">
        <ele>33.0870361</ele>
        <time>2016-10-25T06:49:33Z</time>
      </trkpt>
      <trkpt lat="47.26173" lon="-1.59117">
        <ele>33.0288696</ele>
        <time>2016-10-25T06:49:35Z</time>
      </trkpt>
      <trkpt lat="47.26174" lon="-1.5912">
        <ele>32.9520569</ele>
        <time>2016-10-25T06:49:37Z</time>
      </trkpt>
      <trkpt lat="47.26175" lon="-1.59124">
        <ele>32.8563843</ele>
        <time>2016-10-25T06:49:40Z</time>
      </trkpt>
      <trkpt lat="47.26176" lon="-1.59129">
        <ele>32.7430115</ele>
        <time>2016-10-25T06:49:43Z</time>
      </trkpt>
      <trkpt lat="47.26176" lon="-1.59134">
        <ele>32.6065063</ele>
        <time>2016-10-25T06:49:46Z</time>
      </trkpt>
      <trkpt lat="47.26177" lon="-1.59139">
        <ele>32.4564514</ele>
        <time>2016-10-25T06:49:48Z</time>
      </trkpt>
      <trkpt lat="47.26178" lon="-1.59143">
        <ele>32.3025208</ele>
        <time>2016-10-25T06:49:50Z</time>
      </trkpt>
      <trkpt lat="47.26179" lon="-1.59148">
        <ele>32.1385193</ele>
        <time>2016-10-25T06:49:52Z</time>
      </trkpt>
      <trkpt lat="47.2618" lon="-1.59153">
        <ele>31.9732361</ele>
        <time>2016-10-25T06:49:55Z</time>
      </trkpt>
      <trkpt lat="47.26181" lon="-1.59158">
        <ele>31.8160706</ele>
        <time>2016-10-25T06:49:58Z</time>
      </trkpt>
      <trkpt lat="47.26182" lon="-1.59161">
        <ele>31.6699829</ele>
        <time>2016-10-25T06:50:00Z</time>
      </trkpt>
      <trkpt lat="47.26184" lon="-1.59166">
        <ele>31.5217896</ele>
        <time>2016-10-25T06:50:03Z</time>
      </trkpt>
      <trkpt lat="47.26186" lon="-1.59171">
        <ele>31.3908939</ele>
        <time>2016-10-25T06:50:06Z</time>
      </trkpt>
      <trkpt lat="47.26187" lon="-1.59174">
        <ele>31.286829</ele>
        <time>2016-10-25T06:50:08Z</time>
      </trkpt>
      <trkpt lat="47.26188" lon="-1.59178">
        <ele>31.2059383</ele>
        <time>2016-10-25T06:50:10Z</time>
      </trkpt>
      <trkpt lat="47.26189" lon="-1.59181">
        <ele>31.138134</ele>
        <time>2016-10-25T06:50:12Z</time>
      </trkpt>
      <trkpt lat="47.26189" lon="-1.59184">
        <ele>31.0925598</ele>
        <time>2016-10-25T06:50:14Z</time>
      </trkpt>
      <trkpt lat="47.2619" lon="-1.59189">
        <ele>31.052927</ele>
        <time>2016-10-25T06:50:17Z</time>
      </trkpt>
      <trkpt lat="47.26192" lon="-1.59193">
        <ele>31.0197868</ele>
        <time>2016-10-25T06:50:20Z</time>
      </trkpt>
      <trkpt lat="47.26193" lon="-1.59195">
        <ele>30.9929047</ele>
        <time>2016-10-25T06:50:22Z</time>
      </trkpt>
      <trkpt lat="47.26194" lon="-1.59197">
        <ele>30.9702549</ele>
        <time>2016-10-25T06:50:24Z</time>
      </trkpt>
      <trkpt lat="47.26195" lon="-1.592">
        <ele>30.9551353</ele>
        <time>2016-10-25T06:50:26Z</time>
      </trkpt>
      <trkpt lat="47.26196" lon="-1.59204">
        <ele>30.9452763</ele>
        <time>2016-10-25T06:50:29Z</time>
      </trkpt>
      <trkpt lat="47.26196" lon="-1.59208">
        <ele>30.9265041</ele>
        <time>2016-10-25T06:50:32Z</time>
      </trkpt>
      <trkpt lat="47.26196" lon="-1.59212">
        <ele>30.9010677</ele>
        <time>2016-10-25T06:50:34Z</time>
      </trkpt>
      <trkpt lat="47.26196" lon="-1.59218">
        <ele>30.8674355</ele>
        <time>2016-10-25T06:50:37Z</time>
      </trkpt>
      <trkpt lat="47.26198" lon="-1.59223">
        <ele>30.8356533</ele>
        <time>2016-10-25T06:50:40Z</time>
      </trkpt>
      <trkpt lat="47.26199" lon="-1.59226">
        <ele>30.8085747</ele>
        <time>2016-10-25T06:50:42Z</time>
      </trkpt>
      <trkpt lat="47.26199" lon="-1.59229">
        <ele>30.7915993</ele>
        <time>2016-10-25T06:50:44Z</time>
      </trkpt>
      <trkpt lat="47.262" lon="-1.59233">
        <ele>30.7784061</ele>
        <time>2016-10-25T06:50:46Z</time>
      </trkpt>
      <trkpt lat="47.26201" lon="-1.59238">
        <ele>30.7759438</ele>
        <time>2016-10-25T06:50:49Z</time>
      </trkpt>
      <trkpt lat="47.26202" lon="-1.59244">
        <ele>30.7689629</ele>
        <time>2016-10-25T06:50:52Z</time>
      </trkpt>
      <trkpt lat="47.26203" lon="-1.59249">
        <ele>30.7605495</ele>
        <time>2016-10-25T06:50:55Z</time>
      </trkpt>
      <trkpt lat="47.26202" lon="-1.59255">
        <ele>30.7291107</ele>
        <time>2016-10-25T06:50:58Z</time>
      </trkpt>
      <trkpt lat="47.26202" lon="-1.59259">
        <ele>30.6892338</ele>
        <time>2016-10-25T06:51:00Z</time>
      </trkpt>
      <trkpt lat="47.26204" lon="-1.59264">
        <ele>30.6403008</ele>
        <time>2016-10-25T06:51:03Z</time>
      </trkpt>
      <trkpt lat="47.26205" lon="-1.59271">
        <ele>30.5880585</ele>
        <time>2016-10-25T06:51:06Z</time>
      </trkpt>
      <trkpt lat="47.26207" lon="-1.59275">
        <ele>30.5420685</ele>
        <time>2016-10-25T06:51:09Z</time>
      </trkpt>
      <trkpt lat="47.2621" lon="-1.59279">
        <ele>30.5267525</ele>
        <time>2016-10-25T06:51:12Z</time>
      </trkpt>
      <trkpt lat="47.26212" lon="-1.59283">
        <ele>30.5258274</ele>
        <time>2016-10-25T06:51:14Z</time>
      </trkpt>
      <trkpt lat="47.26214" lon="-1.59288">
        <ele>30.5319309</ele>
        <time>2016-10-25T06:51:17Z</time>
      </trkpt>
      <trkpt lat="47.26216" lon="-1.59292">
        <ele>30.5441475</ele>
        <time>2016-10-25T06:51:20Z</time>
      </trkpt>
      <trkpt lat="47.26217" lon="-1.59296">
        <ele>30.5499992</ele>
        <time>2016-10-25T06:51:22Z</time>
      </trkpt>
      <trkpt lat="47.26218" lon="-1.59301">
        <ele>30.535038</ele>
        <time>2016-10-25T06:51:25Z</time>
      </trkpt>
      <trkpt lat="47.2622" lon="-1.59304">
        <ele>30.5206814</ele>
        <time>2016-10-25T06:51:28Z</time>
      </trkpt>
      <trkpt lat="47.26221" lon="-1.59306">
        <ele>30.5098419</ele>
        <time>2016-10-25T06:51:30Z</time>
      </trkpt>
      <trkpt lat="47.26223" lon="-1.59309">
        <ele>30.503067</ele>
        <time>2016-10-25T06:51:33Z</time>
      </trkpt>
      <trkpt lat="47.26223" lon="-1.5931">
        <ele>30.5001774</ele>
        <time>2016-10-25T06:51:35Z</time>
      </trkpt>
      <trkpt lat="47.26224" lon="-1.59309">
        <ele>30.5147667</ele>
        <time>2016-10-25T06:51:38Z</time>
      </trkpt>
      <trkpt lat="47.26224" lon="-1.59311">
        <ele>30.5205021</ele>
        <time>2016-10-25T06:51:45Z</time>
      </trkpt>
      <trkpt lat="47.26224" lon="-1.59313">
        <ele>30.5147152</ele>
        <time>2016-10-25T06:51:47Z</time>
      </trkpt>
      <trkpt lat="47.26226" lon="-1.59313">
        <ele>30.5246792</ele>
        <time>2016-10-25T06:51:57Z</time>
      </trkpt>
      <trkpt lat="47.26227" lon="-1.59316">
        <ele>30.5292511</ele>
        <time>2016-10-25T06:51:59Z</time>
      </trkpt>
      <trkpt lat="47.26229" lon="-1.59321">
        <ele>30.5206566</ele>
        <time>2016-10-25T06:52:02Z</time>
      </trkpt>
      <trkpt lat="47.2623" lon="-1.59324">
        <ele>30.5135555</ele>
        <time>2016-10-25T06:52:04Z</time>
      </trkpt>
      <trkpt lat="47.26233" lon="-1.59328">
        <ele>30.5145473</ele>
        <time>2016-10-25T06:52:07Z</time>
      </trkpt>
      <trkpt lat="47.26235" lon="-1.59334">
        <ele>30.4949131</ele>
        <time>2016-10-25T06:52:10Z</time>
      </trkpt>
      <trkpt lat="47.26238" lon="-1.59337">
        <ele>30.4827824</ele>
        <time>2016-10-25T06:52:13Z</time>
      </trkpt>
      <trkpt lat="47.2624" lon="-1.59341">
        <ele>30.4763279</ele>
        <time>2016-10-25T06:52:16Z</time>
      </trkpt>
      <trkpt lat="47.26242" lon="-1.59345">
        <ele>30.4686031</ele>
        <time>2016-10-25T06:52:19Z</time>
      </trkpt>
      <trkpt lat="47.26243" lon="-1.59348">
        <ele>30.4572964</ele>
        <time>2016-10-25T06:52:21Z</time>
      </trkpt>
      <trkpt lat="47.26246" lon="-1.59353">
        <ele>30.4437923</ele>
        <time>2016-10-25T06:52:24Z</time>
      </trkpt>
      <trkpt lat="47.26248" lon="-1.59358">
        <ele>30.4138889</ele>
        <time>2016-10-25T06:52:27Z</time>
      </trkpt>
      <trkpt lat="47.2625" lon="-1.59362">
        <ele>30.3803291</ele>
        <time>2016-10-25T06:52:30Z</time>
      </trkpt>
      <trkpt lat="47.26251" lon="-1.59365">
        <ele>30.3544006</ele>
        <time>2016-10-25T06:52:32Z</time>
      </trkpt>
      <trkpt lat="47.26253" lon="-1.59369">
        <ele>30.3356743</ele>
        <time>2016-10-25T06:52:35Z</time>
      </trkpt>
      <trkpt lat="47.26255" lon="-1.59371">
        <ele>30.3255615</ele>
        <time>2016-10-25T06:52:37Z</time>
      </trkpt>
      <trkpt lat="47.26256" lon="-1.59374">
        <ele>30.329565</ele>
        <time>2016-10-25T06:52:39Z</time>
      </trkpt>
      <trkpt lat="47.26258" lon="-1.59377">
        <ele>30.3539238</ele>
        <time>2016-10-25T06:52:41Z</time>
      </trkpt>
      <trkpt lat="47.2626" lon="-1.59379">
        <ele>30.3879795</ele>
        <time>2016-10-25T06:52:43Z</time>
      </trkpt>
      <trkpt lat="47.26264" lon="-1.5938">
        <ele>30.4491367</ele>
        <time>2016-10-25T06:52:46Z</time>
      </trkpt>
      <trkpt lat="47.26265" lon="-1.5938">
        <ele>30.5227852</ele>
        <time>2016-10-25T06:52:48Z</time>
      </trkpt>
      <trkpt lat="47.26268" lon="-1.59381">
        <ele>30.6158695</ele>
        <time>2016-10-25T06:52:51Z</time>
      </trkpt>
      <trkpt lat="47.2627" lon="-1.59382">
        <ele>30.7200718</ele>
        <time>2016-10-25T06:52:53Z</time>
      </trkpt>
      <trkpt lat="47.26273" lon="-1.59384">
        <ele>30.8375854</ele>
        <time>2016-10-25T06:52:55Z</time>
      </trkpt>
      <trkpt lat="47.26276" lon="-1.59386">
        <ele>30.9529724</ele>
        <time>2016-10-25T06:52:58Z</time>
      </trkpt>
      <trkpt lat="47.26278" lon="-1.5939">
        <ele>31.0517616</ele>
        <time>2016-10-25T06:53:01Z</time>
      </trkpt>
      <trkpt lat="47.26279" lon="-1.59394">
        <ele>31.1268368</ele>
        <time>2016-10-25T06:53:04Z</time>
      </trkpt>
      <trkpt lat="47.2628" lon="-1.59397">
        <ele>31.1764927</ele>
        <time>2016-10-25T06:53:06Z</time>
      </trkpt>
      <trkpt lat="47.26281" lon="-1.59403">
        <ele>31.1881981</ele>
        <time>2016-10-25T06:53:09Z</time>
      </trkpt>
      <trkpt lat="47.26281" lon="-1.59407">
        <ele>31.162075</ele>
        <time>2016-10-25T06:53:11Z</time>
      </trkpt>
      <trkpt lat="47.26282" lon="-1.59411">
        <ele>31.1225891</ele>
        <time>2016-10-25T06:53:13Z</time>
      </trkpt>
      <trkpt lat="47.26282" lon="-1.59416">
        <ele>31.0725708</ele>
        <time>2016-10-25T06:53:15Z</time>
      </trkpt>
      <trkpt lat="47.26283" lon="-1.59422">
        <ele>31.0002804</ele>
        <time>2016-10-25T06:53:18Z</time>
      </trkpt>
      <trkpt lat="47.26285" lon="-1.59427">
        <ele>30.925869</ele>
        <time>2016-10-25T06:53:21Z</time>
      </trkpt>
      <trkpt lat="47.26286" lon="-1.59431">
        <ele>30.8443718</ele>
        <time>2016-10-25T06:53:23Z</time>
      </trkpt>
      <trkpt lat="47.26288" lon="-1.59436">
        <ele>30.7617226</ele>
        <time>2016-10-25T06:53:26Z</time>
      </trkpt>
      <trkpt lat="47.26291" lon="-1.5944">
        <ele>30.6903896</ele>
        <time>2016-10-25T06:53:29Z</time>
      </trkpt>
      <trkpt lat="47.26292" lon="-1.59445">
        <ele>30.6207314</ele>
        <time>2016-10-25T06:53:32Z</time>
      </trkpt>
      <trkpt lat="47.26293" lon="-1.5945">
        <ele>30.5435524</ele>
        <time>2016-10-25T06:53:35Z</time>
      </trkpt>
      <trkpt lat="47.26294" lon="-1.59452">
        <ele>30.4742889</ele>
        <time>2016-10-25T06:53:37Z</time>
      </trkpt>
      <trkpt lat="47.26295" lon="-1.59453">
        <ele>30.4254398</ele>
        <time>2016-10-25T06:53:39Z</time>
      </trkpt>
      <trkpt lat="47.26298" lon="-1.59456">
        <ele>30.3843021</ele>
        <time>2016-10-25T06:53:42Z</time>
      </trkpt>
      <trkpt lat="47.263" lon="-1.59458">
        <ele>30.3716583</ele>
        <time>2016-10-25T06:53:44Z</time>
      </trkpt>
      <trkpt lat="47.26303" lon="-1.59462">
        <ele>30.3801632</ele>
        <time>2016-10-25T06:53:47Z</time>
      </trkpt>
      <trkpt lat="47.26304" lon="-1.59464">
        <ele>30.3920078</ele>
        <time>2016-10-25T06:53:49Z</time>
      </trkpt>
      <trkpt lat="47.26307" lon="-1.59467">
        <ele>30.3912163</ele>
        <time>2016-10-25T06:53:52Z</time>
      </trkpt>
      <trkpt lat="47.2631" lon="-1.59471">
        <ele>30.3805332</ele>
        <time>2016-10-25T06:53:55Z</time>
      </trkpt>
      <trkpt lat="47.26311" lon="-1.59474">
        <ele>30.3494816</ele>
        <time>2016-10-25T06:53:57Z</time>
      </trkpt>
      <trkpt lat="47.26312" lon="-1.59477">
        <ele>30.3045464</ele>
        <time>2016-10-25T06:53:59Z</time>
      </trkpt>
      <trkpt lat="47.26314" lon="-1.59479">
        <ele>30.26511</ele>
        <time>2016-10-25T06:54:01Z</time>
      </trkpt>
      <trkpt lat="47.26316" lon="-1.59482">
        <ele>30.2275753</ele>
        <time>2016-10-25T06:54:03Z</time>
      </trkpt>
      <trkpt lat="47.26318" lon="-1.59485">
        <ele>30.1756935</ele>
        <time>2016-10-25T06:54:06Z</time>
      </trkpt>
      <trkpt lat="47.26319" lon="-1.59488">
        <ele>30.1293793</ele>
        <time>2016-10-25T06:54:08Z</time>
      </trkpt>
      <trkpt lat="47.26321" lon="-1.59489">
        <ele>30.0959473</ele>
        <time>2016-10-25T06:54:10Z</time>
      </trkpt>
      <trkpt lat="47.26323" lon="-1.59492">
        <ele>30.0533352</ele>
        <time>2016-10-25T06:54:12Z</time>
      </trkpt>
      <trkpt lat="47.26325" lon="-1.59498">
        <ele>29.974926</ele>
        <time>2016-10-25T06:54:15Z</time>
      </trkpt>
      <trkpt lat="47.26328" lon="-1.59504">
        <ele>29.8898373</ele>
        <time>2016-10-25T06:54:18Z</time>
      </trkpt>
      <trkpt lat="47.26331" lon="-1.59507">
        <ele>29.818079</ele>
        <time>2016-10-25T06:54:21Z</time>
      </trkpt>
      <trkpt lat="47.26333" lon="-1.59509">
        <ele>29.7482643</ele>
        <time>2016-10-25T06:54:23Z</time>
      </trkpt>
      <trkpt lat="47.26335" lon="-1.59512">
        <ele>29.6695156</ele>
        <time>2016-10-25T06:54:26Z</time>
      </trkpt>
      <trkpt lat="47.26337" lon="-1.59517">
        <ele>29.6042061</ele>
        <time>2016-10-25T06:54:29Z</time>
      </trkpt>
      <trkpt lat="47.26339" lon="-1.59519">
        <ele>29.5523415</ele>
        <time>2016-10-25T06:54:31Z</time>
      </trkpt>
      <trkpt lat="47.26342" lon="-1.59524">
        <ele>29.4701881</ele>
        <time>2016-10-25T06:54:34Z</time>
      </trkpt>
      <trkpt lat="47.26344" lon="-1.59529">
        <ele>29.3630486</ele>
        <time>2016-10-25T06:54:37Z</time>
      </trkpt>
      <trkpt lat="47.26345" lon="-1.59532">
        <ele>29.2547646</ele>
        <time>2016-10-25T06:54:39Z</time>
      </trkpt>
      <trkpt lat="47.26345" lon="-1.59535">
        <ele>29.1553707</ele>
        <time>2016-10-25T06:54:41Z</time>
      </trkpt>
      <trkpt lat="47.26347" lon="-1.59538">
        <ele>29.0547142</ele>
        <time>2016-10-25T06:54:43Z</time>
      </trkpt>
      <trkpt lat="47.26348" lon="-1.59542">
        <ele>28.956707</ele>
        <time>2016-10-25T06:54:46Z</time>
      </trkpt>
      <trkpt lat="47.26348" lon="-1.59547">
        <ele>28.8459816</ele>
        <time>2016-10-25T06:54:49Z</time>
      </trkpt>
      <trkpt lat="47.26347" lon="-1.5955">
        <ele>28.7300224</ele>
        <time>2016-10-25T06:54:51Z</time>
      </trkpt>
      <trkpt lat="47.26347" lon="-1.59552">
        <ele>28.6182499</ele>
        <time>2016-10-25T06:54:53Z</time>
      </trkpt>
      <trkpt lat="47.26348" lon="-1.59555">
        <ele>28.5047569</ele>
        <time>2016-10-25T06:54:55Z</time>
      </trkpt>
      <trkpt lat="47.26353" lon="-1.5956">
        <ele>28.3954926</ele>
        <time>2016-10-25T06:54:58Z</time>
      </trkpt>
      <trkpt lat="47.26357" lon="-1.59567">
        <ele>28.2971287</ele>
        <time>2016-10-25T06:55:01Z</time>
      </trkpt>
      <trkpt lat="47.26358" lon="-1.59572">
        <ele>28.1958733</ele>
        <time>2016-10-25T06:55:04Z</time>
      </trkpt>
      <trkpt lat="47.2636" lon="-1.59577">
        <ele>28.0834923</ele>
        <time>2016-10-25T06:55:07Z</time>
      </trkpt>
      <trkpt lat="47.26364" lon="-1.5958">
        <ele>27.9883785</ele>
        <time>2016-10-25T06:55:10Z</time>
      </trkpt>
      <trkpt lat="47.26366" lon="-1.59582">
        <ele>27.9084225</ele>
        <time>2016-10-25T06:55:12Z</time>
      </trkpt>
      <trkpt lat="47.26371" lon="-1.59586">
        <ele>27.8433685</ele>
        <time>2016-10-25T06:55:15Z</time>
      </trkpt>
      <trkpt lat="47.26374" lon="-1.59588">
        <ele>27.8065434</ele>
        <time>2016-10-25T06:55:17Z</time>
      </trkpt>
      <trkpt lat="47.26376" lon="-1.59591">
        <ele>27.7703133</ele>
        <time>2016-10-25T06:55:20Z</time>
      </trkpt>
      <trkpt lat="47.26377" lon="-1.59596">
        <ele>27.6884403</ele>
        <time>2016-10-25T06:55:23Z</time>
      </trkpt>
      <trkpt lat="47.26379" lon="-1.59601">
        <ele>27.572998</ele>
        <time>2016-10-25T06:55:26Z</time>
      </trkpt>
      <trkpt lat="47.2638" lon="-1.59605">
        <ele>27.435791</ele>
        <time>2016-10-25T06:55:29Z</time>
      </trkpt>
      <trkpt lat="47.26383" lon="-1.59609">
        <ele>27.2753906</ele>
        <time>2016-10-25T06:55:32Z</time>
      </trkpt>
      <trkpt lat="47.26386" lon="-1.59612">
        <ele>27.1208496</ele>
        <time>2016-10-25T06:55:35Z</time>
      </trkpt>
      <trkpt lat="47.26389" lon="-1.59615">
        <ele>26.9906006</ele>
        <time>2016-10-25T06:55:37Z</time>
      </trkpt>
      <trkpt lat="47.26391" lon="-1.59618">
        <ele>26.880127</ele>
        <time>2016-10-25T06:55:39Z</time>
      </trkpt>
      <trkpt lat="47.26393" lon="-1.59621">
        <ele>26.7895508</ele>
        <time>2016-10-25T06:55:41Z</time>
      </trkpt>
      <trkpt lat="47.26395" lon="-1.59624">
        <ele>26.7022705</ele>
        <time>2016-10-25T06:55:43Z</time>
      </trkpt>
      <trkpt lat="47.26397" lon="-1.59628">
        <ele>26.5996094</ele>
        <time>2016-10-25T06:55:46Z</time>
      </trkpt>
      <trkpt lat="47.26399" lon="-1.59632">
        <ele>26.4943848</ele>
        <time>2016-10-25T06:55:48Z</time>
      </trkpt>
      <trkpt lat="47.26401" lon="-1.59636">
        <ele>26.3737793</ele>
        <time>2016-10-25T06:55:51Z</time>
      </trkpt>
      <trkpt lat="47.26403" lon="-1.5964">
        <ele>26.2420654</ele>
        <time>2016-10-25T06:55:54Z</time>
      </trkpt>
      <trkpt lat="47.26405" lon="-1.59643">
        <ele>26.1096191</ele>
        <time>2016-10-25T06:55:56Z</time>
      </trkpt>
      <trkpt lat="47.26407" lon="-1.59646">
        <ele>25.9875488</ele>
        <time>2016-10-25T06:55:59Z</time>
      </trkpt>
      <trkpt lat="47.26409" lon="-1.5965">
        <ele>25.8609619</ele>
        <time>2016-10-25T06:56:02Z</time>
      </trkpt>
      <trkpt lat="47.26411" lon="-1.59654">
        <ele>25.741333</ele>
        <time>2016-10-25T06:56:05Z</time>
      </trkpt>
      <trkpt lat="47.26412" lon="-1.59656">
        <ele>25.630127</ele>
        <time>2016-10-25T06:56:07Z</time>
      </trkpt>
      <trkpt lat="47.26413" lon="-1.59659">
        <ele>25.5175781</ele>
        <time>2016-10-25T06:56:09Z</time>
      </trkpt>
      <trkpt lat="47.26415" lon="-1.59663">
        <ele>25.3931885</ele>
        <time>2016-10-25T06:56:12Z</time>
      </trkpt>
      <trkpt lat="47.26416" lon="-1.59666">
        <ele>25.2718506</ele>
        <time>2016-10-25T06:56:14Z</time>
      </trkpt>
      <trkpt lat="47.26417" lon="-1.59669">
        <ele>25.1947365</ele>
        <time>2016-10-25T06:56:16Z</time>
      </trkpt>
      <trkpt lat="47.26417" lon="-1.59673">
        <ele>25.1512127</ele>
        <time>2016-10-25T06:56:18Z</time>
      </trkpt>
      <trkpt lat="47.26418" lon="-1.59679">
        <ele>25.1685581</ele>
        <time>2016-10-25T06:56:21Z</time>
      </trkpt>
      <trkpt lat="47.26419" lon="-1.59682">
        <ele>25.246769</ele>
        <time>2016-10-25T06:56:23Z</time>
      </trkpt>
      <trkpt lat="47.26419" lon="-1.59686">
        <ele>25.3714752</ele>
        <time>2016-10-25T06:56:26Z</time>
      </trkpt>
      <trkpt lat="47.26421" lon="-1.59689">
        <ele>25.5124569</ele>
        <time>2016-10-25T06:56:29Z</time>
      </trkpt>
      <trkpt lat="47.26421" lon="-1.59693">
        <ele>25.6585941</ele>
        <time>2016-10-25T06:56:32Z</time>
      </trkpt>
      <trkpt lat="47.26424" lon="-1.59696">
        <ele>25.8109226</ele>
        <time>2016-10-25T06:56:35Z</time>
      </trkpt>
      <trkpt lat="47.26426" lon="-1.59699">
        <ele>25.9772606</ele>
        <time>2016-10-25T06:56:37Z</time>
      </trkpt>
      <trkpt lat="47.2643" lon="-1.59704">
        <ele>26.1829338</ele>
        <time>2016-10-25T06:56:40Z</time>
      </trkpt>
      <trkpt lat="47.26432" lon="-1.59708">
        <ele>26.386404</ele>
        <time>2016-10-25T06:56:42Z</time>
      </trkpt>
      <trkpt lat="47.26436" lon="-1.59714">
        <ele>26.6214752</ele>
        <time>2016-10-25T06:56:45Z</time>
      </trkpt>
      <trkpt lat="47.26442" lon="-1.59712">
        <ele>26.8654442</ele>
        <time>2016-10-25T06:56:48Z</time>
      </trkpt>
      <trkpt lat="47.26445" lon="-1.59709">
        <ele>27.1048088</ele>
        <time>2016-10-25T06:56:50Z</time>
      </trkpt>
      <trkpt lat="47.26451" lon="-1.59705">
        <ele>27.3379478</ele>
        <time>2016-10-25T06:56:53Z</time>
      </trkpt>
      <trkpt lat="47.26456" lon="-1.59702">
        <ele>27.5999546</ele>
        <time>2016-10-25T06:56:56Z</time>
      </trkpt>
      <trkpt lat="47.26458" lon="-1.597">
        <ele>27.8400688</ele>
        <time>2016-10-25T06:56:58Z</time>
      </trkpt>
      <trkpt lat="47.2646" lon="-1.59698">
        <ele>28.0529823</ele>
        <time>2016-10-25T06:57:00Z</time>
      </trkpt>
      <trkpt lat="47.26463" lon="-1.59696">
        <ele>28.2636776</ele>
        <time>2016-10-25T06:57:03Z</time>
      </trkpt>
      <trkpt lat="47.26465" lon="-1.59697">
        <ele>28.446207</ele>
        <time>2016-10-25T06:57:05Z</time>
      </trkpt>
      <trkpt lat="47.26468" lon="-1.597">
        <ele>28.593708</ele>
        <time>2016-10-25T06:57:08Z</time>
      </trkpt>
      <trkpt lat="47.26471" lon="-1.59702">
        <ele>28.7376823</ele>
        <time>2016-10-25T06:57:10Z</time>
      </trkpt>
      <trkpt lat="47.26473" lon="-1.59703">
        <ele>28.8761902</ele>
        <time>2016-10-25T06:57:12Z</time>
      </trkpt>
      <trkpt lat="47.26476" lon="-1.59703">
        <ele>29.0186558</ele>
        <time>2016-10-25T06:57:15Z</time>
      </trkpt>
      <trkpt lat="47.26479" lon="-1.59703">
        <ele>29.1668301</ele>
        <time>2016-10-25T06:57:18Z</time>
      </trkpt>
      <trkpt lat="47.26481" lon="-1.59702">
        <ele>29.3124237</ele>
        <time>2016-10-25T06:57:20Z</time>
      </trkpt>
      <trkpt lat="47.26484" lon="-1.59697">
        <ele>29.4869022</ele>
        <time>2016-10-25T06:57:23Z</time>
      </trkpt>
      <trkpt lat="47.26487" lon="-1.59694">
        <ele>29.6888428</ele>
        <time>2016-10-25T06:57:26Z</time>
      </trkpt>
      <trkpt lat="47.26488" lon="-1.59692">
        <ele>29.8877659</ele>
        <time>2016-10-25T06:57:29Z</time>
      </trkpt>
      <trkpt lat="47.2649" lon="-1.5969">
        <ele>30.0961723</ele>
        <time>2016-10-25T06:57:32Z</time>
      </trkpt>
      <trkpt lat="47.26492" lon="-1.5969">
        <ele>30.3002052</ele>
        <time>2016-10-25T06:57:34Z</time>
      </trkpt>
      <trkpt lat="47.26494" lon="-1.59689">
        <ele>30.4754753</ele>
        <time>2016-10-25T06:57:37Z</time>
      </trkpt>
      <trkpt lat="47.26497" lon="-1.59689">
        <ele>30.6426277</ele>
        <time>2016-10-25T06:57:40Z</time>
      </trkpt>
      <trkpt lat="47.265" lon="-1.59689">
        <ele>30.8099155</ele>
        <time>2016-10-25T06:57:43Z</time>
      </trkpt>
      <trkpt lat="47.26502" lon="-1.59691">
        <ele>30.9582672</ele>
        <time>2016-10-25T06:57:46Z</time>
      </trkpt>
      <trkpt lat="47.26504" lon="-1.59692">
        <ele>31.1053925</ele>
        <time>2016-10-25T06:57:49Z</time>
      </trkpt>
      <trkpt lat="47.26505" lon="-1.59695">
        <ele>31.2165375</ele>
        <time>2016-10-25T06:57:52Z</time>
      </trkpt>
      <trkpt lat="47.26508" lon="-1.59698">
        <ele>31.303339</ele>
        <time>2016-10-25T06:57:55Z</time>
      </trkpt>
      <trkpt lat="47.2651" lon="-1.59701">
        <ele>31.3664856</ele>
        <time>2016-10-25T06:57:58Z</time>
      </trkpt>
      <trkpt lat="47.26511" lon="-1.59703">
        <ele>31.4092007</ele>
        <time>2016-10-25T06:58:00Z</time>
      </trkpt>
      <trkpt lat="47.26514" lon="-1.59706">
        <ele>31.4461613</ele>
        <time>2016-10-25T06:58:03Z</time>
      </trkpt>
      <trkpt lat="47.26515" lon="-1.59709">
        <ele>31.4986305</ele>
        <time>2016-10-25T06:58:05Z</time>
      </trkpt>
      <trkpt lat="47.26517" lon="-1.59714">
        <ele>31.5234184</ele>
        <time>2016-10-25T06:58:08Z</time>
      </trkpt>
      <trkpt lat="47.26519" lon="-1.5972">
        <ele>31.5295963</ele>
        <time>2016-10-25T06:58:11Z</time>
      </trkpt>
      <trkpt lat="47.2652" lon="-1.59722">
        <ele>31.5366249</ele>
        <time>2016-10-25T06:58:13Z</time>
      </trkpt>
      <trkpt lat="47.26523" lon="-1.59724">
        <ele>31.5675926</ele>
        <time>2016-10-25T06:58:16Z</time>
      </trkpt>
      <trkpt lat="47.26526" lon="-1.59725">
        <ele>31.6316738</ele>
        <time>2016-10-25T06:58:19Z</time>
      </trkpt>
      <trkpt lat="47.26528" lon="-1.59726">
        <ele>31.7358456</ele>
        <time>2016-10-25T06:58:21Z</time>
      </trkpt>
      <trkpt lat="47.26532" lon="-1.59726">
        <ele>31.8990269</ele>
        <time>2016-10-25T06:58:24Z</time>
      </trkpt>
      <trkpt lat="47.26533" lon="-1.59724">
        <ele>32.0895119</ele>
        <time>2016-10-25T06:58:26Z</time>
      </trkpt>
      <trkpt lat="47.26534" lon="-1.59723">
        <ele>32.2688065</ele>
        <time>2016-10-25T06:58:28Z</time>
      </trkpt>
      <trkpt lat="47.26537" lon="-1.5972">
        <ele>32.4592552</ele>
        <time>2016-10-25T06:58:31Z</time>
      </trkpt>
      <trkpt lat="47.26541" lon="-1.59721">
        <ele>32.6775017</ele>
        <time>2016-10-25T06:58:34Z</time>
      </trkpt>
      <trkpt lat="47.26543" lon="-1.59725">
        <ele>32.856739</ele>
        <time>2016-10-25T06:58:37Z</time>
      </trkpt>
      <trkpt lat="47.26546" lon="-1.59728">
        <ele>33.0373459</ele>
        <time>2016-10-25T06:58:40Z</time>
      </trkpt>
      <trkpt lat="47.26548" lon="-1.59731">
        <ele>33.2069626</ele>
        <time>2016-10-25T06:58:42Z</time>
      </trkpt>
      <trkpt lat="47.26551" lon="-1.59734">
        <ele>33.3548813</ele>
        <time>2016-10-25T06:58:45Z</time>
      </trkpt>
      <trkpt lat="47.26553" lon="-1.59737">
        <ele>33.4805832</ele>
        <time>2016-10-25T06:58:47Z</time>
      </trkpt>
      <trkpt lat="47.26555" lon="-1.59738">
        <ele>33.6142349</ele>
        <time>2016-10-25T06:58:49Z</time>
      </trkpt>
      <trkpt lat="47.26558" lon="-1.59738">
        <ele>33.7684937</ele>
        <time>2016-10-25T06:58:51Z</time>
      </trkpt>
      <trkpt lat="47.26562" lon="-1.59736">
        <ele>33.9732132</ele>
        <time>2016-10-25T06:58:54Z</time>
      </trkpt>
      <trkpt lat="47.26564" lon="-1.59735">
        <ele>34.1886368</ele>
        <time>2016-10-25T06:58:56Z</time>
      </trkpt>
      <trkpt lat="47.26567" lon="-1.59735">
        <ele>34.4023018</ele>
        <time>2016-10-25T06:58:58Z</time>
      </trkpt>
      <trkpt lat="47.26569" lon="-1.59734">
        <ele>34.6439133</ele>
        <time>2016-10-25T06:59:00Z</time>
      </trkpt>
      <trkpt lat="47.26574" lon="-1.59733">
        <ele>34.898159</ele>
        <time>2016-10-25T06:59:03Z</time>
      </trkpt>
      <trkpt lat="47.26578" lon="-1.59733">
        <ele>35.1591454</ele>
        <time>2016-10-25T06:59:06Z</time>
      </trkpt>
      <trkpt lat="47.26581" lon="-1.59735">
        <ele>35.4210625</ele>
        <time>2016-10-25T06:59:09Z</time>
      </trkpt>
      <trkpt lat="47.26584" lon="-1.59738">
        <ele>35.6904984</ele>
        <time>2016-10-25T06:59:12Z</time>
      </trkpt>
      <trkpt lat="47.26589" lon="-1.59739">
        <ele>35.9687576</ele>
        <time>2016-10-25T06:59:15Z</time>
      </trkpt>
      <trkpt lat="47.26591" lon="-1.59738">
        <ele>36.2114182</ele>
        <time>2016-10-25T06:59:17Z</time>
      </trkpt>
      <trkpt lat="47.26595" lon="-1.59735">
        <ele>36.4367981</ele>
        <time>2016-10-25T06:59:20Z</time>
      </trkpt>
      <trkpt lat="47.26598" lon="-1.59734">
        <ele>36.6533508</ele>
        <time>2016-10-25T06:59:22Z</time>
      </trkpt>
      <trkpt lat="47.26602" lon="-1.59733">
        <ele>36.8804626</ele>
        <time>2016-10-25T06:59:25Z</time>
      </trkpt>
      <trkpt lat="47.26605" lon="-1.59732">
        <ele>37.0910034</ele>
        <time>2016-10-25T06:59:28Z</time>
      </trkpt>
      <trkpt lat="47.26607" lon="-1.59733">
        <ele>37.2927246</ele>
        <time>2016-10-25T06:59:30Z</time>
      </trkpt>
      <trkpt lat="47.2661" lon="-1.59733">
        <ele>37.4739685</ele>
        <time>2016-10-25T06:59:33Z</time>
      </trkpt>
      <trkpt lat="47.26614" lon="-1.59733">
        <ele>37.6664734</ele>
        <time>2016-10-25T06:59:36Z</time>
      </trkpt>
      <trkpt lat="47.26616" lon="-1.59737">
        <ele>37.8277893</ele>
        <time>2016-10-25T06:59:39Z</time>
      </trkpt>
      <trkpt lat="47.26617" lon="-1.59742">
        <ele>37.9466858</ele>
        <time>2016-10-25T06:59:42Z</time>
      </trkpt>
      <trkpt lat="47.26618" lon="-1.59745">
        <ele>38.0435486</ele>
        <time>2016-10-25T06:59:44Z</time>
      </trkpt>
      <trkpt lat="47.26619" lon="-1.59751">
        <ele>38.1107407</ele>
        <time>2016-10-25T06:59:47Z</time>
      </trkpt>
      <trkpt lat="47.2662" lon="-1.59755">
        <ele>38.1545029</ele>
        <time>2016-10-25T06:59:50Z</time>
      </trkpt>
      <trkpt lat="47.26621" lon="-1.5976">
        <ele>38.1947517</ele>
        <time>2016-10-25T06:59:53Z</time>
      </trkpt>
      <trkpt lat="47.26622" lon="-1.59763">
        <ele>38.2460709</ele>
        <time>2016-10-25T06:59:55Z</time>
      </trkpt>
      <trkpt lat="47.26623" lon="-1.59768">
        <ele>38.3170242</ele>
        <time>2016-10-25T06:59:58Z</time>
      </trkpt>
      <trkpt lat="47.26624" lon="-1.59771">
        <ele>38.3965874</ele>
        <time>2016-10-25T07:00:00Z</time>
      </trkpt>
      <trkpt lat="47.26625" lon="-1.59777">
        <ele>38.4813194</ele>
        <time>2016-10-25T07:00:03Z</time>
      </trkpt>
      <trkpt lat="47.26627" lon="-1.59781">
        <ele>38.5716019</ele>
        <time>2016-10-25T07:00:05Z</time>
      </trkpt>
      <trkpt lat="47.26627" lon="-1.59786">
        <ele>38.659687</ele>
        <time>2016-10-25T07:00:08Z</time>
      </trkpt>
      <trkpt lat="47.26626" lon="-1.59792">
        <ele>38.7245407</ele>
        <time>2016-10-25T07:00:10Z</time>
      </trkpt>
      <trkpt lat="47.26626" lon="-1.59797">
        <ele>38.7818069</ele>
        <time>2016-10-25T07:00:12Z</time>
      </trkpt>
      <trkpt lat="47.26628" lon="-1.59802">
        <ele>38.8409386</ele>
        <time>2016-10-25T07:00:15Z</time>
      </trkpt>
      <trkpt lat="47.26631" lon="-1.59806">
        <ele>38.9125404</ele>
        <time>2016-10-25T07:00:18Z</time>
      </trkpt>
      <trkpt lat="47.26632" lon="-1.5981">
        <ele>38.9942551</ele>
        <time>2016-10-25T07:00:20Z</time>
      </trkpt>
      <trkpt lat="47.26633" lon="-1.59815">
        <ele>39.091301</ele>
        <time>2016-10-25T07:00:22Z</time>
      </trkpt>
      <trkpt lat="47.26635" lon="-1.5982">
        <ele>39.2081909</ele>
        <time>2016-10-25T07:00:25Z</time>
      </trkpt>
      <trkpt lat="47.26637" lon="-1.59826">
        <ele>39.3226547</ele>
        <time>2016-10-25T07:00:28Z</time>
      </trkpt>
      <trkpt lat="47.26638" lon="-1.59828">
        <ele>39.4164925</ele>
        <time>2016-10-25T07:00:30Z</time>
      </trkpt>
      <trkpt lat="47.26641" lon="-1.59832">
        <ele>39.5203629</ele>
        <time>2016-10-25T07:00:33Z</time>
      </trkpt>
      <trkpt lat="47.26642" lon="-1.59835">
        <ele>39.6334</ele>
        <time>2016-10-25T07:00:35Z</time>
      </trkpt>
      <trkpt lat="47.26643" lon="-1.59838">
        <ele>39.7425346</ele>
        <time>2016-10-25T07:00:37Z</time>
      </trkpt>
      <trkpt lat="47.26644" lon="-1.59843">
        <ele>39.8476219</ele>
        <time>2016-10-25T07:00:40Z</time>
      </trkpt>
      <trkpt lat="47.26644" lon="-1.59846">
        <ele>39.9490318</ele>
        <time>2016-10-25T07:00:43Z</time>
      </trkpt>
      <trkpt lat="47.26645" lon="-1.5985">
        <ele>40.0409889</ele>
        <time>2016-10-25T07:00:46Z</time>
      </trkpt>
      <trkpt lat="47.26646" lon="-1.59853">
        <ele>40.1341133</ele>
        <time>2016-10-25T07:00:49Z</time>
      </trkpt>
      <trkpt lat="47.26649" lon="-1.59856">
        <ele>40.2408066</ele>
        <time>2016-10-25T07:00:52Z</time>
      </trkpt>
      <trkpt lat="47.26652" lon="-1.59856">
        <ele>40.3501358</ele>
        <time>2016-10-25T07:00:54Z</time>
      </trkpt>
      <trkpt lat="47.26656" lon="-1.59853">
        <ele>40.4791679</ele>
        <time>2016-10-25T07:00:57Z</time>
      </trkpt>
      <trkpt lat="47.26661" lon="-1.59852">
        <ele>40.6272964</ele>
        <time>2016-10-25T07:01:00Z</time>
      </trkpt>
      <trkpt lat="47.26663" lon="-1.59851">
        <ele>40.7767181</ele>
        <time>2016-10-25T07:01:02Z</time>
      </trkpt>
      <trkpt lat="47.26666" lon="-1.59852">
        <ele>40.9103928</ele>
        <time>2016-10-25T07:01:04Z</time>
      </trkpt>
      <trkpt lat="47.26669" lon="-1.59852">
        <ele>41.0577545</ele>
        <time>2016-10-25T07:01:06Z</time>
      </trkpt>
      <trkpt lat="47.26674" lon="-1.59853">
        <ele>41.2360458</ele>
        <time>2016-10-25T07:01:09Z</time>
      </trkpt>
      <trkpt lat="47.26677" lon="-1.59854">
        <ele>41.4240036</ele>
        <time>2016-10-25T07:01:11Z</time>
      </trkpt>
      <trkpt lat="47.26679" lon="-1.59856">
        <ele>41.6137199</ele>
        <time>2016-10-25T07:01:13Z</time>
      </trkpt>
      <trkpt lat="47.26682" lon="-1.59859">
        <ele>41.8195572</ele>
        <time>2016-10-25T07:01:15Z</time>
      </trkpt>
      <trkpt lat="47.26685" lon="-1.59861">
        <ele>42.0213661</ele>
        <time>2016-10-25T07:01:17Z</time>
      </trkpt>
      <trkpt lat="47.26687" lon="-1.59862">
        <ele>42.1894531</ele>
        <time>2016-10-25T07:01:20Z</time>
      </trkpt>
      <trkpt lat="47.26688" lon="-1.5986">
        <ele>42.3207474</ele>
        <time>2016-10-25T07:01:22Z</time>
      </trkpt>
      <trkpt lat="47.2669" lon="-1.59855">
        <ele>42.4458046</ele>
        <time>2016-10-25T07:01:25Z</time>
      </trkpt>
      <trkpt lat="47.26691" lon="-1.59852">
        <ele>42.5510941</ele>
        <time>2016-10-25T07:01:27Z</time>
      </trkpt>
      <trkpt lat="47.26693" lon="-1.59848">
        <ele>42.6559334</ele>
        <time>2016-10-25T07:01:30Z</time>
      </trkpt>
      <trkpt lat="47.26696" lon="-1.59842">
        <ele>42.7698746</ele>
        <time>2016-10-25T07:01:33Z</time>
      </trkpt>
      <trkpt lat="47.26698" lon="-1.5984">
        <ele>42.8992729</ele>
        <time>2016-10-25T07:01:35Z</time>
      </trkpt>
      <trkpt lat="47.26699" lon="-1.59836">
        <ele>43.0364876</ele>
        <time>2016-10-25T07:01:38Z</time>
      </trkpt>
      <trkpt lat="47.26701" lon="-1.59834">
        <ele>43.1783295</ele>
        <time>2016-10-25T07:01:40Z</time>
      </trkpt>
      <trkpt lat="47.26704" lon="-1.5983">
        <ele>43.3489075</ele>
        <time>2016-10-25T07:01:43Z</time>
      </trkpt>
      <trkpt lat="47.26706" lon="-1.59828">
        <ele>43.5111542</ele>
        <time>2016-10-25T07:01:45Z</time>
      </trkpt>
      <trkpt lat="47.26708" lon="-1.59825">
        <ele>43.6844864</ele>
        <time>2016-10-25T07:01:47Z</time>
      </trkpt>
      <trkpt lat="47.2671" lon="-1.59821">
        <ele>43.875824</ele>
        <time>2016-10-25T07:01:50Z</time>
      </trkpt>
      <trkpt lat="47.26712" lon="-1.59819">
        <ele>44.0835266</ele>
        <time>2016-10-25T07:01:53Z</time>
      </trkpt>
      <trkpt lat="47.26715" lon="-1.59814">
        <ele>44.2928467</ele>
        <time>2016-10-25T07:01:56Z</time>
      </trkpt>
      <trkpt lat="47.26719" lon="-1.59811">
        <ele>44.5345078</ele>
        <time>2016-10-25T07:01:59Z</time>
      </trkpt>
      <trkpt lat="47.26722" lon="-1.59807">
        <ele>44.8036499</ele>
        <time>2016-10-25T07:02:02Z</time>
      </trkpt>
      <trkpt lat="47.26725" lon="-1.59804">
        <ele>45.0768814</ele>
        <time>2016-10-25T07:02:05Z</time>
      </trkpt>
      <trkpt lat="47.26727" lon="-1.598">
        <ele>45.3723068</ele>
        <time>2016-10-25T07:02:08Z</time>
      </trkpt>
      <trkpt lat="47.2673" lon="-1.59798">
        <ele>45.6527939</ele>
        <time>2016-10-25T07:02:11Z</time>
      </trkpt>
      <trkpt lat="47.26732" lon="-1.59795">
        <ele>45.9096375</ele>
        <time>2016-10-25T07:02:14Z</time>
      </trkpt>
      <trkpt lat="47.26733" lon="-1.59793">
        <ele>46.1392288</ele>
        <time>2016-10-25T07:02:16Z</time>
      </trkpt>
      <trkpt lat="47.26734" lon="-1.59787">
        <ele>46.3538628</ele>
        <time>2016-10-25T07:02:19Z</time>
      </trkpt>
      <trkpt lat="47.26733" lon="-1.59782">
        <ele>46.5088348</ele>
        <time>2016-10-25T07:02:22Z</time>
      </trkpt>
      <trkpt lat="47.26731" lon="-1.59778">
        <ele>46.6011887</ele>
        <time>2016-10-25T07:02:25Z</time>
      </trkpt>
      <trkpt lat="47.26733" lon="-1.59776">
        <ele>46.700386</ele>
        <time>2016-10-25T07:02:28Z</time>
      </trkpt>
      <trkpt lat="47.26735" lon="-1.59775">
        <ele>46.804924</ele>
        <time>2016-10-25T07:02:30Z</time>
      </trkpt>
      <trkpt lat="47.26737" lon="-1.59774">
        <ele>46.9149666</ele>
        <time>2016-10-25T07:02:32Z</time>
      </trkpt>
      <trkpt lat="47.26741" lon="-1.59773">
        <ele>47.0967903</ele>
        <time>2016-10-25T07:02:35Z</time>
      </trkpt>
      <trkpt lat="47.26743" lon="-1.59772">
        <ele>47.3252029</ele>
        <time>2016-10-25T07:02:37Z</time>
      </trkpt>
      <trkpt lat="47.26745" lon="-1.59771">
        <ele>47.564846</ele>
        <time>2016-10-25T07:02:40Z</time>
      </trkpt>
      <trkpt lat="47.26748" lon="-1.59771">
        <ele>47.8233871</ele>
        <time>2016-10-25T07:02:43Z</time>
      </trkpt>
      <trkpt lat="47.26751" lon="-1.59771">
        <ele>48.0714989</ele>
        <time>2016-10-25T07:02:45Z</time>
      </trkpt>
      <trkpt lat="47.26752" lon="-1.5977">
        <ele>48.2555313</ele>
        <time>2016-10-25T07:02:47Z</time>
      </trkpt>
      <trkpt lat="47.26756" lon="-1.59771">
        <ele>48.4150734</ele>
        <time>2016-10-25T07:02:50Z</time>
      </trkpt>
      <trkpt lat="47.26758" lon="-1.59771">
        <ele>48.5259171</ele>
        <time>2016-10-25T07:02:52Z</time>
      </trkpt>
      <trkpt lat="47.26761" lon="-1.5977">
        <ele>48.5886269</ele>
        <time>2016-10-25T07:02:55Z</time>
      </trkpt>
      <trkpt lat="47.26764" lon="-1.5977">
        <ele>48.6321373</ele>
        <time>2016-10-25T07:02:57Z</time>
      </trkpt>
      <trkpt lat="47.26767" lon="-1.59769">
        <ele>48.6791878</ele>
        <time>2016-10-25T07:03:00Z</time>
      </trkpt>
      <trkpt lat="47.2677" lon="-1.59769">
        <ele>48.7275696</ele>
        <time>2016-10-25T07:03:03Z</time>
      </trkpt>
      <trkpt lat="47.26773" lon="-1.59769">
        <ele>48.7820358</ele>
        <time>2016-10-25T07:03:06Z</time>
      </trkpt>
      <trkpt lat="47.26776" lon="-1.59768">
        <ele>48.8377762</ele>
        <time>2016-10-25T07:03:09Z</time>
      </trkpt>
      <trkpt lat="47.26777" lon="-1.59767">
        <ele>48.8888245</ele>
        <time>2016-10-25T07:03:11Z</time>
      </trkpt>
      <trkpt lat="47.26779" lon="-1.59767">
        <ele>48.9349136</ele>
        <time>2016-10-25T07:03:13Z</time>
      </trkpt>
      <trkpt lat="47.26781" lon="-1.59768">
        <ele>48.9717941</ele>
        <time>2016-10-25T07:03:16Z</time>
      </trkpt>
      <trkpt lat="47.26782" lon="-1.59771">
        <ele>48.9896774</ele>
        <time>2016-10-25T07:03:19Z</time>
      </trkpt>
      <trkpt lat="47.26783" lon="-1.59773">
        <ele>48.9867172</ele>
        <time>2016-10-25T07:03:21Z</time>
      </trkpt>
      <trkpt lat="47.26784" lon="-1.59777">
        <ele>48.967144</ele>
        <time>2016-10-25T07:03:24Z</time>
      </trkpt>
      <trkpt lat="47.26785" lon="-1.59782">
        <ele>48.9248962</ele>
        <time>2016-10-25T07:03:27Z</time>
      </trkpt>
      <trkpt lat="47.26786" lon="-1.59785">
        <ele>48.8788033</ele>
        <time>2016-10-25T07:03:29Z</time>
      </trkpt>
      <trkpt lat="47.26789" lon="-1.59787">
        <ele>48.8407974</ele>
        <time>2016-10-25T07:03:31Z</time>
      </trkpt>
      <trkpt lat="47.2679" lon="-1.59788">
        <ele>48.8115807</ele>
        <time>2016-10-25T07:03:33Z</time>
      </trkpt>
      <trkpt lat="47.26792" lon="-1.59789">
        <ele>48.7923927</ele>
        <time>2016-10-25T07:03:35Z</time>
      </trkpt>
      <trkpt lat="47.26794" lon="-1.59791">
        <ele>48.7896614</ele>
        <time>2016-10-25T07:03:37Z</time>
      </trkpt>
      <trkpt lat="47.26797" lon="-1.59793">
        <ele>48.7985306</ele>
        <time>2016-10-25T07:03:40Z</time>
      </trkpt>
      <trkpt lat="47.26799" lon="-1.59794">
        <ele>48.8107758</ele>
        <time>2016-10-25T07:03:42Z</time>
      </trkpt>
      <trkpt lat="47.26801" lon="-1.59794">
        <ele>48.8258705</ele>
        <time>2016-10-25T07:03:44Z</time>
      </trkpt>
      <trkpt lat="47.26802" lon="-1.59796">
        <ele>48.8422165</ele>
        <time>2016-10-25T07:03:47Z</time>
      </trkpt>
      <trkpt lat="47.26804" lon="-1.598">
        <ele>48.849678</ele>
        <time>2016-10-25T07:03:50Z</time>
      </trkpt>
      <trkpt lat="47.26806" lon="-1.59805">
        <ele>48.843071</ele>
        <time>2016-10-25T07:03:52Z</time>
      </trkpt>
      <trkpt lat="47.26808" lon="-1.59811">
        <ele>48.8222237</ele>
        <time>2016-10-25T07:03:55Z</time>
      </trkpt>
      <trkpt lat="47.2681" lon="-1.59815">
        <ele>48.7904549</ele>
        <time>2016-10-25T07:03:58Z</time>
      </trkpt>
      <trkpt lat="47.26811" lon="-1.59818">
        <ele>48.7557373</ele>
        <time>2016-10-25T07:04:00Z</time>
      </trkpt>
      <trkpt lat="47.26813" lon="-1.59822">
        <ele>48.7260895</ele>
        <time>2016-10-25T07:04:03Z</time>
      </trkpt>
      <trkpt lat="47.26814" lon="-1.59825">
        <ele>48.700695</ele>
        <time>2016-10-25T07:04:06Z</time>
      </trkpt>
      <trkpt lat="47.26816" lon="-1.5983">
        <ele>48.6766434</ele>
        <time>2016-10-25T07:04:09Z</time>
      </trkpt>
      <trkpt lat="47.26816" lon="-1.59837">
        <ele>48.6191521</ele>
        <time>2016-10-25T07:04:12Z</time>
      </trkpt>
      <trkpt lat="47.26815" lon="-1.59843">
        <ele>48.5254745</ele>
        <time>2016-10-25T07:04:14Z</time>
      </trkpt>
      <trkpt lat="47.26814" lon="-1.59849">
        <ele>48.3867226</ele>
        <time>2016-10-25T07:04:17Z</time>
      </trkpt>
      <trkpt lat="47.26816" lon="-1.59853">
        <ele>48.2235298</ele>
        <time>2016-10-25T07:04:19Z</time>
      </trkpt>
      <trkpt lat="47.26818" lon="-1.5986">
        <ele>48.0345764</ele>
        <time>2016-10-25T07:04:22Z</time>
      </trkpt>
      <trkpt lat="47.2682" lon="-1.59866">
        <ele>47.8546753</ele>
        <time>2016-10-25T07:04:25Z</time>
      </trkpt>
      <trkpt lat="47.26821" lon="-1.59869">
        <ele>47.6897583</ele>
        <time>2016-10-25T07:04:27Z</time>
      </trkpt>
      <trkpt lat="47.26822" lon="-1.59877">
        <ele>47.5222168</ele>
        <time>2016-10-25T07:04:30Z</time>
      </trkpt>
      <trkpt lat="47.26823" lon="-1.59882">
        <ele>47.3467712</ele>
        <time>2016-10-25T07:04:32Z</time>
      </trkpt>
      <trkpt lat="47.26825" lon="-1.59888">
        <ele>47.177948</ele>
        <time>2016-10-25T07:04:35Z</time>
      </trkpt>
      <trkpt lat="47.26827" lon="-1.59892">
        <ele>47.0201721</ele>
        <time>2016-10-25T07:04:38Z</time>
      </trkpt>
      <trkpt lat="47.26829" lon="-1.59894">
        <ele>46.8785095</ele>
        <time>2016-10-25T07:04:40Z</time>
      </trkpt>
      <trkpt lat="47.26832" lon="-1.59898">
        <ele>46.777832</ele>
        <time>2016-10-25T07:04:43Z</time>
      </trkpt>
      <trkpt lat="47.26833" lon="-1.599">
        <ele>46.7031021</ele>
        <time>2016-10-25T07:04:45Z</time>
      </trkpt>
      <trkpt lat="47.26837" lon="-1.59902">
        <ele>46.6352234</ele>
        <time>2016-10-25T07:04:48Z</time>
      </trkpt>
      <trkpt lat="47.2684" lon="-1.59905">
        <ele>46.5644798</ele>
        <time>2016-10-25T07:04:51Z</time>
      </trkpt>
      <trkpt lat="47.26842" lon="-1.59908">
        <ele>46.4839706</ele>
        <time>2016-10-25T07:04:53Z</time>
      </trkpt>
      <trkpt lat="47.26845" lon="-1.59912">
        <ele>46.3845749</ele>
        <time>2016-10-25T07:04:56Z</time>
      </trkpt>
      <trkpt lat="47.26848" lon="-1.59916">
        <ele>46.2674446</ele>
        <time>2016-10-25T07:04:59Z</time>
      </trkpt>
      <trkpt lat="47.26851" lon="-1.59918">
        <ele>46.1580887</ele>
        <time>2016-10-25T07:05:01Z</time>
      </trkpt>
      <trkpt lat="47.26852" lon="-1.59919">
        <ele>46.0638733</ele>
        <time>2016-10-25T07:05:03Z</time>
      </trkpt>
      <trkpt lat="47.26855" lon="-1.5992">
        <ele>45.9798851</ele>
        <time>2016-10-25T07:05:06Z</time>
      </trkpt>
      <trkpt lat="47.26857" lon="-1.59923">
        <ele>45.9126816</ele>
        <time>2016-10-25T07:05:09Z</time>
      </trkpt>
      <trkpt lat="47.26856" lon="-1.59928">
        <ele>45.8368759</ele>
        <time>2016-10-25T07:05:12Z</time>
      </trkpt>
      <trkpt lat="47.26856" lon="-1.59934">
        <ele>45.7354774</ele>
        <time>2016-10-25T07:05:15Z</time>
      </trkpt>
      <trkpt lat="47.2686" lon="-1.59937">
        <ele>45.6253014</ele>
        <time>2016-10-25T07:05:18Z</time>
      </trkpt>
      <trkpt lat="47.26864" lon="-1.59939">
        <ele>45.5096855</ele>
        <time>2016-10-25T07:05:21Z</time>
      </trkpt>
      <trkpt lat="47.26868" lon="-1.59942">
        <ele>45.3926201</ele>
        <time>2016-10-25T07:05:24Z</time>
      </trkpt>
      <trkpt lat="47.2687" lon="-1.59943">
        <ele>45.3031807</ele>
        <time>2016-10-25T07:05:26Z</time>
      </trkpt>
      <trkpt lat="47.26872" lon="-1.59945">
        <ele>45.2443008</ele>
        <time>2016-10-25T07:05:28Z</time>
      </trkpt>
      <trkpt lat="47.26875" lon="-1.59948">
        <ele>45.1816483</ele>
        <time>2016-10-25T07:05:31Z</time>
      </trkpt>
      <trkpt lat="47.26878" lon="-1.59952">
        <ele>45.1116371</ele>
        <time>2016-10-25T07:05:34Z</time>
      </trkpt>
      <trkpt lat="47.2688" lon="-1.59957">
        <ele>45.0303116</ele>
        <time>2016-10-25T07:05:37Z</time>
      </trkpt>
      <trkpt lat="47.26883" lon="-1.59959">
        <ele>44.9478531</ele>
        <time>2016-10-25T07:05:40Z</time>
      </trkpt>
      <trkpt lat="47.26888" lon="-1.5996">
        <ele>44.875248</ele>
        <time>2016-10-25T07:05:43Z</time>
      </trkpt>
      <trkpt lat="47.2689" lon="-1.5996">
        <ele>44.8218498</ele>
        <time>2016-10-25T07:05:45Z</time>
      </trkpt>
      <trkpt lat="47.26894" lon="-1.59962">
        <ele>44.7867432</ele>
        <time>2016-10-25T07:05:48Z</time>
      </trkpt>
      <trkpt lat="47.26896" lon="-1.59963">
        <ele>44.7759323</ele>
        <time>2016-10-25T07:05:50Z</time>
      </trkpt>
      <trkpt lat="47.269" lon="-1.59964">
        <ele>44.7721405</ele>
        <time>2016-10-25T07:05:53Z</time>
      </trkpt>
      <trkpt lat="47.26902" lon="-1.59965">
        <ele>44.7634506</ele>
        <time>2016-10-25T07:05:55Z</time>
      </trkpt>
      <trkpt lat="47.26906" lon="-1.59966">
        <ele>44.7554016</ele>
        <time>2016-10-25T07:05:58Z</time>
      </trkpt>
      <trkpt lat="47.2691" lon="-1.59968">
        <ele>44.7441559</ele>
        <time>2016-10-25T07:06:01Z</time>
      </trkpt>
      <trkpt lat="47.26912" lon="-1.59969">
        <ele>44.7311134</ele>
        <time>2016-10-25T07:06:03Z</time>
      </trkpt>
      <trkpt lat="47.26915" lon="-1.59971">
        <ele>44.7171974</ele>
        <time>2016-10-25T07:06:05Z</time>
      </trkpt>
      <trkpt lat="47.26917" lon="-1.59972">
        <ele>44.7077408</ele>
        <time>2016-10-25T07:06:07Z</time>
      </trkpt>
      <trkpt lat="47.26921" lon="-1.59974">
        <ele>44.7074661</ele>
        <time>2016-10-25T07:06:10Z</time>
      </trkpt>
      <trkpt lat="47.26923" lon="-1.59975">
        <ele>44.7241898</ele>
        <time>2016-10-25T07:06:12Z</time>
      </trkpt>
      <trkpt lat="47.26927" lon="-1.59976">
        <ele>44.7604446</ele>
        <time>2016-10-25T07:06:15Z</time>
      </trkpt>
      <trkpt lat="47.26931" lon="-1.59977">
        <ele>44.8185539</ele>
        <time>2016-10-25T07:06:18Z</time>
      </trkpt>
      <trkpt lat="47.26934" lon="-1.59977">
        <ele>44.8885078</ele>
        <time>2016-10-25T07:06:20Z</time>
      </trkpt>
      <trkpt lat="47.26938" lon="-1.59978">
        <ele>44.9726143</ele>
        <time>2016-10-25T07:06:23Z</time>
      </trkpt>
      <trkpt lat="47.2694" lon="-1.59977">
        <ele>45.0596352</ele>
        <time>2016-10-25T07:06:25Z</time>
      </trkpt>
      <trkpt lat="47.26943" lon="-1.59976">
        <ele>45.1507835</ele>
        <time>2016-10-25T07:06:27Z</time>
      </trkpt>
      <trkpt lat="47.26945" lon="-1.59975">
        <ele>45.2376938</ele>
        <time>2016-10-25T07:06:29Z</time>
      </trkpt>
      <trkpt lat="47.26949" lon="-1.59973">
        <ele>45.3404732</ele>
        <time>2016-10-25T07:06:32Z</time>
      </trkpt>
      <trkpt lat="47.26952" lon="-1.59971">
        <ele>45.4399605</ele>
        <time>2016-10-25T07:06:34Z</time>
      </trkpt>
      <trkpt lat="47.26955" lon="-1.59968">
        <ele>45.5523109</ele>
        <time>2016-10-25T07:06:37Z</time>
      </trkpt>
      <trkpt lat="47.26957" lon="-1.59966">
        <ele>45.6579094</ele>
        <time>2016-10-25T07:06:39Z</time>
      </trkpt>
      <trkpt lat="47.2696" lon="-1.59964">
        <ele>45.7679138</ele>
        <time>2016-10-25T07:06:42Z</time>
      </trkpt>
      <trkpt lat="47.26962" lon="-1.59963">
        <ele>45.8646126</ele>
        <time>2016-10-25T07:06:44Z</time>
      </trkpt>
      <trkpt lat="47.26965" lon="-1.59959">
        <ele>45.9649963</ele>
        <time>2016-10-25T07:06:47Z</time>
      </trkpt>
      <trkpt lat="47.26967" lon="-1.59957">
        <ele>46.0518265</ele>
        <time>2016-10-25T07:06:49Z</time>
      </trkpt>
      <trkpt lat="47.26968" lon="-1.59955">
        <ele>46.1330681</ele>
        <time>2016-10-25T07:06:51Z</time>
      </trkpt>
      <trkpt lat="47.26968" lon="-1.59953">
        <ele>46.1987419</ele>
        <time>2016-10-25T07:06:53Z</time>
      </trkpt>
      <trkpt lat="47.26969" lon="-1.59955">
        <ele>46.2481003</ele>
        <time>2016-10-25T07:06:58Z</time>
      </trkpt>
      <trkpt lat="47.26971" lon="-1.59958">
        <ele>46.2785072</ele>
        <time>2016-10-25T07:07:01Z</time>
      </trkpt>
      <trkpt lat="47.26974" lon="-1.59958">
        <ele>46.3090172</ele>
        <time>2016-10-25T07:07:04Z</time>
      </trkpt>
      <trkpt lat="47.26978" lon="-1.59955">
        <ele>46.3554611</ele>
        <time>2016-10-25T07:07:07Z</time>
      </trkpt>
      <trkpt lat="47.26981" lon="-1.59949">
        <ele>46.4151955</ele>
        <time>2016-10-25T07:07:10Z</time>
      </trkpt>
      <trkpt lat="47.26983" lon="-1.59946">
        <ele>46.4868851</ele>
        <time>2016-10-25T07:07:12Z</time>
      </trkpt>
      <trkpt lat="47.26985" lon="-1.59943">
        <ele>46.5652351</ele>
        <time>2016-10-25T07:07:14Z</time>
      </trkpt>
      <trkpt lat="47.26987" lon="-1.5994">
        <ele>46.6396561</ele>
        <time>2016-10-25T07:07:16Z</time>
      </trkpt>
      <trkpt lat="47.2699" lon="-1.59935">
        <ele>46.705162</ele>
        <time>2016-10-25T07:07:19Z</time>
      </trkpt>
      <trkpt lat="47.26992" lon="-1.5993">
        <ele>46.7637825</ele>
        <time>2016-10-25T07:07:22Z</time>
      </trkpt>
      <trkpt lat="47.26995" lon="-1.59926">
        <ele>46.8195992</ele>
        <time>2016-10-25T07:07:25Z</time>
      </trkpt>
      <trkpt lat="47.26999" lon="-1.59927">
        <ele>46.8751411</ele>
        <time>2016-10-25T07:07:28Z</time>
      </trkpt>
      <trkpt lat="47.27002" lon="-1.59932">
        <ele>46.931694</ele>
        <time>2016-10-25T07:07:31Z</time>
      </trkpt>
      <trkpt lat="47.27005" lon="-1.59935">
        <ele>46.9836082</ele>
        <time>2016-10-25T07:07:33Z</time>
      </trkpt>
      <trkpt lat="47.2701" lon="-1.59936">
        <ele>47.0413933</ele>
        <time>2016-10-25T07:07:36Z</time>
      </trkpt>
      <trkpt lat="47.27013" lon="-1.59938">
        <ele>47.1015244</ele>
        <time>2016-10-25T07:07:39Z</time>
      </trkpt>
      <trkpt lat="47.27014" lon="-1.59941">
        <ele>47.1590919</ele>
        <time>2016-10-25T07:07:41Z</time>
      </trkpt>
      <trkpt lat="47.27013" lon="-1.59947">
        <ele>47.2070541</ele>
        <time>2016-10-25T07:07:44Z</time>
      </trkpt>
      <trkpt lat="47.27013" lon="-1.59952">
        <ele>47.244812</ele>
        <time>2016-10-25T07:07:46Z</time>
      </trkpt>
      <trkpt lat="47.27012" lon="-1.59957">
        <ele>47.265625</ele>
        <time>2016-10-25T07:07:48Z</time>
      </trkpt>
      <trkpt lat="47.27012" lon="-1.59964">
        <ele>47.2802696</ele>
        <time>2016-10-25T07:07:51Z</time>
      </trkpt>
      <trkpt lat="47.27011" lon="-1.59969">
        <ele>47.2856865</ele>
        <time>2016-10-25T07:07:53Z</time>
      </trkpt>
      <trkpt lat="47.2701" lon="-1.59976">
        <ele>47.288681</ele>
        <time>2016-10-25T07:07:56Z</time>
      </trkpt>
      <trkpt lat="47.2701" lon="-1.59984">
        <ele>47.2963982</ele>
        <time>2016-10-25T07:07:59Z</time>
      </trkpt>
      <trkpt lat="47.27011" lon="-1.59987">
        <ele>47.3117371</ele>
        <time>2016-10-25T07:08:01Z</time>
      </trkpt>
      <trkpt lat="47.27014" lon="-1.59988">
        <ele>47.3435593</ele>
        <time>2016-10-25T07:08:04Z</time>
      </trkpt>
      <trkpt lat="47.27015" lon="-1.59986">
        <ele>47.3800583</ele>
        <time>2016-10-25T07:08:06Z</time>
      </trkpt>
      <trkpt lat="47.27016" lon="-1.5998">
        <ele>47.4221115</ele>
        <time>2016-10-25T07:08:09Z</time>
      </trkpt>
      <trkpt lat="47.27019" lon="-1.59976">
        <ele>47.4670334</ele>
        <time>2016-10-25T07:08:12Z</time>
      </trkpt>
      <trkpt lat="47.27021" lon="-1.59974">
        <ele>47.5170021</ele>
        <time>2016-10-25T07:08:14Z</time>
      </trkpt>
      <trkpt lat="47.27024" lon="-1.59973">
        <ele>47.5601158</ele>
        <time>2016-10-25T07:08:16Z</time>
      </trkpt>
      <trkpt lat="47.27027" lon="-1.59972">
        <ele>47.6136856</ele>
        <time>2016-10-25T07:08:18Z</time>
      </trkpt>
      <trkpt lat="47.27031" lon="-1.59968">
        <ele>47.6763496</ele>
        <time>2016-10-25T07:08:21Z</time>
      </trkpt>
      <trkpt lat="47.27032" lon="-1.59966">
        <ele>47.7352486</ele>
        <time>2016-10-25T07:08:23Z</time>
      </trkpt>
      <trkpt lat="47.27035" lon="-1.59961">
        <ele>47.7881317</ele>
        <time>2016-10-25T07:08:26Z</time>
      </trkpt>
      <trkpt lat="47.27036" lon="-1.59957">
        <ele>47.8219681</ele>
        <time>2016-10-25T07:08:28Z</time>
      </trkpt>
      <trkpt lat="47.27036" lon="-1.59954">
        <ele>47.8348274</ele>
        <time>2016-10-25T07:08:30Z</time>
      </trkpt>
      <trkpt lat="47.27036" lon="-1.59948">
        <ele>47.8236008</ele>
        <time>2016-10-25T07:08:33Z</time>
      </trkpt>
      <trkpt lat="47.27036" lon="-1.59944">
        <ele>47.798893</ele>
        <time>2016-10-25T07:08:35Z</time>
      </trkpt>
      <trkpt lat="47.27036" lon="-1.5994">
        <ele>47.7602005</ele>
        <time>2016-10-25T07:08:38Z</time>
      </trkpt>
      <trkpt lat="47.27039" lon="-1.59937">
        <ele>47.7314148</ele>
        <time>2016-10-25T07:08:41Z</time>
      </trkpt>
      <trkpt lat="47.27044" lon="-1.59937">
        <ele>47.7265511</ele>
        <time>2016-10-25T07:08:44Z</time>
      </trkpt>
      <trkpt lat="47.27048" lon="-1.59938">
        <ele>47.7469406</ele>
        <time>2016-10-25T07:08:46Z</time>
      </trkpt>
      <trkpt lat="47.27052" lon="-1.59938">
        <ele>47.7930565</ele>
        <time>2016-10-25T07:08:48Z</time>
      </trkpt>
      <trkpt lat="47.27056" lon="-1.5994">
        <ele>47.8675308</ele>
        <time>2016-10-25T07:08:51Z</time>
      </trkpt>
      <trkpt lat="47.27059" lon="-1.59941">
        <ele>47.9523087</ele>
        <time>2016-10-25T07:08:53Z</time>
      </trkpt>
      <trkpt lat="47.27064" lon="-1.59941">
        <ele>48.038166</ele>
        <time>2016-10-25T07:08:56Z</time>
      </trkpt>
      <trkpt lat="47.27066" lon="-1.59941">
        <ele>48.1176376</ele>
        <time>2016-10-25T07:08:58Z</time>
      </trkpt>
      <trkpt lat="47.2707" lon="-1.59941">
        <ele>48.1949959</ele>
        <time>2016-10-25T07:09:01Z</time>
      </trkpt>
      <trkpt lat="47.27074" lon="-1.59941">
        <ele>48.2701492</ele>
        <time>2016-10-25T07:09:04Z</time>
      </trkpt>
      <trkpt lat="47.27078" lon="-1.5994">
        <ele>48.3379822</ele>
        <time>2016-10-25T07:09:07Z</time>
      </trkpt>
      <trkpt lat="47.2708" lon="-1.5994">
        <ele>48.3938065</ele>
        <time>2016-10-25T07:09:09Z</time>
      </trkpt>
      <trkpt lat="47.27082" lon="-1.5994">
        <ele>48.4485474</ele>
        <time>2016-10-25T07:09:11Z</time>
      </trkpt>
      <trkpt lat="47.27086" lon="-1.59937">
        <ele>48.4907913</ele>
        <time>2016-10-25T07:09:14Z</time>
      </trkpt>
      <trkpt lat="47.27089" lon="-1.59935">
        <ele>48.5145645</ele>
        <time>2016-10-25T07:09:16Z</time>
      </trkpt>
      <trkpt lat="47.27093" lon="-1.59933">
        <ele>48.5352249</ele>
        <time>2016-10-25T07:09:19Z</time>
      </trkpt>
      <trkpt lat="47.27096" lon="-1.59933">
        <ele>48.5566902</ele>
        <time>2016-10-25T07:09:21Z</time>
      </trkpt>
      <trkpt lat="47.27099" lon="-1.59932">
        <ele>48.5785179</ele>
        <time>2016-10-25T07:09:23Z</time>
      </trkpt>
      <trkpt lat="47.27103" lon="-1.59932">
        <ele>48.6132889</ele>
        <time>2016-10-25T07:09:26Z</time>
      </trkpt>
      <trkpt lat="47.27105" lon="-1.59933">
        <ele>48.6586227</ele>
        <time>2016-10-25T07:09:28Z</time>
      </trkpt>
      <trkpt lat="47.27106" lon="-1.59938">
        <ele>48.7155647</ele>
        <time>2016-10-25T07:09:31Z</time>
      </trkpt>
      <trkpt lat="47.27107" lon="-1.59945">
        <ele>48.7869377</ele>
        <time>2016-10-25T07:09:34Z</time>
      </trkpt>
      <trkpt lat="47.27106" lon="-1.59952">
        <ele>48.8671341</ele>
        <time>2016-10-25T07:09:37Z</time>
      </trkpt>
      <trkpt lat="47.27106" lon="-1.59957">
        <ele>48.9484482</ele>
        <time>2016-10-25T07:09:40Z</time>
      </trkpt>
      <trkpt lat="47.27107" lon="-1.59961">
        <ele>49.0294571</ele>
        <time>2016-10-25T07:09:42Z</time>
      </trkpt>
      <trkpt lat="47.27107" lon="-1.59965">
        <ele>49.1063957</ele>
        <time>2016-10-25T07:09:45Z</time>
      </trkpt>
      <trkpt lat="47.27109" lon="-1.59969">
        <ele>49.1720276</ele>
        <time>2016-10-25T07:09:47Z</time>
      </trkpt>
      <trkpt lat="47.27111" lon="-1.59972">
        <ele>49.2302322</ele>
        <time>2016-10-25T07:09:50Z</time>
      </trkpt>
      <trkpt lat="47.27116" lon="-1.59974">
        <ele>49.2772293</ele>
        <time>2016-10-25T07:09:53Z</time>
      </trkpt>
      <trkpt lat="47.2712" lon="-1.59977">
        <ele>49.3167114</ele>
        <time>2016-10-25T07:09:56Z</time>
      </trkpt>
      <trkpt lat="47.27124" lon="-1.59978">
        <ele>49.3437119</ele>
        <time>2016-10-25T07:09:59Z</time>
      </trkpt>
      <trkpt lat="47.27126" lon="-1.5998">
        <ele>49.3616676</ele>
        <time>2016-10-25T07:10:01Z</time>
      </trkpt>
      <trkpt lat="47.27128" lon="-1.59981">
        <ele>49.3700447</ele>
        <time>2016-10-25T07:10:03Z</time>
      </trkpt>
      <trkpt lat="47.27129" lon="-1.59982">
        <ele>49.3737564</ele>
        <time>2016-10-25T07:10:05Z</time>
      </trkpt>
      <trkpt lat="47.27132" lon="-1.59983">
        <ele>49.3734016</ele>
        <time>2016-10-25T07:10:08Z</time>
      </trkpt>
      <trkpt lat="47.27133" lon="-1.59984">
        <ele>49.3718338</ele>
        <time>2016-10-25T07:10:10Z</time>
      </trkpt>
      <trkpt lat="47.27136" lon="-1.59988">
        <ele>49.3674126</ele>
        <time>2016-10-25T07:10:13Z</time>
      </trkpt>
      <trkpt lat="47.27138" lon="-1.5999">
        <ele>49.3596077</ele>
        <time>2016-10-25T07:10:15Z</time>
      </trkpt>
      <trkpt lat="47.27141" lon="-1.59993">
        <ele>49.3473549</ele>
        <time>2016-10-25T07:10:18Z</time>
      </trkpt>
      <trkpt lat="47.27144" lon="-1.59995">
        <ele>49.3305817</ele>
        <time>2016-10-25T07:10:20Z</time>
      </trkpt>
      <trkpt lat="47.27146" lon="-1.59997">
        <ele>49.3093567</ele>
        <time>2016-10-25T07:10:22Z</time>
      </trkpt>
      <trkpt lat="47.27151" lon="-1.59999">
        <ele>49.2763901</ele>
        <time>2016-10-25T07:10:25Z</time>
      </trkpt>
      <trkpt lat="47.27153" lon="-1.6">
        <ele>49.2410507</ele>
        <time>2016-10-25T07:10:27Z</time>
      </trkpt>
      <trkpt lat="47.27155" lon="-1.6">
        <ele>49.2032967</ele>
        <time>2016-10-25T07:10:29Z</time>
      </trkpt>
      <trkpt lat="47.27157" lon="-1.60001">
        <ele>49.1636658</ele>
        <time>2016-10-25T07:10:31Z</time>
      </trkpt>
      <trkpt lat="47.27161" lon="-1.60002">
        <ele>49.1153946</ele>
        <time>2016-10-25T07:10:34Z</time>
      </trkpt>
      <trkpt lat="47.27164" lon="-1.60002">
        <ele>49.0727005</ele>
        <time>2016-10-25T07:10:37Z</time>
      </trkpt>
      <trkpt lat="47.27167" lon="-1.60002">
        <ele>49.0304794</ele>
        <time>2016-10-25T07:10:39Z</time>
      </trkpt>
      <trkpt lat="47.2717" lon="-1.60003">
        <ele>48.9994583</ele>
        <time>2016-10-25T07:10:41Z</time>
      </trkpt>
      <trkpt lat="47.27174" lon="-1.60003">
        <ele>48.9850159</ele>
        <time>2016-10-25T07:10:44Z</time>
      </trkpt>
      <trkpt lat="47.27176" lon="-1.60003">
        <ele>48.9895706</ele>
        <time>2016-10-25T07:10:47Z</time>
      </trkpt>
      <trkpt lat="47.27179" lon="-1.60004">
        <ele>49.0056763</ele>
        <time>2016-10-25T07:10:49Z</time>
      </trkpt>
      <trkpt lat="47.27181" lon="-1.60004">
        <ele>49.03125</ele>
        <time>2016-10-25T07:10:51Z</time>
      </trkpt>
      <trkpt lat="47.27187" lon="-1.60005">
        <ele>49.0620728</ele>
        <time>2016-10-25T07:10:54Z</time>
      </trkpt>
      <trkpt lat="47.27191" lon="-1.60005">
        <ele>49.09198</ele>
        <time>2016-10-25T07:10:57Z</time>
      </trkpt>
      <trkpt lat="47.27194" lon="-1.60007">
        <ele>49.118042</ele>
        <time>2016-10-25T07:10:59Z</time>
      </trkpt>
      <trkpt lat="47.27197" lon="-1.60008">
        <ele>49.1383057</ele>
        <time>2016-10-25T07:11:01Z</time>
      </trkpt>
      <trkpt lat="47.27198" lon="-1.60009">
        <ele>49.1541138</ele>
        <time>2016-10-25T07:11:03Z</time>
      </trkpt>
      <trkpt lat="47.27201" lon="-1.6001">
        <ele>49.164856</ele>
        <time>2016-10-25T07:11:06Z</time>
      </trkpt>
      <trkpt lat="47.27205" lon="-1.6001">
        <ele>49.1749878</ele>
        <time>2016-10-25T07:11:08Z</time>
      </trkpt>
      <trkpt lat="47.27209" lon="-1.60009">
        <ele>49.1994019</ele>
        <time>2016-10-25T07:11:11Z</time>
      </trkpt>
      <trkpt lat="47.27211" lon="-1.60009">
        <ele>49.2332764</ele>
        <time>2016-10-25T07:11:13Z</time>
      </trkpt>
      <trkpt lat="47.27214" lon="-1.60009">
        <ele>49.2718506</ele>
        <time>2016-10-25T07:11:15Z</time>
      </trkpt>
      <trkpt lat="47.27217" lon="-1.60012">
        <ele>49.2982178</ele>
        <time>2016-10-25T07:11:18Z</time>
      </trkpt>
      <trkpt lat="47.2722" lon="-1.60015">
        <ele>49.312439</ele>
        <time>2016-10-25T07:11:21Z</time>
      </trkpt>
      <trkpt lat="47.27223" lon="-1.60018">
        <ele>49.3032837</ele>
        <time>2016-10-25T07:11:24Z</time>
      </trkpt>
      <trkpt lat="47.27225" lon="-1.60022">
        <ele>49.2714844</ele>
        <time>2016-10-25T07:11:27Z</time>
      </trkpt>
      <trkpt lat="47.27227" lon="-1.60027">
        <ele>49.2155762</ele>
        <time>2016-10-25T07:11:30Z</time>
      </trkpt>
      <trkpt lat="47.27229" lon="-1.60029">
        <ele>49.1620483</ele>
        <time>2016-10-25T07:11:32Z</time>
      </trkpt>
      <trkpt lat="47.27231" lon="-1.60032">
        <ele>49.1071777</ele>
        <time>2016-10-25T07:11:34Z</time>
      </trkpt>
      <trkpt lat="47.27234" lon="-1.60036">
        <ele>49.0456543</ele>
        <time>2016-10-25T07:11:37Z</time>
      </trkpt>
      <trkpt lat="47.27236" lon="-1.60039">
        <ele>48.9888916</ele>
        <time>2016-10-25T07:11:39Z</time>
      </trkpt>
      <trkpt lat="47.27238" lon="-1.60042">
        <ele>48.9455566</ele>
        <time>2016-10-25T07:11:41Z</time>
      </trkpt>
      <trkpt lat="47.27241" lon="-1.60043">
        <ele>48.909668</ele>
        <time>2016-10-25T07:11:43Z</time>
      </trkpt>
      <trkpt lat="47.27246" lon="-1.60043">
        <ele>48.8886719</ele>
        <time>2016-10-25T07:11:46Z</time>
      </trkpt>
      <trkpt lat="47.2725" lon="-1.60044">
        <ele>48.8875732</ele>
        <time>2016-10-25T07:11:49Z</time>
      </trkpt>
      <trkpt lat="47.27253" lon="-1.60045">
        <ele>48.8906784</ele>
        <time>2016-10-25T07:11:52Z</time>
      </trkpt>
      <trkpt lat="47.27258" lon="-1.60046">
        <ele>48.8890457</ele>
        <time>2016-10-25T07:11:55Z</time>
      </trkpt>
      <trkpt lat="47.27261" lon="-1.60045">
        <ele>48.8870468</ele>
        <time>2016-10-25T07:11:58Z</time>
      </trkpt>
      <trkpt lat="47.27263" lon="-1.60043">
        <ele>48.8859406</ele>
        <time>2016-10-25T07:12:01Z</time>
      </trkpt>
      <trkpt lat="47.27266" lon="-1.6004">
        <ele>48.8866119</ele>
        <time>2016-10-25T07:12:04Z</time>
      </trkpt>
      <trkpt lat="47.2727" lon="-1.60039">
        <ele>48.8949928</ele>
        <time>2016-10-25T07:12:06Z</time>
      </trkpt>
      <trkpt lat="47.27272" lon="-1.60039">
        <ele>48.9119301</ele>
        <time>2016-10-25T07:12:08Z</time>
      </trkpt>
      <trkpt lat="47.27277" lon="-1.60038">
        <ele>48.9243851</ele>
        <time>2016-10-25T07:12:11Z</time>
      </trkpt>
      <trkpt lat="47.27279" lon="-1.60037">
        <ele>48.9295425</ele>
        <time>2016-10-25T07:12:13Z</time>
      </trkpt>
      <trkpt lat="47.27282" lon="-1.60034">
        <ele>48.9330597</ele>
        <time>2016-10-25T07:12:16Z</time>
      </trkpt>
      <trkpt lat="47.27284" lon="-1.60033">
        <ele>48.9353714</ele>
        <time>2016-10-25T07:12:19Z</time>
      </trkpt>
      <trkpt lat="47.27287" lon="-1.60033">
        <ele>48.9384079</ele>
        <time>2016-10-25T07:12:21Z</time>
      </trkpt>
      <trkpt lat="47.2729" lon="-1.60033">
        <ele>48.9413185</ele>
        <time>2016-10-25T07:12:23Z</time>
      </trkpt>
      <trkpt lat="47.27294" lon="-1.60031">
        <ele>48.9404602</ele>
        <time>2016-10-25T07:12:26Z</time>
      </trkpt>
      <trkpt lat="47.27298" lon="-1.6003">
        <ele>48.9332161</ele>
        <time>2016-10-25T07:12:28Z</time>
      </trkpt>
      <trkpt lat="47.27301" lon="-1.60026">
        <ele>48.9337425</ele>
        <time>2016-10-25T07:12:31Z</time>
      </trkpt>
      <trkpt lat="47.27303" lon="-1.60024">
        <ele>48.9382439</ele>
        <time>2016-10-25T07:12:33Z</time>
      </trkpt>
      <trkpt lat="47.27307" lon="-1.60023">
        <ele>48.944191</ele>
        <time>2016-10-25T07:12:36Z</time>
      </trkpt>
      <trkpt lat="47.27309" lon="-1.60024">
        <ele>48.9423027</ele>
        <time>2016-10-25T07:12:38Z</time>
      </trkpt>
      <trkpt lat="47.27311" lon="-1.60029">
        <ele>48.9231033</ele>
        <time>2016-10-25T07:12:41Z</time>
      </trkpt>
      <trkpt lat="47.27312" lon="-1.60034">
        <ele>48.8806381</ele>
        <time>2016-10-25T07:12:43Z</time>
      </trkpt>
      <trkpt lat="47.27312" lon="-1.60038">
        <ele>48.822834</ele>
        <time>2016-10-25T07:12:45Z</time>
      </trkpt>
      <trkpt lat="47.27312" lon="-1.60045">
        <ele>48.7452354</ele>
        <time>2016-10-25T07:12:48Z</time>
      </trkpt>
      <trkpt lat="47.27312" lon="-1.6005">
        <ele>48.6642838</ele>
        <time>2016-10-25T07:12:50Z</time>
      </trkpt>
      <trkpt lat="47.27314" lon="-1.60055">
        <ele>48.583168</ele>
        <time>2016-10-25T07:12:53Z</time>
      </trkpt>
      <trkpt lat="47.27315" lon="-1.60058">
        <ele>48.5088768</ele>
        <time>2016-10-25T07:12:55Z</time>
      </trkpt>
      <trkpt lat="47.27315" lon="-1.60064">
        <ele>48.4311028</ele>
        <time>2016-10-25T07:12:58Z</time>
      </trkpt>
      <trkpt lat="47.27315" lon="-1.60067">
        <ele>48.3638191</ele>
        <time>2016-10-25T07:13:00Z</time>
      </trkpt>
      <trkpt lat="47.27315" lon="-1.60073">
        <ele>48.291317</ele>
        <time>2016-10-25T07:13:03Z</time>
      </trkpt>
      <trkpt lat="47.27314" lon="-1.60077">
        <ele>48.225441</ele>
        <time>2016-10-25T07:13:05Z</time>
      </trkpt>
      <trkpt lat="47.27315" lon="-1.60083">
        <ele>48.1522179</ele>
        <time>2016-10-25T07:13:08Z</time>
      </trkpt>
      <trkpt lat="47.27316" lon="-1.6009">
        <ele>48.0447083</ele>
        <time>2016-10-25T07:13:11Z</time>
      </trkpt>
      <trkpt lat="47.27317" lon="-1.60094">
        <ele>47.919548</ele>
        <time>2016-10-25T07:13:13Z</time>
      </trkpt>
      <trkpt lat="47.27318" lon="-1.601">
        <ele>47.7711563</ele>
        <time>2016-10-25T07:13:16Z</time>
      </trkpt>
      <trkpt lat="47.27319" lon="-1.60106">
        <ele>47.589592</ele>
        <time>2016-10-25T07:13:19Z</time>
      </trkpt>
      <trkpt lat="47.27319" lon="-1.60111">
        <ele>47.3908081</ele>
        <time>2016-10-25T07:13:21Z</time>
      </trkpt>
      <trkpt lat="47.2732" lon="-1.60117">
        <ele>47.1980896</ele>
        <time>2016-10-25T07:13:24Z</time>
      </trkpt>
      <trkpt lat="47.27319" lon="-1.60121">
        <ele>47.0046387</ele>
        <time>2016-10-25T07:13:26Z</time>
      </trkpt>
      <trkpt lat="47.2732" lon="-1.60127">
        <ele>46.8128357</ele>
        <time>2016-10-25T07:13:29Z</time>
      </trkpt>
      <trkpt lat="47.27322" lon="-1.60133">
        <ele>46.6227722</ele>
        <time>2016-10-25T07:13:32Z</time>
      </trkpt>
      <trkpt lat="47.27322" lon="-1.60137">
        <ele>46.4368286</ele>
        <time>2016-10-25T07:13:34Z</time>
      </trkpt>
      <trkpt lat="47.27323" lon="-1.60143">
        <ele>46.2511597</ele>
        <time>2016-10-25T07:13:37Z</time>
      </trkpt>
      <trkpt lat="47.27325" lon="-1.60147">
        <ele>46.0645752</ele>
        <time>2016-10-25T07:13:40Z</time>
      </trkpt>
      <trkpt lat="47.27326" lon="-1.6015">
        <ele>45.8968506</ele>
        <time>2016-10-25T07:13:42Z</time>
      </trkpt>
      <trkpt lat="47.27328" lon="-1.60156">
        <ele>45.7315063</ele>
        <time>2016-10-25T07:13:45Z</time>
      </trkpt>
      <trkpt lat="47.27329" lon="-1.60159">
        <ele>45.570282</ele>
        <time>2016-10-25T07:13:47Z</time>
      </trkpt>
      <trkpt lat="47.2733" lon="-1.60164">
        <ele>45.4191284</ele>
        <time>2016-10-25T07:13:50Z</time>
      </trkpt>
      <trkpt lat="47.27332" lon="-1.60167">
        <ele>45.2779541</ele>
        <time>2016-10-25T07:13:52Z</time>
      </trkpt>
      <trkpt lat="47.27333" lon="-1.60172">
        <ele>45.156971</ele>
        <time>2016-10-25T07:13:55Z</time>
      </trkpt>
      <trkpt lat="47.27334" lon="-1.60175">
        <ele>45.0783882</ele>
        <time>2016-10-25T07:13:57Z</time>
      </trkpt>
      <trkpt lat="47.27335" lon="-1.60182">
        <ele>45.0273056</ele>
        <time>2016-10-25T07:14:00Z</time>
      </trkpt>
      <trkpt lat="47.27336" lon="-1.60185">
        <ele>45.0129929</ele>
        <time>2016-10-25T07:14:02Z</time>
      </trkpt>
      <trkpt lat="47.27337" lon="-1.60189">
        <ele>45.0219231</ele>
        <time>2016-10-25T07:14:04Z</time>
      </trkpt>
      <trkpt lat="47.27338" lon="-1.60195">
        <ele>45.0358047</ele>
        <time>2016-10-25T07:14:07Z</time>
      </trkpt>
      <trkpt lat="47.27338" lon="-1.60199">
        <ele>45.0484619</ele>
        <time>2016-10-25T07:14:09Z</time>
      </trkpt>
      <trkpt lat="47.27338" lon="-1.60207">
        <ele>45.0596313</ele>
        <time>2016-10-25T07:14:12Z</time>
      </trkpt>
      <trkpt lat="47.27338" lon="-1.60211">
        <ele>45.0702858</ele>
        <time>2016-10-25T07:14:14Z</time>
      </trkpt>
      <trkpt lat="47.27338" lon="-1.60215">
        <ele>45.0802956</ele>
        <time>2016-10-25T07:14:16Z</time>
      </trkpt>
      <trkpt lat="47.2734" lon="-1.6022">
        <ele>45.0929451</ele>
        <time>2016-10-25T07:14:19Z</time>
      </trkpt>
      <trkpt lat="47.27341" lon="-1.60225">
        <ele>45.109478</ele>
        <time>2016-10-25T07:14:22Z</time>
      </trkpt>
      <trkpt lat="47.27341" lon="-1.60231">
        <ele>45.126358</ele>
        <time>2016-10-25T07:14:25Z</time>
      </trkpt>
      <trkpt lat="47.27342" lon="-1.60234">
        <ele>45.1453552</ele>
        <time>2016-10-25T07:14:27Z</time>
      </trkpt>
      <trkpt lat="47.27343" lon="-1.60237">
        <ele>45.1685143</ele>
        <time>2016-10-25T07:14:29Z</time>
      </trkpt>
      <trkpt lat="47.27344" lon="-1.60243">
        <ele>45.1899529</ele>
        <time>2016-10-25T07:14:32Z</time>
      </trkpt>
      <trkpt lat="47.27344" lon="-1.60246">
        <ele>45.2098732</ele>
        <time>2016-10-25T07:14:34Z</time>
      </trkpt>
      <trkpt lat="47.27345" lon="-1.60252">
        <ele>45.2493477</ele>
        <time>2016-10-25T07:14:37Z</time>
      </trkpt>
      <trkpt lat="47.27345" lon="-1.60258">
        <ele>45.3410759</ele>
        <time>2016-10-25T07:14:40Z</time>
      </trkpt>
      <trkpt lat="47.27346" lon="-1.60261">
        <ele>45.456562</ele>
        <time>2016-10-25T07:14:42Z</time>
      </trkpt>
      <trkpt lat="47.27348" lon="-1.60266">
        <ele>45.6151314</ele>
        <time>2016-10-25T07:14:45Z</time>
      </trkpt>
      <trkpt lat="47.27348" lon="-1.60273">
        <ele>45.8335533</ele>
        <time>2016-10-25T07:14:48Z</time>
      </trkpt>
      <trkpt lat="47.27349" lon="-1.60276">
        <ele>46.0645218</ele>
        <time>2016-10-25T07:14:50Z</time>
      </trkpt>
      <trkpt lat="47.27349" lon="-1.60282">
        <ele>46.2940292</ele>
        <time>2016-10-25T07:14:53Z</time>
      </trkpt>
      <trkpt lat="47.27351" lon="-1.60288">
        <ele>46.542942</ele>
        <time>2016-10-25T07:14:56Z</time>
      </trkpt>
      <trkpt lat="47.27352" lon="-1.60293">
        <ele>46.7952118</ele>
        <time>2016-10-25T07:14:59Z</time>
      </trkpt>
      <trkpt lat="47.27353" lon="-1.603">
        <ele>47.0449715</ele>
        <time>2016-10-25T07:15:02Z</time>
      </trkpt>
      <trkpt lat="47.27352" lon="-1.60307">
        <ele>47.3168526</ele>
        <time>2016-10-25T07:15:05Z</time>
      </trkpt>
      <trkpt lat="47.27353" lon="-1.60311">
        <ele>47.5685043</ele>
        <time>2016-10-25T07:15:07Z</time>
      </trkpt>
      <trkpt lat="47.27353" lon="-1.60315">
        <ele>47.8050613</ele>
        <time>2016-10-25T07:15:09Z</time>
      </trkpt>
      <trkpt lat="47.27353" lon="-1.60322">
        <ele>48.0496178</ele>
        <time>2016-10-25T07:15:12Z</time>
      </trkpt>
      <trkpt lat="47.27354" lon="-1.60326">
        <ele>48.2674255</ele>
        <time>2016-10-25T07:15:14Z</time>
      </trkpt>
      <trkpt lat="47.27355" lon="-1.60331">
        <ele>48.47155</ele>
        <time>2016-10-25T07:15:17Z</time>
      </trkpt>
      <trkpt lat="47.27356" lon="-1.60334">
        <ele>48.6738052</ele>
        <time>2016-10-25T07:15:19Z</time>
      </trkpt>
      <trkpt lat="47.27356" lon="-1.60338">
        <ele>48.8958855</ele>
        <time>2016-10-25T07:15:22Z</time>
      </trkpt>
      <trkpt lat="47.27357" lon="-1.60343">
        <ele>49.1286545</ele>
        <time>2016-10-25T07:15:25Z</time>
      </trkpt>
      <trkpt lat="47.27358" lon="-1.60348">
        <ele>49.3980293</ele>
        <time>2016-10-25T07:15:28Z</time>
      </trkpt>
      <trkpt lat="47.27359" lon="-1.60351">
        <ele>49.6662254</ele>
        <time>2016-10-25T07:15:30Z</time>
      </trkpt>
      <trkpt lat="47.27361" lon="-1.60354">
        <ele>49.9407845</ele>
        <time>2016-10-25T07:15:32Z</time>
      </trkpt>
      <trkpt lat="47.27361" lon="-1.60358">
        <ele>50.2104416</ele>
        <time>2016-10-25T07:15:34Z</time>
      </trkpt>
      <trkpt lat="47.27362" lon="-1.60365">
        <ele>50.4996567</ele>
        <time>2016-10-25T07:15:37Z</time>
      </trkpt>
      <trkpt lat="47.27364" lon="-1.6037">
        <ele>50.7912903</ele>
        <time>2016-10-25T07:15:40Z</time>
      </trkpt>
      <trkpt lat="47.27365" lon="-1.60374">
        <ele>51.0926437</ele>
        <time>2016-10-25T07:15:43Z</time>
      </trkpt>
      <trkpt lat="47.27365" lon="-1.60377">
        <ele>51.3971672</ele>
        <time>2016-10-25T07:15:45Z</time>
      </trkpt>
      <trkpt lat="47.27365" lon="-1.60384">
        <ele>51.7399406</ele>
        <time>2016-10-25T07:15:48Z</time>
      </trkpt>
      <trkpt lat="47.27366" lon="-1.60388">
        <ele>52.0486641</ele>
        <time>2016-10-25T07:15:51Z</time>
      </trkpt>
      <trkpt lat="47.27367" lon="-1.60394">
        <ele>52.3636055</ele>
        <time>2016-10-25T07:15:54Z</time>
      </trkpt>
      <trkpt lat="47.27367" lon="-1.60401">
        <ele>52.7185974</ele>
        <time>2016-10-25T07:15:57Z</time>
      </trkpt>
      <trkpt lat="47.27367" lon="-1.60406">
        <ele>53.0986214</ele>
        <time>2016-10-25T07:15:59Z</time>
      </trkpt>
      <trkpt lat="47.27369" lon="-1.60412">
        <ele>53.4774666</ele>
        <time>2016-10-25T07:16:02Z</time>
      </trkpt>
      <trkpt lat="47.27369" lon="-1.60419">
        <ele>53.8553238</ele>
        <time>2016-10-25T07:16:05Z</time>
      </trkpt>
      <trkpt lat="47.2737" lon="-1.60423">
        <ele>54.150013</ele>
        <time>2016-10-25T07:16:07Z</time>
      </trkpt>
      <trkpt lat="47.27371" lon="-1.60429">
        <ele>54.3447685</ele>
        <time>2016-10-25T07:16:10Z</time>
      </trkpt>
      <trkpt lat="47.27372" lon="-1.60432">
        <ele>54.4674911</ele>
        <time>2016-10-25T07:16:12Z</time>
      </trkpt>
      <trkpt lat="47.27372" lon="-1.60438">
        <ele>54.4982414</ele>
        <time>2016-10-25T07:16:15Z</time>
      </trkpt>
      <trkpt lat="47.27373" lon="-1.60444">
        <ele>54.4649658</ele>
        <time>2016-10-25T07:16:18Z</time>
      </trkpt>
      <trkpt lat="47.27372" lon="-1.60451">
        <ele>54.4311905</ele>
        <time>2016-10-25T07:16:21Z</time>
      </trkpt>
      <trkpt lat="47.27372" lon="-1.60455">
        <ele>54.4033318</ele>
        <time>2016-10-25T07:16:23Z</time>
      </trkpt>
      <trkpt lat="47.27372" lon="-1.60461">
        <ele>54.3768082</ele>
        <time>2016-10-25T07:16:26Z</time>
      </trkpt>
      <trkpt lat="47.27374" lon="-1.60464">
        <ele>54.3421707</ele>
        <time>2016-10-25T07:16:28Z</time>
      </trkpt>
      <trkpt lat="47.27374" lon="-1.6047">
        <ele>54.3049316</ele>
        <time>2016-10-25T07:16:31Z</time>
      </trkpt>
      <trkpt lat="47.27375" lon="-1.60474">
        <ele>54.2616463</ele>
        <time>2016-10-25T07:16:33Z</time>
      </trkpt>
      <trkpt lat="47.27378" lon="-1.60481">
        <ele>54.1947021</ele>
        <time>2016-10-25T07:16:36Z</time>
      </trkpt>
      <trkpt lat="47.2738" lon="-1.60485">
        <ele>54.1087646</ele>
        <time>2016-10-25T07:16:39Z</time>
      </trkpt>
      <trkpt lat="47.27382" lon="-1.60487">
        <ele>54.015667</ele>
        <time>2016-10-25T07:16:42Z</time>
      </trkpt>
      <trkpt lat="47.27383" lon="-1.60488">
        <ele>53.9182358</ele>
        <time>2016-10-25T07:16:44Z</time>
      </trkpt>
      <trkpt lat="47.27384" lon="-1.6049">
        <ele>53.8237495</ele>
        <time>2016-10-25T07:16:46Z</time>
      </trkpt>
      <trkpt lat="47.27384" lon="-1.60494">
        <ele>53.7465591</ele>
        <time>2016-10-25T07:16:48Z</time>
      </trkpt>
      <trkpt lat="47.27385" lon="-1.60499">
        <ele>53.6699715</ele>
        <time>2016-10-25T07:16:51Z</time>
      </trkpt>
      <trkpt lat="47.27387" lon="-1.60503">
        <ele>53.5758438</ele>
        <time>2016-10-25T07:16:54Z</time>
      </trkpt>
      <trkpt lat="47.27388" lon="-1.60507">
        <ele>53.46455</ele>
        <time>2016-10-25T07:16:56Z</time>
      </trkpt>
      <trkpt lat="47.27389" lon="-1.6051">
        <ele>53.3252029</ele>
        <time>2016-10-25T07:16:58Z</time>
      </trkpt>
      <trkpt lat="47.27391" lon="-1.60515">
        <ele>53.1469727</ele>
        <time>2016-10-25T07:17:01Z</time>
      </trkpt>
      <trkpt lat="47.27391" lon="-1.60522">
        <ele>52.947216</ele>
        <time>2016-10-25T07:17:04Z</time>
      </trkpt>
      <trkpt lat="47.27392" lon="-1.6053">
        <ele>52.7291641</ele>
        <time>2016-10-25T07:17:07Z</time>
      </trkpt>
      <trkpt lat="47.27393" lon="-1.60536">
        <ele>52.4818535</ele>
        <time>2016-10-25T07:17:10Z</time>
      </trkpt>
      <trkpt lat="47.27394" lon="-1.60541">
        <ele>52.2393417</ele>
        <time>2016-10-25T07:17:12Z</time>
      </trkpt>
      <trkpt lat="47.27395" lon="-1.60547">
        <ele>51.9856339</ele>
        <time>2016-10-25T07:17:15Z</time>
      </trkpt>
      <trkpt lat="47.27396" lon="-1.60551">
        <ele>51.7476692</ele>
        <time>2016-10-25T07:17:17Z</time>
      </trkpt>
      <trkpt lat="47.27397" lon="-1.60553">
        <ele>51.5380478</ele>
        <time>2016-10-25T07:17:19Z</time>
      </trkpt>
      <trkpt lat="47.27399" lon="-1.60559">
        <ele>51.324604</ele>
        <time>2016-10-25T07:17:22Z</time>
      </trkpt>
      <trkpt lat="47.27401" lon="-1.60562">
        <ele>51.1044083</ele>
        <time>2016-10-25T07:17:24Z</time>
      </trkpt>
      <trkpt lat="47.27402" lon="-1.60567">
        <ele>50.9034538</ele>
        <time>2016-10-25T07:17:27Z</time>
      </trkpt>
      <trkpt lat="47.27403" lon="-1.60573">
        <ele>50.6721382</ele>
        <time>2016-10-25T07:17:30Z</time>
      </trkpt>
      <trkpt lat="47.27404" lon="-1.60577">
        <ele>50.4333725</ele>
        <time>2016-10-25T07:17:32Z</time>
      </trkpt>
      <trkpt lat="47.27407" lon="-1.60581">
        <ele>50.1942368</ele>
        <time>2016-10-25T07:17:35Z</time>
      </trkpt>
      <trkpt lat="47.27409" lon="-1.60583">
        <ele>49.9537773</ele>
        <time>2016-10-25T07:17:37Z</time>
      </trkpt>
      <trkpt lat="47.27412" lon="-1.60583">
        <ele>49.719738</ele>
        <time>2016-10-25T07:17:39Z</time>
      </trkpt>
      <trkpt lat="47.27417" lon="-1.60584">
        <ele>49.4830666</ele>
        <time>2016-10-25T07:17:42Z</time>
      </trkpt>
      <trkpt lat="47.2742" lon="-1.60584">
        <ele>49.2634697</ele>
        <time>2016-10-25T07:17:45Z</time>
      </trkpt>
      <trkpt lat="47.27422" lon="-1.60585">
        <ele>49.0993462</ele>
        <time>2016-10-25T07:17:47Z</time>
      </trkpt>
      <trkpt lat="47.27425" lon="-1.60585">
        <ele>48.9598351</ele>
        <time>2016-10-25T07:17:50Z</time>
      </trkpt>
      <trkpt lat="47.27428" lon="-1.60584">
        <ele>48.8429642</ele>
        <time>2016-10-25T07:17:53Z</time>
      </trkpt>
      <trkpt lat="47.2743" lon="-1.60584">
        <ele>48.7798462</ele>
        <time>2016-10-25T07:17:55Z</time>
      </trkpt>
      <trkpt lat="47.27433" lon="-1.60583">
        <ele>48.7276993</ele>
        <time>2016-10-25T07:17:57Z</time>
      </trkpt>
      <trkpt lat="47.27436" lon="-1.60582">
        <ele>48.6737747</ele>
        <time>2016-10-25T07:18:00Z</time>
      </trkpt>
      <trkpt lat="47.27439" lon="-1.60582">
        <ele>48.6237411</ele>
        <time>2016-10-25T07:18:02Z</time>
      </trkpt>
      <trkpt lat="47.27443" lon="-1.60582">
        <ele>48.5657997</ele>
        <time>2016-10-25T07:18:05Z</time>
      </trkpt>
      <trkpt lat="47.27446" lon="-1.60581">
        <ele>48.5070114</ele>
        <time>2016-10-25T07:18:07Z</time>
      </trkpt>
      <trkpt lat="47.27449" lon="-1.60581">
        <ele>48.4376945</ele>
        <time>2016-10-25T07:18:10Z</time>
      </trkpt>
      <trkpt lat="47.27453" lon="-1.6058">
        <ele>48.3679428</ele>
        <time>2016-10-25T07:18:13Z</time>
      </trkpt>
      <trkpt lat="47.27456" lon="-1.6058">
        <ele>48.2946892</ele>
        <time>2016-10-25T07:18:15Z</time>
      </trkpt>
      <trkpt lat="47.27459" lon="-1.6058">
        <ele>48.2259598</ele>
        <time>2016-10-25T07:18:18Z</time>
      </trkpt>
      <trkpt lat="47.27462" lon="-1.6058">
        <ele>48.1525879</ele>
        <time>2016-10-25T07:18:20Z</time>
      </trkpt>
      <trkpt lat="47.27464" lon="-1.6058">
        <ele>48.0861588</ele>
        <time>2016-10-25T07:18:22Z</time>
      </trkpt>
      <trkpt lat="47.27469" lon="-1.6058">
        <ele>48.0084419</ele>
        <time>2016-10-25T07:18:25Z</time>
      </trkpt>
      <trkpt lat="47.27472" lon="-1.60579">
        <ele>47.9334908</ele>
        <time>2016-10-25T07:18:28Z</time>
      </trkpt>
      <trkpt lat="47.27477" lon="-1.60578">
        <ele>47.8570557</ele>
        <time>2016-10-25T07:18:31Z</time>
      </trkpt>
      <trkpt lat="47.27481" lon="-1.60577">
        <ele>47.778389</ele>
        <time>2016-10-25T07:18:34Z</time>
      </trkpt>
      <trkpt lat="47.27485" lon="-1.60576">
        <ele>47.6971359</ele>
        <time>2016-10-25T07:18:37Z</time>
      </trkpt>
      <trkpt lat="47.27487" lon="-1.60576">
        <ele>47.6306229</ele>
        <time>2016-10-25T07:18:39Z</time>
      </trkpt>
      <trkpt lat="47.27489" lon="-1.60575">
        <ele>47.5684853</ele>
        <time>2016-10-25T07:18:41Z</time>
      </trkpt>
      <trkpt lat="47.27493" lon="-1.60576">
        <ele>47.4977722</ele>
        <time>2016-10-25T07:18:44Z</time>
      </trkpt>
      <trkpt lat="47.27496" lon="-1.60577">
        <ele>47.4252205</ele>
        <time>2016-10-25T07:18:46Z</time>
      </trkpt>
      <trkpt lat="47.275" lon="-1.60578">
        <ele>47.3398628</ele>
        <time>2016-10-25T07:18:49Z</time>
      </trkpt>
      <trkpt lat="47.27503" lon="-1.60577">
        <ele>47.2730637</ele>
        <time>2016-10-25T07:18:51Z</time>
      </trkpt>
      <trkpt lat="47.27507" lon="-1.60576">
        <ele>47.226593</ele>
        <time>2016-10-25T07:18:54Z</time>
      </trkpt>
      <trkpt lat="47.27511" lon="-1.60575">
        <ele>47.2168427</ele>
        <time>2016-10-25T07:18:57Z</time>
      </trkpt>
      <trkpt lat="47.27514" lon="-1.60575">
        <ele>47.2266922</ele>
        <time>2016-10-25T07:18:59Z</time>
      </trkpt>
      <trkpt lat="47.27517" lon="-1.60575">
        <ele>47.2714844</ele>
        <time>2016-10-25T07:19:02Z</time>
      </trkpt>
      <trkpt lat="47.2752" lon="-1.60575">
        <ele>47.3125114</ele>
        <time>2016-10-25T07:19:04Z</time>
      </trkpt>
      <trkpt lat="47.27524" lon="-1.60575">
        <ele>47.345787</ele>
        <time>2016-10-25T07:19:07Z</time>
      </trkpt>
      <trkpt lat="47.27528" lon="-1.60575">
        <ele>47.3745232</ele>
        <time>2016-10-25T07:19:10Z</time>
      </trkpt>
      <trkpt lat="47.27531" lon="-1.60576">
        <ele>47.4020462</ele>
        <time>2016-10-25T07:19:12Z</time>
      </trkpt>
      <trkpt lat="47.27535" lon="-1.60576">
        <ele>47.4291916</ele>
        <time>2016-10-25T07:19:15Z</time>
      </trkpt>
      <trkpt lat="47.27538" lon="-1.60575">
        <ele>47.458374</ele>
        <time>2016-10-25T07:19:17Z</time>
      </trkpt>
      <trkpt lat="47.27542" lon="-1.60572">
        <ele>47.4922295</ele>
        <time>2016-10-25T07:19:20Z</time>
      </trkpt>
      <trkpt lat="47.27546" lon="-1.60572">
        <ele>47.5254364</ele>
        <time>2016-10-25T07:19:23Z</time>
      </trkpt>
      <trkpt lat="47.27549" lon="-1.60572">
        <ele>47.5597725</ele>
        <time>2016-10-25T07:19:25Z</time>
      </trkpt>
      <trkpt lat="47.27553" lon="-1.60572">
        <ele>47.5927353</ele>
        <time>2016-10-25T07:19:28Z</time>
      </trkpt>
      <trkpt lat="47.27558" lon="-1.60571">
        <ele>47.6249161</ele>
        <time>2016-10-25T07:19:31Z</time>
      </trkpt>
      <trkpt lat="47.27561" lon="-1.6057">
        <ele>47.6505737</ele>
        <time>2016-10-25T07:19:33Z</time>
      </trkpt>
      <trkpt lat="47.27565" lon="-1.6057">
        <ele>47.6750336</ele>
        <time>2016-10-25T07:19:36Z</time>
      </trkpt>
      <trkpt lat="47.27568" lon="-1.60569">
        <ele>47.6994858</ele>
        <time>2016-10-25T07:19:39Z</time>
      </trkpt>
      <trkpt lat="47.27571" lon="-1.60569">
        <ele>47.7206802</ele>
        <time>2016-10-25T07:19:41Z</time>
      </trkpt>
      <trkpt lat="47.27575" lon="-1.60569">
        <ele>47.7398567</ele>
        <time>2016-10-25T07:19:44Z</time>
      </trkpt>
      <trkpt lat="47.27577" lon="-1.60568">
        <ele>47.7574043</ele>
        <time>2016-10-25T07:19:46Z</time>
      </trkpt>
      <trkpt lat="47.27582" lon="-1.60568">
        <ele>47.7732315</ele>
        <time>2016-10-25T07:19:49Z</time>
      </trkpt>
      <trkpt lat="47.27585" lon="-1.60567">
        <ele>47.7928429</ele>
        <time>2016-10-25T07:19:52Z</time>
      </trkpt>
      <trkpt lat="47.27588" lon="-1.60567">
        <ele>47.8171463</ele>
        <time>2016-10-25T07:19:54Z</time>
      </trkpt>
      <trkpt lat="47.2759" lon="-1.60567">
        <ele>47.8449707</ele>
        <time>2016-10-25T07:19:56Z</time>
      </trkpt>
      <trkpt lat="47.27593" lon="-1.60567">
        <ele>47.8796692</ele>
        <time>2016-10-25T07:19:58Z</time>
      </trkpt>
      <trkpt lat="47.27597" lon="-1.60564">
        <ele>47.9177933</ele>
        <time>2016-10-25T07:20:01Z</time>
      </trkpt>
      <trkpt lat="47.27599" lon="-1.60563">
        <ele>47.9487915</ele>
        <time>2016-10-25T07:20:03Z</time>
      </trkpt>
      <trkpt lat="47.27602" lon="-1.60563">
        <ele>47.9797287</ele>
        <time>2016-10-25T07:20:06Z</time>
      </trkpt>
      <trkpt lat="47.27604" lon="-1.60563">
        <ele>48.0087967</ele>
        <time>2016-10-25T07:20:09Z</time>
      </trkpt>
      <trkpt lat="47.27607" lon="-1.60562">
        <ele>48.0361176</ele>
        <time>2016-10-25T07:20:12Z</time>
      </trkpt>
      <trkpt lat="47.2761" lon="-1.60562">
        <ele>48.065239</ele>
        <time>2016-10-25T07:20:14Z</time>
      </trkpt>
      <trkpt lat="47.27613" lon="-1.60563">
        <ele>48.1078911</ele>
        <time>2016-10-25T07:20:17Z</time>
      </trkpt>
      <trkpt lat="47.27618" lon="-1.60562">
        <ele>48.1539116</ele>
        <time>2016-10-25T07:20:20Z</time>
      </trkpt>
      <trkpt lat="47.27621" lon="-1.60562">
        <ele>48.2046432</ele>
        <time>2016-10-25T07:20:22Z</time>
      </trkpt>
      <trkpt lat="47.27625" lon="-1.60561">
        <ele>48.2538147</ele>
        <time>2016-10-25T07:20:25Z</time>
      </trkpt>
      <trkpt lat="47.27629" lon="-1.60561">
        <ele>48.3032913</ele>
        <time>2016-10-25T07:20:28Z</time>
      </trkpt>
      <trkpt lat="47.27632" lon="-1.6056">
        <ele>48.3435555</ele>
        <time>2016-10-25T07:20:30Z</time>
      </trkpt>
      <trkpt lat="47.27637" lon="-1.60559">
        <ele>48.3768997</ele>
        <time>2016-10-25T07:20:33Z</time>
      </trkpt>
      <trkpt lat="47.27639" lon="-1.60559">
        <ele>48.4074631</ele>
        <time>2016-10-25T07:20:35Z</time>
      </trkpt>
      <trkpt lat="47.27641" lon="-1.60559">
        <ele>48.4343071</ele>
        <time>2016-10-25T07:20:38Z</time>
      </trkpt>
      <trkpt lat="47.27643" lon="-1.60559">
        <ele>48.4561539</ele>
        <time>2016-10-25T07:20:40Z</time>
      </trkpt>
      <trkpt lat="47.27645" lon="-1.60559">
        <ele>48.4825249</ele>
        <time>2016-10-25T07:20:42Z</time>
      </trkpt>
      <trkpt lat="47.27648" lon="-1.60559">
        <ele>48.5154457</ele>
        <time>2016-10-25T07:20:44Z</time>
      </trkpt>
      <trkpt lat="47.2765" lon="-1.60559">
        <ele>48.5471191</ele>
        <time>2016-10-25T07:20:46Z</time>
      </trkpt>
      <trkpt lat="47.27654" lon="-1.60558">
        <ele>48.5795517</ele>
        <time>2016-10-25T07:20:49Z</time>
      </trkpt>
      <trkpt lat="47.27658" lon="-1.60557">
        <ele>48.6026077</ele>
        <time>2016-10-25T07:20:52Z</time>
      </trkpt>
      <trkpt lat="47.27662" lon="-1.60557">
        <ele>48.6280136</ele>
        <time>2016-10-25T07:20:55Z</time>
      </trkpt>
      <trkpt lat="47.27665" lon="-1.60557">
        <ele>48.6484413</ele>
        <time>2016-10-25T07:20:58Z</time>
      </trkpt>
      <trkpt lat="47.27668" lon="-1.60556">
        <ele>48.6485786</ele>
        <time>2016-10-25T07:21:01Z</time>
      </trkpt>
      <trkpt lat="47.27671" lon="-1.60556">
        <ele>48.6163673</ele>
        <time>2016-10-25T07:21:04Z</time>
      </trkpt>
      <trkpt lat="47.27676" lon="-1.60557">
        <ele>48.5585518</ele>
        <time>2016-10-25T07:21:07Z</time>
      </trkpt>
      <trkpt lat="47.27678" lon="-1.60557">
        <ele>48.4707489</ele>
        <time>2016-10-25T07:21:09Z</time>
      </trkpt>
      <trkpt lat="47.2768" lon="-1.60556">
        <ele>48.3499565</ele>
        <time>2016-10-25T07:21:12Z</time>
      </trkpt>
      <trkpt lat="47.27681" lon="-1.60556">
        <ele>48.2313805</ele>
        <time>2016-10-25T07:21:15Z</time>
      </trkpt>
      <trkpt lat="47.2768" lon="-1.60556">
        <ele>48.1561279</ele>
        <time>2016-10-25T07:21:27Z</time>
      </trkpt>
      <trkpt lat="47.27683" lon="-1.60557">
        <ele>48.0917168</ele>
        <time>2016-10-25T07:21:44Z</time>
      </trkpt>
      <trkpt lat="47.27688" lon="-1.60558">
        <ele>48.011261</ele>
        <time>2016-10-25T07:21:47Z</time>
      </trkpt>
      <trkpt lat="47.27691" lon="-1.60559">
        <ele>47.9393692</ele>
        <time>2016-10-25T07:21:49Z</time>
      </trkpt>
      <trkpt lat="47.27694" lon="-1.6056">
        <ele>47.8511086</ele>
        <time>2016-10-25T07:21:51Z</time>
      </trkpt>
      <trkpt lat="47.27697" lon="-1.60563">
        <ele>47.737339</ele>
        <time>2016-10-25T07:21:53Z</time>
      </trkpt>
      <trkpt lat="47.27699" lon="-1.60566">
        <ele>47.6463852</ele>
        <time>2016-10-25T07:21:55Z</time>
      </trkpt>
      <trkpt lat="47.277" lon="-1.60572">
        <ele>47.6139755</ele>
        <time>2016-10-25T07:21:58Z</time>
      </trkpt>
      <trkpt lat="47.277" lon="-1.60576">
        <ele>47.6209335</ele>
        <time>2016-10-25T07:22:00Z</time>
      </trkpt>
      <trkpt lat="47.27702" lon="-1.60581">
        <ele>47.6734352</ele>
        <time>2016-10-25T07:22:02Z</time>
      </trkpt>
      <trkpt lat="47.27704" lon="-1.60587">
        <ele>47.7062149</ele>
        <time>2016-10-25T07:22:05Z</time>
      </trkpt>
      <trkpt lat="47.27705" lon="-1.60591">
        <ele>47.7153702</ele>
        <time>2016-10-25T07:22:07Z</time>
      </trkpt>
      <trkpt lat="47.27705" lon="-1.60597">
        <ele>47.6874313</ele>
        <time>2016-10-25T07:22:09Z</time>
      </trkpt>
      <trkpt lat="47.27706" lon="-1.60603">
        <ele>47.6099472</ele>
        <time>2016-10-25T07:22:12Z</time>
      </trkpt>
      <trkpt lat="47.27708" lon="-1.60609">
        <ele>47.4864998</ele>
        <time>2016-10-25T07:22:15Z</time>
      </trkpt>
      <trkpt lat="47.2771" lon="-1.60613">
        <ele>47.3631439</ele>
        <time>2016-10-25T07:22:18Z</time>
      </trkpt>
      <trkpt lat="47.2771" lon="-1.60616">
        <ele>47.2491188</ele>
        <time>2016-10-25T07:22:20Z</time>
      </trkpt>
      <trkpt lat="47.27711" lon="-1.60619">
        <ele>47.1294785</ele>
        <time>2016-10-25T07:22:22Z</time>
      </trkpt>
      <trkpt lat="47.27712" lon="-1.60622">
        <ele>47.0208054</ele>
        <time>2016-10-25T07:22:24Z</time>
      </trkpt>
      <trkpt lat="47.27714" lon="-1.60624">
        <ele>46.9239464</ele>
        <time>2016-10-25T07:22:26Z</time>
      </trkpt>
      <trkpt lat="47.27716" lon="-1.60629">
        <ele>46.8220406</ele>
        <time>2016-10-25T07:22:29Z</time>
      </trkpt>
      <trkpt lat="47.27717" lon="-1.60633">
        <ele>46.7165413</ele>
        <time>2016-10-25T07:22:31Z</time>
      </trkpt>
      <trkpt lat="47.27718" lon="-1.60638">
        <ele>46.6169739</ele>
        <time>2016-10-25T07:22:33Z</time>
      </trkpt>
      <trkpt lat="47.27718" lon="-1.60643">
        <ele>46.5225716</ele>
        <time>2016-10-25T07:22:35Z</time>
      </trkpt>
      <trkpt lat="47.2772" lon="-1.60649">
        <ele>46.4231567</ele>
        <time>2016-10-25T07:22:38Z</time>
      </trkpt>
      <trkpt lat="47.27722" lon="-1.60653">
        <ele>46.3306198</ele>
        <time>2016-10-25T07:22:41Z</time>
      </trkpt>
      <trkpt lat="47.27724" lon="-1.60658">
        <ele>46.2305489</ele>
        <time>2016-10-25T07:22:44Z</time>
      </trkpt>
      <trkpt lat="47.27725" lon="-1.60663">
        <ele>46.1293259</ele>
        <time>2016-10-25T07:22:46Z</time>
      </trkpt>
      <trkpt lat="47.27728" lon="-1.60668">
        <ele>46.0116959</ele>
        <time>2016-10-25T07:22:49Z</time>
      </trkpt>
      <trkpt lat="47.27729" lon="-1.60673">
        <ele>45.8967285</ele>
        <time>2016-10-25T07:22:51Z</time>
      </trkpt>
      <trkpt lat="47.27729" lon="-1.60677">
        <ele>45.7976685</ele>
        <time>2016-10-25T07:22:53Z</time>
      </trkpt>
      <trkpt lat="47.27731" lon="-1.60683">
        <ele>45.7002792</ele>
        <time>2016-10-25T07:22:56Z</time>
      </trkpt>
      <trkpt lat="47.27733" lon="-1.60689">
        <ele>45.5964355</ele>
        <time>2016-10-25T07:22:59Z</time>
      </trkpt>
      <trkpt lat="47.27734" lon="-1.60693">
        <ele>45.5070305</ele>
        <time>2016-10-25T07:23:01Z</time>
      </trkpt>
      <trkpt lat="47.27735" lon="-1.60698">
        <ele>45.42556</ele>
        <time>2016-10-25T07:23:03Z</time>
      </trkpt>
      <trkpt lat="47.27736" lon="-1.60704">
        <ele>45.3436737</ele>
        <time>2016-10-25T07:23:06Z</time>
      </trkpt>
      <trkpt lat="47.27737" lon="-1.60708">
        <ele>45.2729263</ele>
        <time>2016-10-25T07:23:08Z</time>
      </trkpt>
      <trkpt lat="47.2774" lon="-1.60712">
        <ele>45.2129593</ele>
        <time>2016-10-25T07:23:11Z</time>
      </trkpt>
      <trkpt lat="47.27742" lon="-1.60718">
        <ele>45.1576042</ele>
        <time>2016-10-25T07:23:14Z</time>
      </trkpt>
      <trkpt lat="47.27742" lon="-1.60722">
        <ele>45.1083794</ele>
        <time>2016-10-25T07:23:16Z</time>
      </trkpt>
      <trkpt lat="47.27744" lon="-1.60725">
        <ele>45.0704498</ele>
        <time>2016-10-25T07:23:18Z</time>
      </trkpt>
      <trkpt lat="47.27747" lon="-1.6073">
        <ele>45.0396423</ele>
        <time>2016-10-25T07:23:21Z</time>
      </trkpt>
      <trkpt lat="47.2775" lon="-1.60733">
        <ele>45.0188904</ele>
        <time>2016-10-25T07:23:24Z</time>
      </trkpt>
      <trkpt lat="47.27753" lon="-1.60738">
        <ele>44.9705734</ele>
        <time>2016-10-25T07:23:27Z</time>
      </trkpt>
      <trkpt lat="47.27755" lon="-1.60742">
        <ele>44.8863869</ele>
        <time>2016-10-25T07:23:30Z</time>
      </trkpt>
      <trkpt lat="47.27757" lon="-1.60748">
        <ele>44.7808647</ele>
        <time>2016-10-25T07:23:33Z</time>
      </trkpt>
      <trkpt lat="47.27759" lon="-1.60755">
        <ele>44.6469765</ele>
        <time>2016-10-25T07:23:36Z</time>
      </trkpt>
      <trkpt lat="47.2776" lon="-1.6076">
        <ele>44.4906616</ele>
        <time>2016-10-25T07:23:38Z</time>
      </trkpt>
      <trkpt lat="47.27762" lon="-1.60764">
        <ele>44.3410339</ele>
        <time>2016-10-25T07:23:40Z</time>
      </trkpt>
      <trkpt lat="47.27766" lon="-1.60768">
        <ele>44.1773491</ele>
        <time>2016-10-25T07:23:43Z</time>
      </trkpt>
      <trkpt lat="47.27769" lon="-1.60771">
        <ele>44.0074387</ele>
        <time>2016-10-25T07:23:45Z</time>
      </trkpt>
      <trkpt lat="47.27772" lon="-1.60775">
        <ele>43.8302422</ele>
        <time>2016-10-25T07:23:48Z</time>
      </trkpt>
      <trkpt lat="47.27774" lon="-1.60778">
        <ele>43.6485634</ele>
        <time>2016-10-25T07:23:51Z</time>
      </trkpt>
      <trkpt lat="47.27777" lon="-1.60781">
        <ele>43.4639587</ele>
        <time>2016-10-25T07:23:54Z</time>
      </trkpt>
      <trkpt lat="47.2778" lon="-1.60785">
        <ele>43.3112755</ele>
        <time>2016-10-25T07:23:57Z</time>
      </trkpt>
      <trkpt lat="47.2778" lon="-1.60789">
        <ele>43.1936646</ele>
        <time>2016-10-25T07:24:00Z</time>
      </trkpt>
      <trkpt lat="47.27781" lon="-1.60793">
        <ele>43.1113777</ele>
        <time>2016-10-25T07:24:02Z</time>
      </trkpt>
      <trkpt lat="47.27784" lon="-1.60799">
        <ele>43.0370255</ele>
        <time>2016-10-25T07:24:05Z</time>
      </trkpt>
      <trkpt lat="47.27787" lon="-1.60802">
        <ele>42.9746284</ele>
        <time>2016-10-25T07:24:08Z</time>
      </trkpt>
      <trkpt lat="47.27789" lon="-1.60805">
        <ele>42.9209671</ele>
        <time>2016-10-25T07:24:10Z</time>
      </trkpt>
      <trkpt lat="47.27792" lon="-1.60811">
        <ele>42.8560944</ele>
        <time>2016-10-25T07:24:13Z</time>
      </trkpt>
      <trkpt lat="47.27794" lon="-1.60816">
        <ele>42.7910652</ele>
        <time>2016-10-25T07:24:16Z</time>
      </trkpt>
      <trkpt lat="47.27798" lon="-1.60822">
        <ele>42.737709</ele>
        <time>2016-10-25T07:24:19Z</time>
      </trkpt>
      <trkpt lat="47.278" lon="-1.60827">
        <ele>42.7077751</ele>
        <time>2016-10-25T07:24:22Z</time>
      </trkpt>
      <trkpt lat="47.27803" lon="-1.60832">
        <ele>42.6969566</ele>
        <time>2016-10-25T07:24:25Z</time>
      </trkpt>
      <trkpt lat="47.27805" lon="-1.60836">
        <ele>42.6954575</ele>
        <time>2016-10-25T07:24:27Z</time>
      </trkpt>
      <trkpt lat="47.27808" lon="-1.60841">
        <ele>42.6982117</ele>
        <time>2016-10-25T07:24:30Z</time>
      </trkpt>
      <trkpt lat="47.2781" lon="-1.60844">
        <ele>42.7112961</ele>
        <time>2016-10-25T07:24:32Z</time>
      </trkpt>
      <trkpt lat="47.27811" lon="-1.60847">
        <ele>42.7293854</ele>
        <time>2016-10-25T07:24:34Z</time>
      </trkpt>
      <trkpt lat="47.27814" lon="-1.60853">
        <ele>42.7567139</ele>
        <time>2016-10-25T07:24:37Z</time>
      </trkpt>
      <trkpt lat="47.27815" lon="-1.60857">
        <ele>42.7954025</ele>
        <time>2016-10-25T07:24:39Z</time>
      </trkpt>
      <trkpt lat="47.27816" lon="-1.60861">
        <ele>42.8500061</ele>
        <time>2016-10-25T07:24:41Z</time>
      </trkpt>
      <trkpt lat="47.27818" lon="-1.60866">
        <ele>42.922821</ele>
        <time>2016-10-25T07:24:44Z</time>
      </trkpt>
      <trkpt lat="47.2782" lon="-1.60871">
        <ele>43.0166206</ele>
        <time>2016-10-25T07:24:47Z</time>
      </trkpt>
      <trkpt lat="47.27821" lon="-1.60874">
        <ele>43.1151123</ele>
        <time>2016-10-25T07:24:49Z</time>
      </trkpt>
      <trkpt lat="47.27823" lon="-1.60877">
        <ele>43.221199</ele>
        <time>2016-10-25T07:24:51Z</time>
      </trkpt>
      <trkpt lat="47.27825" lon="-1.60883">
        <ele>43.3480453</ele>
        <time>2016-10-25T07:24:54Z</time>
      </trkpt>
      <trkpt lat="47.27827" lon="-1.60887">
        <ele>43.4819489</ele>
        <time>2016-10-25T07:24:56Z</time>
      </trkpt>
      <trkpt lat="47.27829" lon="-1.60891">
        <ele>43.6302414</ele>
        <time>2016-10-25T07:24:59Z</time>
      </trkpt>
      <trkpt lat="47.27831" lon="-1.60894">
        <ele>43.7866287</ele>
        <time>2016-10-25T07:25:01Z</time>
      </trkpt>
      <trkpt lat="47.27834" lon="-1.60897">
        <ele>43.9588966</ele>
        <time>2016-10-25T07:25:04Z</time>
      </trkpt>
      <trkpt lat="47.27837" lon="-1.609">
        <ele>44.107811</ele>
        <time>2016-10-25T07:25:07Z</time>
      </trkpt>
      <trkpt lat="47.27839" lon="-1.60903">
        <ele>44.2435074</ele>
        <time>2016-10-25T07:25:10Z</time>
      </trkpt>
      <trkpt lat="47.27842" lon="-1.60906">
        <ele>44.3558273</ele>
        <time>2016-10-25T07:25:13Z</time>
      </trkpt>
      <trkpt lat="47.27844" lon="-1.60912">
        <ele>44.4780464</ele>
        <time>2016-10-25T07:25:16Z</time>
      </trkpt>
      <trkpt lat="47.27846" lon="-1.60918">
        <ele>44.6002426</ele>
        <time>2016-10-25T07:25:19Z</time>
      </trkpt>
      <trkpt lat="47.27849" lon="-1.60923">
        <ele>44.7384529</ele>
        <time>2016-10-25T07:25:22Z</time>
      </trkpt>
      <trkpt lat="47.27851" lon="-1.60926">
        <ele>44.8766251</ele>
        <time>2016-10-25T07:25:24Z</time>
      </trkpt>
      <trkpt lat="47.27854" lon="-1.60928">
        <ele>45.0060616</ele>
        <time>2016-10-25T07:25:27Z</time>
      </trkpt>
      <trkpt lat="47.27856" lon="-1.6093">
        <ele>45.114666</ele>
        <time>2016-10-25T07:25:30Z</time>
      </trkpt>
      <trkpt lat="47.27858" lon="-1.60933">
        <ele>45.1988449</ele>
        <time>2016-10-25T07:25:32Z</time>
      </trkpt>
      <trkpt lat="47.27861" lon="-1.60936">
        <ele>45.2764969</ele>
        <time>2016-10-25T07:25:34Z</time>
      </trkpt>
      <trkpt lat="47.27863" lon="-1.60939">
        <ele>45.3554268</ele>
        <time>2016-10-25T07:25:36Z</time>
      </trkpt>
      <trkpt lat="47.27867" lon="-1.60941">
        <ele>45.4398117</ele>
        <time>2016-10-25T07:25:39Z</time>
      </trkpt>
      <trkpt lat="47.27869" lon="-1.60944">
        <ele>45.5220604</ele>
        <time>2016-10-25T07:25:41Z</time>
      </trkpt>
      <trkpt lat="47.27871" lon="-1.60946">
        <ele>45.6068077</ele>
        <time>2016-10-25T07:25:43Z</time>
      </trkpt>
      <trkpt lat="47.27874" lon="-1.60951">
        <ele>45.7090836</ele>
        <time>2016-10-25T07:25:46Z</time>
      </trkpt>
      <trkpt lat="47.27875" lon="-1.60956">
        <ele>45.8292656</ele>
        <time>2016-10-25T07:25:48Z</time>
      </trkpt>
      <trkpt lat="47.27878" lon="-1.60961">
        <ele>45.9724846</ele>
        <time>2016-10-25T07:25:51Z</time>
      </trkpt>
      <trkpt lat="47.2788" lon="-1.60965">
        <ele>46.1413689</ele>
        <time>2016-10-25T07:25:54Z</time>
      </trkpt>
      <trkpt lat="47.27882" lon="-1.60969">
        <ele>46.3238754</ele>
        <time>2016-10-25T07:25:57Z</time>
      </trkpt>
      <trkpt lat="47.27886" lon="-1.60974">
        <ele>46.5077896</ele>
        <time>2016-10-25T07:26:00Z</time>
      </trkpt>
      <trkpt lat="47.27887" lon="-1.60977">
        <ele>46.6836929</ele>
        <time>2016-10-25T07:26:02Z</time>
      </trkpt>
      <trkpt lat="47.27889" lon="-1.60981">
        <ele>46.851738</ele>
        <time>2016-10-25T07:26:04Z</time>
      </trkpt>
      <trkpt lat="47.27892" lon="-1.60986">
        <ele>47.019722</ele>
        <time>2016-10-25T07:26:07Z</time>
      </trkpt>
      <trkpt lat="47.27895" lon="-1.60988">
        <ele>47.1823921</ele>
        <time>2016-10-25T07:26:10Z</time>
      </trkpt>
      <trkpt lat="47.27897" lon="-1.60991">
        <ele>47.328064</ele>
        <time>2016-10-25T07:26:12Z</time>
      </trkpt>
      <trkpt lat="47.279" lon="-1.60996">
        <ele>47.4913216</ele>
        <time>2016-10-25T07:26:15Z</time>
      </trkpt>
      <trkpt lat="47.27901" lon="-1.61">
        <ele>47.6621933</ele>
        <time>2016-10-25T07:26:17Z</time>
      </trkpt>
      <trkpt lat="47.27903" lon="-1.61004">
        <ele>47.8545685</ele>
        <time>2016-10-25T07:26:19Z</time>
      </trkpt>
      <trkpt lat="47.27904" lon="-1.61007">
        <ele>48.0810204</ele>
        <time>2016-10-25T07:26:21Z</time>
      </trkpt>
      <trkpt lat="47.27906" lon="-1.61011">
        <ele>48.3571968</ele>
        <time>2016-10-25T07:26:24Z</time>
      </trkpt>
      <trkpt lat="47.2791" lon="-1.61014">
        <ele>48.6512985</ele>
        <time>2016-10-25T07:26:27Z</time>
      </trkpt>
      <trkpt lat="47.27911" lon="-1.61017">
        <ele>48.9533005</ele>
        <time>2016-10-25T07:26:29Z</time>
      </trkpt>
      <trkpt lat="47.27913" lon="-1.61019">
        <ele>49.2349014</ele>
        <time>2016-10-25T07:26:31Z</time>
      </trkpt>
      <trkpt lat="47.27917" lon="-1.61023">
        <ele>49.5494919</ele>
        <time>2016-10-25T07:26:34Z</time>
      </trkpt>
      <trkpt lat="47.2792" lon="-1.61027">
        <ele>49.8564377</ele>
        <time>2016-10-25T07:26:37Z</time>
      </trkpt>
      <trkpt lat="47.27922" lon="-1.61029">
        <ele>50.1461906</ele>
        <time>2016-10-25T07:26:39Z</time>
      </trkpt>
      <trkpt lat="47.27924" lon="-1.61032">
        <ele>50.4361038</ele>
        <time>2016-10-25T07:26:41Z</time>
      </trkpt>
      <trkpt lat="47.27926" lon="-1.61037">
        <ele>50.7721176</ele>
        <time>2016-10-25T07:26:44Z</time>
      </trkpt>
      <trkpt lat="47.27928" lon="-1.6104">
        <ele>51.0665359</ele>
        <time>2016-10-25T07:26:46Z</time>
      </trkpt>
      <trkpt lat="47.2793" lon="-1.61043">
        <ele>51.3347168</ele>
        <time>2016-10-25T07:26:48Z</time>
      </trkpt>
      <trkpt lat="47.27932" lon="-1.61047">
        <ele>51.6284599</ele>
        <time>2016-10-25T07:26:51Z</time>
      </trkpt>
      <trkpt lat="47.27934" lon="-1.6105">
        <ele>51.9216194</ele>
        <time>2016-10-25T07:26:53Z</time>
      </trkpt>
      <trkpt lat="47.27937" lon="-1.61056">
        <ele>52.2089348</ele>
        <time>2016-10-25T07:26:56Z</time>
      </trkpt>
      <trkpt lat="47.27938" lon="-1.61058">
        <ele>52.4888496</ele>
        <time>2016-10-25T07:26:58Z</time>
      </trkpt>
      <trkpt lat="47.2794" lon="-1.61063">
        <ele>52.7973747</ele>
        <time>2016-10-25T07:27:01Z</time>
      </trkpt>
      <trkpt lat="47.27942" lon="-1.61066">
        <ele>53.0771866</ele>
        <time>2016-10-25T07:27:03Z</time>
      </trkpt>
      <trkpt lat="47.27944" lon="-1.6107">
        <ele>53.3615608</ele>
        <time>2016-10-25T07:27:06Z</time>
      </trkpt>
      <trkpt lat="47.27948" lon="-1.61074">
        <ele>53.6075058</ele>
        <time>2016-10-25T07:27:09Z</time>
      </trkpt>
      <trkpt lat="47.27951" lon="-1.61078">
        <ele>53.8653374</ele>
        <time>2016-10-25T07:27:12Z</time>
      </trkpt>
      <trkpt lat="47.27954" lon="-1.61082">
        <ele>54.0859375</ele>
        <time>2016-10-25T07:27:15Z</time>
      </trkpt>
      <trkpt lat="47.27956" lon="-1.61085">
        <ele>54.3011055</ele>
        <time>2016-10-25T07:27:18Z</time>
      </trkpt>
      <trkpt lat="47.27958" lon="-1.61088">
        <ele>54.4885674</ele>
        <time>2016-10-25T07:27:20Z</time>
      </trkpt>
      <trkpt lat="47.2796" lon="-1.61091">
        <ele>54.6517105</ele>
        <time>2016-10-25T07:27:23Z</time>
      </trkpt>
      <trkpt lat="47.27962" lon="-1.61095">
        <ele>54.7918701</ele>
        <time>2016-10-25T07:27:26Z</time>
      </trkpt>
      <trkpt lat="47.27963" lon="-1.611">
        <ele>54.9560242</ele>
        <time>2016-10-25T07:27:29Z</time>
      </trkpt>
      <trkpt lat="47.27966" lon="-1.61105">
        <ele>55.1295776</ele>
        <time>2016-10-25T07:27:32Z</time>
      </trkpt>
      <trkpt lat="47.27967" lon="-1.61109">
        <ele>55.3074951</ele>
        <time>2016-10-25T07:27:34Z</time>
      </trkpt>
      <trkpt lat="47.27969" lon="-1.61114">
        <ele>55.5155334</ele>
        <time>2016-10-25T07:27:37Z</time>
      </trkpt>
      <trkpt lat="47.27972" lon="-1.61118">
        <ele>55.7288818</ele>
        <time>2016-10-25T07:27:40Z</time>
      </trkpt>
      <trkpt lat="47.27973" lon="-1.61121">
        <ele>55.9060364</ele>
        <time>2016-10-25T07:27:43Z</time>
      </trkpt>
      <trkpt lat="47.27974" lon="-1.61123">
        <ele>56.0556641</ele>
        <time>2016-10-25T07:27:46Z</time>
      </trkpt>
      <trkpt lat="47.27975" lon="-1.61125">
        <ele>56.1954651</ele>
        <time>2016-10-25T07:27:49Z</time>
      </trkpt>
      <trkpt lat="47.27975" lon="-1.61127">
        <ele>56.31604</ele>
        <time>2016-10-25T07:27:51Z</time>
      </trkpt>
      <trkpt lat="47.27976" lon="-1.61131">
        <ele>56.4386902</ele>
        <time>2016-10-25T07:27:54Z</time>
      </trkpt>
      <trkpt lat="47.27978" lon="-1.61135">
        <ele>56.5743103</ele>
        <time>2016-10-25T07:27:57Z</time>
      </trkpt>
      <trkpt lat="47.27979" lon="-1.61138">
        <ele>56.7282715</ele>
        <time>2016-10-25T07:27:59Z</time>
      </trkpt>
      <trkpt lat="47.2798" lon="-1.61142">
        <ele>56.8948364</ele>
        <time>2016-10-25T07:28:01Z</time>
      </trkpt>
      <trkpt lat="47.27982" lon="-1.61146">
        <ele>57.0717773</ele>
        <time>2016-10-25T07:28:04Z</time>
      </trkpt>
      <trkpt lat="47.27984" lon="-1.61152">
        <ele>57.2666321</ele>
        <time>2016-10-25T07:28:07Z</time>
      </trkpt>
      <trkpt lat="47.27987" lon="-1.61156">
        <ele>57.4608154</ele>
        <time>2016-10-25T07:28:10Z</time>
      </trkpt>
      <trkpt lat="47.27988" lon="-1.6116">
        <ele>57.6513062</ele>
        <time>2016-10-25T07:28:13Z</time>
      </trkpt>
      <trkpt lat="47.27989" lon="-1.61165">
        <ele>57.8639526</ele>
        <time>2016-10-25T07:28:16Z</time>
      </trkpt>
      <trkpt lat="47.2799" lon="-1.61168">
        <ele>58.0600052</ele>
        <time>2016-10-25T07:28:18Z</time>
      </trkpt>
      <trkpt lat="47.27992" lon="-1.61172">
        <ele>58.2033501</ele>
        <time>2016-10-25T07:28:21Z</time>
      </trkpt>
      <trkpt lat="47.27994" lon="-1.61177">
        <ele>58.3224373</ele>
        <time>2016-10-25T07:28:24Z</time>
      </trkpt>
      <trkpt lat="47.27995" lon="-1.6118">
        <ele>58.4205551</ele>
        <time>2016-10-25T07:28:26Z</time>
      </trkpt>
      <trkpt lat="47.27995" lon="-1.61184">
        <ele>58.4810791</ele>
        <time>2016-10-25T07:28:28Z</time>
      </trkpt>
      <trkpt lat="47.27996" lon="-1.61187">
        <ele>58.527771</ele>
        <time>2016-10-25T07:28:30Z</time>
      </trkpt>
      <trkpt lat="47.27998" lon="-1.6119">
        <ele>58.567627</ele>
        <time>2016-10-25T07:28:33Z</time>
      </trkpt>
      <trkpt lat="47.28" lon="-1.61194">
        <ele>58.604847</ele>
        <time>2016-10-25T07:28:36Z</time>
      </trkpt>
      <trkpt lat="47.28001" lon="-1.61197">
        <ele>58.6394424</ele>
        <time>2016-10-25T07:28:38Z</time>
      </trkpt>
      <trkpt lat="47.28002" lon="-1.61205">
        <ele>58.6863174</ele>
        <time>2016-10-25T07:28:41Z</time>
      </trkpt>
      <trkpt lat="47.28003" lon="-1.6121">
        <ele>58.7402153</ele>
        <time>2016-10-25T07:28:43Z</time>
      </trkpt>
      <trkpt lat="47.28005" lon="-1.61215">
        <ele>58.8033829</ele>
        <time>2016-10-25T07:28:46Z</time>
      </trkpt>
      <trkpt lat="47.28008" lon="-1.61221">
        <ele>58.8729935</ele>
        <time>2016-10-25T07:28:49Z</time>
      </trkpt>
      <trkpt lat="47.2801" lon="-1.61225">
        <ele>58.9341202</ele>
        <time>2016-10-25T07:28:51Z</time>
      </trkpt>
      <trkpt lat="47.28012" lon="-1.61229">
        <ele>58.9748917</ele>
        <time>2016-10-25T07:28:54Z</time>
      </trkpt>
      <trkpt lat="47.28012" lon="-1.61232">
        <ele>59.0112381</ele>
        <time>2016-10-25T07:28:56Z</time>
      </trkpt>
      <trkpt lat="47.28014" lon="-1.61235">
        <ele>59.050972</ele>
        <time>2016-10-25T07:28:58Z</time>
      </trkpt>
      <trkpt lat="47.28015" lon="-1.6124">
        <ele>59.0915756</ele>
        <time>2016-10-25T07:29:00Z</time>
      </trkpt>
      <trkpt lat="47.28017" lon="-1.61246">
        <ele>59.1486206</ele>
        <time>2016-10-25T07:29:02Z</time>
      </trkpt>
      <trkpt lat="47.28018" lon="-1.61249">
        <ele>59.2084236</ele>
        <time>2016-10-25T07:29:05Z</time>
      </trkpt>
      <trkpt lat="47.28019" lon="-1.61252">
        <ele>59.2646255</ele>
        <time>2016-10-25T07:29:07Z</time>
      </trkpt>
      <trkpt lat="47.28021" lon="-1.61257">
        <ele>59.3137321</ele>
        <time>2016-10-25T07:29:10Z</time>
      </trkpt>
      <trkpt lat="47.28022" lon="-1.6126">
        <ele>59.3551865</ele>
        <time>2016-10-25T07:29:12Z</time>
      </trkpt>
      <trkpt lat="47.28024" lon="-1.61266">
        <ele>59.3886719</ele>
        <time>2016-10-25T07:29:15Z</time>
      </trkpt>
      <trkpt lat="47.28026" lon="-1.61272">
        <ele>59.4270515</ele>
        <time>2016-10-25T07:29:18Z</time>
      </trkpt>
      <trkpt lat="47.28026" lon="-1.61276">
        <ele>59.4707108</ele>
        <time>2016-10-25T07:29:20Z</time>
      </trkpt>
      <trkpt lat="47.28028" lon="-1.61281">
        <ele>59.5197029</ele>
        <time>2016-10-25T07:29:23Z</time>
      </trkpt>
      <trkpt lat="47.28029" lon="-1.61284">
        <ele>59.5617256</ele>
        <time>2016-10-25T07:29:25Z</time>
      </trkpt>
      <trkpt lat="47.28032" lon="-1.61291">
        <ele>59.5996628</ele>
        <time>2016-10-25T07:29:28Z</time>
      </trkpt>
      <trkpt lat="47.28032" lon="-1.61296">
        <ele>59.6396904</ele>
        <time>2016-10-25T07:29:30Z</time>
      </trkpt>
      <trkpt lat="47.28032" lon="-1.61302">
        <ele>59.6929131</ele>
        <time>2016-10-25T07:29:33Z</time>
      </trkpt>
      <trkpt lat="47.28032" lon="-1.61306">
        <ele>59.7522278</ele>
        <time>2016-10-25T07:29:35Z</time>
      </trkpt>
      <trkpt lat="47.28033" lon="-1.61309">
        <ele>59.8188972</ele>
        <time>2016-10-25T07:29:37Z</time>
      </trkpt>
      <trkpt lat="47.28033" lon="-1.61314">
        <ele>59.895874</ele>
        <time>2016-10-25T07:29:40Z</time>
      </trkpt>
      <trkpt lat="47.28034" lon="-1.61319">
        <ele>59.9704895</ele>
        <time>2016-10-25T07:29:43Z</time>
      </trkpt>
      <trkpt lat="47.28034" lon="-1.61323">
        <ele>60.0342789</ele>
        <time>2016-10-25T07:29:45Z</time>
      </trkpt>
      <trkpt lat="47.28034" lon="-1.61328">
        <ele>60.1028633</ele>
        <time>2016-10-25T07:29:47Z</time>
      </trkpt>
      <trkpt lat="47.28035" lon="-1.61335">
        <ele>60.1845589</ele>
        <time>2016-10-25T07:29:50Z</time>
      </trkpt>
      <trkpt lat="47.28035" lon="-1.61339">
        <ele>60.2676773</ele>
        <time>2016-10-25T07:29:52Z</time>
      </trkpt>
      <trkpt lat="47.28035" lon="-1.61344">
        <ele>60.3566475</ele>
        <time>2016-10-25T07:29:54Z</time>
      </trkpt>
      <trkpt lat="47.28035" lon="-1.6135">
        <ele>60.4444199</ele>
        <time>2016-10-25T07:29:57Z</time>
      </trkpt>
      <trkpt lat="47.28037" lon="-1.61356">
        <ele>60.5284233</ele>
        <time>2016-10-25T07:30:00Z</time>
      </trkpt>
      <trkpt lat="47.28036" lon="-1.61361">
        <ele>60.6111336</ele>
        <time>2016-10-25T07:30:02Z</time>
      </trkpt>
      <trkpt lat="47.28037" lon="-1.61367">
        <ele>60.7013779</ele>
        <time>2016-10-25T07:30:05Z</time>
      </trkpt>
      <trkpt lat="47.28036" lon="-1.61371">
        <ele>60.7871819</ele>
        <time>2016-10-25T07:30:07Z</time>
      </trkpt>
      <trkpt lat="47.28037" lon="-1.61376">
        <ele>60.8720627</ele>
        <time>2016-10-25T07:30:10Z</time>
      </trkpt>
      <trkpt lat="47.28038" lon="-1.61379">
        <ele>60.9436874</ele>
        <time>2016-10-25T07:30:12Z</time>
      </trkpt>
      <trkpt lat="47.28038" lon="-1.61381">
        <ele>60.9988174</ele>
        <time>2016-10-25T07:30:14Z</time>
      </trkpt>
      <trkpt lat="47.28039" lon="-1.61387">
        <ele>61.0408936</ele>
        <time>2016-10-25T07:30:17Z</time>
      </trkpt>
      <trkpt lat="47.2804" lon="-1.61393">
        <ele>61.0782852</ele>
        <time>2016-10-25T07:30:20Z</time>
      </trkpt>
      <trkpt lat="47.28042" lon="-1.61397">
        <ele>61.0973892</ele>
        <time>2016-10-25T07:30:22Z</time>
      </trkpt>
      <trkpt lat="47.28042" lon="-1.61403">
        <ele>61.1296883</ele>
        <time>2016-10-25T07:30:25Z</time>
      </trkpt>
      <trkpt lat="47.28042" lon="-1.61409">
        <ele>61.1869278</ele>
        <time>2016-10-25T07:30:28Z</time>
      </trkpt>
      <trkpt lat="47.28043" lon="-1.61413">
        <ele>61.2406921</ele>
        <time>2016-10-25T07:30:31Z</time>
      </trkpt>
      <trkpt lat="47.28044" lon="-1.61419">
        <ele>61.2811508</ele>
        <time>2016-10-25T07:30:34Z</time>
      </trkpt>
      <trkpt lat="47.28045" lon="-1.61424">
        <ele>61.3010979</ele>
        <time>2016-10-25T07:30:37Z</time>
      </trkpt>
      <trkpt lat="47.28047" lon="-1.61429">
        <ele>61.2750969</ele>
        <time>2016-10-25T07:30:40Z</time>
      </trkpt>
      <trkpt lat="47.28049" lon="-1.61434">
        <ele>61.1940384</ele>
        <time>2016-10-25T07:30:43Z</time>
      </trkpt>
      <trkpt lat="47.2805" lon="-1.61437">
        <ele>61.0888786</ele>
        <time>2016-10-25T07:30:45Z</time>
      </trkpt>
      <trkpt lat="47.2805" lon="-1.61441">
        <ele>60.9813652</ele>
        <time>2016-10-25T07:30:47Z</time>
      </trkpt>
      <trkpt lat="47.28049" lon="-1.61445">
        <ele>60.900444</ele>
        <time>2016-10-25T07:30:49Z</time>
      </trkpt>
      <trkpt lat="47.28049" lon="-1.61451">
        <ele>60.8447685</ele>
        <time>2016-10-25T07:30:52Z</time>
      </trkpt>
      <trkpt lat="47.28048" lon="-1.61457">
        <ele>60.8166924</ele>
        <time>2016-10-25T07:30:55Z</time>
      </trkpt>
      <trkpt lat="47.28046" lon="-1.61463">
        <ele>60.8039131</ele>
        <time>2016-10-25T07:30:57Z</time>
      </trkpt>
      <trkpt lat="47.28045" lon="-1.61469">
        <ele>60.797657</ele>
        <time>2016-10-25T07:31:00Z</time>
      </trkpt>
      <trkpt lat="47.28043" lon="-1.61472">
        <ele>60.7925949</ele>
        <time>2016-10-25T07:31:02Z</time>
      </trkpt>
      <trkpt lat="47.28041" lon="-1.61475">
        <ele>60.79533</ele>
        <time>2016-10-25T07:31:04Z</time>
      </trkpt>
      <trkpt lat="47.28038" lon="-1.61481">
        <ele>60.8018608</ele>
        <time>2016-10-25T07:31:07Z</time>
      </trkpt>
      <trkpt lat="47.28033" lon="-1.61483">
        <ele>60.825428</ele>
        <time>2016-10-25T07:31:10Z</time>
      </trkpt>
      <trkpt lat="47.28028" lon="-1.61482">
        <ele>60.8691521</ele>
        <time>2016-10-25T07:31:13Z</time>
      </trkpt>
      <trkpt lat="47.28024" lon="-1.61481">
        <ele>60.9365616</ele>
        <time>2016-10-25T07:31:16Z</time>
      </trkpt>
      <trkpt lat="47.28022" lon="-1.61481">
        <ele>61.0141792</ele>
        <time>2016-10-25T07:31:18Z</time>
      </trkpt>
      <trkpt lat="47.28018" lon="-1.61483">
        <ele>61.0936165</ele>
        <time>2016-10-25T07:31:21Z</time>
      </trkpt>
      <trkpt lat="47.28015" lon="-1.61484">
        <ele>61.1637383</ele>
        <time>2016-10-25T07:31:24Z</time>
      </trkpt>
      <trkpt lat="47.28013" lon="-1.61485">
        <ele>61.2161636</ele>
        <time>2016-10-25T07:31:26Z</time>
      </trkpt>
      <trkpt lat="47.28011" lon="-1.61486">
        <ele>61.2460136</ele>
        <time>2016-10-25T07:31:28Z</time>
      </trkpt>
      <trkpt lat="47.28008" lon="-1.61487">
        <ele>61.2680969</ele>
        <time>2016-10-25T07:31:30Z</time>
      </trkpt>
      <trkpt lat="47.28005" lon="-1.61489">
        <ele>61.2855721</ele>
        <time>2016-10-25T07:31:33Z</time>
      </trkpt>
      <trkpt lat="47.28003" lon="-1.6149">
        <ele>61.2959061</ele>
        <time>2016-10-25T07:31:35Z</time>
      </trkpt>
      <trkpt lat="47.27999" lon="-1.61493">
        <ele>61.2900276</ele>
        <time>2016-10-25T07:31:38Z</time>
      </trkpt>
      <trkpt lat="47.27997" lon="-1.61494">
        <ele>61.2558975</ele>
        <time>2016-10-25T07:31:40Z</time>
      </trkpt>
      <trkpt lat="47.27994" lon="-1.61495">
        <ele>61.1918221</ele>
        <time>2016-10-25T07:31:42Z</time>
      </trkpt>
      <trkpt lat="47.2799" lon="-1.61496">
        <ele>61.0893059</ele>
        <time>2016-10-25T07:31:45Z</time>
      </trkpt>
      <trkpt lat="47.27987" lon="-1.61498">
        <ele>60.9505005</ele>
        <time>2016-10-25T07:31:48Z</time>
      </trkpt>
      <trkpt lat="47.27983" lon="-1.61499">
        <ele>60.7897835</ele>
        <time>2016-10-25T07:31:50Z</time>
      </trkpt>
      <trkpt lat="47.27979" lon="-1.61499">
        <ele>60.6262741</ele>
        <time>2016-10-25T07:31:53Z</time>
      </trkpt>
      <trkpt lat="47.27975" lon="-1.61497">
        <ele>60.4740067</ele>
        <time>2016-10-25T07:31:55Z</time>
      </trkpt>
      <trkpt lat="47.27971" lon="-1.61497">
        <ele>60.3275032</ele>
        <time>2016-10-25T07:31:58Z</time>
      </trkpt>
      <trkpt lat="47.27967" lon="-1.61499">
        <ele>60.1843643</ele>
        <time>2016-10-25T07:32:01Z</time>
      </trkpt>
      <trkpt lat="47.27964" lon="-1.61498">
        <ele>60.0553703</ele>
        <time>2016-10-25T07:32:03Z</time>
      </trkpt>
      <trkpt lat="47.27961" lon="-1.61497">
        <ele>59.9465103</ele>
        <time>2016-10-25T07:32:05Z</time>
      </trkpt>
      <trkpt lat="47.27958" lon="-1.61496">
        <ele>59.8412895</ele>
        <time>2016-10-25T07:32:07Z</time>
      </trkpt>
      <trkpt lat="47.27954" lon="-1.61494">
        <ele>59.7618523</ele>
        <time>2016-10-25T07:32:10Z</time>
      </trkpt>
      <trkpt lat="47.27952" lon="-1.61492">
        <ele>59.7209396</ele>
        <time>2016-10-25T07:32:12Z</time>
      </trkpt>
      <trkpt lat="47.2795" lon="-1.61489">
        <ele>59.7129745</ele>
        <time>2016-10-25T07:32:14Z</time>
      </trkpt>
      <trkpt lat="47.27948" lon="-1.61485">
        <ele>59.7338028</ele>
        <time>2016-10-25T07:32:16Z</time>
      </trkpt>
      <trkpt lat="47.27946" lon="-1.61482">
        <ele>59.7914848</ele>
        <time>2016-10-25T07:32:19Z</time>
      </trkpt>
      <trkpt lat="47.27945" lon="-1.6148">
        <ele>59.8685112</ele>
        <time>2016-10-25T07:32:21Z</time>
      </trkpt>
      <trkpt lat="47.27942" lon="-1.61477">
        <ele>59.9566536</ele>
        <time>2016-10-25T07:32:23Z</time>
      </trkpt>
      <trkpt lat="47.27938" lon="-1.61474">
        <ele>60.0417404</ele>
        <time>2016-10-25T07:32:26Z</time>
      </trkpt>
      <trkpt lat="47.27933" lon="-1.61472">
        <ele>60.0930786</ele>
        <time>2016-10-25T07:32:29Z</time>
      </trkpt>
      <trkpt lat="47.2793" lon="-1.61472">
        <ele>60.1058655</ele>
        <time>2016-10-25T07:32:31Z</time>
      </trkpt>
      <trkpt lat="47.27926" lon="-1.61472">
        <ele>60.0866814</ele>
        <time>2016-10-25T07:32:33Z</time>
      </trkpt>
      <trkpt lat="47.27921" lon="-1.61474">
        <ele>59.999054</ele>
        <time>2016-10-25T07:32:36Z</time>
      </trkpt>
      <trkpt lat="47.27917" lon="-1.61475">
        <ele>59.8727226</ele>
        <time>2016-10-25T07:32:39Z</time>
      </trkpt>
      <trkpt lat="47.27915" lon="-1.61476">
        <ele>59.7269363</ele>
        <time>2016-10-25T07:32:41Z</time>
      </trkpt>
      <trkpt lat="47.27912" lon="-1.61476">
        <ele>59.5649948</ele>
        <time>2016-10-25T07:32:43Z</time>
      </trkpt>
      <trkpt lat="47.2791" lon="-1.61478">
        <ele>59.3926582</ele>
        <time>2016-10-25T07:32:45Z</time>
      </trkpt>
      <trkpt lat="47.27906" lon="-1.61482">
        <ele>59.2025261</ele>
        <time>2016-10-25T07:32:48Z</time>
      </trkpt>
      <trkpt lat="47.27902" lon="-1.61486">
        <ele>58.9685364</ele>
        <time>2016-10-25T07:32:51Z</time>
      </trkpt>
      <trkpt lat="47.27899" lon="-1.61489">
        <ele>58.7149124</ele>
        <time>2016-10-25T07:32:54Z</time>
      </trkpt>
      <trkpt lat="47.27896" lon="-1.61491">
        <ele>58.4546089</ele>
        <time>2016-10-25T07:32:56Z</time>
      </trkpt>
      <trkpt lat="47.27892" lon="-1.61493">
        <ele>58.1764412</ele>
        <time>2016-10-25T07:32:59Z</time>
      </trkpt>
      <trkpt lat="47.27889" lon="-1.61495">
        <ele>57.944313</ele>
        <time>2016-10-25T07:33:01Z</time>
      </trkpt>
      <trkpt lat="47.27885" lon="-1.61496">
        <ele>57.7557068</ele>
        <time>2016-10-25T07:33:04Z</time>
      </trkpt>
      <trkpt lat="47.27882" lon="-1.61496">
        <ele>57.5947495</ele>
        <time>2016-10-25T07:33:07Z</time>
      </trkpt>
      <trkpt lat="47.27878" lon="-1.61497">
        <ele>57.4446411</ele>
        <time>2016-10-25T07:33:10Z</time>
      </trkpt>
      <trkpt lat="47.27874" lon="-1.61498">
        <ele>57.3121338</ele>
        <time>2016-10-25T07:33:13Z</time>
      </trkpt>
      <trkpt lat="47.27872" lon="-1.61499">
        <ele>57.1873894</ele>
        <time>2016-10-25T07:33:15Z</time>
      </trkpt>
      <trkpt lat="47.27869" lon="-1.615">
        <ele>57.0694809</ele>
        <time>2016-10-25T07:33:17Z</time>
      </trkpt>
      <trkpt lat="47.27866" lon="-1.61501">
        <ele>56.9567947</ele>
        <time>2016-10-25T07:33:19Z</time>
      </trkpt>
      <trkpt lat="47.27862" lon="-1.61499">
        <ele>56.8636589</ele>
        <time>2016-10-25T07:33:22Z</time>
      </trkpt>
      <trkpt lat="47.27858" lon="-1.61498">
        <ele>56.7850227</ele>
        <time>2016-10-25T07:33:25Z</time>
      </trkpt>
      <trkpt lat="47.27856" lon="-1.61499">
        <ele>56.7087898</ele>
        <time>2016-10-25T07:33:27Z</time>
      </trkpt>
      <trkpt lat="47.27853" lon="-1.615">
        <ele>56.635498</ele>
        <time>2016-10-25T07:33:30Z</time>
      </trkpt>
      <trkpt lat="47.27849" lon="-1.61499">
        <ele>56.5650215</ele>
        <time>2016-10-25T07:33:33Z</time>
      </trkpt>
      <trkpt lat="47.27846" lon="-1.61499">
        <ele>56.4834404</ele>
        <time>2016-10-25T07:33:35Z</time>
      </trkpt>
      <trkpt lat="47.27843" lon="-1.61498">
        <ele>56.4051323</ele>
        <time>2016-10-25T07:33:37Z</time>
      </trkpt>
      <trkpt lat="47.27837" lon="-1.61499">
        <ele>56.3124161</ele>
        <time>2016-10-25T07:33:40Z</time>
      </trkpt>
      <trkpt lat="47.27831" lon="-1.615">
        <ele>56.164093</ele>
        <time>2016-10-25T07:33:43Z</time>
      </trkpt>
      <trkpt lat="47.27827" lon="-1.61501">
        <ele>55.9400139</ele>
        <time>2016-10-25T07:33:45Z</time>
      </trkpt>
      <trkpt lat="47.27823" lon="-1.61503">
        <ele>55.6189346</ele>
        <time>2016-10-25T07:33:48Z</time>
      </trkpt>
      <trkpt lat="47.2782" lon="-1.61505">
        <ele>55.228569</ele>
        <time>2016-10-25T07:33:50Z</time>
      </trkpt>
      <trkpt lat="47.27815" lon="-1.61507">
        <ele>54.7577744</ele>
        <time>2016-10-25T07:33:53Z</time>
      </trkpt>
      <trkpt lat="47.27811" lon="-1.61509">
        <ele>54.2580566</ele>
        <time>2016-10-25T07:33:56Z</time>
      </trkpt>
      <trkpt lat="47.27808" lon="-1.6151">
        <ele>53.783287</ele>
        <time>2016-10-25T07:33:58Z</time>
      </trkpt>
      <trkpt lat="47.27804" lon="-1.61513">
        <ele>53.3376579</ele>
        <time>2016-10-25T07:34:01Z</time>
      </trkpt>
      <trkpt lat="47.27802" lon="-1.61514">
        <ele>52.9193649</ele>
        <time>2016-10-25T07:34:03Z</time>
      </trkpt>
      <trkpt lat="47.27799" lon="-1.61515">
        <ele>52.5382919</ele>
        <time>2016-10-25T07:34:05Z</time>
      </trkpt>
      <trkpt lat="47.27795" lon="-1.61517">
        <ele>52.1920357</ele>
        <time>2016-10-25T07:34:08Z</time>
      </trkpt>
      <trkpt lat="47.27792" lon="-1.6152">
        <ele>51.8453979</ele>
        <time>2016-10-25T07:34:11Z</time>
      </trkpt>
      <trkpt lat="47.2779" lon="-1.61522">
        <ele>51.5432434</ele>
        <time>2016-10-25T07:34:13Z</time>
      </trkpt>
      <trkpt lat="47.27787" lon="-1.61526">
        <ele>51.2271805</ele>
        <time>2016-10-25T07:34:16Z</time>
      </trkpt>
      <trkpt lat="47.27784" lon="-1.61529">
        <ele>50.9404068</ele>
        <time>2016-10-25T07:34:18Z</time>
      </trkpt>
      <trkpt lat="47.27781" lon="-1.61533">
        <ele>50.6602974</ele>
        <time>2016-10-25T07:34:21Z</time>
      </trkpt>
      <trkpt lat="47.27777" lon="-1.61536">
        <ele>50.3957138</ele>
        <time>2016-10-25T07:34:24Z</time>
      </trkpt>
      <trkpt lat="47.27774" lon="-1.61539">
        <ele>50.1292038</ele>
        <time>2016-10-25T07:34:27Z</time>
      </trkpt>
      <trkpt lat="47.27772" lon="-1.61542">
        <ele>49.8983574</ele>
        <time>2016-10-25T07:34:30Z</time>
      </trkpt>
      <trkpt lat="47.2777" lon="-1.61544">
        <ele>49.6818619</ele>
        <time>2016-10-25T07:34:32Z</time>
      </trkpt>
      <trkpt lat="47.27766" lon="-1.61548">
        <ele>49.4900589</ele>
        <time>2016-10-25T07:34:35Z</time>
      </trkpt>
      <trkpt lat="47.27764" lon="-1.61551">
        <ele>49.3218079</ele>
        <time>2016-10-25T07:34:37Z</time>
      </trkpt>
      <trkpt lat="47.27761" lon="-1.61554">
        <ele>49.1583099</ele>
        <time>2016-10-25T07:34:40Z</time>
      </trkpt>
      <trkpt lat="47.27758" lon="-1.61556">
        <ele>48.9985962</ele>
        <time>2016-10-25T07:34:42Z</time>
      </trkpt>
      <trkpt lat="47.27755" lon="-1.61559">
        <ele>48.8303452</ele>
        <time>2016-10-25T07:34:45Z</time>
      </trkpt>
      <trkpt lat="47.27753" lon="-1.61561">
        <ele>48.6817245</ele>
        <time>2016-10-25T07:34:47Z</time>
      </trkpt>
      <trkpt lat="47.27751" lon="-1.61562">
        <ele>48.5359879</ele>
        <time>2016-10-25T07:34:49Z</time>
      </trkpt>
      <trkpt lat="47.27747" lon="-1.61564">
        <ele>48.3830528</ele>
        <time>2016-10-25T07:34:52Z</time>
      </trkpt>
      <trkpt lat="47.27745" lon="-1.61566">
        <ele>48.2346992</ele>
        <time>2016-10-25T07:34:54Z</time>
      </trkpt>
      <trkpt lat="47.27741" lon="-1.61568">
        <ele>48.0791702</ele>
        <time>2016-10-25T07:34:57Z</time>
      </trkpt>
      <trkpt lat="47.27737" lon="-1.6157">
        <ele>47.9015427</ele>
        <time>2016-10-25T07:35:00Z</time>
      </trkpt>
      <trkpt lat="47.27735" lon="-1.61571">
        <ele>47.7072563</ele>
        <time>2016-10-25T07:35:02Z</time>
      </trkpt>
      <trkpt lat="47.27731" lon="-1.61572">
        <ele>47.505703</ele>
        <time>2016-10-25T07:35:05Z</time>
      </trkpt>
      <trkpt lat="47.27728" lon="-1.61576">
        <ele>47.2971878</ele>
        <time>2016-10-25T07:35:08Z</time>
      </trkpt>
      <trkpt lat="47.27726" lon="-1.61577">
        <ele>47.1017532</ele>
        <time>2016-10-25T07:35:10Z</time>
      </trkpt>
      <trkpt lat="47.27722" lon="-1.61579">
        <ele>46.8975525</ele>
        <time>2016-10-25T07:35:13Z</time>
      </trkpt>
      <trkpt lat="47.2772" lon="-1.61581">
        <ele>46.7041206</ele>
        <time>2016-10-25T07:35:15Z</time>
      </trkpt>
      <trkpt lat="47.27716" lon="-1.61583">
        <ele>46.528511</ele>
        <time>2016-10-25T07:35:18Z</time>
      </trkpt>
      <trkpt lat="47.27714" lon="-1.61585">
        <ele>46.3520966</ele>
        <time>2016-10-25T07:35:21Z</time>
      </trkpt>
      <trkpt lat="47.27713" lon="-1.61585">
        <ele>46.1886978</ele>
        <time>2016-10-25T07:35:24Z</time>
      </trkpt>
      <trkpt lat="47.27711" lon="-1.61585">
        <ele>46.0539932</ele>
        <time>2016-10-25T07:35:26Z</time>
      </trkpt>
      <trkpt lat="47.27703" lon="-1.6159">
        <ele>45.8313637</ele>
        <time>2016-10-25T07:36:15Z</time>
      </trkpt>
      <trkpt lat="47.27701" lon="-1.61592">
        <ele>45.6176338</ele>
        <time>2016-10-25T07:36:17Z</time>
      </trkpt>
      <trkpt lat="47.27698" lon="-1.61594">
        <ele>45.3927917</ele>
        <time>2016-10-25T07:36:20Z</time>
      </trkpt>
      <trkpt lat="47.27695" lon="-1.61596">
        <ele>45.1464233</ele>
        <time>2016-10-25T07:36:23Z</time>
      </trkpt>
      <trkpt lat="47.27691" lon="-1.61598">
        <ele>44.8736191</ele>
        <time>2016-10-25T07:36:26Z</time>
      </trkpt>
      <trkpt lat="47.27688" lon="-1.61599">
        <ele>44.6771698</ele>
        <time>2016-10-25T07:36:28Z</time>
      </trkpt>
      <trkpt lat="47.27684" lon="-1.616">
        <ele>44.453949</ele>
        <time>2016-10-25T07:36:31Z</time>
      </trkpt>
      <trkpt lat="47.2768" lon="-1.616">
        <ele>44.2092361</ele>
        <time>2016-10-25T07:36:34Z</time>
      </trkpt>
      <trkpt lat="47.27678" lon="-1.616">
        <ele>43.962719</ele>
        <time>2016-10-25T07:36:36Z</time>
      </trkpt>
      <trkpt lat="47.27675" lon="-1.61601">
        <ele>43.7303848</ele>
        <time>2016-10-25T07:36:38Z</time>
      </trkpt>
      <trkpt lat="47.27671" lon="-1.61602">
        <ele>43.4775848</ele>
        <time>2016-10-25T07:36:41Z</time>
      </trkpt>
      <trkpt lat="47.27667" lon="-1.61603">
        <ele>43.2282333</ele>
        <time>2016-10-25T07:36:44Z</time>
      </trkpt>
      <trkpt lat="47.27665" lon="-1.61603">
        <ele>43.0211678</ele>
        <time>2016-10-25T07:36:46Z</time>
      </trkpt>
      <trkpt lat="47.27661" lon="-1.61604">
        <ele>42.8208389</ele>
        <time>2016-10-25T07:36:49Z</time>
      </trkpt>
      <trkpt lat="47.27658" lon="-1.61605">
        <ele>42.6296921</ele>
        <time>2016-10-25T07:36:51Z</time>
      </trkpt>
      <trkpt lat="47.27655" lon="-1.61604">
        <ele>42.4684067</ele>
        <time>2016-10-25T07:36:53Z</time>
      </trkpt>
      <trkpt lat="47.27651" lon="-1.61604">
        <ele>42.3194656</ele>
        <time>2016-10-25T07:36:56Z</time>
      </trkpt>
      <trkpt lat="47.27647" lon="-1.61605">
        <ele>42.1516914</ele>
        <time>2016-10-25T07:36:59Z</time>
      </trkpt>
      <trkpt lat="47.27642" lon="-1.61607">
        <ele>41.9884415</ele>
        <time>2016-10-25T07:37:02Z</time>
      </trkpt>
      <trkpt lat="47.27638" lon="-1.61607">
        <ele>41.8102722</ele>
        <time>2016-10-25T07:37:06Z</time>
      </trkpt>
      <trkpt lat="47.27636" lon="-1.61607">
        <ele>41.6356583</ele>
        <time>2016-10-25T07:37:07Z</time>
      </trkpt>
      <trkpt lat="47.27633" lon="-1.61607">
        <ele>41.4724655</ele>
        <time>2016-10-25T07:37:09Z</time>
      </trkpt>
      <trkpt lat="47.2763" lon="-1.61607">
        <ele>41.323761</ele>
        <time>2016-10-25T07:37:11Z</time>
      </trkpt>
      <trkpt lat="47.27627" lon="-1.61607">
        <ele>41.1717224</ele>
        <time>2016-10-25T07:37:14Z</time>
      </trkpt>
      <trkpt lat="47.27625" lon="-1.61607">
        <ele>41.0340271</ele>
        <time>2016-10-25T07:37:16Z</time>
      </trkpt>
      <trkpt lat="47.27621" lon="-1.61607">
        <ele>40.8929367</ele>
        <time>2016-10-25T07:37:19Z</time>
      </trkpt>
      <trkpt lat="47.27617" lon="-1.61607">
        <ele>40.7366333</ele>
        <time>2016-10-25T07:37:22Z</time>
      </trkpt>
      <trkpt lat="47.27614" lon="-1.61608">
        <ele>40.5753708</ele>
        <time>2016-10-25T07:37:25Z</time>
      </trkpt>
      <trkpt lat="47.27611" lon="-1.61609">
        <ele>40.4152527</ele>
        <time>2016-10-25T07:37:27Z</time>
      </trkpt>
      <trkpt lat="47.27608" lon="-1.6161">
        <ele>40.255024</ele>
        <time>2016-10-25T07:37:29Z</time>
      </trkpt>
      <trkpt lat="47.27604" lon="-1.6161">
        <ele>40.0858231</ele>
        <time>2016-10-25T07:37:32Z</time>
      </trkpt>
      <trkpt lat="47.27602" lon="-1.6161">
        <ele>39.9350052</ele>
        <time>2016-10-25T07:37:34Z</time>
      </trkpt>
      <trkpt lat="47.27599" lon="-1.61611">
        <ele>39.777916</ele>
        <time>2016-10-25T07:37:37Z</time>
      </trkpt>
      <trkpt lat="47.27596" lon="-1.61611">
        <ele>39.6268539</ele>
        <time>2016-10-25T07:37:39Z</time>
      </trkpt>
      <trkpt lat="47.27593" lon="-1.61612">
        <ele>39.4653053</ele>
        <time>2016-10-25T07:37:42Z</time>
      </trkpt>
      <trkpt lat="47.27591" lon="-1.61612">
        <ele>39.3281326</ele>
        <time>2016-10-25T07:37:44Z</time>
      </trkpt>
      <trkpt lat="47.27591" lon="-1.6161">
        <ele>39.2148857</ele>
        <time>2016-10-25T07:37:54Z</time>
      </trkpt>
      <trkpt lat="47.27591" lon="-1.61609">
        <ele>39.1422424</ele>
        <time>2016-10-25T07:37:57Z</time>
      </trkpt>
      <trkpt lat="47.27589" lon="-1.61608">
        <ele>39.0751534</ele>
        <time>2016-10-25T07:37:59Z</time>
      </trkpt>
      <trkpt lat="47.27587" lon="-1.61609">
        <ele>39.0167542</ele>
        <time>2016-10-25T07:38:02Z</time>
      </trkpt>
      <trkpt lat="47.27584" lon="-1.61609">
        <ele>38.956234</ele>
        <time>2016-10-25T07:38:05Z</time>
      </trkpt>
      <trkpt lat="47.27585" lon="-1.6161">
        <ele>38.895153</ele>
        <time>2016-10-25T07:38:16Z</time>
      </trkpt>
      <trkpt lat="47.27585" lon="-1.6161">
        <ele>38.895153</ele>
        <time>2016-10-25T07:38:36Z</time>
      </trkpt>
      <trkpt lat="47.27584" lon="-1.61611">
        <ele>38.8234367</ele>
        <time>2016-10-25T07:38:38Z</time>
      </trkpt>
      <trkpt lat="47.27583" lon="-1.61611">
        <ele>38.7591476</ele>
        <time>2016-10-25T07:38:40Z</time>
      </trkpt>
      <trkpt lat="47.2758" lon="-1.61611">
        <ele>38.7290421</ele>
        <time>2016-10-25T07:38:43Z</time>
      </trkpt>
      <trkpt lat="47.27577" lon="-1.61612">
        <ele>38.7240295</ele>
        <time>2016-10-25T07:38:46Z</time>
      </trkpt>
      <trkpt lat="47.27575" lon="-1.61612">
        <ele>38.7223091</ele>
        <time>2016-10-25T07:38:48Z</time>
      </trkpt>
      <trkpt lat="47.2757" lon="-1.61612">
        <ele>38.7378235</ele>
        <time>2016-10-25T07:38:51Z</time>
      </trkpt>
      <trkpt lat="47.27567" lon="-1.61612">
        <ele>38.7752075</ele>
        <time>2016-10-25T07:38:54Z</time>
      </trkpt>
      <trkpt lat="47.27564" lon="-1.61612">
        <ele>38.8114929</ele>
        <time>2016-10-25T07:38:56Z</time>
      </trkpt>
      <trkpt lat="47.27562" lon="-1.61611">
        <ele>38.849884</ele>
        <time>2016-10-25T07:38:58Z</time>
      </trkpt>
      <trkpt lat="47.27559" lon="-1.61612">
        <ele>38.8872986</ele>
        <time>2016-10-25T07:39:00Z</time>
      </trkpt>
      <trkpt lat="47.27555" lon="-1.61613">
        <ele>38.9210815</ele>
        <time>2016-10-25T07:39:03Z</time>
      </trkpt>
      <trkpt lat="47.27553" lon="-1.61614">
        <ele>38.948822</ele>
        <time>2016-10-25T07:39:06Z</time>
      </trkpt>
      <trkpt lat="47.27551" lon="-1.61614">
        <ele>38.973877</ele>
        <time>2016-10-25T07:39:09Z</time>
      </trkpt>
      <trkpt lat="47.27548" lon="-1.61616">
        <ele>38.9953308</ele>
        <time>2016-10-25T07:39:12Z</time>
      </trkpt>
      <trkpt lat="47.27545" lon="-1.61616">
        <ele>39.0189209</ele>
        <time>2016-10-25T07:39:15Z</time>
      </trkpt>
      <trkpt lat="47.27542" lon="-1.61616">
        <ele>39.0444031</ele>
        <time>2016-10-25T07:39:17Z</time>
      </trkpt>
      <trkpt lat="47.2754" lon="-1.61615">
        <ele>39.0730896</ele>
        <time>2016-10-25T07:39:19Z</time>
      </trkpt>
      <trkpt lat="47.27538" lon="-1.61615">
        <ele>39.1050415</ele>
        <time>2016-10-25T07:39:21Z</time>
      </trkpt>
      <trkpt lat="47.27535" lon="-1.61614">
        <ele>39.1412048</ele>
        <time>2016-10-25T07:39:24Z</time>
      </trkpt>
      <trkpt lat="47.27532" lon="-1.61614">
        <ele>39.1772461</ele>
        <time>2016-10-25T07:39:27Z</time>
      </trkpt>
      <trkpt lat="47.27529" lon="-1.61616">
        <ele>39.2085876</ele>
        <time>2016-10-25T07:39:30Z</time>
      </trkpt>
      <trkpt lat="47.27527" lon="-1.61617">
        <ele>39.2362366</ele>
        <time>2016-10-25T07:39:32Z</time>
      </trkpt>
      <trkpt lat="47.27525" lon="-1.61616">
        <ele>39.2623901</ele>
        <time>2016-10-25T07:39:35Z</time>
      </trkpt>
      <trkpt lat="47.27524" lon="-1.61616">
        <ele>39.2831116</ele>
        <time>2016-10-25T07:39:44Z</time>
      </trkpt>
      <trkpt lat="47.27522" lon="-1.61617">
        <ele>39.2990112</ele>
        <time>2016-10-25T07:39:46Z</time>
      </trkpt>
      <trkpt lat="47.27518" lon="-1.61616">
        <ele>39.32547</ele>
        <time>2016-10-25T07:39:49Z</time>
      </trkpt>
      <trkpt lat="47.27515" lon="-1.61615">
        <ele>39.3569031</ele>
        <time>2016-10-25T07:39:51Z</time>
      </trkpt>
      <trkpt lat="47.27513" lon="-1.61614">
        <ele>39.3898315</ele>
        <time>2016-10-25T07:39:53Z</time>
      </trkpt>
      <trkpt lat="47.27511" lon="-1.61615">
        <ele>39.4241943</ele>
        <time>2016-10-25T07:39:55Z</time>
      </trkpt>
      <trkpt lat="47.27507" lon="-1.61614">
        <ele>39.4673767</ele>
        <time>2016-10-25T07:39:58Z</time>
      </trkpt>
      <trkpt lat="47.27505" lon="-1.61614">
        <ele>39.5032959</ele>
        <time>2016-10-25T07:40:00Z</time>
      </trkpt>
      <trkpt lat="47.275" lon="-1.61615">
        <ele>39.539917</ele>
        <time>2016-10-25T07:40:03Z</time>
      </trkpt>
      <trkpt lat="47.27495" lon="-1.61619">
        <ele>39.6583405</ele>
        <time>2016-10-25T07:40:06Z</time>
      </trkpt>
      <trkpt lat="47.27492" lon="-1.6162">
        <ele>39.8342361</ele>
        <time>2016-10-25T07:40:08Z</time>
      </trkpt>
      <trkpt lat="47.27487" lon="-1.61622">
        <ele>40.0950394</ele>
        <time>2016-10-25T07:40:11Z</time>
      </trkpt>
      <trkpt lat="47.27484" lon="-1.61623">
        <ele>40.4059868</ele>
        <time>2016-10-25T07:40:13Z</time>
      </trkpt>
      <trkpt lat="47.27481" lon="-1.61625">
        <ele>40.7728996</ele>
        <time>2016-10-25T07:40:16Z</time>
      </trkpt>
      <trkpt lat="47.27478" lon="-1.61626">
        <ele>41.1081352</ele>
        <time>2016-10-25T07:40:18Z</time>
      </trkpt>
      <trkpt lat="47.27475" lon="-1.61628">
        <ele>41.4478989</ele>
        <time>2016-10-25T07:40:20Z</time>
      </trkpt>
      <trkpt lat="47.27472" lon="-1.61631">
        <ele>41.742424</ele>
        <time>2016-10-25T07:40:23Z</time>
      </trkpt>
      <trkpt lat="47.2747" lon="-1.61632">
        <ele>42.0405846</ele>
        <time>2016-10-25T07:40:25Z</time>
      </trkpt>
      <trkpt lat="47.27466" lon="-1.61634">
        <ele>42.3523827</ele>
        <time>2016-10-25T07:40:28Z</time>
      </trkpt>
      <trkpt lat="47.27463" lon="-1.61634">
        <ele>42.6761627</ele>
        <time>2016-10-25T07:40:30Z</time>
      </trkpt>
      <trkpt lat="47.2746" lon="-1.61636">
        <ele>42.995224</ele>
        <time>2016-10-25T07:40:32Z</time>
      </trkpt>
      <trkpt lat="47.27456" lon="-1.61637">
        <ele>43.3354912</ele>
        <time>2016-10-25T07:40:34Z</time>
      </trkpt>
      <trkpt lat="47.27451" lon="-1.61638">
        <ele>43.740242</ele>
        <time>2016-10-25T07:40:37Z</time>
      </trkpt>
      <trkpt lat="47.27448" lon="-1.6164">
        <ele>44.1232033</ele>
        <time>2016-10-25T07:40:39Z</time>
      </trkpt>
      <trkpt lat="47.27445" lon="-1.61642">
        <ele>44.5216942</ele>
        <time>2016-10-25T07:40:42Z</time>
      </trkpt>
      <trkpt lat="47.27442" lon="-1.61643">
        <ele>44.9228973</ele>
        <time>2016-10-25T07:40:44Z</time>
      </trkpt>
      <trkpt lat="47.27439" lon="-1.61644">
        <ele>45.3186226</ele>
        <time>2016-10-25T07:40:46Z</time>
      </trkpt>
      <trkpt lat="47.27436" lon="-1.61645">
        <ele>45.6457596</ele>
        <time>2016-10-25T07:40:48Z</time>
      </trkpt>
      <trkpt lat="47.27432" lon="-1.61645">
        <ele>46.0076294</ele>
        <time>2016-10-25T07:40:51Z</time>
      </trkpt>
      <trkpt lat="47.27427" lon="-1.61647">
        <ele>46.4187927</ele>
        <time>2016-10-25T07:40:54Z</time>
      </trkpt>
      <trkpt lat="47.27422" lon="-1.6165">
        <ele>46.8761978</ele>
        <time>2016-10-25T07:40:57Z</time>
      </trkpt>
      <trkpt lat="47.2742" lon="-1.61652">
        <ele>47.322258</ele>
        <time>2016-10-25T07:40:59Z</time>
      </trkpt>
      <trkpt lat="47.27416" lon="-1.61655">
        <ele>47.8128281</ele>
        <time>2016-10-25T07:41:02Z</time>
      </trkpt>
      <trkpt lat="47.27414" lon="-1.6166">
        <ele>48.253521</ele>
        <time>2016-10-25T07:41:05Z</time>
      </trkpt>
      <trkpt lat="47.27413" lon="-1.61661">
        <ele>48.5690002</ele>
        <time>2016-10-25T07:41:07Z</time>
      </trkpt>
      <trkpt lat="47.27412" lon="-1.61663">
        <ele>48.79179</ele>
        <time>2016-10-25T07:41:09Z</time>
      </trkpt>
      <trkpt lat="47.27411" lon="-1.61664">
        <ele>48.976078</ele>
        <time>2016-10-25T07:41:11Z</time>
      </trkpt>
      <trkpt lat="47.27409" lon="-1.61666">
        <ele>49.0801392</ele>
        <time>2016-10-25T07:41:14Z</time>
      </trkpt>
      <trkpt lat="47.27408" lon="-1.61667">
        <ele>49.1515732</ele>
        <time>2016-10-25T07:41:16Z</time>
      </trkpt>
      <trkpt lat="47.27406" lon="-1.61668">
        <ele>49.2184753</ele>
        <time>2016-10-25T07:41:18Z</time>
      </trkpt>
      <trkpt lat="47.274" lon="-1.61673">
        <ele>49.2902298</ele>
        <time>2016-10-25T07:41:25Z</time>
      </trkpt>
      <trkpt lat="47.27397" lon="-1.61675">
        <ele>49.3593941</ele>
        <time>2016-10-25T07:41:28Z</time>
      </trkpt>
      <trkpt lat="47.27394" lon="-1.61676">
        <ele>49.4175186</ele>
        <time>2016-10-25T07:41:30Z</time>
      </trkpt>
      <trkpt lat="47.27391" lon="-1.61678">
        <ele>49.4871597</ele>
        <time>2016-10-25T07:41:33Z</time>
      </trkpt>
      <trkpt lat="47.27388" lon="-1.6168">
        <ele>49.5717239</ele>
        <time>2016-10-25T07:41:36Z</time>
      </trkpt>
      <trkpt lat="47.27385" lon="-1.61681">
        <ele>49.6474113</ele>
        <time>2016-10-25T07:41:38Z</time>
      </trkpt>
      <trkpt lat="47.27383" lon="-1.61683">
        <ele>49.7212448</ele>
        <time>2016-10-25T07:41:41Z</time>
      </trkpt>
      <trkpt lat="47.2738" lon="-1.61686">
        <ele>49.7942429</ele>
        <time>2016-10-25T07:41:43Z</time>
      </trkpt>
      <trkpt lat="47.27377" lon="-1.61692">
        <ele>49.8548965</ele>
        <time>2016-10-25T07:41:46Z</time>
      </trkpt>
      <trkpt lat="47.27375" lon="-1.61695">
        <ele>49.9096947</ele>
        <time>2016-10-25T07:41:48Z</time>
      </trkpt>
      <trkpt lat="47.27372" lon="-1.61697">
        <ele>49.9729843</ele>
        <time>2016-10-25T07:41:51Z</time>
      </trkpt>
      <trkpt lat="47.2737" lon="-1.617">
        <ele>50.032608</ele>
        <time>2016-10-25T07:41:54Z</time>
      </trkpt>
      <trkpt lat="47.27367" lon="-1.61701">
        <ele>50.1036491</ele>
        <time>2016-10-25T07:41:56Z</time>
      </trkpt>
      <trkpt lat="47.27364" lon="-1.61704">
        <ele>50.1885185</ele>
        <time>2016-10-25T07:41:59Z</time>
      </trkpt>
      <trkpt lat="47.27361" lon="-1.61707">
        <ele>50.2952995</ele>
        <time>2016-10-25T07:42:02Z</time>
      </trkpt>
      <trkpt lat="47.27359" lon="-1.61709">
        <ele>50.3925018</ele>
        <time>2016-10-25T07:42:04Z</time>
      </trkpt>
      <trkpt lat="47.27359" lon="-1.61711">
        <ele>50.4786377</ele>
        <time>2016-10-25T07:42:07Z</time>
      </trkpt>
      <trkpt lat="47.27357" lon="-1.61714">
        <ele>50.5529404</ele>
        <time>2016-10-25T07:42:10Z</time>
      </trkpt>
      <trkpt lat="47.27354" lon="-1.61718">
        <ele>50.6336288</ele>
        <time>2016-10-25T07:42:13Z</time>
      </trkpt>
      <trkpt lat="47.27352" lon="-1.61721">
        <ele>50.6982117</ele>
        <time>2016-10-25T07:42:15Z</time>
      </trkpt>
      <trkpt lat="47.27349" lon="-1.61724">
        <ele>50.7895622</ele>
        <time>2016-10-25T07:42:18Z</time>
      </trkpt>
      <trkpt lat="47.27347" lon="-1.61725">
        <ele>50.9021873</ele>
        <time>2016-10-25T07:42:20Z</time>
      </trkpt>
      <trkpt lat="47.27345" lon="-1.61728">
        <ele>51.0297318</ele>
        <time>2016-10-25T07:42:22Z</time>
      </trkpt>
      <trkpt lat="47.27341" lon="-1.61731">
        <ele>51.1732368</ele>
        <time>2016-10-25T07:42:25Z</time>
      </trkpt>
      <trkpt lat="47.2734" lon="-1.61733">
        <ele>51.3167534</ele>
        <time>2016-10-25T07:42:27Z</time>
      </trkpt>
      <trkpt lat="47.27337" lon="-1.61736">
        <ele>51.4621086</ele>
        <time>2016-10-25T07:42:30Z</time>
      </trkpt>
      <trkpt lat="47.27334" lon="-1.61739">
        <ele>51.6157761</ele>
        <time>2016-10-25T07:42:32Z</time>
      </trkpt>
      <trkpt lat="47.27333" lon="-1.61741">
        <ele>51.7529411</ele>
        <time>2016-10-25T07:42:34Z</time>
      </trkpt>
      <trkpt lat="47.27332" lon="-1.61745">
        <ele>51.8290825</ele>
        <time>2016-10-25T07:42:37Z</time>
      </trkpt>
      <trkpt lat="47.27328" lon="-1.61752">
        <ele>51.8266678</ele>
        <time>2016-10-25T07:42:40Z</time>
      </trkpt>
      <trkpt lat="47.27324" lon="-1.61759">
        <ele>51.684967</ele>
        <time>2016-10-25T07:42:43Z</time>
      </trkpt>
      <trkpt lat="47.27322" lon="-1.61763">
        <ele>51.4722824</ele>
        <time>2016-10-25T07:42:45Z</time>
      </trkpt>
      <trkpt lat="47.2732" lon="-1.61766">
        <ele>51.2100449</ele>
        <time>2016-10-25T07:42:47Z</time>
      </trkpt>
      <trkpt lat="47.27319" lon="-1.61769">
        <ele>50.9301338</ele>
        <time>2016-10-25T07:42:50Z</time>
      </trkpt>
      <trkpt lat="47.27317" lon="-1.61773">
        <ele>50.6738663</ele>
        <time>2016-10-25T07:42:53Z</time>
      </trkpt>
      <trkpt lat="47.27317" lon="-1.61778">
        <ele>50.4822121</ele>
        <time>2016-10-25T07:42:56Z</time>
      </trkpt>
      <trkpt lat="47.27317" lon="-1.61781">
        <ele>50.3195267</ele>
        <time>2016-10-25T07:42:58Z</time>
      </trkpt>
      <trkpt lat="47.27316" lon="-1.61785">
        <ele>50.1749687</ele>
        <time>2016-10-25T07:43:01Z</time>
      </trkpt>
      <trkpt lat="47.27315" lon="-1.61789">
        <ele>50.0367126</ele>
        <time>2016-10-25T07:43:03Z</time>
      </trkpt>
      <trkpt lat="47.27312" lon="-1.61793">
        <ele>49.8933525</ele>
        <time>2016-10-25T07:43:05Z</time>
      </trkpt>
      <trkpt lat="47.27309" lon="-1.61798">
        <ele>49.7393112</ele>
        <time>2016-10-25T07:43:08Z</time>
      </trkpt>
      <trkpt lat="47.27306" lon="-1.618">
        <ele>49.5755234</ele>
        <time>2016-10-25T07:43:10Z</time>
      </trkpt>
      <trkpt lat="47.27304" lon="-1.61803">
        <ele>49.4132919</ele>
        <time>2016-10-25T07:43:12Z</time>
      </trkpt>
      <trkpt lat="47.27302" lon="-1.61809">
        <ele>49.2499504</ele>
        <time>2016-10-25T07:43:15Z</time>
      </trkpt>
      <trkpt lat="47.27302" lon="-1.61811">
        <ele>49.1178017</ele>
        <time>2016-10-25T07:43:17Z</time>
      </trkpt>
      <trkpt lat="47.27299" lon="-1.61816">
        <ele>49.0027504</ele>
        <time>2016-10-25T07:43:20Z</time>
      </trkpt>
      <trkpt lat="47.27296" lon="-1.6182">
        <ele>48.8941154</ele>
        <time>2016-10-25T07:43:22Z</time>
      </trkpt>
      <trkpt lat="47.27293" lon="-1.61825">
        <ele>48.7877731</ele>
        <time>2016-10-25T07:43:25Z</time>
      </trkpt>
      <trkpt lat="47.27292" lon="-1.61831">
        <ele>48.6991653</ele>
        <time>2016-10-25T07:43:28Z</time>
      </trkpt>
      <trkpt lat="47.27291" lon="-1.61836">
        <ele>48.5937004</ele>
        <time>2016-10-25T07:43:31Z</time>
      </trkpt>
      <trkpt lat="47.27289" lon="-1.61841">
        <ele>48.4683838</ele>
        <time>2016-10-25T07:43:34Z</time>
      </trkpt>
      <trkpt lat="47.27287" lon="-1.61846">
        <ele>48.321125</ele>
        <time>2016-10-25T07:43:37Z</time>
      </trkpt>
      <trkpt lat="47.27286" lon="-1.6185">
        <ele>48.1562614</ele>
        <time>2016-10-25T07:43:40Z</time>
      </trkpt>
      <trkpt lat="47.27285" lon="-1.61853">
        <ele>47.9791069</ele>
        <time>2016-10-25T07:43:42Z</time>
      </trkpt>
      <trkpt lat="47.27283" lon="-1.61858">
        <ele>47.7910843</ele>
        <time>2016-10-25T07:43:45Z</time>
      </trkpt>
      <trkpt lat="47.27282" lon="-1.61863">
        <ele>47.6149712</ele>
        <time>2016-10-25T07:43:48Z</time>
      </trkpt>
      <trkpt lat="47.2728" lon="-1.61865">
        <ele>47.4595222</ele>
        <time>2016-10-25T07:43:50Z</time>
      </trkpt>
      <trkpt lat="47.27279" lon="-1.61869">
        <ele>47.314312</ele>
        <time>2016-10-25T07:43:53Z</time>
      </trkpt>
      <trkpt lat="47.27278" lon="-1.61873">
        <ele>47.1665077</ele>
        <time>2016-10-25T07:43:56Z</time>
      </trkpt>
      <trkpt lat="47.27277" lon="-1.61878">
        <ele>47.025341</ele>
        <time>2016-10-25T07:43:59Z</time>
      </trkpt>
      <trkpt lat="47.27277" lon="-1.61882">
        <ele>46.8903923</ele>
        <time>2016-10-25T07:44:01Z</time>
      </trkpt>
      <trkpt lat="47.27275" lon="-1.61887">
        <ele>46.7424088</ele>
        <time>2016-10-25T07:44:04Z</time>
      </trkpt>
      <trkpt lat="47.27273" lon="-1.6189">
        <ele>46.6045418</ele>
        <time>2016-10-25T07:44:07Z</time>
      </trkpt>
      <trkpt lat="47.27272" lon="-1.61894">
        <ele>46.469326</ele>
        <time>2016-10-25T07:44:10Z</time>
      </trkpt>
      <trkpt lat="47.2727" lon="-1.61899">
        <ele>46.3396683</ele>
        <time>2016-10-25T07:44:13Z</time>
      </trkpt>
      <trkpt lat="47.27268" lon="-1.61904">
        <ele>46.2152557</ele>
        <time>2016-10-25T07:44:16Z</time>
      </trkpt>
      <trkpt lat="47.27266" lon="-1.61909">
        <ele>46.0984383</ele>
        <time>2016-10-25T07:44:19Z</time>
      </trkpt>
      <trkpt lat="47.27264" lon="-1.61913">
        <ele>45.9851456</ele>
        <time>2016-10-25T07:44:21Z</time>
      </trkpt>
      <trkpt lat="47.27262" lon="-1.61918">
        <ele>45.8805847</ele>
        <time>2016-10-25T07:44:24Z</time>
      </trkpt>
      <trkpt lat="47.27261" lon="-1.61921">
        <ele>45.7845993</ele>
        <time>2016-10-25T07:44:26Z</time>
      </trkpt>
      <trkpt lat="47.27261" lon="-1.61926">
        <ele>45.685524</ele>
        <time>2016-10-25T07:44:29Z</time>
      </trkpt>
      <trkpt lat="47.27259" lon="-1.61931">
        <ele>45.5918503</ele>
        <time>2016-10-25T07:44:32Z</time>
      </trkpt>
      <trkpt lat="47.27258" lon="-1.61939">
        <ele>45.4833488</ele>
        <time>2016-10-25T07:44:35Z</time>
      </trkpt>
      <trkpt lat="47.27256" lon="-1.61944">
        <ele>45.3715324</ele>
        <time>2016-10-25T07:44:38Z</time>
      </trkpt>
      <trkpt lat="47.27256" lon="-1.61947">
        <ele>45.2662506</ele>
        <time>2016-10-25T07:44:40Z</time>
      </trkpt>
      <trkpt lat="47.27253" lon="-1.61951">
        <ele>45.1878586</ele>
        <time>2016-10-25T07:44:43Z</time>
      </trkpt>
      <trkpt lat="47.27251" lon="-1.61955">
        <ele>45.124855</ele>
        <time>2016-10-25T07:44:45Z</time>
      </trkpt>
      <trkpt lat="47.27249" lon="-1.61961">
        <ele>45.0539703</ele>
        <time>2016-10-25T07:44:48Z</time>
      </trkpt>
      <trkpt lat="47.27248" lon="-1.61963">
        <ele>44.9817276</ele>
        <time>2016-10-25T07:44:50Z</time>
      </trkpt>
      <trkpt lat="47.27246" lon="-1.61967">
        <ele>44.875679</ele>
        <time>2016-10-25T07:44:52Z</time>
      </trkpt>
      <trkpt lat="47.27243" lon="-1.61974">
        <ele>44.6896439</ele>
        <time>2016-10-25T07:44:55Z</time>
      </trkpt>
      <trkpt lat="47.27242" lon="-1.61977">
        <ele>44.482914</ele>
        <time>2016-10-25T07:44:58Z</time>
      </trkpt>
      <trkpt lat="47.27241" lon="-1.6198">
        <ele>44.2819672</ele>
        <time>2016-10-25T07:45:00Z</time>
      </trkpt>
      <trkpt lat="47.2724" lon="-1.61986">
        <ele>44.0476151</ele>
        <time>2016-10-25T07:45:03Z</time>
      </trkpt>
      <trkpt lat="47.2724" lon="-1.6199">
        <ele>43.8269501</ele>
        <time>2016-10-25T07:45:06Z</time>
      </trkpt>
      <trkpt lat="47.27238" lon="-1.61994">
        <ele>43.6375427</ele>
        <time>2016-10-25T07:45:08Z</time>
      </trkpt>
      <trkpt lat="47.27236" lon="-1.62001">
        <ele>43.393364</ele>
        <time>2016-10-25T07:45:11Z</time>
      </trkpt>
      <trkpt lat="47.27235" lon="-1.62004">
        <ele>43.157692</ele>
        <time>2016-10-25T07:45:14Z</time>
      </trkpt>
      <trkpt lat="47.27234" lon="-1.62007">
        <ele>42.9662209</ele>
        <time>2016-10-25T07:45:16Z</time>
      </trkpt>
      <trkpt lat="47.27234" lon="-1.62012">
        <ele>42.7861023</ele>
        <time>2016-10-25T07:45:19Z</time>
      </trkpt>
      <trkpt lat="47.27232" lon="-1.62016">
        <ele>42.629158</ele>
        <time>2016-10-25T07:45:21Z</time>
      </trkpt>
      <trkpt lat="47.27232" lon="-1.62019">
        <ele>42.5342636</ele>
        <time>2016-10-25T07:45:23Z</time>
      </trkpt>
      <trkpt lat="47.2723" lon="-1.62025">
        <ele>42.4346275</ele>
        <time>2016-10-25T07:45:26Z</time>
      </trkpt>
      <trkpt lat="47.27228" lon="-1.62029">
        <ele>42.2947884</ele>
        <time>2016-10-25T07:45:29Z</time>
      </trkpt>
      <trkpt lat="47.27226" lon="-1.62034">
        <ele>42.1293678</ele>
        <time>2016-10-25T07:45:32Z</time>
      </trkpt>
      <trkpt lat="47.27224" lon="-1.62037">
        <ele>41.96064</ele>
        <time>2016-10-25T07:45:34Z</time>
      </trkpt>
      <trkpt lat="47.27223" lon="-1.62043">
        <ele>41.7783012</ele>
        <time>2016-10-25T07:45:37Z</time>
      </trkpt>
      <trkpt lat="47.27222" lon="-1.62049">
        <ele>41.5831375</ele>
        <time>2016-10-25T07:45:40Z</time>
      </trkpt>
      <trkpt lat="47.2722" lon="-1.62052">
        <ele>41.3928032</ele>
        <time>2016-10-25T07:45:42Z</time>
      </trkpt>
      <trkpt lat="47.27218" lon="-1.62056">
        <ele>41.2140808</ele>
        <time>2016-10-25T07:45:45Z</time>
      </trkpt>
      <trkpt lat="47.27216" lon="-1.62061">
        <ele>41.0050888</ele>
        <time>2016-10-25T07:45:48Z</time>
      </trkpt>
      <trkpt lat="47.27215" lon="-1.62066">
        <ele>40.801445</ele>
        <time>2016-10-25T07:45:51Z</time>
      </trkpt>
      <trkpt lat="47.27215" lon="-1.62072">
        <ele>40.6269455</ele>
        <time>2016-10-25T07:45:54Z</time>
      </trkpt>
      <trkpt lat="47.27216" lon="-1.6208">
        <ele>40.491169</ele>
        <time>2016-10-25T07:45:57Z</time>
      </trkpt>
      <trkpt lat="47.27214" lon="-1.62085">
        <ele>40.3217239</ele>
        <time>2016-10-25T07:46:00Z</time>
      </trkpt>
      <trkpt lat="47.27211" lon="-1.62088">
        <ele>40.1487846</ele>
        <time>2016-10-25T07:46:03Z</time>
      </trkpt>
      <trkpt lat="47.27211" lon="-1.62089">
        <ele>39.9778633</ele>
        <time>2016-10-25T07:46:05Z</time>
      </trkpt>
      <trkpt lat="47.2721" lon="-1.62092">
        <ele>39.7969284</ele>
        <time>2016-10-25T07:46:08Z</time>
      </trkpt>
      <trkpt lat="47.27208" lon="-1.62094">
        <ele>39.5673752</ele>
        <time>2016-10-25T07:46:10Z</time>
      </trkpt>
      <trkpt lat="47.27205" lon="-1.62097">
        <ele>39.3188248</ele>
        <time>2016-10-25T07:46:13Z</time>
      </trkpt>
      <trkpt lat="47.27202" lon="-1.62099">
        <ele>39.0769653</ele>
        <time>2016-10-25T07:46:16Z</time>
      </trkpt>
      <trkpt lat="47.27198" lon="-1.62101">
        <ele>38.7840271</ele>
        <time>2016-10-25T07:46:19Z</time>
      </trkpt>
      <trkpt lat="47.27196" lon="-1.62103">
        <ele>38.4527206</ele>
        <time>2016-10-25T07:46:22Z</time>
      </trkpt>
      <trkpt lat="47.27194" lon="-1.62106">
        <ele>38.1372185</ele>
        <time>2016-10-25T07:46:25Z</time>
      </trkpt>
      <trkpt lat="47.27194" lon="-1.62111">
        <ele>37.8927498</ele>
        <time>2016-10-25T07:46:28Z</time>
      </trkpt>
      <trkpt lat="47.27194" lon="-1.62117">
        <ele>37.6861649</ele>
        <time>2016-10-25T07:46:31Z</time>
      </trkpt>
      <trkpt lat="47.27193" lon="-1.6212">
        <ele>37.5380707</ele>
        <time>2016-10-25T07:46:33Z</time>
      </trkpt>
      <trkpt lat="47.27193" lon="-1.62123">
        <ele>37.4301987</ele>
        <time>2016-10-25T07:46:35Z</time>
      </trkpt>
      <trkpt lat="47.2719" lon="-1.62129">
        <ele>37.3144646</ele>
        <time>2016-10-25T07:46:38Z</time>
      </trkpt>
      <trkpt lat="47.27189" lon="-1.62133">
        <ele>37.1902046</ele>
        <time>2016-10-25T07:46:40Z</time>
      </trkpt>
      <trkpt lat="47.27188" lon="-1.62138">
        <ele>37.0588913</ele>
        <time>2016-10-25T07:46:43Z</time>
      </trkpt>
      <trkpt lat="47.27186" lon="-1.62141">
        <ele>36.9223557</ele>
        <time>2016-10-25T07:46:45Z</time>
      </trkpt>
      <trkpt lat="47.27184" lon="-1.62143">
        <ele>36.7795334</ele>
        <time>2016-10-25T07:46:47Z</time>
      </trkpt>
      <trkpt lat="47.27182" lon="-1.62144">
        <ele>36.6640358</ele>
        <time>2016-10-25T07:46:49Z</time>
      </trkpt>
      <trkpt lat="47.27178" lon="-1.62143">
        <ele>36.5328941</ele>
        <time>2016-10-25T07:46:52Z</time>
      </trkpt>
      <trkpt lat="47.27176" lon="-1.62142">
        <ele>36.4101486</ele>
        <time>2016-10-25T07:46:54Z</time>
      </trkpt>
      <trkpt lat="47.27174" lon="-1.62138">
        <ele>36.286335</ele>
        <time>2016-10-25T07:46:57Z</time>
      </trkpt>
      <trkpt lat="47.27172" lon="-1.62134">
        <ele>36.1578674</ele>
        <time>2016-10-25T07:46:59Z</time>
      </trkpt>
      <trkpt lat="47.2717" lon="-1.62132">
        <ele>36.0261002</ele>
        <time>2016-10-25T07:47:02Z</time>
      </trkpt>
      <trkpt lat="47.27169" lon="-1.62129">
        <ele>35.9131355</ele>
        <time>2016-10-25T07:47:05Z</time>
      </trkpt>
      <trkpt lat="47.27166" lon="-1.62128">
        <ele>35.7871284</ele>
        <time>2016-10-25T07:47:07Z</time>
      </trkpt>
      <trkpt lat="47.27164" lon="-1.62125">
        <ele>35.6743927</ele>
        <time>2016-10-25T07:47:10Z</time>
      </trkpt>
      <trkpt lat="47.27162" lon="-1.62121">
        <ele>35.5788078</ele>
        <time>2016-10-25T07:47:12Z</time>
      </trkpt>
      <trkpt lat="47.2716" lon="-1.62116">
        <ele>35.4836807</ele>
        <time>2016-10-25T07:47:15Z</time>
      </trkpt>
      <trkpt lat="47.27158" lon="-1.62109">
        <ele>35.3798141</ele>
        <time>2016-10-25T07:47:18Z</time>
      </trkpt>
      <trkpt lat="47.27157" lon="-1.62105">
        <ele>35.2849083</ele>
        <time>2016-10-25T07:47:20Z</time>
      </trkpt>
      <trkpt lat="47.27156" lon="-1.62101">
        <ele>35.1812782</ele>
        <time>2016-10-25T07:47:23Z</time>
      </trkpt>
      <trkpt lat="47.27153" lon="-1.62096">
        <ele>35.0558014</ele>
        <time>2016-10-25T07:47:26Z</time>
      </trkpt>
      <trkpt lat="47.27151" lon="-1.62093">
        <ele>34.9317398</ele>
        <time>2016-10-25T07:47:29Z</time>
      </trkpt>
      <trkpt lat="47.2715" lon="-1.6209">
        <ele>34.8135567</ele>
        <time>2016-10-25T07:47:31Z</time>
      </trkpt>
      <trkpt lat="47.27149" lon="-1.62086">
        <ele>34.6888084</ele>
        <time>2016-10-25T07:47:34Z</time>
      </trkpt>
      <trkpt lat="47.27146" lon="-1.62074">
        <ele>34.5948372</ele>
        <time>2016-10-25T07:47:37Z</time>
      </trkpt>
      <trkpt lat="47.27144" lon="-1.62066">
        <ele>34.5661659</ele>
        <time>2016-10-25T07:47:39Z</time>
      </trkpt>
      <trkpt lat="47.27142" lon="-1.6206">
        <ele>34.5781364</ele>
        <time>2016-10-25T07:47:42Z</time>
      </trkpt>
      <trkpt lat="47.2714" lon="-1.62057">
        <ele>34.6196861</ele>
        <time>2016-10-25T07:47:45Z</time>
      </trkpt>
      <trkpt lat="47.27139" lon="-1.62055">
        <ele>34.6889534</ele>
        <time>2016-10-25T07:47:47Z</time>
      </trkpt>
      <trkpt lat="47.27136" lon="-1.62052">
        <ele>34.7451248</ele>
        <time>2016-10-25T07:47:50Z</time>
      </trkpt>
      <trkpt lat="47.27133" lon="-1.6205">
        <ele>34.7647858</ele>
        <time>2016-10-25T07:47:53Z</time>
      </trkpt>
      <trkpt lat="47.27132" lon="-1.62049">
        <ele>34.7653999</ele>
        <time>2016-10-25T07:47:55Z</time>
      </trkpt>
      <trkpt lat="47.2713" lon="-1.62048">
        <ele>34.7496948</ele>
        <time>2016-10-25T07:47:57Z</time>
      </trkpt>
      <trkpt lat="47.27126" lon="-1.62044">
        <ele>34.7363663</ele>
        <time>2016-10-25T07:48:00Z</time>
      </trkpt>
      <trkpt lat="47.27124" lon="-1.62039">
        <ele>34.7371826</ele>
        <time>2016-10-25T07:48:03Z</time>
      </trkpt>
      <trkpt lat="47.2712" lon="-1.62035">
        <ele>34.7505836</ele>
        <time>2016-10-25T07:48:06Z</time>
      </trkpt>
      <trkpt lat="47.27117" lon="-1.62032">
        <ele>34.7643433</ele>
        <time>2016-10-25T07:48:09Z</time>
      </trkpt>
      <trkpt lat="47.27116" lon="-1.62028">
        <ele>34.80019</ele>
        <time>2016-10-25T07:48:11Z</time>
      </trkpt>
      <trkpt lat="47.27113" lon="-1.62023">
        <ele>34.8581047</ele>
        <time>2016-10-25T07:48:14Z</time>
      </trkpt>
      <trkpt lat="47.27109" lon="-1.6202">
        <ele>34.8979378</ele>
        <time>2016-10-25T07:48:17Z</time>
      </trkpt>
      <trkpt lat="47.27107" lon="-1.62019">
        <ele>34.9267464</ele>
        <time>2016-10-25T07:48:19Z</time>
      </trkpt>
      <trkpt lat="47.27105" lon="-1.62018">
        <ele>34.9445038</ele>
        <time>2016-10-25T07:48:21Z</time>
      </trkpt>
      <trkpt lat="47.27101" lon="-1.62019">
        <ele>34.9285965</ele>
        <time>2016-10-25T07:48:24Z</time>
      </trkpt>
      <trkpt lat="47.27098" lon="-1.62018">
        <ele>34.8744583</ele>
        <time>2016-10-25T07:48:26Z</time>
      </trkpt>
      <trkpt lat="47.27097" lon="-1.62018">
        <ele>34.8178024</ele>
        <time>2016-10-25T07:48:28Z</time>
      </trkpt>
      <trkpt lat="47.27094" lon="-1.62018">
        <ele>34.752636</ele>
        <time>2016-10-25T07:48:31Z</time>
      </trkpt>
      <trkpt lat="47.27092" lon="-1.62019">
        <ele>34.6795044</ele>
        <time>2016-10-25T07:48:33Z</time>
      </trkpt>
      <trkpt lat="47.2709" lon="-1.62025">
        <ele>34.5795479</ele>
        <time>2016-10-25T07:48:36Z</time>
      </trkpt>
      <trkpt lat="47.2709" lon="-1.62028">
        <ele>34.4668427</ele>
        <time>2016-10-25T07:48:38Z</time>
      </trkpt>
      <trkpt lat="47.27089" lon="-1.62032">
        <ele>34.3308182</ele>
        <time>2016-10-25T07:48:40Z</time>
      </trkpt>
      <trkpt lat="47.27087" lon="-1.62039">
        <ele>34.1455078</ele>
        <time>2016-10-25T07:48:43Z</time>
      </trkpt>
      <trkpt lat="47.27087" lon="-1.62042">
        <ele>33.9561768</ele>
        <time>2016-10-25T07:48:45Z</time>
      </trkpt>
      <trkpt lat="47.27087" lon="-1.62046">
        <ele>33.7891159</ele>
        <time>2016-10-25T07:48:47Z</time>
      </trkpt>
      <trkpt lat="47.27089" lon="-1.6205">
        <ele>33.6260681</ele>
        <time>2016-10-25T07:48:50Z</time>
      </trkpt>
      <trkpt lat="47.2709" lon="-1.62055">
        <ele>33.4732552</ele>
        <time>2016-10-25T07:48:53Z</time>
      </trkpt>
      <trkpt lat="47.2709" lon="-1.62059">
        <ele>33.3476448</ele>
        <time>2016-10-25T07:48:55Z</time>
      </trkpt>
      <trkpt lat="47.2709" lon="-1.62065">
        <ele>33.2105942</ele>
        <time>2016-10-25T07:48:58Z</time>
      </trkpt>
      <trkpt lat="47.27092" lon="-1.62069">
        <ele>33.0738525</ele>
        <time>2016-10-25T07:49:01Z</time>
      </trkpt>
      <trkpt lat="47.27092" lon="-1.62073">
        <ele>32.933876</ele>
        <time>2016-10-25T07:49:03Z</time>
      </trkpt>
      <trkpt lat="47.27092" lon="-1.6208">
        <ele>32.7687302</ele>
        <time>2016-10-25T07:49:06Z</time>
      </trkpt>
      <trkpt lat="47.27091" lon="-1.62085">
        <ele>32.6321754</ele>
        <time>2016-10-25T07:49:09Z</time>
      </trkpt>
      <trkpt lat="47.2709" lon="-1.6209">
        <ele>32.5955925</ele>
        <time>2016-10-25T07:49:12Z</time>
      </trkpt>
      <trkpt lat="47.27091" lon="-1.62092">
        <ele>32.6150932</ele>
        <time>2016-10-25T07:49:14Z</time>
      </trkpt>
      <trkpt lat="47.27093" lon="-1.62095">
        <ele>32.7116661</ele>
        <time>2016-10-25T07:49:17Z</time>
      </trkpt>
      <trkpt lat="47.27094" lon="-1.62101">
        <ele>32.9237976</ele>
        <time>2016-10-25T07:49:20Z</time>
      </trkpt>
      <trkpt lat="47.27097" lon="-1.62105">
        <ele>33.204586</ele>
        <time>2016-10-25T07:49:23Z</time>
      </trkpt>
      <trkpt lat="47.27099" lon="-1.62108">
        <ele>33.4707146</ele>
        <time>2016-10-25T07:49:26Z</time>
      </trkpt>
      <trkpt lat="47.27102" lon="-1.6211">
        <ele>33.7464333</ele>
        <time>2016-10-25T07:49:29Z</time>
      </trkpt>
      <trkpt lat="47.27103" lon="-1.62114">
        <ele>34.0153694</ele>
        <time>2016-10-25T07:49:32Z</time>
      </trkpt>
      <trkpt lat="47.27106" lon="-1.62118">
        <ele>34.2645302</ele>
        <time>2016-10-25T07:49:35Z</time>
      </trkpt>
      <trkpt lat="47.27106" lon="-1.62121">
        <ele>34.4888802</ele>
        <time>2016-10-25T07:49:37Z</time>
      </trkpt>
      <trkpt lat="47.27107" lon="-1.62125">
        <ele>34.7054138</ele>
        <time>2016-10-25T07:49:40Z</time>
      </trkpt>
      <trkpt lat="47.27106" lon="-1.6213">
        <ele>34.9322128</ele>
        <time>2016-10-25T07:49:43Z</time>
      </trkpt>
      <trkpt lat="47.27106" lon="-1.62135">
        <ele>35.1729622</ele>
        <time>2016-10-25T07:49:46Z</time>
      </trkpt>
      <trkpt lat="47.27105" lon="-1.6214">
        <ele>35.4269257</ele>
        <time>2016-10-25T07:49:49Z</time>
      </trkpt>
      <trkpt lat="47.27105" lon="-1.62147">
        <ele>35.7211723</ele>
        <time>2016-10-25T07:49:52Z</time>
      </trkpt>
      <trkpt lat="47.27106" lon="-1.62154">
        <ele>36.0400658</ele>
        <time>2016-10-25T07:49:55Z</time>
      </trkpt>
      <trkpt lat="47.27107" lon="-1.62158">
        <ele>36.354229</ele>
        <time>2016-10-25T07:49:57Z</time>
      </trkpt>
      <trkpt lat="47.27108" lon="-1.62162">
        <ele>36.6453476</ele>
        <time>2016-10-25T07:49:59Z</time>
      </trkpt>
      <trkpt lat="47.27109" lon="-1.62166">
        <ele>36.915535</ele>
        <time>2016-10-25T07:50:01Z</time>
      </trkpt>
      <trkpt lat="47.27108" lon="-1.6217">
        <ele>37.1352158</ele>
        <time>2016-10-25T07:50:03Z</time>
      </trkpt>
      <trkpt lat="47.27109" lon="-1.62176">
        <ele>37.3045883</ele>
        <time>2016-10-25T07:50:06Z</time>
      </trkpt>
      <trkpt lat="47.27112" lon="-1.62179">
        <ele>37.4257584</ele>
        <time>2016-10-25T07:50:08Z</time>
      </trkpt>
      <trkpt lat="47.27114" lon="-1.62184">
        <ele>37.512722</ele>
        <time>2016-10-25T07:50:11Z</time>
      </trkpt>
      <trkpt lat="47.27114" lon="-1.62187">
        <ele>37.5738182</ele>
        <time>2016-10-25T07:50:13Z</time>
      </trkpt>
      <trkpt lat="47.27113" lon="-1.6219">
        <ele>37.6302261</ele>
        <time>2016-10-25T07:50:16Z</time>
      </trkpt>
      <trkpt lat="47.27112" lon="-1.62193">
        <ele>37.6817169</ele>
        <time>2016-10-25T07:50:18Z</time>
      </trkpt>
      <trkpt lat="47.27108" lon="-1.62197">
        <ele>37.7748795</ele>
        <time>2016-10-25T07:50:21Z</time>
      </trkpt>
      <trkpt lat="47.27106" lon="-1.62199">
        <ele>37.8873596</ele>
        <time>2016-10-25T07:50:23Z</time>
      </trkpt>
      <trkpt lat="47.27102" lon="-1.62202">
        <ele>38.0166969</ele>
        <time>2016-10-25T07:50:26Z</time>
      </trkpt>
      <trkpt lat="47.27099" lon="-1.62203">
        <ele>38.1483536</ele>
        <time>2016-10-25T07:50:29Z</time>
      </trkpt>
      <trkpt lat="47.27096" lon="-1.62203">
        <ele>38.2807808</ele>
        <time>2016-10-25T07:50:31Z</time>
      </trkpt>
      <trkpt lat="47.27092" lon="-1.62202">
        <ele>38.3951302</ele>
        <time>2016-10-25T07:50:34Z</time>
      </trkpt>
      <trkpt lat="47.27089" lon="-1.62201">
        <ele>38.5013008</ele>
        <time>2016-10-25T07:50:36Z</time>
      </trkpt>
      <trkpt lat="47.27086" lon="-1.62201">
        <ele>38.5909576</ele>
        <time>2016-10-25T07:50:38Z</time>
      </trkpt>
      <trkpt lat="47.27083" lon="-1.62202">
        <ele>38.6666145</ele>
        <time>2016-10-25T07:50:41Z</time>
      </trkpt>
      <trkpt lat="47.2708" lon="-1.62206">
        <ele>38.6888809</ele>
        <time>2016-10-25T07:50:44Z</time>
      </trkpt>
      <trkpt lat="47.27079" lon="-1.62209">
        <ele>38.6708031</ele>
        <time>2016-10-25T07:50:46Z</time>
      </trkpt>
      <trkpt lat="47.27078" lon="-1.62214">
        <ele>38.6565437</ele>
        <time>2016-10-25T07:50:49Z</time>
      </trkpt>
      <trkpt lat="47.27077" lon="-1.62218">
        <ele>38.6325836</ele>
        <time>2016-10-25T07:50:51Z</time>
      </trkpt>
      <trkpt lat="47.27076" lon="-1.62222">
        <ele>38.5966797</ele>
        <time>2016-10-25T07:50:53Z</time>
      </trkpt>
      <trkpt lat="47.27075" lon="-1.62227">
        <ele>38.6116829</ele>
        <time>2016-10-25T07:50:56Z</time>
      </trkpt>
      <trkpt lat="47.27074" lon="-1.62233">
        <ele>38.6564178</ele>
        <time>2016-10-25T07:50:59Z</time>
      </trkpt>
      <trkpt lat="47.27072" lon="-1.62239">
        <ele>38.6820984</ele>
        <time>2016-10-25T07:51:02Z</time>
      </trkpt>
      <trkpt lat="47.2707" lon="-1.62245">
        <ele>38.6977463</ele>
        <time>2016-10-25T07:51:05Z</time>
      </trkpt>
      <trkpt lat="47.27069" lon="-1.62251">
        <ele>38.7484055</ele>
        <time>2016-10-25T07:51:08Z</time>
      </trkpt>
      <trkpt lat="47.27069" lon="-1.62256">
        <ele>38.8243027</ele>
        <time>2016-10-25T07:51:11Z</time>
      </trkpt>
      <trkpt lat="47.27069" lon="-1.62259">
        <ele>38.9342537</ele>
        <time>2016-10-25T07:51:13Z</time>
      </trkpt>
      <trkpt lat="47.27069" lon="-1.62264">
        <ele>39.0974846</ele>
        <time>2016-10-25T07:51:15Z</time>
      </trkpt>
      <trkpt lat="47.27068" lon="-1.62269">
        <ele>39.3036385</ele>
        <time>2016-10-25T07:51:18Z</time>
      </trkpt>
      <trkpt lat="47.27069" lon="-1.62274">
        <ele>39.5470886</ele>
        <time>2016-10-25T07:51:21Z</time>
      </trkpt>
      <trkpt lat="47.2707" lon="-1.6228">
        <ele>39.8249435</ele>
        <time>2016-10-25T07:51:24Z</time>
      </trkpt>
      <trkpt lat="47.27071" lon="-1.62283">
        <ele>40.0951271</ele>
        <time>2016-10-25T07:51:26Z</time>
      </trkpt>
      <trkpt lat="47.27072" lon="-1.62286">
        <ele>40.3675652</ele>
        <time>2016-10-25T07:51:28Z</time>
      </trkpt>
      <trkpt lat="47.27073" lon="-1.62291">
        <ele>40.6540375</ele>
        <time>2016-10-25T07:51:31Z</time>
      </trkpt>
      <trkpt lat="47.27074" lon="-1.62294">
        <ele>40.9212875</ele>
        <time>2016-10-25T07:51:33Z</time>
      </trkpt>
      <trkpt lat="47.27075" lon="-1.62297">
        <ele>41.163475</ele>
        <time>2016-10-25T07:51:35Z</time>
      </trkpt>
      <trkpt lat="47.27075" lon="-1.623">
        <ele>41.3979073</ele>
        <time>2016-10-25T07:51:38Z</time>
      </trkpt>
      <trkpt lat="47.27074" lon="-1.623">
        <ele>41.5708084</ele>
        <time>2016-10-25T07:51:40Z</time>
      </trkpt>
      <trkpt lat="47.27072" lon="-1.62304">
        <ele>41.6984749</ele>
        <time>2016-10-25T07:51:43Z</time>
      </trkpt>
      <trkpt lat="47.27071" lon="-1.62308">
        <ele>41.7983932</ele>
        <time>2016-10-25T07:51:45Z</time>
      </trkpt>
      <trkpt lat="47.27068" lon="-1.6231">
        <ele>41.8293839</ele>
        <time>2016-10-25T07:51:47Z</time>
      </trkpt>
      <trkpt lat="47.27065" lon="-1.62311">
        <ele>41.8097191</ele>
        <time>2016-10-25T07:51:49Z</time>
      </trkpt>
      <trkpt lat="47.27062" lon="-1.62313">
        <ele>41.77108</ele>
        <time>2016-10-25T07:51:52Z</time>
      </trkpt>
      <trkpt lat="47.2706" lon="-1.62315">
        <ele>41.7189865</ele>
        <time>2016-10-25T07:51:55Z</time>
      </trkpt>
      <trkpt lat="47.27058" lon="-1.62316">
        <ele>41.6332092</ele>
        <time>2016-10-25T07:51:58Z</time>
      </trkpt>
      <trkpt lat="47.27058" lon="-1.62317">
        <ele>41.5787773</ele>
        <time>2016-10-25T07:52:02Z</time>
      </trkpt>
      <trkpt lat="47.27057" lon="-1.62319">
        <ele>41.5603333</ele>
        <time>2016-10-25T07:52:05Z</time>
      </trkpt>
      <trkpt lat="47.27058" lon="-1.6232">
        <ele>41.5877495</ele>
        <time>2016-10-25T07:52:08Z</time>
      </trkpt>
      <trkpt lat="47.27057" lon="-1.62321">
        <ele>41.6261673</ele>
        <time>2016-10-25T07:52:11Z</time>
      </trkpt>
      <trkpt lat="47.27056" lon="-1.62321">
        <ele>41.6585579</ele>
        <time>2016-10-25T07:52:13Z</time>
      </trkpt>
      <trkpt lat="47.2705" lon="-1.62328">
        <ele>41.6847038</ele>
        <time>2016-10-25T07:53:00Z</time>
      </trkpt>
      <trkpt lat="47.2705" lon="-1.62326">
        <ele>41.6863327</ele>
        <time>2016-10-25T07:53:09Z</time>
      </trkpt>
      <trkpt lat="47.27048" lon="-1.62329">
        <ele>41.6714783</ele>
        <time>2016-10-25T07:53:12Z</time>
      </trkpt>
      <trkpt lat="47.27045" lon="-1.62331">
        <ele>41.6257553</ele>
        <time>2016-10-25T07:53:15Z</time>
      </trkpt>
      <trkpt lat="47.27042" lon="-1.62333">
        <ele>41.5871964</ele>
        <time>2016-10-25T07:53:18Z</time>
      </trkpt>
      <trkpt lat="47.27038" lon="-1.62335">
        <ele>41.5289688</ele>
        <time>2016-10-25T07:53:21Z</time>
      </trkpt>
      <trkpt lat="47.27034" lon="-1.62337">
        <ele>41.455574</ele>
        <time>2016-10-25T07:53:24Z</time>
      </trkpt>
      <trkpt lat="47.2703" lon="-1.62339">
        <ele>41.3538857</ele>
        <time>2016-10-25T07:53:27Z</time>
      </trkpt>
      <trkpt lat="47.27029" lon="-1.6234">
        <ele>41.2752686</ele>
        <time>2016-10-25T07:53:29Z</time>
      </trkpt>
      <trkpt lat="47.27028" lon="-1.62342">
        <ele>41.2235184</ele>
        <time>2016-10-25T07:53:32Z</time>
      </trkpt>
      <trkpt lat="47.27027" lon="-1.62345">
        <ele>41.2086792</ele>
        <time>2016-10-25T07:53:35Z</time>
      </trkpt>
      <trkpt lat="47.27025" lon="-1.62349">
        <ele>41.2405319</ele>
        <time>2016-10-25T07:53:38Z</time>
      </trkpt>
      <trkpt lat="47.27024" lon="-1.62352">
        <ele>41.3367729</ele>
        <time>2016-10-25T07:53:40Z</time>
      </trkpt>
      <trkpt lat="47.27026" lon="-1.62357">
        <ele>41.5086021</ele>
        <time>2016-10-25T07:53:43Z</time>
      </trkpt>
      <trkpt lat="47.27028" lon="-1.6236">
        <ele>41.7237206</ele>
        <time>2016-10-25T07:53:46Z</time>
      </trkpt>
      <trkpt lat="47.27031" lon="-1.62363">
        <ele>41.9779968</ele>
        <time>2016-10-25T07:53:49Z</time>
      </trkpt>
      <trkpt lat="47.27032" lon="-1.62368">
        <ele>42.2832718</ele>
        <time>2016-10-25T07:53:52Z</time>
      </trkpt>
      <trkpt lat="47.27031" lon="-1.62373">
        <ele>42.595562</ele>
        <time>2016-10-25T07:53:55Z</time>
      </trkpt>
      <trkpt lat="47.2703" lon="-1.62376">
        <ele>42.8558426</ele>
        <time>2016-10-25T07:53:57Z</time>
      </trkpt>
      <trkpt lat="47.27029" lon="-1.62378">
        <ele>43.0834351</ele>
        <time>2016-10-25T07:53:59Z</time>
      </trkpt>
      <trkpt lat="47.27029" lon="-1.62381">
        <ele>43.2779083</ele>
        <time>2016-10-25T07:54:02Z</time>
      </trkpt>
      <trkpt lat="47.27025" lon="-1.6238">
        <ele>43.3652153</ele>
        <time>2016-10-25T07:54:05Z</time>
      </trkpt>
      <trkpt lat="47.27023" lon="-1.6238">
        <ele>43.3874626</ele>
        <time>2016-10-25T07:54:07Z</time>
      </trkpt>
      <trkpt lat="47.27018" lon="-1.6238">
        <ele>43.3531189</ele>
        <time>2016-10-25T07:54:10Z</time>
      </trkpt>
      <trkpt lat="47.27014" lon="-1.62381">
        <ele>43.2689056</ele>
        <time>2016-10-25T07:54:13Z</time>
      </trkpt>
      <trkpt lat="47.27011" lon="-1.62383">
        <ele>43.1589165</ele>
        <time>2016-10-25T07:54:16Z</time>
      </trkpt>
      <trkpt lat="47.27009" lon="-1.62384">
        <ele>43.0858994</ele>
        <time>2016-10-25T07:54:18Z</time>
      </trkpt>
      <trkpt lat="47.27007" lon="-1.62387">
        <ele>43.0486031</ele>
        <time>2016-10-25T07:54:20Z</time>
      </trkpt>
      <trkpt lat="47.27006" lon="-1.62389">
        <ele>43.0720749</ele>
        <time>2016-10-25T07:54:22Z</time>
      </trkpt>
      <trkpt lat="47.27005" lon="-1.62392">
        <ele>43.1457367</ele>
        <time>2016-10-25T07:54:24Z</time>
      </trkpt>
      <trkpt lat="47.27002" lon="-1.62394">
        <ele>43.2384529</ele>
        <time>2016-10-25T07:54:27Z</time>
      </trkpt>
      <trkpt lat="47.27" lon="-1.62396">
        <ele>43.333622</ele>
        <time>2016-10-25T07:54:29Z</time>
      </trkpt>
      <trkpt lat="47.26998" lon="-1.62398">
        <ele>43.4019394</ele>
        <time>2016-10-25T07:54:31Z</time>
      </trkpt>
      <trkpt lat="47.26995" lon="-1.624">
        <ele>43.4302444</ele>
        <time>2016-10-25T07:54:34Z</time>
      </trkpt>
      <trkpt lat="47.26994" lon="-1.62401">
        <ele>43.4115143</ele>
        <time>2016-10-25T07:54:37Z</time>
      </trkpt>
      <trkpt lat="47.26992" lon="-1.62403">
        <ele>43.380043</ele>
        <time>2016-10-25T07:54:39Z</time>
      </trkpt>
      <trkpt lat="47.26989" lon="-1.62408">
        <ele>43.3506966</ele>
        <time>2016-10-25T07:54:42Z</time>
      </trkpt>
      <trkpt lat="47.26987" lon="-1.6241">
        <ele>43.3259964</ele>
        <time>2016-10-25T07:54:44Z</time>
      </trkpt>
      <trkpt lat="47.26984" lon="-1.62414">
        <ele>43.310627</ele>
        <time>2016-10-25T07:54:47Z</time>
      </trkpt>
      <trkpt lat="47.26982" lon="-1.62417">
        <ele>43.3024178</ele>
        <time>2016-10-25T07:54:49Z</time>
      </trkpt>
      <trkpt lat="47.26978" lon="-1.6242">
        <ele>43.2434998</ele>
        <time>2016-10-25T07:54:52Z</time>
      </trkpt>
      <trkpt lat="47.26974" lon="-1.62421">
        <ele>43.1256638</ele>
        <time>2016-10-25T07:54:55Z</time>
      </trkpt>
      <trkpt lat="47.2697" lon="-1.62421">
        <ele>42.9423294</ele>
        <time>2016-10-25T07:54:58Z</time>
      </trkpt>
      <trkpt lat="47.26966" lon="-1.62422">
        <ele>42.6991043</ele>
        <time>2016-10-25T07:55:01Z</time>
      </trkpt>
      <trkpt lat="47.26964" lon="-1.62422">
        <ele>42.4075432</ele>
        <time>2016-10-25T07:55:03Z</time>
      </trkpt>
      <trkpt lat="47.2696" lon="-1.62421">
        <ele>42.079731</ele>
        <time>2016-10-25T07:55:06Z</time>
      </trkpt>
      <trkpt lat="47.26957" lon="-1.6242">
        <ele>41.7308159</ele>
        <time>2016-10-25T07:55:08Z</time>
      </trkpt>
      <trkpt lat="47.26954" lon="-1.62419">
        <ele>41.3980408</ele>
        <time>2016-10-25T07:55:10Z</time>
      </trkpt>
      <trkpt lat="47.2695" lon="-1.6242">
        <ele>41.0579414</ele>
        <time>2016-10-25T07:55:13Z</time>
      </trkpt>
      <trkpt lat="47.26949" lon="-1.62426">
        <ele>40.8149338</ele>
        <time>2016-10-25T07:55:16Z</time>
      </trkpt>
      <trkpt lat="47.26948" lon="-1.62433">
        <ele>40.7058525</ele>
        <time>2016-10-25T07:55:19Z</time>
      </trkpt>
      <trkpt lat="47.26947" lon="-1.6244">
        <ele>40.7278061</ele>
        <time>2016-10-25T07:55:22Z</time>
      </trkpt>
      <trkpt lat="47.26946" lon="-1.62446">
        <ele>40.8468513</ele>
        <time>2016-10-25T07:55:25Z</time>
      </trkpt>
      <trkpt lat="47.26945" lon="-1.62449">
        <ele>41.0419388</ele>
        <time>2016-10-25T07:55:27Z</time>
      </trkpt>
      <trkpt lat="47.26942" lon="-1.62452">
        <ele>41.1832199</ele>
        <time>2016-10-25T07:55:30Z</time>
      </trkpt>
      <trkpt lat="47.26939" lon="-1.62452">
        <ele>41.2094345</ele>
        <time>2016-10-25T07:55:32Z</time>
      </trkpt>
      <trkpt lat="47.26937" lon="-1.6245">
        <ele>41.115715</ele>
        <time>2016-10-25T07:55:34Z</time>
      </trkpt>
      <trkpt lat="47.26935" lon="-1.62445">
        <ele>40.88517</ele>
        <time>2016-10-25T07:55:37Z</time>
      </trkpt>
      <trkpt lat="47.26932" lon="-1.62442">
        <ele>40.5585098</ele>
        <time>2016-10-25T07:55:40Z</time>
      </trkpt>
      <trkpt lat="47.26928" lon="-1.62443">
        <ele>40.1853905</ele>
        <time>2016-10-25T07:55:43Z</time>
      </trkpt>
      <trkpt lat="47.26923" lon="-1.62444">
        <ele>39.7907715</ele>
        <time>2016-10-25T07:55:46Z</time>
      </trkpt>
      <trkpt lat="47.2692" lon="-1.62443">
        <ele>39.3776627</ele>
        <time>2016-10-25T07:55:48Z</time>
      </trkpt>
      <trkpt lat="47.26916" lon="-1.62441">
        <ele>38.9596176</ele>
        <time>2016-10-25T07:55:51Z</time>
      </trkpt>
      <trkpt lat="47.26914" lon="-1.6244">
        <ele>38.5810661</ele>
        <time>2016-10-25T07:55:53Z</time>
      </trkpt>
      <trkpt lat="47.26912" lon="-1.62438">
        <ele>38.2188911</ele>
        <time>2016-10-25T07:55:55Z</time>
      </trkpt>
      <trkpt lat="47.26909" lon="-1.62433">
        <ele>37.8363609</ele>
        <time>2016-10-25T07:55:58Z</time>
      </trkpt>
      <trkpt lat="47.26907" lon="-1.62432">
        <ele>37.4803467</ele>
        <time>2016-10-25T07:56:00Z</time>
      </trkpt>
      <trkpt lat="47.26904" lon="-1.62431">
        <ele>37.152832</ele>
        <time>2016-10-25T07:56:02Z</time>
      </trkpt>
      <trkpt lat="47.269" lon="-1.6243">
        <ele>36.8117676</ele>
        <time>2016-10-25T07:56:05Z</time>
      </trkpt>
      <trkpt lat="47.26896" lon="-1.62431">
        <ele>36.4324951</ele>
        <time>2016-10-25T07:56:08Z</time>
      </trkpt>
      <trkpt lat="47.26892" lon="-1.6243">
        <ele>36.072998</ele>
        <time>2016-10-25T07:56:11Z</time>
      </trkpt>
      <trkpt lat="47.2689" lon="-1.6243">
        <ele>35.7299805</ele>
        <time>2016-10-25T07:56:13Z</time>
      </trkpt>
      <trkpt lat="47.26886" lon="-1.62428">
        <ele>35.3608398</ele>
        <time>2016-10-25T07:56:16Z</time>
      </trkpt>
      <trkpt lat="47.26883" lon="-1.62427">
        <ele>34.9927979</ele>
        <time>2016-10-25T07:56:18Z</time>
      </trkpt>
      <trkpt lat="47.26879" lon="-1.62427">
        <ele>34.6217041</ele>
        <time>2016-10-25T07:56:21Z</time>
      </trkpt>
      <trkpt lat="47.26877" lon="-1.62427">
        <ele>34.2967529</ele>
        <time>2016-10-25T07:56:23Z</time>
      </trkpt>
      <trkpt lat="47.26873" lon="-1.62428">
        <ele>33.944458</ele>
        <time>2016-10-25T07:56:26Z</time>
      </trkpt>
      <trkpt lat="47.26871" lon="-1.62425">
        <ele>33.6363525</ele>
        <time>2016-10-25T07:56:28Z</time>
      </trkpt>
      <trkpt lat="47.26868" lon="-1.62421">
        <ele>33.2988281</ele>
        <time>2016-10-25T07:56:31Z</time>
      </trkpt>
      <trkpt lat="47.26866" lon="-1.6242">
        <ele>32.987915</ele>
        <time>2016-10-25T07:56:33Z</time>
      </trkpt>
      <trkpt lat="47.26862" lon="-1.62418">
        <ele>32.6268311</ele>
        <time>2016-10-25T07:56:36Z</time>
      </trkpt>
      <trkpt lat="47.26859" lon="-1.62416">
        <ele>32.2391167</ele>
        <time>2016-10-25T07:56:39Z</time>
      </trkpt>
      <trkpt lat="47.26856" lon="-1.62413">
        <ele>31.8294125</ele>
        <time>2016-10-25T07:56:41Z</time>
      </trkpt>
      <trkpt lat="47.26852" lon="-1.62409">
        <ele>31.4116821</ele>
        <time>2016-10-25T07:56:44Z</time>
      </trkpt>
      <trkpt lat="47.26849" lon="-1.62405">
        <ele>30.9600868</ele>
        <time>2016-10-25T07:56:47Z</time>
      </trkpt>
      <trkpt lat="47.26845" lon="-1.62401">
        <ele>30.4976807</ele>
        <time>2016-10-25T07:56:50Z</time>
      </trkpt>
      <trkpt lat="47.26843" lon="-1.62399">
        <ele>30.0645142</ele>
        <time>2016-10-25T07:56:52Z</time>
      </trkpt>
      <trkpt lat="47.26838" lon="-1.62395">
        <ele>29.6015682</ele>
        <time>2016-10-25T07:56:55Z</time>
      </trkpt>
      <trkpt lat="47.26834" lon="-1.62392">
        <ele>29.1414852</ele>
        <time>2016-10-25T07:56:58Z</time>
      </trkpt>
      <trkpt lat="47.26831" lon="-1.62389">
        <ele>28.7294617</ele>
        <time>2016-10-25T07:57:01Z</time>
      </trkpt>
      <trkpt lat="47.26828" lon="-1.62387">
        <ele>28.3958931</ele>
        <time>2016-10-25T07:57:04Z</time>
      </trkpt>
      <trkpt lat="47.26825" lon="-1.62386">
        <ele>28.109314</ele>
        <time>2016-10-25T07:57:06Z</time>
      </trkpt>
      <trkpt lat="47.26821" lon="-1.62382">
        <ele>27.8983459</ele>
        <time>2016-10-25T07:57:09Z</time>
      </trkpt>
      <trkpt lat="47.26817" lon="-1.62378">
        <ele>27.7533684</ele>
        <time>2016-10-25T07:57:12Z</time>
      </trkpt>
      <trkpt lat="47.26814" lon="-1.62373">
        <ele>27.625103</ele>
        <time>2016-10-25T07:57:15Z</time>
      </trkpt>
      <trkpt lat="47.26812" lon="-1.6237">
        <ele>27.4984016</ele>
        <time>2016-10-25T07:57:17Z</time>
      </trkpt>
      <trkpt lat="47.26809" lon="-1.62368">
        <ele>27.3762913</ele>
        <time>2016-10-25T07:57:19Z</time>
      </trkpt>
      <trkpt lat="47.26806" lon="-1.62366">
        <ele>27.2706757</ele>
        <time>2016-10-25T07:57:22Z</time>
      </trkpt>
      <trkpt lat="47.26804" lon="-1.62364">
        <ele>27.1880188</ele>
        <time>2016-10-25T07:57:24Z</time>
      </trkpt>
      <trkpt lat="47.268" lon="-1.62364">
        <ele>27.1323643</ele>
        <time>2016-10-25T07:57:27Z</time>
      </trkpt>
      <trkpt lat="47.26797" lon="-1.62366">
        <ele>27.1038094</ele>
        <time>2016-10-25T07:57:29Z</time>
      </trkpt>
      <trkpt lat="47.26795" lon="-1.62369">
        <ele>27.0978279</ele>
        <time>2016-10-25T07:57:31Z</time>
      </trkpt>
      <trkpt lat="47.26792" lon="-1.62376">
        <ele>27.1275673</ele>
        <time>2016-10-25T07:57:34Z</time>
      </trkpt>
      <trkpt lat="47.26791" lon="-1.62381">
        <ele>27.1846352</ele>
        <time>2016-10-25T07:57:36Z</time>
      </trkpt>
      <trkpt lat="47.26789" lon="-1.62389">
        <ele>27.2690315</ele>
        <time>2016-10-25T07:57:39Z</time>
      </trkpt>
      <trkpt lat="47.26789" lon="-1.62394">
        <ele>27.3586693</ele>
        <time>2016-10-25T07:57:41Z</time>
      </trkpt>
      <trkpt lat="47.26788" lon="-1.62398">
        <ele>27.4484196</ele>
        <time>2016-10-25T07:57:43Z</time>
      </trkpt>
      <trkpt lat="47.26788" lon="-1.62404">
        <ele>27.5361748</ele>
        <time>2016-10-25T07:57:46Z</time>
      </trkpt>
      <trkpt lat="47.26788" lon="-1.62408">
        <ele>27.6197662</ele>
        <time>2016-10-25T07:57:48Z</time>
      </trkpt>
      <trkpt lat="47.26788" lon="-1.62413">
        <ele>27.6934414</ele>
        <time>2016-10-25T07:57:50Z</time>
      </trkpt>
      <trkpt lat="47.26788" lon="-1.62417">
        <ele>27.7726593</ele>
        <time>2016-10-25T07:57:52Z</time>
      </trkpt>
      <trkpt lat="47.26787" lon="-1.62424">
        <ele>27.900732</ele>
        <time>2016-10-25T07:57:55Z</time>
      </trkpt>
      <trkpt lat="47.26786" lon="-1.62429">
        <ele>28.046423</ele>
        <time>2016-10-25T07:57:57Z</time>
      </trkpt>
      <trkpt lat="47.26785" lon="-1.62435">
        <ele>28.2379971</ele>
        <time>2016-10-25T07:58:00Z</time>
      </trkpt>
      <trkpt lat="47.26785" lon="-1.62439">
        <ele>28.454834</ele>
        <time>2016-10-25T07:58:02Z</time>
      </trkpt>
      <trkpt lat="47.26785" lon="-1.62444">
        <ele>28.7005615</ele>
        <time>2016-10-25T07:58:05Z</time>
      </trkpt>
      <trkpt lat="47.26784" lon="-1.62448">
        <ele>28.9116211</ele>
        <time>2016-10-25T07:58:07Z</time>
      </trkpt>
      <trkpt lat="47.26783" lon="-1.62454">
        <ele>29.1391602</ele>
        <time>2016-10-25T07:58:10Z</time>
      </trkpt>
      <trkpt lat="47.26782" lon="-1.62458">
        <ele>29.3394775</ele>
        <time>2016-10-25T07:58:12Z</time>
      </trkpt>
      <trkpt lat="47.26781" lon="-1.62464">
        <ele>29.5561523</ele>
        <time>2016-10-25T07:58:15Z</time>
      </trkpt>
      <trkpt lat="47.26781" lon="-1.62468">
        <ele>29.7609863</ele>
        <time>2016-10-25T07:58:17Z</time>
      </trkpt>
      <trkpt lat="47.2678" lon="-1.62474">
        <ele>29.9916992</ele>
        <time>2016-10-25T07:58:20Z</time>
      </trkpt>
      <trkpt lat="47.26777" lon="-1.6248">
        <ele>30.2127686</ele>
        <time>2016-10-25T07:58:23Z</time>
      </trkpt>
      <trkpt lat="47.26776" lon="-1.62486">
        <ele>30.4520264</ele>
        <time>2016-10-25T07:58:26Z</time>
      </trkpt>
      <trkpt lat="47.26775" lon="-1.6249">
        <ele>30.6744385</ele>
        <time>2016-10-25T07:58:28Z</time>
      </trkpt>
      <trkpt lat="47.26775" lon="-1.62496">
        <ele>30.9173584</ele>
        <time>2016-10-25T07:58:31Z</time>
      </trkpt>
      <trkpt lat="47.26775" lon="-1.62502">
        <ele>31.1521053</ele>
        <time>2016-10-25T07:58:34Z</time>
      </trkpt>
      <trkpt lat="47.26775" lon="-1.62506">
        <ele>31.3519554</ele>
        <time>2016-10-25T07:58:36Z</time>
      </trkpt>
      <trkpt lat="47.26773" lon="-1.62512">
        <ele>31.5157356</ele>
        <time>2016-10-25T07:58:39Z</time>
      </trkpt>
      <trkpt lat="47.26774" lon="-1.62518">
        <ele>31.6609707</ele>
        <time>2016-10-25T07:58:42Z</time>
      </trkpt>
      <trkpt lat="47.26774" lon="-1.62524">
        <ele>31.7696323</ele>
        <time>2016-10-25T07:58:45Z</time>
      </trkpt>
      <trkpt lat="47.26775" lon="-1.62527">
        <ele>31.8450928</ele>
        <time>2016-10-25T07:58:47Z</time>
      </trkpt>
      <trkpt lat="47.26775" lon="-1.62533">
        <ele>31.9295998</ele>
        <time>2016-10-25T07:58:50Z</time>
      </trkpt>
      <trkpt lat="47.26773" lon="-1.62541">
        <ele>32.0175209</ele>
        <time>2016-10-25T07:58:53Z</time>
      </trkpt>
      <trkpt lat="47.26772" lon="-1.62547">
        <ele>32.0979996</ele>
        <time>2016-10-25T07:58:56Z</time>
      </trkpt>
      <trkpt lat="47.26773" lon="-1.62551">
        <ele>32.1755943</ele>
        <time>2016-10-25T07:58:59Z</time>
      </trkpt>
      <trkpt lat="47.26774" lon="-1.62553">
        <ele>32.2530708</ele>
        <time>2016-10-25T07:59:01Z</time>
      </trkpt>
      <trkpt lat="47.26773" lon="-1.62558">
        <ele>32.3215942</ele>
        <time>2016-10-25T07:59:04Z</time>
      </trkpt>
      <trkpt lat="47.26773" lon="-1.62561">
        <ele>32.3843689</ele>
        <time>2016-10-25T07:59:06Z</time>
      </trkpt>
      <trkpt lat="47.26773" lon="-1.62565">
        <ele>32.4455147</ele>
        <time>2016-10-25T07:59:08Z</time>
      </trkpt>
      <trkpt lat="47.26773" lon="-1.62569">
        <ele>32.5027084</ele>
        <time>2016-10-25T07:59:10Z</time>
      </trkpt>
      <trkpt lat="47.26772" lon="-1.62575">
        <ele>32.5592232</ele>
        <time>2016-10-25T07:59:12Z</time>
      </trkpt>
      <trkpt lat="47.2677" lon="-1.62583">
        <ele>32.6152763</ele>
        <time>2016-10-25T07:59:15Z</time>
      </trkpt>
      <trkpt lat="47.2677" lon="-1.62591">
        <ele>32.7150726</ele>
        <time>2016-10-25T07:59:18Z</time>
      </trkpt>
      <trkpt lat="47.26771" lon="-1.62596">
        <ele>32.8482056</ele>
        <time>2016-10-25T07:59:20Z</time>
      </trkpt>
      <trkpt lat="47.26771" lon="-1.62601">
        <ele>33.0012436</ele>
        <time>2016-10-25T07:59:22Z</time>
      </trkpt>
      <trkpt lat="47.26772" lon="-1.62605">
        <ele>33.184742</ele>
        <time>2016-10-25T07:59:24Z</time>
      </trkpt>
      <trkpt lat="47.26772" lon="-1.62611">
        <ele>33.3975449</ele>
        <time>2016-10-25T07:59:27Z</time>
      </trkpt>
      <trkpt lat="47.26772" lon="-1.62616">
        <ele>33.5899849</ele>
        <time>2016-10-25T07:59:30Z</time>
      </trkpt>
      <trkpt lat="47.26771" lon="-1.62621">
        <ele>33.7699776</ele>
        <time>2016-10-25T07:59:33Z</time>
      </trkpt>
      <trkpt lat="47.26771" lon="-1.62625">
        <ele>33.9418221</ele>
        <time>2016-10-25T07:59:35Z</time>
      </trkpt>
      <trkpt lat="47.26772" lon="-1.62631">
        <ele>34.1250305</ele>
        <time>2016-10-25T07:59:38Z</time>
      </trkpt>
      <trkpt lat="47.26771" lon="-1.62639">
        <ele>34.3176346</ele>
        <time>2016-10-25T07:59:41Z</time>
      </trkpt>
      <trkpt lat="47.26771" lon="-1.62644">
        <ele>34.5157356</ele>
        <time>2016-10-25T07:59:43Z</time>
      </trkpt>
      <trkpt lat="47.26771" lon="-1.62649">
        <ele>34.7155952</ele>
        <time>2016-10-25T07:59:45Z</time>
      </trkpt>
      <trkpt lat="47.2677" lon="-1.62654">
        <ele>34.9155502</ele>
        <time>2016-10-25T07:59:47Z</time>
      </trkpt>
      <trkpt lat="47.26771" lon="-1.62659">
        <ele>35.1073074</ele>
        <time>2016-10-25T07:59:50Z</time>
      </trkpt>
      <trkpt lat="47.26771" lon="-1.62662">
        <ele>35.2755814</ele>
        <time>2016-10-25T07:59:52Z</time>
      </trkpt>
      <trkpt lat="47.26771" lon="-1.62669">
        <ele>35.4352646</ele>
        <time>2016-10-25T07:59:55Z</time>
      </trkpt>
      <trkpt lat="47.26771" lon="-1.62676">
        <ele>35.5609856</ele>
        <time>2016-10-25T07:59:58Z</time>
      </trkpt>
      <trkpt lat="47.2677" lon="-1.62684">
        <ele>35.6479416</ele>
        <time>2016-10-25T08:00:01Z</time>
      </trkpt>
      <trkpt lat="47.2677" lon="-1.62689">
        <ele>35.684124</ele>
        <time>2016-10-25T08:00:03Z</time>
      </trkpt>
      <trkpt lat="47.26769" lon="-1.62695">
        <ele>35.6884766</ele>
        <time>2016-10-25T08:00:06Z</time>
      </trkpt>
      <trkpt lat="47.26771" lon="-1.62699">
        <ele>35.6953125</ele>
        <time>2016-10-25T08:00:09Z</time>
      </trkpt>
      <trkpt lat="47.26771" lon="-1.62704">
        <ele>35.6953125</ele>
        <time>2016-10-25T08:00:12Z</time>
      </trkpt>
      <trkpt lat="47.26771" lon="-1.62707">
        <ele>35.7089844</ele>
        <time>2016-10-25T08:00:14Z</time>
      </trkpt>
      <trkpt lat="47.26771" lon="-1.62712">
        <ele>35.7363281</ele>
        <time>2016-10-25T08:00:16Z</time>
      </trkpt>
      <trkpt lat="47.26771" lon="-1.62719">
        <ele>35.7636719</ele>
        <time>2016-10-25T08:00:19Z</time>
      </trkpt>
      <trkpt lat="47.26772" lon="-1.62726">
        <ele>35.7705078</ele>
        <time>2016-10-25T08:00:22Z</time>
      </trkpt>
      <trkpt lat="47.26773" lon="-1.6273">
        <ele>35.8115234</ele>
        <time>2016-10-25T08:00:25Z</time>
      </trkpt>
      <trkpt lat="47.26773" lon="-1.62734">
        <ele>35.8457031</ele>
        <time>2016-10-25T08:00:27Z</time>
      </trkpt>
      <trkpt lat="47.26773" lon="-1.6274">
        <ele>35.8730469</ele>
        <time>2016-10-25T08:00:30Z</time>
      </trkpt>
      <trkpt lat="47.26773" lon="-1.62747">
        <ele>35.9140625</ele>
        <time>2016-10-25T08:00:33Z</time>
      </trkpt>
      <trkpt lat="47.26773" lon="-1.62752">
        <ele>35.9303474</ele>
        <time>2016-10-25T08:00:35Z</time>
      </trkpt>
      <trkpt lat="47.26772" lon="-1.6276">
        <ele>35.8596916</ele>
        <time>2016-10-25T08:00:38Z</time>
      </trkpt>
      <trkpt lat="47.26771" lon="-1.62768">
        <ele>35.741394</ele>
        <time>2016-10-25T08:00:40Z</time>
      </trkpt>
      <trkpt lat="47.2677" lon="-1.62773">
        <ele>35.5926018</ele>
        <time>2016-10-25T08:00:42Z</time>
      </trkpt>
      <trkpt lat="47.26772" lon="-1.62777">
        <ele>35.4350052</ele>
        <time>2016-10-25T08:00:45Z</time>
      </trkpt>
      <trkpt lat="47.26772" lon="-1.62779">
        <ele>35.2816162</ele>
        <time>2016-10-25T08:00:47Z</time>
      </trkpt>
      <trkpt lat="47.26772" lon="-1.62783">
        <ele>35.1634331</ele>
        <time>2016-10-25T08:00:49Z</time>
      </trkpt>
      <trkpt lat="47.26773" lon="-1.62786">
        <ele>35.1054459</ele>
        <time>2016-10-25T08:00:51Z</time>
      </trkpt>
      <trkpt lat="47.26775" lon="-1.62789">
        <ele>35.084404</ele>
        <time>2016-10-25T08:00:53Z</time>
      </trkpt>
      <trkpt lat="47.26777" lon="-1.62794">
        <ele>35.0590477</ele>
        <time>2016-10-25T08:00:56Z</time>
      </trkpt>
      <trkpt lat="47.26778" lon="-1.62799">
        <ele>35.0298691</ele>
        <time>2016-10-25T08:00:59Z</time>
      </trkpt>
      <trkpt lat="47.2678" lon="-1.62805">
        <ele>35.0028915</ele>
        <time>2016-10-25T08:01:02Z</time>
      </trkpt>
      <trkpt lat="47.2678" lon="-1.62811">
        <ele>34.9461288</ele>
        <time>2016-10-25T08:01:05Z</time>
      </trkpt>
      <trkpt lat="47.26781" lon="-1.62814">
        <ele>34.8694954</ele>
        <time>2016-10-25T08:01:07Z</time>
      </trkpt>
      <trkpt lat="47.26782" lon="-1.6282">
        <ele>34.7725487</ele>
        <time>2016-10-25T08:01:10Z</time>
      </trkpt>
      <trkpt lat="47.26782" lon="-1.62824">
        <ele>34.6599045</ele>
        <time>2016-10-25T08:01:12Z</time>
      </trkpt>
      <trkpt lat="47.26782" lon="-1.62829">
        <ele>34.5425224</ele>
        <time>2016-10-25T08:01:14Z</time>
      </trkpt>
      <trkpt lat="47.26781" lon="-1.62836">
        <ele>34.3941727</ele>
        <time>2016-10-25T08:01:17Z</time>
      </trkpt>
      <trkpt lat="47.26782" lon="-1.62842">
        <ele>34.2092552</ele>
        <time>2016-10-25T08:01:20Z</time>
      </trkpt>
      <trkpt lat="47.26782" lon="-1.62847">
        <ele>34.0084724</ele>
        <time>2016-10-25T08:01:22Z</time>
      </trkpt>
      <trkpt lat="47.26782" lon="-1.62855">
        <ele>33.7714348</ele>
        <time>2016-10-25T08:01:25Z</time>
      </trkpt>
      <trkpt lat="47.26783" lon="-1.62859">
        <ele>33.5295868</ele>
        <time>2016-10-25T08:01:27Z</time>
      </trkpt>
      <trkpt lat="47.26785" lon="-1.62863">
        <ele>33.3237076</ele>
        <time>2016-10-25T08:01:30Z</time>
      </trkpt>
      <trkpt lat="47.26787" lon="-1.62869">
        <ele>33.1347427</ele>
        <time>2016-10-25T08:01:33Z</time>
      </trkpt>
      <trkpt lat="47.26787" lon="-1.62872">
        <ele>32.9622917</ele>
        <time>2016-10-25T08:01:35Z</time>
      </trkpt>
      <trkpt lat="47.26786" lon="-1.62878">
        <ele>32.7894974</ele>
        <time>2016-10-25T08:01:38Z</time>
      </trkpt>
      <trkpt lat="47.26785" lon="-1.62882">
        <ele>32.6133385</ele>
        <time>2016-10-25T08:01:40Z</time>
      </trkpt>
      <trkpt lat="47.26784" lon="-1.62886">
        <ele>32.4130287</ele>
        <time>2016-10-25T08:01:42Z</time>
      </trkpt>
      <trkpt lat="47.26782" lon="-1.62891">
        <ele>32.1797714</ele>
        <time>2016-10-25T08:01:45Z</time>
      </trkpt>
      <trkpt lat="47.26781" lon="-1.62895">
        <ele>31.9273186</ele>
        <time>2016-10-25T08:01:47Z</time>
      </trkpt>
      <trkpt lat="47.2678" lon="-1.62899">
        <ele>31.6947517</ele>
        <time>2016-10-25T08:01:49Z</time>
      </trkpt>
      <trkpt lat="47.26777" lon="-1.62904">
        <ele>31.4247799</ele>
        <time>2016-10-25T08:01:52Z</time>
      </trkpt>
      <trkpt lat="47.26776" lon="-1.62908">
        <ele>31.1543541</ele>
        <time>2016-10-25T08:01:54Z</time>
      </trkpt>
      <trkpt lat="47.26775" lon="-1.62911">
        <ele>30.9173985</ele>
        <time>2016-10-25T08:01:56Z</time>
      </trkpt>
      <trkpt lat="47.26775" lon="-1.62914">
        <ele>30.6945248</ele>
        <time>2016-10-25T08:01:58Z</time>
      </trkpt>
      <trkpt lat="47.26775" lon="-1.62917">
        <ele>30.4870796</ele>
        <time>2016-10-25T08:02:00Z</time>
      </trkpt>
      <trkpt lat="47.26772" lon="-1.62923">
        <ele>30.3205929</ele>
        <time>2016-10-25T08:02:03Z</time>
      </trkpt>
      <trkpt lat="47.26769" lon="-1.62927">
        <ele>30.1749992</ele>
        <time>2016-10-25T08:02:05Z</time>
      </trkpt>
      <trkpt lat="47.26767" lon="-1.62932">
        <ele>30.0421028</ele>
        <time>2016-10-25T08:02:08Z</time>
      </trkpt>
      <trkpt lat="47.26765" lon="-1.62936">
        <ele>29.9319038</ele>
        <time>2016-10-25T08:02:10Z</time>
      </trkpt>
      <trkpt lat="47.26764" lon="-1.62943">
        <ele>29.8384762</ele>
        <time>2016-10-25T08:02:13Z</time>
      </trkpt>
      <trkpt lat="47.26761" lon="-1.62949">
        <ele>29.7677345</ele>
        <time>2016-10-25T08:02:16Z</time>
      </trkpt>
      <trkpt lat="47.26762" lon="-1.62952">
        <ele>29.723978</ele>
        <time>2016-10-25T08:02:18Z</time>
      </trkpt>
      <trkpt lat="47.2676" lon="-1.6296">
        <ele>29.703289</ele>
        <time>2016-10-25T08:02:21Z</time>
      </trkpt>
      <trkpt lat="47.2676" lon="-1.62966">
        <ele>29.6939507</ele>
        <time>2016-10-25T08:02:24Z</time>
      </trkpt>
      <trkpt lat="47.26759" lon="-1.6297">
        <ele>29.6982212</ele>
        <time>2016-10-25T08:02:26Z</time>
      </trkpt>
      <trkpt lat="47.26759" lon="-1.62975">
        <ele>29.7161961</ele>
        <time>2016-10-25T08:02:29Z</time>
      </trkpt>
      <trkpt lat="47.26758" lon="-1.62979">
        <ele>29.7341652</ele>
        <time>2016-10-25T08:02:31Z</time>
      </trkpt>
      <trkpt lat="47.26758" lon="-1.62985">
        <ele>29.7558041</ele>
        <time>2016-10-25T08:02:34Z</time>
      </trkpt>
      <trkpt lat="47.26759" lon="-1.6299">
        <ele>29.779623</ele>
        <time>2016-10-25T08:02:37Z</time>
      </trkpt>
      <trkpt lat="47.2676" lon="-1.62996">
        <ele>29.8051796</ele>
        <time>2016-10-25T08:02:40Z</time>
      </trkpt>
      <trkpt lat="47.26761" lon="-1.63002">
        <ele>29.8508148</ele>
        <time>2016-10-25T08:02:43Z</time>
      </trkpt>
      <trkpt lat="47.26763" lon="-1.63007">
        <ele>29.9668617</ele>
        <time>2016-10-25T08:02:46Z</time>
      </trkpt>
      <trkpt lat="47.26764" lon="-1.63011">
        <ele>30.1322117</ele>
        <time>2016-10-25T08:02:48Z</time>
      </trkpt>
      <trkpt lat="47.26765" lon="-1.63019">
        <ele>30.3994446</ele>
        <time>2016-10-25T08:02:51Z</time>
      </trkpt>
      <trkpt lat="47.26765" lon="-1.63024">
        <ele>30.7255669</ele>
        <time>2016-10-25T08:02:53Z</time>
      </trkpt>
      <trkpt lat="47.26768" lon="-1.63028">
        <ele>31.072216</ele>
        <time>2016-10-25T08:02:56Z</time>
      </trkpt>
      <trkpt lat="47.2677" lon="-1.63031">
        <ele>31.3725243</ele>
        <time>2016-10-25T08:02:58Z</time>
      </trkpt>
      <trkpt lat="47.26773" lon="-1.63033">
        <ele>31.6082649</ele>
        <time>2016-10-25T08:03:00Z</time>
      </trkpt>
      <trkpt lat="47.26776" lon="-1.63033">
        <ele>31.7139893</ele>
        <time>2016-10-25T08:03:02Z</time>
      </trkpt>
      <trkpt lat="47.2678" lon="-1.63032">
        <ele>31.7243233</ele>
        <time>2016-10-25T08:03:04Z</time>
      </trkpt>
      <trkpt lat="47.26784" lon="-1.63032">
        <ele>31.6516781</ele>
        <time>2016-10-25T08:03:07Z</time>
      </trkpt>
      <trkpt lat="47.26788" lon="-1.63031">
        <ele>31.5079689</ele>
        <time>2016-10-25T08:03:10Z</time>
      </trkpt>
      <trkpt lat="47.26793" lon="-1.63032">
        <ele>31.3507938</ele>
        <time>2016-10-25T08:03:13Z</time>
      </trkpt>
      <trkpt lat="47.26795" lon="-1.63033">
        <ele>31.2003994</ele>
        <time>2016-10-25T08:03:15Z</time>
      </trkpt>
      <trkpt lat="47.26798" lon="-1.63033">
        <ele>31.0593262</ele>
        <time>2016-10-25T08:03:17Z</time>
      </trkpt>
      <trkpt lat="47.26801" lon="-1.63033">
        <ele>30.9257259</ele>
        <time>2016-10-25T08:03:19Z</time>
      </trkpt>
      <trkpt lat="47.26807" lon="-1.63034">
        <ele>30.7973595</ele>
        <time>2016-10-25T08:03:22Z</time>
      </trkpt>
      <trkpt lat="47.2681" lon="-1.63035">
        <ele>30.6713867</ele>
        <time>2016-10-25T08:03:24Z</time>
      </trkpt>
      <trkpt lat="47.26814" lon="-1.63035">
        <ele>30.5310364</ele>
        <time>2016-10-25T08:03:27Z</time>
      </trkpt>
      <trkpt lat="47.26816" lon="-1.63035">
        <ele>30.3961487</ele>
        <time>2016-10-25T08:03:29Z</time>
      </trkpt>
      <trkpt lat="47.26818" lon="-1.63033">
        <ele>30.2614708</ele>
        <time>2016-10-25T08:03:32Z</time>
      </trkpt>
      <trkpt lat="47.2682" lon="-1.63033">
        <ele>30.1506557</ele>
        <time>2016-10-25T08:03:34Z</time>
      </trkpt>
      <trkpt lat="47.26822" lon="-1.63036">
        <ele>30.0562038</ele>
        <time>2016-10-25T08:03:37Z</time>
      </trkpt>
      <trkpt lat="47.26823" lon="-1.6304">
        <ele>29.9993286</ele>
        <time>2016-10-25T08:03:39Z</time>
      </trkpt>
      <trkpt lat="47.26822" lon="-1.63046">
        <ele>29.9927216</ele>
        <time>2016-10-25T08:03:42Z</time>
      </trkpt>
      <trkpt lat="47.26822" lon="-1.6305">
        <ele>30.0347023</ele>
        <time>2016-10-25T08:03:44Z</time>
      </trkpt>
      <trkpt lat="47.26823" lon="-1.63054">
        <ele>30.0939941</ele>
        <time>2016-10-25T08:03:47Z</time>
      </trkpt>
      <trkpt lat="47.26827" lon="-1.63055">
        <ele>30.1126003</ele>
        <time>2016-10-25T08:03:50Z</time>
      </trkpt>
      <trkpt lat="47.26828" lon="-1.63056">
        <ele>30.1157494</ele>
        <time>2016-10-25T08:03:52Z</time>
      </trkpt>
      <trkpt lat="47.26829" lon="-1.63058">
        <ele>30.0878792</ele>
        <time>2016-10-25T08:03:55Z</time>
      </trkpt>
      <trkpt lat="47.26829" lon="-1.6306">
        <ele>30.0425606</ele>
        <time>2016-10-25T08:03:58Z</time>
      </trkpt>
      <trkpt lat="47.2683" lon="-1.63059">
        <ele>29.97645</ele>
        <time>2016-10-25T08:04:00Z</time>
      </trkpt>
      <trkpt lat="47.26831" lon="-1.63059">
        <ele>29.9372196</ele>
        <time>2016-10-25T08:04:02Z</time>
      </trkpt>
      <trkpt lat="47.26834" lon="-1.6306">
        <ele>29.8995323</ele>
        <time>2016-10-25T08:04:05Z</time>
      </trkpt>
      <trkpt lat="47.26837" lon="-1.63062">
        <ele>29.8959923</ele>
        <time>2016-10-25T08:04:07Z</time>
      </trkpt>
      <trkpt lat="47.26839" lon="-1.63066">
        <ele>29.9294624</ele>
        <time>2016-10-25T08:04:10Z</time>
      </trkpt>
      <trkpt lat="47.26839" lon="-1.63071">
        <ele>29.9865208</ele>
        <time>2016-10-25T08:04:12Z</time>
      </trkpt>
      <trkpt lat="47.26837" lon="-1.63078">
        <ele>30.048748</ele>
        <time>2016-10-25T08:04:15Z</time>
      </trkpt>
      <trkpt lat="47.26836" lon="-1.63082">
        <ele>30.1144104</ele>
        <time>2016-10-25T08:04:17Z</time>
      </trkpt>
      <trkpt lat="47.26834" lon="-1.63089">
        <ele>30.1125736</ele>
        <time>2016-10-25T08:04:20Z</time>
      </trkpt>
      <trkpt lat="47.26833" lon="-1.63094">
        <ele>30.0587864</ele>
        <time>2016-10-25T08:04:22Z</time>
      </trkpt>
      <trkpt lat="47.26834" lon="-1.631">
        <ele>29.9877682</ele>
        <time>2016-10-25T08:04:25Z</time>
      </trkpt>
      <trkpt lat="47.26834" lon="-1.63104">
        <ele>29.918766</ele>
        <time>2016-10-25T08:04:27Z</time>
      </trkpt>
      <trkpt lat="47.26833" lon="-1.63111">
        <ele>29.8319855</ele>
        <time>2016-10-25T08:04:30Z</time>
      </trkpt>
      <trkpt lat="47.26832" lon="-1.63116">
        <ele>29.7795525</ele>
        <time>2016-10-25T08:04:32Z</time>
      </trkpt>
      <trkpt lat="47.26832" lon="-1.63121">
        <ele>29.7284126</ele>
        <time>2016-10-25T08:04:34Z</time>
      </trkpt>
      <trkpt lat="47.26833" lon="-1.63125">
        <ele>29.6651306</ele>
        <time>2016-10-25T08:04:37Z</time>
      </trkpt>
      <trkpt lat="47.26833" lon="-1.63126">
        <ele>29.6082058</ele>
        <time>2016-10-25T08:04:40Z</time>
      </trkpt>
      <trkpt lat="47.26832" lon="-1.63127">
        <ele>29.5829926</ele>
        <time>2016-10-25T08:04:46Z</time>
      </trkpt>
      <trkpt lat="47.26832" lon="-1.63129">
        <ele>29.556345</ele>
        <time>2016-10-25T08:04:49Z</time>
      </trkpt>
      <trkpt lat="47.26834" lon="-1.63123">
        <ele>29.539526</ele>
        <time>2016-10-25T08:05:30Z</time>
      </trkpt>
      <trkpt lat="47.26834" lon="-1.63126">
        <ele>29.5387764</ele>
        <time>2016-10-25T08:06:08Z</time>
      </trkpt>
      <trkpt lat="47.26835" lon="-1.63128">
        <ele>29.5416298</ele>
        <time>2016-10-25T08:06:10Z</time>
      </trkpt>
      <trkpt lat="47.26838" lon="-1.6313">
        <ele>29.5463467</ele>
        <time>2016-10-25T08:06:13Z</time>
      </trkpt>
      <trkpt lat="47.26841" lon="-1.63131">
        <ele>29.5617733</ele>
        <time>2016-10-25T08:06:16Z</time>
      </trkpt>
      <trkpt lat="47.26843" lon="-1.63133">
        <ele>29.584692</ele>
        <time>2016-10-25T08:06:18Z</time>
      </trkpt>
      <trkpt lat="47.26844" lon="-1.63139">
        <ele>29.5983887</ele>
        <time>2016-10-25T08:06:21Z</time>
      </trkpt>
      <trkpt lat="47.26843" lon="-1.63142">
        <ele>29.5974884</ele>
        <time>2016-10-25T08:06:24Z</time>
      </trkpt>
      <trkpt lat="47.26842" lon="-1.63136">
        <ele>29.598032</ele>
        <time>2016-10-25T08:06:43Z</time>
      </trkpt>
      <trkpt lat="47.26841" lon="-1.63134">
        <ele>29.5840092</ele>
        <time>2016-10-25T08:06:45Z</time>
      </trkpt>
      <trkpt lat="47.26839" lon="-1.63132">
        <ele>29.563343</ele>
        <time>2016-10-25T08:06:48Z</time>
      </trkpt>
      <trkpt lat="47.26838" lon="-1.6313">
        <ele>29.5616703</ele>
        <time>2016-10-25T08:06:50Z</time>
      </trkpt>
      <trkpt lat="47.26838" lon="-1.63129">
        <ele>29.578516</ele>
        <time>2016-10-25T08:06:53Z</time>
      </trkpt>
      <trkpt lat="47.26829" lon="-1.63122">
        <ele>29.6430244</ele>
        <time>2016-10-25T08:10:53Z</time>
      </trkpt>
      <trkpt lat="47.26826" lon="-1.63126">
        <ele>29.7313023</ele>
        <time>2016-10-25T08:10:56Z</time>
      </trkpt>
      <trkpt lat="47.26825" lon="-1.63128">
        <ele>29.8477478</ele>
        <time>2016-10-25T08:10:58Z</time>
      </trkpt>
      <trkpt lat="47.26822" lon="-1.6313">
        <ele>30.0003815</ele>
        <time>2016-10-25T08:11:01Z</time>
      </trkpt>
      <trkpt lat="47.26818" lon="-1.63133">
        <ele>30.1980343</ele>
        <time>2016-10-25T08:11:04Z</time>
      </trkpt>
      <trkpt lat="47.26816" lon="-1.63133">
        <ele>30.3629951</ele>
        <time>2016-10-25T08:11:07Z</time>
      </trkpt>
      <trkpt lat="47.26815" lon="-1.63132">
        <ele>30.5228634</ele>
        <time>2016-10-25T08:11:09Z</time>
      </trkpt>
      <trkpt lat="47.26815" lon="-1.63129">
        <ele>30.6707001</ele>
        <time>2016-10-25T08:11:11Z</time>
      </trkpt>
      <trkpt lat="47.26813" lon="-1.63124">
        <ele>30.8218575</ele>
        <time>2016-10-25T08:11:14Z</time>
      </trkpt>
      <trkpt lat="47.26812" lon="-1.63122">
        <ele>30.9487724</ele>
        <time>2016-10-25T08:11:16Z</time>
      </trkpt>
      <trkpt lat="47.2681" lon="-1.6312">
        <ele>31.0829773</ele>
        <time>2016-10-25T08:11:21Z</time>
      </trkpt>
      <trkpt lat="47.26807" lon="-1.63121">
        <ele>31.249752</ele>
        <time>2016-10-25T08:11:24Z</time>
      </trkpt>
      <trkpt lat="47.26805" lon="-1.63124">
        <ele>31.4229469</ele>
        <time>2016-10-25T08:11:26Z</time>
      </trkpt>
      <trkpt lat="47.26802" lon="-1.63129">
        <ele>31.5712624</ele>
        <time>2016-10-25T08:11:29Z</time>
      </trkpt>
      <trkpt lat="47.26801" lon="-1.6313">
        <ele>31.7106113</ele>
        <time>2016-10-25T08:11:31Z</time>
      </trkpt>
      <trkpt lat="47.26799" lon="-1.6313">
        <ele>31.8560677</ele>
        <time>2016-10-25T08:11:34Z</time>
      </trkpt>
      <trkpt lat="47.26795" lon="-1.63127">
        <ele>32.0140915</ele>
        <time>2016-10-25T08:11:37Z</time>
      </trkpt>
      <trkpt lat="47.26793" lon="-1.63125">
        <ele>32.1888123</ele>
        <time>2016-10-25T08:11:39Z</time>
      </trkpt>
      <trkpt lat="47.26791" lon="-1.63123">
        <ele>32.3845711</ele>
        <time>2016-10-25T08:11:41Z</time>
      </trkpt>
      <trkpt lat="47.26789" lon="-1.63121">
        <ele>32.6115227</ele>
        <time>2016-10-25T08:11:44Z</time>
      </trkpt>
      <trkpt lat="47.26786" lon="-1.6312">
        <ele>32.8529167</ele>
        <time>2016-10-25T08:11:47Z</time>
      </trkpt>
      <trkpt lat="47.26784" lon="-1.63119">
        <ele>33.0533028</ele>
        <time>2016-10-25T08:11:49Z</time>
      </trkpt>
      <trkpt lat="47.26782" lon="-1.63119">
        <ele>33.2489128</ele>
        <time>2016-10-25T08:11:51Z</time>
      </trkpt>
      <trkpt lat="47.2678" lon="-1.63118">
        <ele>33.4565544</ele>
        <time>2016-10-25T08:11:53Z</time>
      </trkpt>
      <trkpt lat="47.26778" lon="-1.63116">
        <ele>33.6445313</ele>
        <time>2016-10-25T08:11:56Z</time>
      </trkpt>
      <trkpt lat="47.26776" lon="-1.63117">
        <ele>33.8068199</ele>
        <time>2016-10-25T08:11:59Z</time>
      </trkpt>
      <trkpt lat="47.26774" lon="-1.63119">
        <ele>33.9677811</ele>
        <time>2016-10-25T08:12:01Z</time>
      </trkpt>
      <trkpt lat="47.26772" lon="-1.63117">
        <ele>34.1446266</ele>
        <time>2016-10-25T08:12:04Z</time>
      </trkpt>
      <trkpt lat="47.2677" lon="-1.63113">
        <ele>34.3205376</ele>
        <time>2016-10-25T08:12:07Z</time>
      </trkpt>
      <trkpt lat="47.26765" lon="-1.63109">
        <ele>34.5578995</ele>
        <time>2016-10-25T08:12:10Z</time>
      </trkpt>
      <trkpt lat="47.26761" lon="-1.63104">
        <ele>34.8486252</ele>
        <time>2016-10-25T08:12:13Z</time>
      </trkpt>
      <trkpt lat="47.26757" lon="-1.63102">
        <ele>35.1962624</ele>
        <time>2016-10-25T08:12:16Z</time>
      </trkpt>
      <trkpt lat="47.26753" lon="-1.63102">
        <ele>35.5615387</ele>
        <time>2016-10-25T08:12:19Z</time>
      </trkpt>
      <trkpt lat="47.2675" lon="-1.63103">
        <ele>35.9209824</ele>
        <time>2016-10-25T08:12:22Z</time>
      </trkpt>
      <trkpt lat="47.26747" lon="-1.63104">
        <ele>36.2071228</ele>
        <time>2016-10-25T08:12:24Z</time>
      </trkpt>
      <trkpt lat="47.26745" lon="-1.63103">
        <ele>36.4263191</ele>
        <time>2016-10-25T08:12:26Z</time>
      </trkpt>
      <trkpt lat="47.26743" lon="-1.63103">
        <ele>36.5842972</ele>
        <time>2016-10-25T08:12:29Z</time>
      </trkpt>
      <trkpt lat="47.26742" lon="-1.63102">
        <ele>36.6911201</ele>
        <time>2016-10-25T08:12:31Z</time>
      </trkpt>
      <trkpt lat="47.26741" lon="-1.63099">
        <ele>36.7813454</ele>
        <time>2016-10-25T08:12:33Z</time>
      </trkpt>
      <trkpt lat="47.26738" lon="-1.63096">
        <ele>36.8992729</ele>
        <time>2016-10-25T08:12:36Z</time>
      </trkpt>
      <trkpt lat="47.26737" lon="-1.63093">
        <ele>37.0237999</ele>
        <time>2016-10-25T08:12:38Z</time>
      </trkpt>
      <trkpt lat="47.26735" lon="-1.63093">
        <ele>37.1465645</ele>
        <time>2016-10-25T08:12:40Z</time>
      </trkpt>
      <trkpt lat="47.26732" lon="-1.63092">
        <ele>37.2966003</ele>
        <time>2016-10-25T08:12:43Z</time>
      </trkpt>
      <trkpt lat="47.26727" lon="-1.63088">
        <ele>37.4822121</ele>
        <time>2016-10-25T08:12:46Z</time>
      </trkpt>
      <trkpt lat="47.26725" lon="-1.63084">
        <ele>37.6777802</ele>
        <time>2016-10-25T08:12:49Z</time>
      </trkpt>
      <trkpt lat="47.26724" lon="-1.63079">
        <ele>37.8174591</ele>
        <time>2016-10-25T08:12:52Z</time>
      </trkpt>
      <trkpt lat="47.26722" lon="-1.63076">
        <ele>37.9470406</ele>
        <time>2016-10-25T08:12:55Z</time>
      </trkpt>
      <trkpt lat="47.26721" lon="-1.63074">
        <ele>38.0270615</ele>
        <time>2016-10-25T08:12:57Z</time>
      </trkpt>
      <trkpt lat="47.2672" lon="-1.6307">
        <ele>38.0271416</ele>
        <time>2016-10-25T08:13:00Z</time>
      </trkpt>
      <trkpt lat="47.26717" lon="-1.63065">
        <ele>37.9750862</ele>
        <time>2016-10-25T08:13:03Z</time>
      </trkpt>
      <trkpt lat="47.26715" lon="-1.63062">
        <ele>37.9686928</ele>
        <time>2016-10-25T08:13:05Z</time>
      </trkpt>
      <trkpt lat="47.26714" lon="-1.63057">
        <ele>37.9345856</ele>
        <time>2016-10-25T08:13:08Z</time>
      </trkpt>
      <trkpt lat="47.26714" lon="-1.63053">
        <ele>37.8828239</ele>
        <time>2016-10-25T08:13:10Z</time>
      </trkpt>
      <trkpt lat="47.26715" lon="-1.6305">
        <ele>37.8128052</ele>
        <time>2016-10-25T08:13:13Z</time>
      </trkpt>
      <trkpt lat="47.26715" lon="-1.63049">
        <ele>37.7319145</ele>
        <time>2016-10-25T08:13:15Z</time>
      </trkpt>
      <trkpt lat="47.26713" lon="-1.63046">
        <ele>37.6663437</ele>
        <time>2016-10-25T08:13:18Z</time>
      </trkpt>
      <trkpt lat="47.26711" lon="-1.63043">
        <ele>37.6410103</ele>
        <time>2016-10-25T08:13:20Z</time>
      </trkpt>
      <trkpt lat="47.26709" lon="-1.63039">
        <ele>37.6581497</ele>
        <time>2016-10-25T08:13:22Z</time>
      </trkpt>
      <trkpt lat="47.26708" lon="-1.63033">
        <ele>37.7096481</ele>
        <time>2016-10-25T08:13:25Z</time>
      </trkpt>
      <trkpt lat="47.26707" lon="-1.6303">
        <ele>37.7757339</ele>
        <time>2016-10-25T08:13:27Z</time>
      </trkpt>
      <trkpt lat="47.26706" lon="-1.63026">
        <ele>37.8264008</ele>
        <time>2016-10-25T08:13:29Z</time>
      </trkpt>
      <trkpt lat="47.26705" lon="-1.63022">
        <ele>37.8653374</ele>
        <time>2016-10-25T08:13:32Z</time>
      </trkpt>
      <trkpt lat="47.26705" lon="-1.63019">
        <ele>37.8883362</ele>
        <time>2016-10-25T08:13:34Z</time>
      </trkpt>
      <trkpt lat="47.26704" lon="-1.63017">
        <ele>37.9263382</ele>
        <time>2016-10-25T08:13:36Z</time>
      </trkpt>
      <trkpt lat="47.26703" lon="-1.63013">
        <ele>37.9941177</ele>
        <time>2016-10-25T08:13:39Z</time>
      </trkpt>
      <trkpt lat="47.26701" lon="-1.6301">
        <ele>38.0894356</ele>
        <time>2016-10-25T08:13:41Z</time>
      </trkpt>
      <trkpt lat="47.26698" lon="-1.63006">
        <ele>38.2481155</ele>
        <time>2016-10-25T08:13:44Z</time>
      </trkpt>
      <trkpt lat="47.26696" lon="-1.63004">
        <ele>38.4806137</ele>
        <time>2016-10-25T08:13:46Z</time>
      </trkpt>
      <trkpt lat="47.26693" lon="-1.63002">
        <ele>38.7910385</ele>
        <time>2016-10-25T08:13:49Z</time>
      </trkpt>
      <trkpt lat="47.26691" lon="-1.63001">
        <ele>39.1341743</ele>
        <time>2016-10-25T08:13:51Z</time>
      </trkpt>
      <trkpt lat="47.26689" lon="-1.62999">
        <ele>39.5140419</ele>
        <time>2016-10-25T08:13:53Z</time>
      </trkpt>
      <trkpt lat="47.26686" lon="-1.62996">
        <ele>39.8970757</ele>
        <time>2016-10-25T08:13:56Z</time>
      </trkpt>
      <trkpt lat="47.26685" lon="-1.62994">
        <ele>40.2483292</ele>
        <time>2016-10-25T08:13:58Z</time>
      </trkpt>
      <trkpt lat="47.26682" lon="-1.62991">
        <ele>40.5787926</ele>
        <time>2016-10-25T08:14:01Z</time>
      </trkpt>
      <trkpt lat="47.26679" lon="-1.62991">
        <ele>40.9341125</ele>
        <time>2016-10-25T08:14:04Z</time>
      </trkpt>
      <trkpt lat="47.26675" lon="-1.62987">
        <ele>41.3419991</ele>
        <time>2016-10-25T08:14:07Z</time>
      </trkpt>
      <trkpt lat="47.2667" lon="-1.62984">
        <ele>41.8295898</ele>
        <time>2016-10-25T08:14:10Z</time>
      </trkpt>
      <trkpt lat="47.26667" lon="-1.62983">
        <ele>42.3752441</ele>
        <time>2016-10-25T08:14:13Z</time>
      </trkpt>
      <trkpt lat="47.26664" lon="-1.62979">
        <ele>42.8308792</ele>
        <time>2016-10-25T08:14:16Z</time>
      </trkpt>
      <trkpt lat="47.26662" lon="-1.62977">
        <ele>43.1856041</ele>
        <time>2016-10-25T08:14:18Z</time>
      </trkpt>
      <trkpt lat="47.2666" lon="-1.62975">
        <ele>43.4023972</ele>
        <time>2016-10-25T08:14:21Z</time>
      </trkpt>
      <trkpt lat="47.26657" lon="-1.62974">
        <ele>43.4673195</ele>
        <time>2016-10-25T08:14:23Z</time>
      </trkpt>
      <trkpt lat="47.26655" lon="-1.62974">
        <ele>43.4294548</ele>
        <time>2016-10-25T08:14:25Z</time>
      </trkpt>
      <trkpt lat="47.26651" lon="-1.6297">
        <ele>43.4066811</ele>
        <time>2016-10-25T08:14:28Z</time>
      </trkpt>
      <trkpt lat="47.26648" lon="-1.62968">
        <ele>43.3934021</ele>
        <time>2016-10-25T08:14:30Z</time>
      </trkpt>
      <trkpt lat="47.26646" lon="-1.62965">
        <ele>43.3908386</ele>
        <time>2016-10-25T08:14:33Z</time>
      </trkpt>
      <trkpt lat="47.26643" lon="-1.62961">
        <ele>43.3956985</ele>
        <time>2016-10-25T08:14:35Z</time>
      </trkpt>
      <trkpt lat="47.26639" lon="-1.62958">
        <ele>43.4166145</ele>
        <time>2016-10-25T08:14:38Z</time>
      </trkpt>
      <trkpt lat="47.26637" lon="-1.62953">
        <ele>43.4521904</ele>
        <time>2016-10-25T08:14:40Z</time>
      </trkpt>
      <trkpt lat="47.26636" lon="-1.62948">
        <ele>43.5014458</ele>
        <time>2016-10-25T08:14:43Z</time>
      </trkpt>
      <trkpt lat="47.26636" lon="-1.62947">
        <ele>43.5498466</ele>
        <time>2016-10-25T08:14:46Z</time>
      </trkpt>
      <trkpt lat="47.26635" lon="-1.62943">
        <ele>43.6027527</ele>
        <time>2016-10-25T08:14:49Z</time>
      </trkpt>
      <trkpt lat="47.26633" lon="-1.6294">
        <ele>43.6584778</ele>
        <time>2016-10-25T08:14:51Z</time>
      </trkpt>
      <trkpt lat="47.26633" lon="-1.62936">
        <ele>43.7162971</ele>
        <time>2016-10-25T08:14:54Z</time>
      </trkpt>
      <trkpt lat="47.26632" lon="-1.6293">
        <ele>43.7724571</ele>
        <time>2016-10-25T08:14:57Z</time>
      </trkpt>
      <trkpt lat="47.2663" lon="-1.62924">
        <ele>43.8696404</ele>
        <time>2016-10-25T08:15:00Z</time>
      </trkpt>
      <trkpt lat="47.26627" lon="-1.62921">
        <ele>43.9950943</ele>
        <time>2016-10-25T08:15:03Z</time>
      </trkpt>
      <trkpt lat="47.26623" lon="-1.62916">
        <ele>44.1676636</ele>
        <time>2016-10-25T08:15:06Z</time>
      </trkpt>
      <trkpt lat="47.2662" lon="-1.62914">
        <ele>44.3724327</ele>
        <time>2016-10-25T08:15:08Z</time>
      </trkpt>
      <trkpt lat="47.26619" lon="-1.62911">
        <ele>44.5999641</ele>
        <time>2016-10-25T08:15:10Z</time>
      </trkpt>
      <trkpt lat="47.26617" lon="-1.62909">
        <ele>44.8104668</ele>
        <time>2016-10-25T08:15:12Z</time>
      </trkpt>
      <trkpt lat="47.26616" lon="-1.62905">
        <ele>45.0213318</ele>
        <time>2016-10-25T08:15:15Z</time>
      </trkpt>
      <trkpt lat="47.26614" lon="-1.62901">
        <ele>45.2140121</ele>
        <time>2016-10-25T08:15:18Z</time>
      </trkpt>
      <trkpt lat="47.26614" lon="-1.62898">
        <ele>45.3783607</ele>
        <time>2016-10-25T08:15:20Z</time>
      </trkpt>
      <trkpt lat="47.26613" lon="-1.62896">
        <ele>45.5266876</ele>
        <time>2016-10-25T08:15:22Z</time>
      </trkpt>
      <trkpt lat="47.26611" lon="-1.62893">
        <ele>45.68853</ele>
        <time>2016-10-25T08:15:25Z</time>
      </trkpt>
      <trkpt lat="47.26609" lon="-1.62892">
        <ele>45.8483925</ele>
        <time>2016-10-25T08:15:28Z</time>
      </trkpt>
      <trkpt lat="47.26604" lon="-1.62889">
        <ele>46.0214996</ele>
        <time>2016-10-25T08:15:31Z</time>
      </trkpt>
      <trkpt lat="47.26601" lon="-1.62886">
        <ele>46.2303772</ele>
        <time>2016-10-25T08:15:34Z</time>
      </trkpt>
      <trkpt lat="47.26598" lon="-1.62885">
        <ele>46.4639969</ele>
        <time>2016-10-25T08:15:37Z</time>
      </trkpt>
      <trkpt lat="47.26596" lon="-1.62885">
        <ele>46.6816025</ele>
        <time>2016-10-25T08:15:39Z</time>
      </trkpt>
      <trkpt lat="47.26594" lon="-1.62883">
        <ele>46.8931351</ele>
        <time>2016-10-25T08:15:42Z</time>
      </trkpt>
      <trkpt lat="47.26591" lon="-1.62881">
        <ele>47.0800552</ele>
        <time>2016-10-25T08:15:44Z</time>
      </trkpt>
      <trkpt lat="47.26587" lon="-1.62879">
        <ele>47.2716408</ele>
        <time>2016-10-25T08:15:47Z</time>
      </trkpt>
      <trkpt lat="47.26582" lon="-1.62873">
        <ele>47.4878616</ele>
        <time>2016-10-25T08:15:50Z</time>
      </trkpt>
      <trkpt lat="47.2658" lon="-1.62869">
        <ele>47.6905441</ele>
        <time>2016-10-25T08:15:52Z</time>
      </trkpt>
      <trkpt lat="47.26577" lon="-1.62862">
        <ele>47.8854141</ele>
        <time>2016-10-25T08:15:55Z</time>
      </trkpt>
      <trkpt lat="47.26574" lon="-1.62858">
        <ele>48.0568962</ele>
        <time>2016-10-25T08:15:57Z</time>
      </trkpt>
      <trkpt lat="47.26572" lon="-1.62853">
        <ele>48.1871681</ele>
        <time>2016-10-25T08:16:00Z</time>
      </trkpt>
      <trkpt lat="47.26569" lon="-1.62851">
        <ele>48.2557259</ele>
        <time>2016-10-25T08:16:02Z</time>
      </trkpt>
      <trkpt lat="47.26567" lon="-1.62849">
        <ele>48.3195496</ele>
        <time>2016-10-25T08:16:04Z</time>
      </trkpt>
      <trkpt lat="47.26565" lon="-1.62845">
        <ele>48.3728714</ele>
        <time>2016-10-25T08:16:07Z</time>
      </trkpt>
      <trkpt lat="47.26561" lon="-1.62841">
        <ele>48.4265137</ele>
        <time>2016-10-25T08:16:10Z</time>
      </trkpt>
      <trkpt lat="47.26558" lon="-1.62835">
        <ele>48.487175</ele>
        <time>2016-10-25T08:16:13Z</time>
      </trkpt>
      <trkpt lat="47.26556" lon="-1.62829">
        <ele>48.5376472</ele>
        <time>2016-10-25T08:16:16Z</time>
      </trkpt>
      <trkpt lat="47.26555" lon="-1.62825">
        <ele>48.5755005</ele>
        <time>2016-10-25T08:16:18Z</time>
      </trkpt>
      <trkpt lat="47.26555" lon="-1.6282">
        <ele>48.5944748</ele>
        <time>2016-10-25T08:16:21Z</time>
      </trkpt>
      <trkpt lat="47.26554" lon="-1.62818">
        <ele>48.5987968</ele>
        <time>2016-10-25T08:16:23Z</time>
      </trkpt>
      <trkpt lat="47.26553" lon="-1.62815">
        <ele>48.5774002</ele>
        <time>2016-10-25T08:16:25Z</time>
      </trkpt>
      <trkpt lat="47.26549" lon="-1.62811">
        <ele>48.5630074</ele>
        <time>2016-10-25T08:16:28Z</time>
      </trkpt>
      <trkpt lat="47.26546" lon="-1.62808">
        <ele>48.5627937</ele>
        <time>2016-10-25T08:16:31Z</time>
      </trkpt>
      <trkpt lat="47.26543" lon="-1.62805">
        <ele>48.5785637</ele>
        <time>2016-10-25T08:16:33Z</time>
      </trkpt>
      <trkpt lat="47.2654" lon="-1.62802">
        <ele>48.6096458</ele>
        <time>2016-10-25T08:16:36Z</time>
      </trkpt>
      <trkpt lat="47.26537" lon="-1.62797">
        <ele>48.6684875</ele>
        <time>2016-10-25T08:16:39Z</time>
      </trkpt>
      <trkpt lat="47.26535" lon="-1.62794">
        <ele>48.7407684</ele>
        <time>2016-10-25T08:16:41Z</time>
      </trkpt>
      <trkpt lat="47.26533" lon="-1.62792">
        <ele>48.8227615</ele>
        <time>2016-10-25T08:16:43Z</time>
      </trkpt>
      <trkpt lat="47.2653" lon="-1.62787">
        <ele>48.9335098</ele>
        <time>2016-10-25T08:16:46Z</time>
      </trkpt>
      <trkpt lat="47.26528" lon="-1.62786">
        <ele>49.0474968</ele>
        <time>2016-10-25T08:16:48Z</time>
      </trkpt>
      <trkpt lat="47.26525" lon="-1.62783">
        <ele>49.1724205</ele>
        <time>2016-10-25T08:16:51Z</time>
      </trkpt>
      <trkpt lat="47.26523" lon="-1.62781">
        <ele>49.3015251</ele>
        <time>2016-10-25T08:16:53Z</time>
      </trkpt>
      <trkpt lat="47.26522" lon="-1.62779">
        <ele>49.4304314</ele>
        <time>2016-10-25T08:16:56Z</time>
      </trkpt>
      <trkpt lat="47.26522" lon="-1.62778">
        <ele>49.5313606</ele>
        <time>2016-10-25T08:16:59Z</time>
      </trkpt>
      <trkpt lat="47.26521" lon="-1.62777">
        <ele>49.6288719</ele>
        <time>2016-10-25T08:17:07Z</time>
      </trkpt>
      <trkpt lat="47.26518" lon="-1.62773">
        <ele>49.7366104</ele>
        <time>2016-10-25T08:17:10Z</time>
      </trkpt>
      <trkpt lat="47.26516" lon="-1.6277">
        <ele>49.8624382</ele>
        <time>2016-10-25T08:17:13Z</time>
      </trkpt>
      <trkpt lat="47.26515" lon="-1.62768">
        <ele>49.9959412</ele>
        <time>2016-10-25T08:17:15Z</time>
      </trkpt>
      <trkpt lat="47.26515" lon="-1.62763">
        <ele>50.1568527</ele>
        <time>2016-10-25T08:17:18Z</time>
      </trkpt>
      <trkpt lat="47.26514" lon="-1.62756">
        <ele>50.352562</ele>
        <time>2016-10-25T08:17:21Z</time>
      </trkpt>
      <trkpt lat="47.26514" lon="-1.62752">
        <ele>50.5338058</ele>
        <time>2016-10-25T08:17:23Z</time>
      </trkpt>
      <trkpt lat="47.26514" lon="-1.62748">
        <ele>50.6872482</ele>
        <time>2016-10-25T08:17:25Z</time>
      </trkpt>
      <trkpt lat="47.26515" lon="-1.62742">
        <ele>50.8085899</ele>
        <time>2016-10-25T08:17:28Z</time>
      </trkpt>
      <trkpt lat="47.26516" lon="-1.62738">
        <ele>50.8816452</ele>
        <time>2016-10-25T08:17:30Z</time>
      </trkpt>
      <trkpt lat="47.26517" lon="-1.62733">
        <ele>50.8965836</ele>
        <time>2016-10-25T08:17:33Z</time>
      </trkpt>
      <trkpt lat="47.26518" lon="-1.62729">
        <ele>50.8678017</ele>
        <time>2016-10-25T08:17:35Z</time>
      </trkpt>
      <trkpt lat="47.26518" lon="-1.62723">
        <ele>50.8291206</ele>
        <time>2016-10-25T08:17:38Z</time>
      </trkpt>
      <trkpt lat="47.26518" lon="-1.62719">
        <ele>50.7996597</ele>
        <time>2016-10-25T08:17:40Z</time>
      </trkpt>
      <trkpt lat="47.26519" lon="-1.62714">
        <ele>50.7676849</ele>
        <time>2016-10-25T08:17:43Z</time>
      </trkpt>
      <trkpt lat="47.26519" lon="-1.62711">
        <ele>50.7391014</ele>
        <time>2016-10-25T08:17:45Z</time>
      </trkpt>
      <trkpt lat="47.26521" lon="-1.62707">
        <ele>50.6918793</ele>
        <time>2016-10-25T08:17:48Z</time>
      </trkpt>
      <trkpt lat="47.26521" lon="-1.62703">
        <ele>50.6265984</ele>
        <time>2016-10-25T08:17:50Z</time>
      </trkpt>
      <trkpt lat="47.26522" lon="-1.627">
        <ele>50.5432053</ele>
        <time>2016-10-25T08:17:52Z</time>
      </trkpt>
      <trkpt lat="47.26523" lon="-1.62697">
        <ele>50.4558029</ele>
        <time>2016-10-25T08:17:54Z</time>
      </trkpt>
      <trkpt lat="47.26523" lon="-1.62692">
        <ele>50.3741074</ele>
        <time>2016-10-25T08:17:57Z</time>
      </trkpt>
      <trkpt lat="47.26524" lon="-1.62686">
        <ele>50.2951431</ele>
        <time>2016-10-25T08:18:00Z</time>
      </trkpt>
      <trkpt lat="47.26525" lon="-1.62683">
        <ele>50.2219276</ele>
        <time>2016-10-25T08:18:02Z</time>
      </trkpt>
      <trkpt lat="47.26526" lon="-1.62678">
        <ele>50.1447525</ele>
        <time>2016-10-25T08:18:05Z</time>
      </trkpt>
      <trkpt lat="47.26526" lon="-1.62675">
        <ele>50.0830536</ele>
        <time>2016-10-25T08:18:07Z</time>
      </trkpt>
      <trkpt lat="47.26525" lon="-1.62672">
        <ele>50.0399628</ele>
        <time>2016-10-25T08:18:09Z</time>
      </trkpt>
      <trkpt lat="47.26524" lon="-1.62666">
        <ele>50.0319061</ele>
        <time>2016-10-25T08:18:12Z</time>
      </trkpt>
      <trkpt lat="47.26524" lon="-1.6266">
        <ele>50.0324173</ele>
        <time>2016-10-25T08:18:15Z</time>
      </trkpt>
      <trkpt lat="47.26524" lon="-1.62657">
        <ele>50.0524521</ele>
        <time>2016-10-25T08:18:17Z</time>
      </trkpt>
      <trkpt lat="47.26525" lon="-1.62653">
        <ele>50.063652</ele>
        <time>2016-10-25T08:18:19Z</time>
      </trkpt>
      <trkpt lat="47.26524" lon="-1.62647">
        <ele>50.0649643</ele>
        <time>2016-10-25T08:18:22Z</time>
      </trkpt>
      <trkpt lat="47.26525" lon="-1.62643">
        <ele>50.0490913</ele>
        <time>2016-10-25T08:18:24Z</time>
      </trkpt>
      <trkpt lat="47.26525" lon="-1.62639">
        <ele>50.0249443</ele>
        <time>2016-10-25T08:18:26Z</time>
      </trkpt>
      <trkpt lat="47.26526" lon="-1.62632">
        <ele>49.9918251</ele>
        <time>2016-10-25T08:18:29Z</time>
      </trkpt>
      <trkpt lat="47.26526" lon="-1.62627">
        <ele>49.9681396</ele>
        <time>2016-10-25T08:18:32Z</time>
      </trkpt>
      <trkpt lat="47.26525" lon="-1.62622">
        <ele>49.9524879</ele>
        <time>2016-10-25T08:18:34Z</time>
      </trkpt>
      <trkpt lat="47.26524" lon="-1.62619">
        <ele>49.9620895</ele>
        <time>2016-10-25T08:18:36Z</time>
      </trkpt>
      <trkpt lat="47.26523" lon="-1.62613">
        <ele>50.00354</ele>
        <time>2016-10-25T08:18:39Z</time>
      </trkpt>
      <trkpt lat="47.26523" lon="-1.6261">
        <ele>50.0533142</ele>
        <time>2016-10-25T08:18:41Z</time>
      </trkpt>
      <trkpt lat="47.26524" lon="-1.62604">
        <ele>50.086586</ele>
        <time>2016-10-25T08:18:44Z</time>
      </trkpt>
      <trkpt lat="47.26524" lon="-1.626">
        <ele>50.0953827</ele>
        <time>2016-10-25T08:18:46Z</time>
      </trkpt>
      <trkpt lat="47.26524" lon="-1.62596">
        <ele>50.0876846</ele>
        <time>2016-10-25T08:18:48Z</time>
      </trkpt>
      <trkpt lat="47.26523" lon="-1.62592">
        <ele>50.0782089</ele>
        <time>2016-10-25T08:18:50Z</time>
      </trkpt>
      <trkpt lat="47.26522" lon="-1.62586">
        <ele>50.0676422</ele>
        <time>2016-10-25T08:18:53Z</time>
      </trkpt>
      <trkpt lat="47.26522" lon="-1.62582">
        <ele>50.1015663</ele>
        <time>2016-10-25T08:18:55Z</time>
      </trkpt>
      <trkpt lat="47.26521" lon="-1.62578">
        <ele>50.2036362</ele>
        <time>2016-10-25T08:18:57Z</time>
      </trkpt>
      <trkpt lat="47.26521" lon="-1.62575">
        <ele>50.3639412</ele>
        <time>2016-10-25T08:18:59Z</time>
      </trkpt>
      <trkpt lat="47.26519" lon="-1.62568">
        <ele>50.6159058</ele>
        <time>2016-10-25T08:19:02Z</time>
      </trkpt>
      <trkpt lat="47.26518" lon="-1.62563">
        <ele>50.9551086</ele>
        <time>2016-10-25T08:19:05Z</time>
      </trkpt>
      <trkpt lat="47.26517" lon="-1.62557">
        <ele>51.3535156</ele>
        <time>2016-10-25T08:19:08Z</time>
      </trkpt>
      <trkpt lat="47.26516" lon="-1.62555">
        <ele>51.721302</ele>
        <time>2016-10-25T08:19:10Z</time>
      </trkpt>
      <trkpt lat="47.26515" lon="-1.6255">
        <ele>52.1207504</ele>
        <time>2016-10-25T08:19:13Z</time>
      </trkpt>
      <trkpt lat="47.26514" lon="-1.62543">
        <ele>52.4980965</ele>
        <time>2016-10-25T08:19:16Z</time>
      </trkpt>
      <trkpt lat="47.26513" lon="-1.6254">
        <ele>52.8548164</ele>
        <time>2016-10-25T08:19:18Z</time>
      </trkpt>
      <trkpt lat="47.26511" lon="-1.62534">
        <ele>53.2243156</ele>
        <time>2016-10-25T08:19:21Z</time>
      </trkpt>
      <trkpt lat="47.2651" lon="-1.62531">
        <ele>53.6298103</ele>
        <time>2016-10-25T08:19:23Z</time>
      </trkpt>
      <trkpt lat="47.26508" lon="-1.62528">
        <ele>54.0022354</ele>
        <time>2016-10-25T08:19:25Z</time>
      </trkpt>
      <trkpt lat="47.26506" lon="-1.62524">
        <ele>54.3743896</ele>
        <time>2016-10-25T08:19:28Z</time>
      </trkpt>
      <trkpt lat="47.26505" lon="-1.62519">
        <ele>54.7550468</ele>
        <time>2016-10-25T08:19:31Z</time>
      </trkpt>
      <trkpt lat="47.26504" lon="-1.62516">
        <ele>55.0853386</ele>
        <time>2016-10-25T08:19:33Z</time>
      </trkpt>
      <trkpt lat="47.26503" lon="-1.62511">
        <ele>55.4231644</ele>
        <time>2016-10-25T08:19:36Z</time>
      </trkpt>
      <trkpt lat="47.26503" lon="-1.62506">
        <ele>55.77071</ele>
        <time>2016-10-25T08:19:39Z</time>
      </trkpt>
      <trkpt lat="47.26503" lon="-1.62501">
        <ele>56.0941391</ele>
        <time>2016-10-25T08:19:42Z</time>
      </trkpt>
      <trkpt lat="47.26501" lon="-1.62496">
        <ele>56.396904</ele>
        <time>2016-10-25T08:19:45Z</time>
      </trkpt>
      <trkpt lat="47.26499" lon="-1.6249">
        <ele>56.7100716</ele>
        <time>2016-10-25T08:19:48Z</time>
      </trkpt>
      <trkpt lat="47.26497" lon="-1.62487">
        <ele>56.9877701</ele>
        <time>2016-10-25T08:19:50Z</time>
      </trkpt>
      <trkpt lat="47.26494" lon="-1.62483">
        <ele>57.2611923</ele>
        <time>2016-10-25T08:19:53Z</time>
      </trkpt>
      <trkpt lat="47.2649" lon="-1.62482">
        <ele>57.5129204</ele>
        <time>2016-10-25T08:19:56Z</time>
      </trkpt>
      <trkpt lat="47.26488" lon="-1.62482">
        <ele>57.7453918</ele>
        <time>2016-10-25T08:19:59Z</time>
      </trkpt>
      <trkpt lat="47.26485" lon="-1.62484">
        <ele>57.9369698</ele>
        <time>2016-10-25T08:20:01Z</time>
      </trkpt>
      <trkpt lat="47.26482" lon="-1.62486">
        <ele>58.125988</ele>
        <time>2016-10-25T08:20:04Z</time>
      </trkpt>
      <trkpt lat="47.2648" lon="-1.62486">
        <ele>58.2798386</ele>
        <time>2016-10-25T08:20:06Z</time>
      </trkpt>
      <trkpt lat="47.26478" lon="-1.62487">
        <ele>58.4189568</ele>
        <time>2016-10-25T08:20:09Z</time>
      </trkpt>
      <trkpt lat="47.26477" lon="-1.62489">
        <ele>58.5332146</ele>
        <time>2016-10-25T08:20:11Z</time>
      </trkpt>
      <trkpt lat="47.26476" lon="-1.62491">
        <ele>58.6478996</ele>
        <time>2016-10-25T08:20:14Z</time>
      </trkpt>
      <trkpt lat="47.26474" lon="-1.62492">
        <ele>58.7489014</ele>
        <time>2016-10-25T08:20:16Z</time>
      </trkpt>
      <trkpt lat="47.26472" lon="-1.62493">
        <ele>58.8498917</ele>
        <time>2016-10-25T08:20:19Z</time>
      </trkpt>
      <trkpt lat="47.26471" lon="-1.62494">
        <ele>58.9380493</ele>
        <time>2016-10-25T08:20:22Z</time>
      </trkpt>
      <trkpt lat="47.26468" lon="-1.62498">
        <ele>59.056469</ele>
        <time>2016-10-25T08:20:24Z</time>
      </trkpt>
      <trkpt lat="47.26463" lon="-1.625">
        <ele>59.2192459</ele>
        <time>2016-10-25T08:20:27Z</time>
      </trkpt>
      <trkpt lat="47.26462" lon="-1.62499">
        <ele>59.385582</ele>
        <time>2016-10-25T08:20:29Z</time>
      </trkpt>
      <trkpt lat="47.26459" lon="-1.62498">
        <ele>59.5597916</ele>
        <time>2016-10-25T08:20:32Z</time>
      </trkpt>
      <trkpt lat="47.26458" lon="-1.62499">
        <ele>59.7305679</ele>
        <time>2016-10-25T08:20:35Z</time>
      </trkpt>
      <trkpt lat="47.26457" lon="-1.62502">
        <ele>59.8691406</ele>
        <time>2016-10-25T08:20:37Z</time>
      </trkpt>
      <trkpt lat="47.26456" lon="-1.62507">
        <ele>59.9255791</ele>
        <time>2016-10-25T08:20:39Z</time>
      </trkpt>
      <trkpt lat="47.26453" lon="-1.62511">
        <ele>59.9856262</ele>
        <time>2016-10-25T08:20:41Z</time>
      </trkpt>
      <trkpt lat="47.26449" lon="-1.62515">
        <ele>60.0417366</ele>
        <time>2016-10-25T08:20:44Z</time>
      </trkpt>
      <trkpt lat="47.2645" lon="-1.62517">
        <ele>60.0681877</ele>
        <time>2016-10-25T08:20:46Z</time>
      </trkpt>
      <trkpt lat="47.2645" lon="-1.62519">
        <ele>60.0603828</ele>
        <time>2016-10-25T08:20:49Z</time>
      </trkpt>
      <trkpt lat="47.2645" lon="-1.62521">
        <ele>60.0693054</ele>
        <time>2016-10-25T08:20:51Z</time>
      </trkpt>
      <trkpt lat="47.26446" lon="-1.62524">
        <ele>60.0945015</ele>
        <time>2016-10-25T08:20:54Z</time>
      </trkpt>
      <trkpt lat="47.26444" lon="-1.62525">
        <ele>60.1169205</ele>
        <time>2016-10-25T08:20:56Z</time>
      </trkpt>
      <trkpt lat="47.26442" lon="-1.62527">
        <ele>60.1876755</ele>
        <time>2016-10-25T08:20:59Z</time>
      </trkpt>
      <trkpt lat="47.26438" lon="-1.62533">
        <ele>60.3227425</ele>
        <time>2016-10-25T08:21:02Z</time>
      </trkpt>
      <trkpt lat="47.26435" lon="-1.62536">
        <ele>60.5077209</ele>
        <time>2016-10-25T08:21:05Z</time>
      </trkpt>
      <trkpt lat="47.26432" lon="-1.62537">
        <ele>60.6990356</ele>
        <time>2016-10-25T08:21:07Z</time>
      </trkpt>
      <trkpt lat="47.26428" lon="-1.62538">
        <ele>60.92696</ele>
        <time>2016-10-25T08:21:10Z</time>
      </trkpt>
      <trkpt lat="47.26425" lon="-1.62539">
        <ele>61.1807175</ele>
        <time>2016-10-25T08:21:13Z</time>
      </trkpt>
      <trkpt lat="47.26421" lon="-1.62542">
        <ele>61.4755135</ele>
        <time>2016-10-25T08:21:16Z</time>
      </trkpt>
      <trkpt lat="47.26417" lon="-1.62545">
        <ele>61.7772713</ele>
        <time>2016-10-25T08:21:19Z</time>
      </trkpt>
      <trkpt lat="47.26414" lon="-1.62547">
        <ele>62.0713577</ele>
        <time>2016-10-25T08:21:21Z</time>
      </trkpt>
      <trkpt lat="47.26411" lon="-1.62552">
        <ele>62.3395271</ele>
        <time>2016-10-25T08:21:24Z</time>
      </trkpt>
      <trkpt lat="47.2641" lon="-1.62558">
        <ele>62.5722351</ele>
        <time>2016-10-25T08:21:27Z</time>
      </trkpt>
      <trkpt lat="47.26406" lon="-1.62562">
        <ele>62.7703667</ele>
        <time>2016-10-25T08:21:30Z</time>
      </trkpt>
      <trkpt lat="47.26402" lon="-1.62566">
        <ele>62.9957047</ele>
        <time>2016-10-25T08:21:33Z</time>
      </trkpt>
      <trkpt lat="47.26398" lon="-1.62568">
        <ele>63.2414551</ele>
        <time>2016-10-25T08:21:36Z</time>
      </trkpt>
      <trkpt lat="47.26395" lon="-1.6257">
        <ele>63.5063477</ele>
        <time>2016-10-25T08:21:39Z</time>
      </trkpt>
      <trkpt lat="47.26393" lon="-1.62572">
        <ele>63.7783318</ele>
        <time>2016-10-25T08:21:41Z</time>
      </trkpt>
      <trkpt lat="47.2639" lon="-1.62573">
        <ele>64.067543</ele>
        <time>2016-10-25T08:21:43Z</time>
      </trkpt>
      <trkpt lat="47.26387" lon="-1.62571">
        <ele>64.3197174</ele>
        <time>2016-10-25T08:21:45Z</time>
      </trkpt>
      <trkpt lat="47.26384" lon="-1.62568">
        <ele>64.5739594</ele>
        <time>2016-10-25T08:21:48Z</time>
      </trkpt>
      <trkpt lat="47.26381" lon="-1.62566">
        <ele>64.8280258</ele>
        <time>2016-10-25T08:21:51Z</time>
      </trkpt>
      <trkpt lat="47.26378" lon="-1.62564">
        <ele>65.1024933</ele>
        <time>2016-10-25T08:21:53Z</time>
      </trkpt>
      <trkpt lat="47.26376" lon="-1.62565">
        <ele>65.3542633</ele>
        <time>2016-10-25T08:21:55Z</time>
      </trkpt>
      <trkpt lat="47.26373" lon="-1.62566">
        <ele>65.6208038</ele>
        <time>2016-10-25T08:21:58Z</time>
      </trkpt>
      <trkpt lat="47.2637" lon="-1.62567">
        <ele>65.859787</ele>
        <time>2016-10-25T08:22:00Z</time>
      </trkpt>
      <trkpt lat="47.26368" lon="-1.62567">
        <ele>66.0778351</ele>
        <time>2016-10-25T08:22:02Z</time>
      </trkpt>
      <trkpt lat="47.26366" lon="-1.62566">
        <ele>66.2889099</ele>
        <time>2016-10-25T08:22:04Z</time>
      </trkpt>
      <trkpt lat="47.26364" lon="-1.62566">
        <ele>66.499649</ele>
        <time>2016-10-25T08:22:06Z</time>
      </trkpt>
      <trkpt lat="47.26362" lon="-1.62567">
        <ele>66.6821136</ele>
        <time>2016-10-25T08:22:08Z</time>
      </trkpt>
      <trkpt lat="47.26359" lon="-1.62567">
        <ele>66.8849106</ele>
        <time>2016-10-25T08:22:11Z</time>
      </trkpt>
      <trkpt lat="47.26355" lon="-1.62563">
        <ele>67.11306</ele>
        <time>2016-10-25T08:22:14Z</time>
      </trkpt>
      <trkpt lat="47.26353" lon="-1.62561">
        <ele>67.3216248</ele>
        <time>2016-10-25T08:22:16Z</time>
      </trkpt>
      <trkpt lat="47.26351" lon="-1.62559">
        <ele>67.527977</ele>
        <time>2016-10-25T08:22:18Z</time>
      </trkpt>
      <trkpt lat="47.26348" lon="-1.62557">
        <ele>67.7455292</ele>
        <time>2016-10-25T08:22:20Z</time>
      </trkpt>
      <trkpt lat="47.26343" lon="-1.62553">
        <ele>67.9728241</ele>
        <time>2016-10-25T08:22:23Z</time>
      </trkpt>
      <trkpt lat="47.2634" lon="-1.62552">
        <ele>68.1805038</ele>
        <time>2016-10-25T08:22:26Z</time>
      </trkpt>
      <trkpt lat="47.26338" lon="-1.6255">
        <ele>68.3993378</ele>
        <time>2016-10-25T08:22:29Z</time>
      </trkpt>
      <trkpt lat="47.26335" lon="-1.62548">
        <ele>68.6249847</ele>
        <time>2016-10-25T08:22:32Z</time>
      </trkpt>
      <trkpt lat="47.26333" lon="-1.62547">
        <ele>68.8269806</ele>
        <time>2016-10-25T08:22:34Z</time>
      </trkpt>
      <trkpt lat="47.26331" lon="-1.62547">
        <ele>68.9574814</ele>
        <time>2016-10-25T08:22:36Z</time>
      </trkpt>
      <trkpt lat="47.26327" lon="-1.62547">
        <ele>69.0410767</ele>
        <time>2016-10-25T08:22:39Z</time>
      </trkpt>
      <trkpt lat="47.26326" lon="-1.62547">
        <ele>69.0871429</ele>
        <time>2016-10-25T08:22:41Z</time>
      </trkpt>
      <trkpt lat="47.26322" lon="-1.62547">
        <ele>69.0876389</ele>
        <time>2016-10-25T08:22:44Z</time>
      </trkpt>
      <trkpt lat="47.26319" lon="-1.62547">
        <ele>69.0610733</ele>
        <time>2016-10-25T08:22:47Z</time>
      </trkpt>
      <trkpt lat="47.26316" lon="-1.62544">
        <ele>69.0256882</ele>
        <time>2016-10-25T08:22:49Z</time>
      </trkpt>
      <trkpt lat="47.26311" lon="-1.62541">
        <ele>68.9801407</ele>
        <time>2016-10-25T08:22:52Z</time>
      </trkpt>
      <trkpt lat="47.26307" lon="-1.62538">
        <ele>68.9247818</ele>
        <time>2016-10-25T08:22:55Z</time>
      </trkpt>
      <trkpt lat="47.26305" lon="-1.62534">
        <ele>68.8643188</ele>
        <time>2016-10-25T08:22:57Z</time>
      </trkpt>
      <trkpt lat="47.26302" lon="-1.62535">
        <ele>68.8119736</ele>
        <time>2016-10-25T08:23:00Z</time>
      </trkpt>
      <trkpt lat="47.26299" lon="-1.62534">
        <ele>68.7692871</ele>
        <time>2016-10-25T08:23:03Z</time>
      </trkpt>
      <trkpt lat="47.26296" lon="-1.62533">
        <ele>68.7392426</ele>
        <time>2016-10-25T08:23:05Z</time>
      </trkpt>
      <trkpt lat="47.26293" lon="-1.62532">
        <ele>68.7201538</ele>
        <time>2016-10-25T08:23:07Z</time>
      </trkpt>
      <trkpt lat="47.26289" lon="-1.6253">
        <ele>68.7075348</ele>
        <time>2016-10-25T08:23:10Z</time>
      </trkpt>
      <trkpt lat="47.26285" lon="-1.62527">
        <ele>68.6927261</ele>
        <time>2016-10-25T08:23:13Z</time>
      </trkpt>
      <trkpt lat="47.26281" lon="-1.62525">
        <ele>68.6808624</ele>
        <time>2016-10-25T08:23:16Z</time>
      </trkpt>
      <trkpt lat="47.26279" lon="-1.62525">
        <ele>68.6726074</ele>
        <time>2016-10-25T08:23:18Z</time>
      </trkpt>
      <trkpt lat="47.26277" lon="-1.62525">
        <ele>68.6674042</ele>
        <time>2016-10-25T08:23:20Z</time>
      </trkpt>
      <trkpt lat="47.26273" lon="-1.62523">
        <ele>68.6671371</ele>
        <time>2016-10-25T08:23:23Z</time>
      </trkpt>
      <trkpt lat="47.26269" lon="-1.62521">
        <ele>68.6731796</ele>
        <time>2016-10-25T08:23:26Z</time>
      </trkpt>
      <trkpt lat="47.26264" lon="-1.62517">
        <ele>68.686882</ele>
        <time>2016-10-25T08:23:29Z</time>
      </trkpt>
      <trkpt lat="47.2626" lon="-1.62515">
        <ele>68.7069244</ele>
        <time>2016-10-25T08:23:32Z</time>
      </trkpt>
      <trkpt lat="47.26255" lon="-1.62513">
        <ele>68.736412</ele>
        <time>2016-10-25T08:23:35Z</time>
      </trkpt>
      <trkpt lat="47.26253" lon="-1.62512">
        <ele>68.7684555</ele>
        <time>2016-10-25T08:23:37Z</time>
      </trkpt>
      <trkpt lat="47.2625" lon="-1.62509">
        <ele>68.8039398</ele>
        <time>2016-10-25T08:23:40Z</time>
      </trkpt>
      <trkpt lat="47.26248" lon="-1.62508">
        <ele>68.8230743</ele>
        <time>2016-10-25T08:23:42Z</time>
      </trkpt>
      <trkpt lat="47.26244" lon="-1.62508">
        <ele>68.8085327</ele>
        <time>2016-10-25T08:23:45Z</time>
      </trkpt>
      <trkpt lat="47.26242" lon="-1.62507">
        <ele>68.7685089</ele>
        <time>2016-10-25T08:23:47Z</time>
      </trkpt>
      <trkpt lat="47.26239" lon="-1.62506">
        <ele>68.7036438</ele>
        <time>2016-10-25T08:23:49Z</time>
      </trkpt>
      <trkpt lat="47.26236" lon="-1.62505">
        <ele>68.6127701</ele>
        <time>2016-10-25T08:23:51Z</time>
      </trkpt>
      <trkpt lat="47.26232" lon="-1.62503">
        <ele>68.5084076</ele>
        <time>2016-10-25T08:23:54Z</time>
      </trkpt>
      <trkpt lat="47.26228" lon="-1.62502">
        <ele>68.4084625</ele>
        <time>2016-10-25T08:23:57Z</time>
      </trkpt>
      <trkpt lat="47.26226" lon="-1.62501">
        <ele>68.3069458</ele>
        <time>2016-10-25T08:23:59Z</time>
      </trkpt>
      <trkpt lat="47.26223" lon="-1.62501">
        <ele>68.2125854</ele>
        <time>2016-10-25T08:24:01Z</time>
      </trkpt>
      <trkpt lat="47.26221" lon="-1.62502">
        <ele>68.1119156</ele>
        <time>2016-10-25T08:24:04Z</time>
      </trkpt>
      <trkpt lat="47.26217" lon="-1.62501">
        <ele>68.010788</ele>
        <time>2016-10-25T08:24:07Z</time>
      </trkpt>
      <trkpt lat="47.26214" lon="-1.625">
        <ele>67.9150009</ele>
        <time>2016-10-25T08:24:09Z</time>
      </trkpt>
      <trkpt lat="47.26211" lon="-1.62499">
        <ele>67.8170624</ele>
        <time>2016-10-25T08:24:11Z</time>
      </trkpt>
      <trkpt lat="47.26209" lon="-1.62498">
        <ele>67.7124023</ele>
        <time>2016-10-25T08:24:13Z</time>
      </trkpt>
      <trkpt lat="47.26205" lon="-1.62497">
        <ele>67.6103897</ele>
        <time>2016-10-25T08:24:16Z</time>
      </trkpt>
      <trkpt lat="47.26203" lon="-1.62494">
        <ele>67.5146027</ele>
        <time>2016-10-25T08:24:18Z</time>
      </trkpt>
      <trkpt lat="47.262" lon="-1.62493">
        <ele>67.414856</ele>
        <time>2016-10-25T08:24:20Z</time>
      </trkpt>
      <trkpt lat="47.26196" lon="-1.62491">
        <ele>67.3027573</ele>
        <time>2016-10-25T08:24:23Z</time>
      </trkpt>
      <trkpt lat="47.26193" lon="-1.6249">
        <ele>67.1881256</ele>
        <time>2016-10-25T08:24:25Z</time>
      </trkpt>
      <trkpt lat="47.26191" lon="-1.62489">
        <ele>67.0792084</ele>
        <time>2016-10-25T08:24:27Z</time>
      </trkpt>
      <trkpt lat="47.26189" lon="-1.62487">
        <ele>66.9661255</ele>
        <time>2016-10-25T08:24:29Z</time>
      </trkpt>
      <trkpt lat="47.26186" lon="-1.62486">
        <ele>66.8526535</ele>
        <time>2016-10-25T08:24:31Z</time>
      </trkpt>
      <trkpt lat="47.26183" lon="-1.62484">
        <ele>66.7454071</ele>
        <time>2016-10-25T08:24:33Z</time>
      </trkpt>
      <trkpt lat="47.2618" lon="-1.62482">
        <ele>66.6272812</ele>
        <time>2016-10-25T08:24:36Z</time>
      </trkpt>
      <trkpt lat="47.26178" lon="-1.62481">
        <ele>66.5061417</ele>
        <time>2016-10-25T08:24:38Z</time>
      </trkpt>
      <trkpt lat="47.26174" lon="-1.62481">
        <ele>66.3728867</ele>
        <time>2016-10-25T08:24:41Z</time>
      </trkpt>
      <trkpt lat="47.2617" lon="-1.62479">
        <ele>66.2220306</ele>
        <time>2016-10-25T08:24:44Z</time>
      </trkpt>
      <trkpt lat="47.26167" lon="-1.62478">
        <ele>66.0687103</ele>
        <time>2016-10-25T08:24:46Z</time>
      </trkpt>
      <trkpt lat="47.26163" lon="-1.62477">
        <ele>65.9346542</ele>
        <time>2016-10-25T08:24:49Z</time>
      </trkpt>
      <trkpt lat="47.26161" lon="-1.62477">
        <ele>65.8149872</ele>
        <time>2016-10-25T08:24:51Z</time>
      </trkpt>
      <trkpt lat="47.26157" lon="-1.62477">
        <ele>65.7173309</ele>
        <time>2016-10-25T08:24:54Z</time>
      </trkpt>
      <trkpt lat="47.26154" lon="-1.62476">
        <ele>65.6485672</ele>
        <time>2016-10-25T08:24:56Z</time>
      </trkpt>
      <trkpt lat="47.26149" lon="-1.62474">
        <ele>65.5941772</ele>
        <time>2016-10-25T08:24:59Z</time>
      </trkpt>
      <trkpt lat="47.26146" lon="-1.62473">
        <ele>65.5431519</ele>
        <time>2016-10-25T08:25:02Z</time>
      </trkpt>
      <trkpt lat="47.26144" lon="-1.62471">
        <ele>65.4879456</ele>
        <time>2016-10-25T08:25:04Z</time>
      </trkpt>
      <trkpt lat="47.26141" lon="-1.62468">
        <ele>65.4301758</ele>
        <time>2016-10-25T08:25:06Z</time>
      </trkpt>
      <trkpt lat="47.26138" lon="-1.62464">
        <ele>65.3650818</ele>
        <time>2016-10-25T08:25:09Z</time>
      </trkpt>
      <trkpt lat="47.26135" lon="-1.62461">
        <ele>65.2998352</ele>
        <time>2016-10-25T08:25:11Z</time>
      </trkpt>
      <trkpt lat="47.26133" lon="-1.62458">
        <ele>65.2308655</ele>
        <time>2016-10-25T08:25:13Z</time>
      </trkpt>
      <trkpt lat="47.2613" lon="-1.62453">
        <ele>65.1530762</ele>
        <time>2016-10-25T08:25:16Z</time>
      </trkpt>
      <trkpt lat="47.26128" lon="-1.6245">
        <ele>65.0770569</ele>
        <time>2016-10-25T08:25:18Z</time>
      </trkpt>
      <trkpt lat="47.26124" lon="-1.62446">
        <ele>64.9986877</ele>
        <time>2016-10-25T08:25:21Z</time>
      </trkpt>
      <trkpt lat="47.26122" lon="-1.62443">
        <ele>64.9209595</ele>
        <time>2016-10-25T08:25:23Z</time>
      </trkpt>
      <trkpt lat="47.26119" lon="-1.62439">
        <ele>64.8432922</ele>
        <time>2016-10-25T08:25:26Z</time>
      </trkpt>
      <trkpt lat="47.26117" lon="-1.62437">
        <ele>64.7747498</ele>
        <time>2016-10-25T08:25:28Z</time>
      </trkpt>
      <trkpt lat="47.26115" lon="-1.62434">
        <ele>64.7050476</ele>
        <time>2016-10-25T08:25:31Z</time>
      </trkpt>
      <trkpt lat="47.26115" lon="-1.6243">
        <ele>64.6463013</ele>
        <time>2016-10-25T08:25:33Z</time>
      </trkpt>
      <trkpt lat="47.26116" lon="-1.62424">
        <ele>64.5890198</ele>
        <time>2016-10-25T08:25:36Z</time>
      </trkpt>
      <trkpt lat="47.26117" lon="-1.6242">
        <ele>64.5374146</ele>
        <time>2016-10-25T08:25:39Z</time>
      </trkpt>
      <trkpt lat="47.26117" lon="-1.62417">
        <ele>64.4898682</ele>
        <time>2016-10-25T08:25:41Z</time>
      </trkpt>
      <trkpt lat="47.26118" lon="-1.62412">
        <ele>64.4307632</ele>
        <time>2016-10-25T08:25:44Z</time>
      </trkpt>
      <trkpt lat="47.26118" lon="-1.62409">
        <ele>64.3596802</ele>
        <time>2016-10-25T08:25:47Z</time>
      </trkpt>
      <trkpt lat="47.26118" lon="-1.62407">
        <ele>64.2868652</ele>
        <time>2016-10-25T08:25:50Z</time>
      </trkpt>
      <trkpt lat="47.26117" lon="-1.62405">
        <ele>64.2105484</ele>
        <time>2016-10-25T08:25:54Z</time>
      </trkpt>
      <trkpt lat="47.26114" lon="-1.62405">
        <ele>64.128891</ele>
        <time>2016-10-25T08:25:57Z</time>
      </trkpt>
      <trkpt lat="47.26111" lon="-1.62407">
        <ele>64.0753479</ele>
        <time>2016-10-25T08:25:59Z</time>
      </trkpt>
      <trkpt lat="47.26107" lon="-1.62411">
        <ele>64.0629425</ele>
        <time>2016-10-25T08:26:02Z</time>
      </trkpt>
      <trkpt lat="47.26105" lon="-1.62414">
        <ele>64.075119</ele>
        <time>2016-10-25T08:26:04Z</time>
      </trkpt>
      <trkpt lat="47.26101" lon="-1.62418">
        <ele>64.1109619</ele>
        <time>2016-10-25T08:26:07Z</time>
      </trkpt>
      <trkpt lat="47.26098" lon="-1.62421">
        <ele>64.1573639</ele>
        <time>2016-10-25T08:26:09Z</time>
      </trkpt>
      <trkpt lat="47.26096" lon="-1.62424">
        <ele>64.1994324</ele>
        <time>2016-10-25T08:26:11Z</time>
      </trkpt>
      <trkpt lat="47.26093" lon="-1.62427">
        <ele>64.2213287</ele>
        <time>2016-10-25T08:26:14Z</time>
      </trkpt>
      <trkpt lat="47.26089" lon="-1.62429">
        <ele>64.2301025</ele>
        <time>2016-10-25T08:26:17Z</time>
      </trkpt>
      <trkpt lat="47.26087" lon="-1.62431">
        <ele>64.2261047</ele>
        <time>2016-10-25T08:26:19Z</time>
      </trkpt>
      <trkpt lat="47.26084" lon="-1.62434">
        <ele>64.2209473</ele>
        <time>2016-10-25T08:26:22Z</time>
      </trkpt>
      <trkpt lat="47.26082" lon="-1.62436">
        <ele>64.2241669</ele>
        <time>2016-10-25T08:26:24Z</time>
      </trkpt>
      <trkpt lat="47.26079" lon="-1.62439">
        <ele>64.2420731</ele>
        <time>2016-10-25T08:26:27Z</time>
      </trkpt>
      <trkpt lat="47.26075" lon="-1.62442">
        <ele>64.2778549</ele>
        <time>2016-10-25T08:26:30Z</time>
      </trkpt>
      <trkpt lat="47.26072" lon="-1.62445">
        <ele>64.3308868</ele>
        <time>2016-10-25T08:26:33Z</time>
      </trkpt>
      <trkpt lat="47.2607" lon="-1.62447">
        <ele>64.3959045</ele>
        <time>2016-10-25T08:26:35Z</time>
      </trkpt>
      <trkpt lat="47.26067" lon="-1.62451">
        <ele>64.4699707</ele>
        <time>2016-10-25T08:26:38Z</time>
      </trkpt>
      <trkpt lat="47.26065" lon="-1.62454">
        <ele>64.5391541</ele>
        <time>2016-10-25T08:26:40Z</time>
      </trkpt>
      <trkpt lat="47.26062" lon="-1.62458">
        <ele>64.6099243</ele>
        <time>2016-10-25T08:26:43Z</time>
      </trkpt>
      <trkpt lat="47.26059" lon="-1.62461">
        <ele>64.6791687</ele>
        <time>2016-10-25T08:26:46Z</time>
      </trkpt>
      <trkpt lat="47.26056" lon="-1.62465">
        <ele>64.7547913</ele>
        <time>2016-10-25T08:26:49Z</time>
      </trkpt>
      <trkpt lat="47.26054" lon="-1.62466">
        <ele>64.8215027</ele>
        <time>2016-10-25T08:26:51Z</time>
      </trkpt>
      <trkpt lat="47.26051" lon="-1.62469">
        <ele>64.8911133</ele>
        <time>2016-10-25T08:26:54Z</time>
      </trkpt>
      <trkpt lat="47.26049" lon="-1.62472">
        <ele>64.9550476</ele>
        <time>2016-10-25T08:26:56Z</time>
      </trkpt>
      <trkpt lat="47.26047" lon="-1.62475">
        <ele>65.019043</ele>
        <time>2016-10-25T08:26:59Z</time>
      </trkpt>
      <trkpt lat="47.26044" lon="-1.6248">
        <ele>65.0811157</ele>
        <time>2016-10-25T08:27:02Z</time>
      </trkpt>
      <trkpt lat="47.26042" lon="-1.62482">
        <ele>65.1466675</ele>
        <time>2016-10-25T08:27:04Z</time>
      </trkpt>
      <trkpt lat="47.2604" lon="-1.62484">
        <ele>65.2080994</ele>
        <time>2016-10-25T08:27:06Z</time>
      </trkpt>
      <trkpt lat="47.26036" lon="-1.62486">
        <ele>65.2730713</ele>
        <time>2016-10-25T08:27:09Z</time>
      </trkpt>
      <trkpt lat="47.26033" lon="-1.62489">
        <ele>65.3372192</ele>
        <time>2016-10-25T08:27:12Z</time>
      </trkpt>
      <trkpt lat="47.26029" lon="-1.62492">
        <ele>65.403595</ele>
        <time>2016-10-25T08:27:15Z</time>
      </trkpt>
      <trkpt lat="47.26026" lon="-1.62495">
        <ele>65.4744873</ele>
        <time>2016-10-25T08:27:18Z</time>
      </trkpt>
      <trkpt lat="47.26023" lon="-1.62498">
        <ele>65.5502625</ele>
        <time>2016-10-25T08:27:21Z</time>
      </trkpt>
      <trkpt lat="47.2602" lon="-1.625">
        <ele>65.6205139</ele>
        <time>2016-10-25T08:27:23Z</time>
      </trkpt>
      <trkpt lat="47.26019" lon="-1.62502">
        <ele>65.6694794</ele>
        <time>2016-10-25T08:27:25Z</time>
      </trkpt>
      <trkpt lat="47.26015" lon="-1.62506">
        <ele>65.6833725</ele>
        <time>2016-10-25T08:27:28Z</time>
      </trkpt>
      <trkpt lat="47.26013" lon="-1.62509">
        <ele>65.66996</ele>
        <time>2016-10-25T08:27:30Z</time>
      </trkpt>
      <trkpt lat="47.2601" lon="-1.62513">
        <ele>65.6242828</ele>
        <time>2016-10-25T08:27:33Z</time>
      </trkpt>
      <trkpt lat="47.26007" lon="-1.62516">
        <ele>65.5503159</ele>
        <time>2016-10-25T08:27:36Z</time>
      </trkpt>
      <trkpt lat="47.26004" lon="-1.6252">
        <ele>65.4619446</ele>
        <time>2016-10-25T08:27:39Z</time>
      </trkpt>
      <trkpt lat="47.26002" lon="-1.62522">
        <ele>65.3771744</ele>
        <time>2016-10-25T08:27:41Z</time>
      </trkpt>
      <trkpt lat="47.26" lon="-1.62524">
        <ele>65.2933578</ele>
        <time>2016-10-25T08:27:43Z</time>
      </trkpt>
      <trkpt lat="47.25997" lon="-1.62528">
        <ele>65.1925583</ele>
        <time>2016-10-25T08:27:46Z</time>
      </trkpt>
      <trkpt lat="47.25995" lon="-1.6253">
        <ele>65.0888901</ele>
        <time>2016-10-25T08:27:48Z</time>
      </trkpt>
      <trkpt lat="47.25993" lon="-1.62532">
        <ele>64.9891205</ele>
        <time>2016-10-25T08:27:50Z</time>
      </trkpt>
      <trkpt lat="47.25989" lon="-1.62535">
        <ele>64.8784637</ele>
        <time>2016-10-25T08:27:53Z</time>
      </trkpt>
      <trkpt lat="47.25986" lon="-1.62537">
        <ele>64.7610626</ele>
        <time>2016-10-25T08:27:55Z</time>
      </trkpt>
      <trkpt lat="47.25984" lon="-1.6254">
        <ele>64.6593323</ele>
        <time>2016-10-25T08:27:58Z</time>
      </trkpt>
      <trkpt lat="47.25981" lon="-1.62542">
        <ele>64.5627823</ele>
        <time>2016-10-25T08:28:00Z</time>
      </trkpt>
      <trkpt lat="47.25978" lon="-1.62544">
        <ele>64.468605</ele>
        <time>2016-10-25T08:28:03Z</time>
      </trkpt>
      <trkpt lat="47.25976" lon="-1.62545">
        <ele>64.3927231</ele>
        <time>2016-10-25T08:28:05Z</time>
      </trkpt>
      <trkpt lat="47.25973" lon="-1.62546">
        <ele>64.3265762</ele>
        <time>2016-10-25T08:28:07Z</time>
      </trkpt>
      <trkpt lat="47.2597" lon="-1.62548">
        <ele>64.2690277</ele>
        <time>2016-10-25T08:28:10Z</time>
      </trkpt>
      <trkpt lat="47.25966" lon="-1.6255">
        <ele>64.2153015</ele>
        <time>2016-10-25T08:28:13Z</time>
      </trkpt>
      <trkpt lat="47.25962" lon="-1.62553">
        <ele>64.1639023</ele>
        <time>2016-10-25T08:28:16Z</time>
      </trkpt>
      <trkpt lat="47.2596" lon="-1.62555">
        <ele>64.1117401</ele>
        <time>2016-10-25T08:28:18Z</time>
      </trkpt>
      <trkpt lat="47.25956" lon="-1.62557">
        <ele>64.0602264</ele>
        <time>2016-10-25T08:28:21Z</time>
      </trkpt>
      <trkpt lat="47.25954" lon="-1.62559">
        <ele>64.0137177</ele>
        <time>2016-10-25T08:28:23Z</time>
      </trkpt>
      <trkpt lat="47.25951" lon="-1.62561">
        <ele>63.9749985</ele>
        <time>2016-10-25T08:28:25Z</time>
      </trkpt>
      <trkpt lat="47.25948" lon="-1.62564">
        <ele>63.9445572</ele>
        <time>2016-10-25T08:28:28Z</time>
      </trkpt>
      <trkpt lat="47.25946" lon="-1.62566">
        <ele>63.9167099</ele>
        <time>2016-10-25T08:28:30Z</time>
      </trkpt>
      <trkpt lat="47.25942" lon="-1.62571">
        <ele>63.8886719</ele>
        <time>2016-10-25T08:28:33Z</time>
      </trkpt>
      <trkpt lat="47.25938" lon="-1.62574">
        <ele>63.8676643</ele>
        <time>2016-10-25T08:28:36Z</time>
      </trkpt>
      <trkpt lat="47.25936" lon="-1.62575">
        <ele>63.852581</ele>
        <time>2016-10-25T08:28:38Z</time>
      </trkpt>
      <trkpt lat="47.25932" lon="-1.62578">
        <ele>63.8455315</ele>
        <time>2016-10-25T08:28:41Z</time>
      </trkpt>
      <trkpt lat="47.25928" lon="-1.62583">
        <ele>63.8456421</ele>
        <time>2016-10-25T08:28:44Z</time>
      </trkpt>
      <trkpt lat="47.25925" lon="-1.62585">
        <ele>63.8499451</ele>
        <time>2016-10-25T08:28:46Z</time>
      </trkpt>
      <trkpt lat="47.25923" lon="-1.62586">
        <ele>63.8554916</ele>
        <time>2016-10-25T08:28:48Z</time>
      </trkpt>
      <trkpt lat="47.2592" lon="-1.62586">
        <ele>63.86483</ele>
        <time>2016-10-25T08:28:50Z</time>
      </trkpt>
      <trkpt lat="47.25918" lon="-1.62587">
        <ele>63.8745117</ele>
        <time>2016-10-25T08:28:52Z</time>
      </trkpt>
      <trkpt lat="47.25916" lon="-1.62588">
        <ele>63.8729324</ele>
        <time>2016-10-25T08:28:55Z</time>
      </trkpt>
      <trkpt lat="47.25913" lon="-1.62588">
        <ele>63.8516045</ele>
        <time>2016-10-25T08:28:57Z</time>
      </trkpt>
      <trkpt lat="47.25908" lon="-1.62588">
        <ele>63.7948074</ele>
        <time>2016-10-25T08:29:00Z</time>
      </trkpt>
      <trkpt lat="47.25906" lon="-1.62589">
        <ele>63.7201843</ele>
        <time>2016-10-25T08:29:02Z</time>
      </trkpt>
      <trkpt lat="47.25904" lon="-1.62589">
        <ele>63.6276855</ele>
        <time>2016-10-25T08:29:04Z</time>
      </trkpt>
      <trkpt lat="47.25901" lon="-1.62589">
        <ele>63.5189095</ele>
        <time>2016-10-25T08:29:07Z</time>
      </trkpt>
      <trkpt lat="47.25899" lon="-1.62588">
        <ele>63.4234123</ele>
        <time>2016-10-25T08:29:10Z</time>
      </trkpt>
      <trkpt lat="47.25896" lon="-1.62587">
        <ele>63.3482971</ele>
        <time>2016-10-25T08:29:12Z</time>
      </trkpt>
      <trkpt lat="47.25892" lon="-1.62585">
        <ele>63.2637024</ele>
        <time>2016-10-25T08:29:15Z</time>
      </trkpt>
      <trkpt lat="47.25888" lon="-1.62583">
        <ele>63.1692581</ele>
        <time>2016-10-25T08:29:18Z</time>
      </trkpt>
      <trkpt lat="47.25885" lon="-1.62582">
        <ele>63.0815926</ele>
        <time>2016-10-25T08:29:20Z</time>
      </trkpt>
      <trkpt lat="47.25882" lon="-1.62581">
        <ele>62.9849319</ele>
        <time>2016-10-25T08:29:22Z</time>
      </trkpt>
      <trkpt lat="47.25878" lon="-1.62578">
        <ele>62.8756714</ele>
        <time>2016-10-25T08:29:25Z</time>
      </trkpt>
      <trkpt lat="47.25875" lon="-1.62577">
        <ele>62.7724991</ele>
        <time>2016-10-25T08:29:27Z</time>
      </trkpt>
      <trkpt lat="47.25871" lon="-1.62576">
        <ele>62.6675415</ele>
        <time>2016-10-25T08:29:30Z</time>
      </trkpt>
      <trkpt lat="47.25867" lon="-1.62576">
        <ele>62.5591736</ele>
        <time>2016-10-25T08:29:33Z</time>
      </trkpt>
      <trkpt lat="47.25865" lon="-1.62576">
        <ele>62.4512558</ele>
        <time>2016-10-25T08:29:35Z</time>
      </trkpt>
      <trkpt lat="47.25861" lon="-1.62575">
        <ele>62.3463516</ele>
        <time>2016-10-25T08:29:38Z</time>
      </trkpt>
      <trkpt lat="47.25857" lon="-1.62574">
        <ele>62.2355156</ele>
        <time>2016-10-25T08:29:41Z</time>
      </trkpt>
      <trkpt lat="47.25854" lon="-1.62572">
        <ele>62.1411209</ele>
        <time>2016-10-25T08:29:44Z</time>
      </trkpt>
      <trkpt lat="47.25853" lon="-1.62568">
        <ele>62.0704956</ele>
        <time>2016-10-25T08:29:46Z</time>
      </trkpt>
      <trkpt lat="47.25851" lon="-1.62562">
        <ele>62.0318489</ele>
        <time>2016-10-25T08:29:49Z</time>
      </trkpt>
      <trkpt lat="47.2585" lon="-1.62557">
        <ele>62.0299759</ele>
        <time>2016-10-25T08:29:51Z</time>
      </trkpt>
      <trkpt lat="47.25849" lon="-1.62552">
        <ele>62.0597153</ele>
        <time>2016-10-25T08:29:53Z</time>
      </trkpt>
      <trkpt lat="47.25847" lon="-1.62546">
        <ele>62.1150017</ele>
        <time>2016-10-25T08:29:56Z</time>
      </trkpt>
      <trkpt lat="47.25846" lon="-1.6254">
        <ele>62.1854477</ele>
        <time>2016-10-25T08:29:59Z</time>
      </trkpt>
      <trkpt lat="47.25844" lon="-1.62536">
        <ele>62.2522583</ele>
        <time>2016-10-25T08:30:01Z</time>
      </trkpt>
      <trkpt lat="47.25842" lon="-1.62531">
        <ele>62.3164444</ele>
        <time>2016-10-25T08:30:04Z</time>
      </trkpt>
      <trkpt lat="47.2584" lon="-1.62527">
        <ele>62.3800659</ele>
        <time>2016-10-25T08:30:06Z</time>
      </trkpt>
      <trkpt lat="47.25839" lon="-1.62523">
        <ele>62.4422417</ele>
        <time>2016-10-25T08:30:08Z</time>
      </trkpt>
      <trkpt lat="47.25837" lon="-1.62519">
        <ele>62.5004196</ele>
        <time>2016-10-25T08:30:10Z</time>
      </trkpt>
      <trkpt lat="47.25835" lon="-1.62513">
        <ele>62.5637589</ele>
        <time>2016-10-25T08:30:13Z</time>
      </trkpt>
      <trkpt lat="47.25834" lon="-1.6251">
        <ele>62.6293755</ele>
        <time>2016-10-25T08:30:15Z</time>
      </trkpt>
      <trkpt lat="47.25832" lon="-1.62503">
        <ele>62.7071152</ele>
        <time>2016-10-25T08:30:18Z</time>
      </trkpt>
      <trkpt lat="47.25831" lon="-1.62498">
        <ele>62.7777596</ele>
        <time>2016-10-25T08:30:21Z</time>
      </trkpt>
      <trkpt lat="47.2583" lon="-1.62493">
        <ele>62.8294296</ele>
        <time>2016-10-25T08:30:24Z</time>
      </trkpt>
      <trkpt lat="47.25829" lon="-1.62487">
        <ele>62.8536873</ele>
        <time>2016-10-25T08:30:27Z</time>
      </trkpt>
      <trkpt lat="47.25828" lon="-1.62483">
        <ele>62.858387</ele>
        <time>2016-10-25T08:30:29Z</time>
      </trkpt>
      <trkpt lat="47.25827" lon="-1.6248">
        <ele>62.8388672</ele>
        <time>2016-10-25T08:30:31Z</time>
      </trkpt>
      <trkpt lat="47.25827" lon="-1.62476">
        <ele>62.8095703</ele>
        <time>2016-10-25T08:30:33Z</time>
      </trkpt>
      <trkpt lat="47.25827" lon="-1.62471">
        <ele>62.7861328</ele>
        <time>2016-10-25T08:30:36Z</time>
      </trkpt>
      <trkpt lat="47.25827" lon="-1.62466">
        <ele>62.7744141</ele>
        <time>2016-10-25T08:30:39Z</time>
      </trkpt>
      <trkpt lat="47.25826" lon="-1.62464">
        <ele>62.765625</ele>
        <time>2016-10-25T08:30:41Z</time>
      </trkpt>
      <trkpt lat="47.25826" lon="-1.6246">
        <ele>62.7568359</ele>
        <time>2016-10-25T08:30:44Z</time>
      </trkpt>
      <trkpt lat="47.25826" lon="-1.62457">
        <ele>62.7480469</ele>
        <time>2016-10-25T08:30:50Z</time>
      </trkpt>
      <trkpt lat="47.25825" lon="-1.62452">
        <ele>62.7363281</ele>
        <time>2016-10-25T08:30:53Z</time>
      </trkpt>
      <trkpt lat="47.25823" lon="-1.62449">
        <ele>62.7070313</ele>
        <time>2016-10-25T08:30:55Z</time>
      </trkpt>
      <trkpt lat="47.2582" lon="-1.62446">
        <ele>62.6630859</ele>
        <time>2016-10-25T08:30:58Z</time>
      </trkpt>
      <trkpt lat="47.25817" lon="-1.62443">
        <ele>62.6015625</ele>
        <time>2016-10-25T08:31:00Z</time>
      </trkpt>
      <trkpt lat="47.25813" lon="-1.62438">
        <ele>62.5136719</ele>
        <time>2016-10-25T08:31:03Z</time>
      </trkpt>
      <trkpt lat="47.2581" lon="-1.62434">
        <ele>62.4023438</ele>
        <time>2016-10-25T08:31:06Z</time>
      </trkpt>
      <trkpt lat="47.25807" lon="-1.6243">
        <ele>62.2910156</ele>
        <time>2016-10-25T08:31:09Z</time>
      </trkpt>
      <trkpt lat="47.25806" lon="-1.62428">
        <ele>62.1884766</ele>
        <time>2016-10-25T08:31:11Z</time>
      </trkpt>
      <trkpt lat="47.25805" lon="-1.62425">
        <ele>62.1005859</ele>
        <time>2016-10-25T08:31:13Z</time>
      </trkpt>
      <trkpt lat="47.25805" lon="-1.62421">
        <ele>62.0419922</ele>
        <time>2016-10-25T08:31:15Z</time>
      </trkpt>
      <trkpt lat="47.25805" lon="-1.62415">
        <ele>62.0065002</ele>
        <time>2016-10-25T08:31:18Z</time>
      </trkpt>
      <trkpt lat="47.25805" lon="-1.62411">
        <ele>61.9820938</ele>
        <time>2016-10-25T08:31:20Z</time>
      </trkpt>
      <trkpt lat="47.25806" lon="-1.62405">
        <ele>61.9600105</ele>
        <time>2016-10-25T08:31:23Z</time>
      </trkpt>
      <trkpt lat="47.25806" lon="-1.62399">
        <ele>61.9398575</ele>
        <time>2016-10-25T08:31:26Z</time>
      </trkpt>
      <trkpt lat="47.25806" lon="-1.62395">
        <ele>61.9110222</ele>
        <time>2016-10-25T08:31:28Z</time>
      </trkpt>
      <trkpt lat="47.25806" lon="-1.62392">
        <ele>61.8769722</ele>
        <time>2016-10-25T08:31:30Z</time>
      </trkpt>
      <trkpt lat="47.25805" lon="-1.62388">
        <ele>61.8391647</ele>
        <time>2016-10-25T08:31:32Z</time>
      </trkpt>
      <trkpt lat="47.25803" lon="-1.62383">
        <ele>61.7842789</ele>
        <time>2016-10-25T08:31:35Z</time>
      </trkpt>
      <trkpt lat="47.25801" lon="-1.6238">
        <ele>61.7205582</ele>
        <time>2016-10-25T08:31:37Z</time>
      </trkpt>
      <trkpt lat="47.258" lon="-1.62375">
        <ele>61.6486397</ele>
        <time>2016-10-25T08:31:40Z</time>
      </trkpt>
      <trkpt lat="47.25798" lon="-1.6237">
        <ele>61.5710983</ele>
        <time>2016-10-25T08:31:43Z</time>
      </trkpt>
      <trkpt lat="47.25797" lon="-1.62366">
        <ele>61.489521</ele>
        <time>2016-10-25T08:31:45Z</time>
      </trkpt>
      <trkpt lat="47.25795" lon="-1.62363">
        <ele>61.4202881</ele>
        <time>2016-10-25T08:31:47Z</time>
      </trkpt>
      <trkpt lat="47.25793" lon="-1.62358">
        <ele>61.346241</ele>
        <time>2016-10-25T08:31:50Z</time>
      </trkpt>
      <trkpt lat="47.25792" lon="-1.62355">
        <ele>61.2757568</ele>
        <time>2016-10-25T08:31:52Z</time>
      </trkpt>
      <trkpt lat="47.2579" lon="-1.62349">
        <ele>61.204216</ele>
        <time>2016-10-25T08:31:55Z</time>
      </trkpt>
      <trkpt lat="47.25789" lon="-1.62344">
        <ele>61.1328125</ele>
        <time>2016-10-25T08:31:58Z</time>
      </trkpt>
      <trkpt lat="47.25787" lon="-1.62341">
        <ele>61.0623169</ele>
        <time>2016-10-25T08:32:00Z</time>
      </trkpt>
      <trkpt lat="47.25786" lon="-1.62337">
        <ele>60.9980965</ele>
        <time>2016-10-25T08:32:02Z</time>
      </trkpt>
      <trkpt lat="47.25784" lon="-1.62333">
        <ele>60.9308548</ele>
        <time>2016-10-25T08:32:05Z</time>
      </trkpt>
      <trkpt lat="47.25782" lon="-1.6233">
        <ele>60.8638496</ele>
        <time>2016-10-25T08:32:07Z</time>
      </trkpt>
      <trkpt lat="47.25782" lon="-1.62328">
        <ele>60.8019218</ele>
        <time>2016-10-25T08:32:10Z</time>
      </trkpt>
      <trkpt lat="47.25782" lon="-1.62325">
        <ele>60.7437553</ele>
        <time>2016-10-25T08:32:12Z</time>
      </trkpt>
      <trkpt lat="47.25784" lon="-1.6232">
        <ele>60.6873398</ele>
        <time>2016-10-25T08:32:15Z</time>
      </trkpt>
      <trkpt lat="47.25785" lon="-1.62316">
        <ele>60.638813</ele>
        <time>2016-10-25T08:32:18Z</time>
      </trkpt>
      <trkpt lat="47.25787" lon="-1.6231">
        <ele>60.5902481</ele>
        <time>2016-10-25T08:32:21Z</time>
      </trkpt>
      <trkpt lat="47.25787" lon="-1.62307">
        <ele>60.5407944</ele>
        <time>2016-10-25T08:32:23Z</time>
      </trkpt>
      <trkpt lat="47.25787" lon="-1.62302">
        <ele>60.4818649</ele>
        <time>2016-10-25T08:32:26Z</time>
      </trkpt>
      <trkpt lat="47.25787" lon="-1.62299">
        <ele>60.4200974</ele>
        <time>2016-10-25T08:32:28Z</time>
      </trkpt>
      <trkpt lat="47.25785" lon="-1.62295">
        <ele>60.345295</ele>
        <time>2016-10-25T08:32:31Z</time>
      </trkpt>
      <trkpt lat="47.25784" lon="-1.62292">
        <ele>60.2727051</ele>
        <time>2016-10-25T08:32:33Z</time>
      </trkpt>
      <trkpt lat="47.25782" lon="-1.62288">
        <ele>60.18853</ele>
        <time>2016-10-25T08:32:36Z</time>
      </trkpt>
      <trkpt lat="47.25781" lon="-1.62284">
        <ele>60.1037292</ele>
        <time>2016-10-25T08:32:38Z</time>
      </trkpt>
      <trkpt lat="47.25779" lon="-1.62278">
        <ele>60.0071526</ele>
        <time>2016-10-25T08:32:41Z</time>
      </trkpt>
      <trkpt lat="47.25778" lon="-1.62275">
        <ele>59.9199219</ele>
        <time>2016-10-25T08:32:43Z</time>
      </trkpt>
      <trkpt lat="47.25775" lon="-1.62271">
        <ele>59.8237305</ele>
        <time>2016-10-25T08:32:46Z</time>
      </trkpt>
      <trkpt lat="47.25773" lon="-1.62269">
        <ele>59.7359695</ele>
        <time>2016-10-25T08:32:49Z</time>
      </trkpt>
      <trkpt lat="47.25772" lon="-1.62267">
        <ele>59.6551399</ele>
        <time>2016-10-25T08:32:51Z</time>
      </trkpt>
      <trkpt lat="47.25769" lon="-1.62265">
        <ele>59.5832901</ele>
        <time>2016-10-25T08:32:54Z</time>
      </trkpt>
      <trkpt lat="47.25768" lon="-1.62262">
        <ele>59.5119209</ele>
        <time>2016-10-25T08:32:56Z</time>
      </trkpt>
      <trkpt lat="47.25765" lon="-1.62258">
        <ele>59.4456711</ele>
        <time>2016-10-25T08:32:59Z</time>
      </trkpt>
      <trkpt lat="47.25763" lon="-1.62254">
        <ele>59.3744888</ele>
        <time>2016-10-25T08:33:02Z</time>
      </trkpt>
      <trkpt lat="47.25761" lon="-1.6225">
        <ele>59.2897568</ele>
        <time>2016-10-25T08:33:05Z</time>
      </trkpt>
      <trkpt lat="47.25759" lon="-1.62247">
        <ele>59.1835136</ele>
        <time>2016-10-25T08:33:07Z</time>
      </trkpt>
      <trkpt lat="47.25757" lon="-1.62242">
        <ele>59.0230103</ele>
        <time>2016-10-25T08:33:10Z</time>
      </trkpt>
      <trkpt lat="47.25755" lon="-1.62237">
        <ele>58.8159103</ele>
        <time>2016-10-25T08:33:13Z</time>
      </trkpt>
      <trkpt lat="47.25752" lon="-1.62232">
        <ele>58.5661125</ele>
        <time>2016-10-25T08:33:16Z</time>
      </trkpt>
      <trkpt lat="47.25751" lon="-1.62229">
        <ele>58.2980766</ele>
        <time>2016-10-25T08:33:18Z</time>
      </trkpt>
      <trkpt lat="47.25749" lon="-1.62225">
        <ele>58.0023727</ele>
        <time>2016-10-25T08:33:21Z</time>
      </trkpt>
      <trkpt lat="47.25747" lon="-1.62223">
        <ele>57.741375</ele>
        <time>2016-10-25T08:33:23Z</time>
      </trkpt>
      <trkpt lat="47.25745" lon="-1.62219">
        <ele>57.4904366</ele>
        <time>2016-10-25T08:33:26Z</time>
      </trkpt>
      <trkpt lat="47.25744" lon="-1.62217">
        <ele>57.2709732</ele>
        <time>2016-10-25T08:33:28Z</time>
      </trkpt>
      <trkpt lat="47.25742" lon="-1.62213">
        <ele>57.0336304</ele>
        <time>2016-10-25T08:33:31Z</time>
      </trkpt>
      <trkpt lat="47.25738" lon="-1.62209">
        <ele>56.7950554</ele>
        <time>2016-10-25T08:33:34Z</time>
      </trkpt>
      <trkpt lat="47.25735" lon="-1.62205">
        <ele>56.5342712</ele>
        <time>2016-10-25T08:33:37Z</time>
      </trkpt>
      <trkpt lat="47.25733" lon="-1.62201">
        <ele>56.2723083</ele>
        <time>2016-10-25T08:33:40Z</time>
      </trkpt>
      <trkpt lat="47.25731" lon="-1.62197">
        <ele>55.992321</ele>
        <time>2016-10-25T08:33:43Z</time>
      </trkpt>
      <trkpt lat="47.2573" lon="-1.62194">
        <ele>55.742836</ele>
        <time>2016-10-25T08:33:45Z</time>
      </trkpt>
      <trkpt lat="47.25728" lon="-1.6219">
        <ele>55.5194893</ele>
        <time>2016-10-25T08:33:47Z</time>
      </trkpt>
      <trkpt lat="47.25726" lon="-1.62186">
        <ele>55.3036308</ele>
        <time>2016-10-25T08:33:50Z</time>
      </trkpt>
      <trkpt lat="47.25724" lon="-1.62183">
        <ele>55.110939</ele>
        <time>2016-10-25T08:33:52Z</time>
      </trkpt>
      <trkpt lat="47.25722" lon="-1.62178">
        <ele>54.9195442</ele>
        <time>2016-10-25T08:33:55Z</time>
      </trkpt>
      <trkpt lat="47.25719" lon="-1.62173">
        <ele>54.7077522</ele>
        <time>2016-10-25T08:33:58Z</time>
      </trkpt>
      <trkpt lat="47.25716" lon="-1.6217">
        <ele>54.5090714</ele>
        <time>2016-10-25T08:34:00Z</time>
      </trkpt>
      <trkpt lat="47.25715" lon="-1.62167">
        <ele>54.3327637</ele>
        <time>2016-10-25T08:34:02Z</time>
      </trkpt>
      <trkpt lat="47.25713" lon="-1.62162">
        <ele>54.1676254</ele>
        <time>2016-10-25T08:34:05Z</time>
      </trkpt>
      <trkpt lat="47.25712" lon="-1.62159">
        <ele>54.0366402</ele>
        <time>2016-10-25T08:34:07Z</time>
      </trkpt>
      <trkpt lat="47.2571" lon="-1.62154">
        <ele>53.9384155</ele>
        <time>2016-10-25T08:34:09Z</time>
      </trkpt>
      <trkpt lat="47.25708" lon="-1.62149">
        <ele>53.8471184</ele>
        <time>2016-10-25T08:34:12Z</time>
      </trkpt>
      <trkpt lat="47.25706" lon="-1.62143">
        <ele>53.7624207</ele>
        <time>2016-10-25T08:34:15Z</time>
      </trkpt>
      <trkpt lat="47.25705" lon="-1.62139">
        <ele>53.6828079</ele>
        <time>2016-10-25T08:34:17Z</time>
      </trkpt>
      <trkpt lat="47.25704" lon="-1.62134">
        <ele>53.5996094</ele>
        <time>2016-10-25T08:34:20Z</time>
      </trkpt>
      <trkpt lat="47.25703" lon="-1.62132">
        <ele>53.5255127</ele>
        <time>2016-10-25T08:34:22Z</time>
      </trkpt>
      <trkpt lat="47.25702" lon="-1.6213">
        <ele>53.4639511</ele>
        <time>2016-10-25T08:34:24Z</time>
      </trkpt>
      <trkpt lat="47.25702" lon="-1.62125">
        <ele>53.4046211</ele>
        <time>2016-10-25T08:34:27Z</time>
      </trkpt>
      <trkpt lat="47.257" lon="-1.62121">
        <ele>53.3486214</ele>
        <time>2016-10-25T08:34:29Z</time>
      </trkpt>
      <trkpt lat="47.25699" lon="-1.62117">
        <ele>53.2967529</ele>
        <time>2016-10-25T08:34:31Z</time>
      </trkpt>
      <trkpt lat="47.25697" lon="-1.62111">
        <ele>53.2349167</ele>
        <time>2016-10-25T08:34:34Z</time>
      </trkpt>
      <trkpt lat="47.25695" lon="-1.62105">
        <ele>53.1643295</ele>
        <time>2016-10-25T08:34:37Z</time>
      </trkpt>
      <trkpt lat="47.25693" lon="-1.62101">
        <ele>53.1000252</ele>
        <time>2016-10-25T08:34:39Z</time>
      </trkpt>
      <trkpt lat="47.25691" lon="-1.62097">
        <ele>53.0361328</ele>
        <time>2016-10-25T08:34:42Z</time>
      </trkpt>
      <trkpt lat="47.25688" lon="-1.62091">
        <ele>52.9707642</ele>
        <time>2016-10-25T08:34:45Z</time>
      </trkpt>
      <trkpt lat="47.25685" lon="-1.62085">
        <ele>52.9119644</ele>
        <time>2016-10-25T08:34:48Z</time>
      </trkpt>
      <trkpt lat="47.25683" lon="-1.62082">
        <ele>52.8671494</ele>
        <time>2016-10-25T08:34:50Z</time>
      </trkpt>
      <trkpt lat="47.2568" lon="-1.62077">
        <ele>52.8299179</ele>
        <time>2016-10-25T08:34:53Z</time>
      </trkpt>
      <trkpt lat="47.25678" lon="-1.62073">
        <ele>52.8011665</ele>
        <time>2016-10-25T08:34:55Z</time>
      </trkpt>
      <trkpt lat="47.25676" lon="-1.6207">
        <ele>52.7826233</ele>
        <time>2016-10-25T08:34:57Z</time>
      </trkpt>
      <trkpt lat="47.25674" lon="-1.62066">
        <ele>52.7713699</ele>
        <time>2016-10-25T08:35:00Z</time>
      </trkpt>
      <trkpt lat="47.25672" lon="-1.62063">
        <ele>52.7590103</ele>
        <time>2016-10-25T08:35:02Z</time>
      </trkpt>
      <trkpt lat="47.25669" lon="-1.62058">
        <ele>52.7398987</ele>
        <time>2016-10-25T08:35:05Z</time>
      </trkpt>
      <trkpt lat="47.25667" lon="-1.62055">
        <ele>52.7171135</ele>
        <time>2016-10-25T08:35:07Z</time>
      </trkpt>
      <trkpt lat="47.25664" lon="-1.6205">
        <ele>52.6771126</ele>
        <time>2016-10-25T08:35:10Z</time>
      </trkpt>
      <trkpt lat="47.25662" lon="-1.62047">
        <ele>52.6262436</ele>
        <time>2016-10-25T08:35:12Z</time>
      </trkpt>
      <trkpt lat="47.25659" lon="-1.62042">
        <ele>52.5548935</ele>
        <time>2016-10-25T08:35:15Z</time>
      </trkpt>
      <trkpt lat="47.25658" lon="-1.62039">
        <ele>52.4785385</ele>
        <time>2016-10-25T08:35:17Z</time>
      </trkpt>
      <trkpt lat="47.25657" lon="-1.62036">
        <ele>52.3968277</ele>
        <time>2016-10-25T08:35:19Z</time>
      </trkpt>
      <trkpt lat="47.25656" lon="-1.62034">
        <ele>52.3239555</ele>
        <time>2016-10-25T08:35:21Z</time>
      </trkpt>
      <trkpt lat="47.25653" lon="-1.62029">
        <ele>52.2397346</ele>
        <time>2016-10-25T08:35:24Z</time>
      </trkpt>
      <trkpt lat="47.2565" lon="-1.62025">
        <ele>52.1553154</ele>
        <time>2016-10-25T08:35:27Z</time>
      </trkpt>
      <trkpt lat="47.25647" lon="-1.62022">
        <ele>52.0647812</ele>
        <time>2016-10-25T08:35:30Z</time>
      </trkpt>
      <trkpt lat="47.25646" lon="-1.6202">
        <ele>51.9744987</ele>
        <time>2016-10-25T08:35:32Z</time>
      </trkpt>
      <trkpt lat="47.25647" lon="-1.62015">
        <ele>51.8861885</ele>
        <time>2016-10-25T08:35:34Z</time>
      </trkpt>
      <trkpt lat="47.25648" lon="-1.6201">
        <ele>51.8104324</ele>
        <time>2016-10-25T08:35:37Z</time>
      </trkpt>
      <trkpt lat="47.25647" lon="-1.62006">
        <ele>51.7466621</ele>
        <time>2016-10-25T08:35:39Z</time>
      </trkpt>
      <trkpt lat="47.25647" lon="-1.62001">
        <ele>51.6825447</ele>
        <time>2016-10-25T08:35:42Z</time>
      </trkpt>
      <trkpt lat="47.25646" lon="-1.61996">
        <ele>51.6082458</ele>
        <time>2016-10-25T08:35:45Z</time>
      </trkpt>
      <trkpt lat="47.25646" lon="-1.61992">
        <ele>51.5247612</ele>
        <time>2016-10-25T08:35:47Z</time>
      </trkpt>
      <trkpt lat="47.25647" lon="-1.61987">
        <ele>51.433403</ele>
        <time>2016-10-25T08:35:50Z</time>
      </trkpt>
      <trkpt lat="47.25648" lon="-1.61983">
        <ele>51.3460617</ele>
        <time>2016-10-25T08:35:52Z</time>
      </trkpt>
      <trkpt lat="47.2565" lon="-1.61979">
        <ele>51.2681351</ele>
        <time>2016-10-25T08:35:55Z</time>
      </trkpt>
      <trkpt lat="47.25652" lon="-1.61976">
        <ele>51.2042656</ele>
        <time>2016-10-25T08:35:58Z</time>
      </trkpt>
      <trkpt lat="47.25655" lon="-1.61973">
        <ele>51.1573334</ele>
        <time>2016-10-25T08:36:01Z</time>
      </trkpt>
      <trkpt lat="47.25658" lon="-1.61967">
        <ele>51.1192589</ele>
        <time>2016-10-25T08:36:04Z</time>
      </trkpt>
      <trkpt lat="47.2566" lon="-1.61964">
        <ele>51.0810776</ele>
        <time>2016-10-25T08:36:06Z</time>
      </trkpt>
      <trkpt lat="47.25661" lon="-1.61961">
        <ele>51.0470161</ele>
        <time>2016-10-25T08:36:08Z</time>
      </trkpt>
      <trkpt lat="47.25663" lon="-1.61958">
        <ele>51.0120316</ele>
        <time>2016-10-25T08:36:10Z</time>
      </trkpt>
      <trkpt lat="47.25665" lon="-1.61955">
        <ele>50.9685478</ele>
        <time>2016-10-25T08:36:13Z</time>
      </trkpt>
      <trkpt lat="47.25666" lon="-1.61951">
        <ele>50.9249382</ele>
        <time>2016-10-25T08:36:16Z</time>
      </trkpt>
      <trkpt lat="47.2567" lon="-1.61946">
        <ele>50.8743668</ele>
        <time>2016-10-25T08:36:19Z</time>
      </trkpt>
      <trkpt lat="47.25672" lon="-1.61944">
        <ele>50.8223038</ele>
        <time>2016-10-25T08:36:21Z</time>
      </trkpt>
      <trkpt lat="47.25674" lon="-1.61941">
        <ele>50.7683792</ele>
        <time>2016-10-25T08:36:24Z</time>
      </trkpt>
      <trkpt lat="47.25675" lon="-1.61938">
        <ele>50.7130966</ele>
        <time>2016-10-25T08:36:26Z</time>
      </trkpt>
      <trkpt lat="47.25676" lon="-1.61935">
        <ele>50.6610718</ele>
        <time>2016-10-25T08:36:28Z</time>
      </trkpt>
      <trkpt lat="47.25677" lon="-1.61932">
        <ele>50.6122437</ele>
        <time>2016-10-25T08:36:30Z</time>
      </trkpt>
      <trkpt lat="47.2568" lon="-1.61928">
        <ele>50.5569458</ele>
        <time>2016-10-25T08:36:33Z</time>
      </trkpt>
      <trkpt lat="47.25681" lon="-1.61926">
        <ele>50.5014648</ele>
        <time>2016-10-25T08:36:35Z</time>
      </trkpt>
      <trkpt lat="47.25684" lon="-1.61922">
        <ele>50.444397</ele>
        <time>2016-10-25T08:36:38Z</time>
      </trkpt>
      <trkpt lat="47.25686" lon="-1.61919">
        <ele>50.3896484</ele>
        <time>2016-10-25T08:36:40Z</time>
      </trkpt>
      <trkpt lat="47.25688" lon="-1.61916">
        <ele>50.338356</ele>
        <time>2016-10-25T08:36:42Z</time>
      </trkpt>
      <trkpt lat="47.25691" lon="-1.61912">
        <ele>50.3082047</ele>
        <time>2016-10-25T08:36:45Z</time>
      </trkpt>
      <trkpt lat="47.25692" lon="-1.61909">
        <ele>50.2915916</ele>
        <time>2016-10-25T08:36:47Z</time>
      </trkpt>
      <trkpt lat="47.25695" lon="-1.61906">
        <ele>50.2939644</ele>
        <time>2016-10-25T08:36:50Z</time>
      </trkpt>
      <trkpt lat="47.25697" lon="-1.61902">
        <ele>50.3135338</ele>
        <time>2016-10-25T08:36:53Z</time>
      </trkpt>
      <trkpt lat="47.25699" lon="-1.61899">
        <ele>50.3480911</ele>
        <time>2016-10-25T08:36:55Z</time>
      </trkpt>
      <trkpt lat="47.257" lon="-1.61896">
        <ele>50.3812294</ele>
        <time>2016-10-25T08:36:57Z</time>
      </trkpt>
      <trkpt lat="47.25702" lon="-1.61891">
        <ele>50.4234047</ele>
        <time>2016-10-25T08:36:59Z</time>
      </trkpt>
      <trkpt lat="47.25705" lon="-1.61884">
        <ele>50.4786415</ele>
        <time>2016-10-25T08:37:02Z</time>
      </trkpt>
      <trkpt lat="47.25708" lon="-1.61881">
        <ele>50.5394173</ele>
        <time>2016-10-25T08:37:04Z</time>
      </trkpt>
      <trkpt lat="47.25709" lon="-1.61878">
        <ele>50.6065063</ele>
        <time>2016-10-25T08:37:06Z</time>
      </trkpt>
      <trkpt lat="47.25711" lon="-1.61872">
        <ele>50.6846848</ele>
        <time>2016-10-25T08:37:09Z</time>
      </trkpt>
      <trkpt lat="47.25713" lon="-1.61867">
        <ele>50.7685318</ele>
        <time>2016-10-25T08:37:12Z</time>
      </trkpt>
      <trkpt lat="47.25715" lon="-1.61864">
        <ele>50.8547897</ele>
        <time>2016-10-25T08:37:14Z</time>
      </trkpt>
      <trkpt lat="47.25719" lon="-1.6186">
        <ele>50.9596596</ele>
        <time>2016-10-25T08:37:17Z</time>
      </trkpt>
      <trkpt lat="47.25722" lon="-1.61854">
        <ele>51.0912857</ele>
        <time>2016-10-25T08:37:20Z</time>
      </trkpt>
      <trkpt lat="47.25724" lon="-1.61851">
        <ele>51.2230759</ele>
        <time>2016-10-25T08:37:22Z</time>
      </trkpt>
      <trkpt lat="47.25725" lon="-1.61845">
        <ele>51.3638191</ele>
        <time>2016-10-25T08:37:25Z</time>
      </trkpt>
      <trkpt lat="47.25724" lon="-1.6184">
        <ele>51.4829636</ele>
        <time>2016-10-25T08:37:27Z</time>
      </trkpt>
      <trkpt lat="47.25722" lon="-1.61837">
        <ele>51.5604362</ele>
        <time>2016-10-25T08:37:29Z</time>
      </trkpt>
      <trkpt lat="47.25719" lon="-1.61833">
        <ele>51.5754013</ele>
        <time>2016-10-25T08:37:32Z</time>
      </trkpt>
      <trkpt lat="47.25716" lon="-1.6183">
        <ele>51.5534134</ele>
        <time>2016-10-25T08:37:34Z</time>
      </trkpt>
      <trkpt lat="47.25713" lon="-1.61825">
        <ele>51.4734726</ele>
        <time>2016-10-25T08:37:37Z</time>
      </trkpt>
      <trkpt lat="47.25711" lon="-1.61821">
        <ele>51.3699455</ele>
        <time>2016-10-25T08:37:40Z</time>
      </trkpt>
      <trkpt lat="47.25709" lon="-1.61818">
        <ele>51.2578125</ele>
        <time>2016-10-25T08:37:42Z</time>
      </trkpt>
      <trkpt lat="47.25707" lon="-1.61816">
        <ele>51.1484375</ele>
        <time>2016-10-25T08:37:44Z</time>
      </trkpt>
      <trkpt lat="47.25705" lon="-1.61812">
        <ele>51.0351563</ele>
        <time>2016-10-25T08:37:47Z</time>
      </trkpt>
      <trkpt lat="47.25702" lon="-1.61808">
        <ele>50.9257813</ele>
        <time>2016-10-25T08:37:50Z</time>
      </trkpt>
      <trkpt lat="47.25699" lon="-1.61803">
        <ele>50.8125</ele>
        <time>2016-10-25T08:37:53Z</time>
      </trkpt>
      <trkpt lat="47.25697" lon="-1.61799">
        <ele>50.6914063</ele>
        <time>2016-10-25T08:37:56Z</time>
      </trkpt>
      <trkpt lat="47.25695" lon="-1.61796">
        <ele>50.5742188</ele>
        <time>2016-10-25T08:37:58Z</time>
      </trkpt>
      <trkpt lat="47.25694" lon="-1.61793">
        <ele>50.4648438</ele>
        <time>2016-10-25T08:38:00Z</time>
      </trkpt>
      <trkpt lat="47.25693" lon="-1.61791">
        <ele>50.375</ele>
        <time>2016-10-25T08:38:02Z</time>
      </trkpt>
      <trkpt lat="47.25691" lon="-1.61787">
        <ele>50.296875</ele>
        <time>2016-10-25T08:38:05Z</time>
      </trkpt>
      <trkpt lat="47.25689" lon="-1.61781">
        <ele>50.21875</ele>
        <time>2016-10-25T08:38:08Z</time>
      </trkpt>
      <trkpt lat="47.25687" lon="-1.61775">
        <ele>50.140625</ele>
        <time>2016-10-25T08:38:11Z</time>
      </trkpt>
      <trkpt lat="47.25684" lon="-1.61769">
        <ele>50.0546875</ele>
        <time>2016-10-25T08:38:14Z</time>
      </trkpt>
      <trkpt lat="47.25682" lon="-1.61766">
        <ele>49.953125</ele>
        <time>2016-10-25T08:38:16Z</time>
      </trkpt>
      <trkpt lat="47.25679" lon="-1.61762">
        <ele>49.84375</ele>
        <time>2016-10-25T08:38:19Z</time>
      </trkpt>
      <trkpt lat="47.25677" lon="-1.61757">
        <ele>49.734375</ele>
        <time>2016-10-25T08:38:22Z</time>
      </trkpt>
      <trkpt lat="47.25675" lon="-1.61754">
        <ele>49.6210938</ele>
        <time>2016-10-25T08:38:24Z</time>
      </trkpt>
      <trkpt lat="47.25673" lon="-1.61751">
        <ele>49.515625</ele>
        <time>2016-10-25T08:38:26Z</time>
      </trkpt>
      <trkpt lat="47.25671" lon="-1.61748">
        <ele>49.4299202</ele>
        <time>2016-10-25T08:38:28Z</time>
      </trkpt>
      <trkpt lat="47.25668" lon="-1.61743">
        <ele>49.371418</ele>
        <time>2016-10-25T08:38:31Z</time>
      </trkpt>
      <trkpt lat="47.25666" lon="-1.61739">
        <ele>49.3489227</ele>
        <time>2016-10-25T08:38:34Z</time>
      </trkpt>
      <trkpt lat="47.25663" lon="-1.61737">
        <ele>49.3601685</ele>
        <time>2016-10-25T08:38:36Z</time>
      </trkpt>
      <trkpt lat="47.25661" lon="-1.61733">
        <ele>49.4071312</ele>
        <time>2016-10-25T08:38:39Z</time>
      </trkpt>
      <trkpt lat="47.25659" lon="-1.61731">
        <ele>49.4704971</ele>
        <time>2016-10-25T08:38:41Z</time>
      </trkpt>
      <trkpt lat="47.25657" lon="-1.61728">
        <ele>49.5443954</ele>
        <time>2016-10-25T08:38:43Z</time>
      </trkpt>
      <trkpt lat="47.25655" lon="-1.61726">
        <ele>49.6174812</ele>
        <time>2016-10-25T08:38:45Z</time>
      </trkpt>
      <trkpt lat="47.25653" lon="-1.61724">
        <ele>49.6833496</ele>
        <time>2016-10-25T08:38:47Z</time>
      </trkpt>
      <trkpt lat="47.2565" lon="-1.61719">
        <ele>49.7471123</ele>
        <time>2016-10-25T08:38:50Z</time>
      </trkpt>
      <trkpt lat="47.25648" lon="-1.61716">
        <ele>49.8119659</ele>
        <time>2016-10-25T08:38:52Z</time>
      </trkpt>
      <trkpt lat="47.25644" lon="-1.61711">
        <ele>49.8755722</ele>
        <time>2016-10-25T08:38:55Z</time>
      </trkpt>
      <trkpt lat="47.2564" lon="-1.61707">
        <ele>49.9386063</ele>
        <time>2016-10-25T08:38:58Z</time>
      </trkpt>
      <trkpt lat="47.25639" lon="-1.61704">
        <ele>49.9998131</ele>
        <time>2016-10-25T08:39:00Z</time>
      </trkpt>
      <trkpt lat="47.25636" lon="-1.61699">
        <ele>50.0532417</ele>
        <time>2016-10-25T08:39:03Z</time>
      </trkpt>
      <trkpt lat="47.25633" lon="-1.61694">
        <ele>50.10186</ele>
        <time>2016-10-25T08:39:06Z</time>
      </trkpt>
      <trkpt lat="47.25631" lon="-1.61691">
        <ele>50.1406326</ele>
        <time>2016-10-25T08:39:08Z</time>
      </trkpt>
      <trkpt lat="47.25629" lon="-1.61688">
        <ele>50.1703568</ele>
        <time>2016-10-25T08:39:10Z</time>
      </trkpt>
      <trkpt lat="47.25626" lon="-1.61684">
        <ele>50.1922798</ele>
        <time>2016-10-25T08:39:13Z</time>
      </trkpt>
      <trkpt lat="47.25623" lon="-1.61681">
        <ele>50.2002983</ele>
        <time>2016-10-25T08:39:15Z</time>
      </trkpt>
      <trkpt lat="47.25621" lon="-1.61678">
        <ele>50.1936607</ele>
        <time>2016-10-25T08:39:17Z</time>
      </trkpt>
      <trkpt lat="47.25618" lon="-1.61675">
        <ele>50.1740189</ele>
        <time>2016-10-25T08:39:20Z</time>
      </trkpt>
      <trkpt lat="47.25616" lon="-1.61674">
        <ele>50.146843</ele>
        <time>2016-10-25T08:39:22Z</time>
      </trkpt>
      <trkpt lat="47.25613" lon="-1.6167">
        <ele>50.1126404</ele>
        <time>2016-10-25T08:39:25Z</time>
      </trkpt>
      <trkpt lat="47.25612" lon="-1.61668">
        <ele>50.0747871</ele>
        <time>2016-10-25T08:39:27Z</time>
      </trkpt>
      <trkpt lat="47.25609" lon="-1.61667">
        <ele>50.0287209</ele>
        <time>2016-10-25T08:39:30Z</time>
      </trkpt>
      <trkpt lat="47.25607" lon="-1.61665">
        <ele>49.9743195</ele>
        <time>2016-10-25T08:39:32Z</time>
      </trkpt>
      <trkpt lat="47.25604" lon="-1.61663">
        <ele>49.8940887</ele>
        <time>2016-10-25T08:39:35Z</time>
      </trkpt>
      <trkpt lat="47.25602" lon="-1.6166">
        <ele>49.7995033</ele>
        <time>2016-10-25T08:39:37Z</time>
      </trkpt>
      <trkpt lat="47.25599" lon="-1.61657">
        <ele>49.6837425</ele>
        <time>2016-10-25T08:39:40Z</time>
      </trkpt>
      <trkpt lat="47.25597" lon="-1.61655">
        <ele>49.5608444</ele>
        <time>2016-10-25T08:39:42Z</time>
      </trkpt>
      <trkpt lat="47.25593" lon="-1.61651">
        <ele>49.4220886</ele>
        <time>2016-10-25T08:39:45Z</time>
      </trkpt>
      <trkpt lat="47.2559" lon="-1.61646">
        <ele>49.281517</ele>
        <time>2016-10-25T08:39:48Z</time>
      </trkpt>
      <trkpt lat="47.25589" lon="-1.61643">
        <ele>49.1486397</ele>
        <time>2016-10-25T08:39:50Z</time>
      </trkpt>
      <trkpt lat="47.25587" lon="-1.61639">
        <ele>49.0211563</ele>
        <time>2016-10-25T08:39:52Z</time>
      </trkpt>
      <trkpt lat="47.25584" lon="-1.61634">
        <ele>48.8840752</ele>
        <time>2016-10-25T08:39:55Z</time>
      </trkpt>
      <trkpt lat="47.25582" lon="-1.6163">
        <ele>48.7545586</ele>
        <time>2016-10-25T08:39:58Z</time>
      </trkpt>
      <trkpt lat="47.2558" lon="-1.61626">
        <ele>48.631115</ele>
        <time>2016-10-25T08:40:01Z</time>
      </trkpt>
      <trkpt lat="47.25578" lon="-1.61623">
        <ele>48.4994011</ele>
        <time>2016-10-25T08:40:03Z</time>
      </trkpt>
      <trkpt lat="47.25576" lon="-1.61617">
        <ele>48.359993</ele>
        <time>2016-10-25T08:40:06Z</time>
      </trkpt>
      <trkpt lat="47.25573" lon="-1.61612">
        <ele>48.2152405</ele>
        <time>2016-10-25T08:40:09Z</time>
      </trkpt>
      <trkpt lat="47.25573" lon="-1.61608">
        <ele>48.080658</ele>
        <time>2016-10-25T08:40:11Z</time>
      </trkpt>
      <trkpt lat="47.25572" lon="-1.61603">
        <ele>47.9514198</ele>
        <time>2016-10-25T08:40:14Z</time>
      </trkpt>
      <trkpt lat="47.2557" lon="-1.61598">
        <ele>47.8200607</ele>
        <time>2016-10-25T08:40:17Z</time>
      </trkpt>
      <trkpt lat="47.2557" lon="-1.61593">
        <ele>47.700386</ele>
        <time>2016-10-25T08:40:19Z</time>
      </trkpt>
      <trkpt lat="47.25569" lon="-1.61589">
        <ele>47.5967178</ele>
        <time>2016-10-25T08:40:21Z</time>
      </trkpt>
      <trkpt lat="47.25568" lon="-1.61584">
        <ele>47.4876442</ele>
        <time>2016-10-25T08:40:24Z</time>
      </trkpt>
      <trkpt lat="47.25567" lon="-1.61581">
        <ele>47.3701477</ele>
        <time>2016-10-25T08:40:26Z</time>
      </trkpt>
      <trkpt lat="47.25567" lon="-1.61578">
        <ele>47.2527657</ele>
        <time>2016-10-25T08:40:28Z</time>
      </trkpt>
      <trkpt lat="47.25566" lon="-1.61574">
        <ele>47.1097412</ele>
        <time>2016-10-25T08:40:31Z</time>
      </trkpt>
      <trkpt lat="47.25566" lon="-1.61568">
        <ele>46.9330101</ele>
        <time>2016-10-25T08:40:34Z</time>
      </trkpt>
      <trkpt lat="47.25566" lon="-1.61565">
        <ele>46.7469597</ele>
        <time>2016-10-25T08:40:36Z</time>
      </trkpt>
      <trkpt lat="47.25566" lon="-1.61561">
        <ele>46.559761</ele>
        <time>2016-10-25T08:40:38Z</time>
      </trkpt>
      <trkpt lat="47.25566" lon="-1.61555">
        <ele>46.3498688</ele>
        <time>2016-10-25T08:40:41Z</time>
      </trkpt>
      <trkpt lat="47.25566" lon="-1.61549">
        <ele>46.1401367</ele>
        <time>2016-10-25T08:40:44Z</time>
      </trkpt>
      <trkpt lat="47.25567" lon="-1.61545">
        <ele>45.9531746</ele>
        <time>2016-10-25T08:40:46Z</time>
      </trkpt>
      <trkpt lat="47.25566" lon="-1.61539">
        <ele>45.7431793</ele>
        <time>2016-10-25T08:40:49Z</time>
      </trkpt>
      <trkpt lat="47.25566" lon="-1.61536">
        <ele>45.5326233</ele>
        <time>2016-10-25T08:40:51Z</time>
      </trkpt>
      <trkpt lat="47.25566" lon="-1.61532">
        <ele>45.3398399</ele>
        <time>2016-10-25T08:40:53Z</time>
      </trkpt>
      <trkpt lat="47.25567" lon="-1.61525">
        <ele>45.136097</ele>
        <time>2016-10-25T08:40:56Z</time>
      </trkpt>
      <trkpt lat="47.25566" lon="-1.61521">
        <ele>44.9217415</ele>
        <time>2016-10-25T08:40:58Z</time>
      </trkpt>
      <trkpt lat="47.25566" lon="-1.61515">
        <ele>44.7063522</ele>
        <time>2016-10-25T08:41:01Z</time>
      </trkpt>
      <trkpt lat="47.25566" lon="-1.61508">
        <ele>44.4673653</ele>
        <time>2016-10-25T08:41:04Z</time>
      </trkpt>
      <trkpt lat="47.25565" lon="-1.61502">
        <ele>44.196949</ele>
        <time>2016-10-25T08:41:07Z</time>
      </trkpt>
      <trkpt lat="47.25563" lon="-1.61498">
        <ele>43.9647408</ele>
        <time>2016-10-25T08:41:09Z</time>
      </trkpt>
      <trkpt lat="47.25561" lon="-1.61494">
        <ele>43.7750969</ele>
        <time>2016-10-25T08:41:11Z</time>
      </trkpt>
      <trkpt lat="47.25558" lon="-1.6149">
        <ele>43.6422119</ele>
        <time>2016-10-25T08:41:14Z</time>
      </trkpt>
      <trkpt lat="47.25555" lon="-1.61486">
        <ele>43.5635223</ele>
        <time>2016-10-25T08:41:17Z</time>
      </trkpt>
      <trkpt lat="47.25552" lon="-1.61482">
        <ele>43.5499878</ele>
        <time>2016-10-25T08:41:20Z</time>
      </trkpt>
      <trkpt lat="47.2555" lon="-1.61479">
        <ele>43.5528488</ele>
        <time>2016-10-25T08:41:22Z</time>
      </trkpt>
      <trkpt lat="47.25548" lon="-1.61476">
        <ele>43.5554733</ele>
        <time>2016-10-25T08:41:24Z</time>
      </trkpt>
      <trkpt lat="47.25547" lon="-1.61473">
        <ele>43.5620537</ele>
        <time>2016-10-25T08:41:26Z</time>
      </trkpt>
      <trkpt lat="47.25545" lon="-1.6147">
        <ele>43.5747108</ele>
        <time>2016-10-25T08:41:28Z</time>
      </trkpt>
      <trkpt lat="47.25544" lon="-1.61467">
        <ele>43.5896301</ele>
        <time>2016-10-25T08:41:30Z</time>
      </trkpt>
      <trkpt lat="47.25542" lon="-1.61462">
        <ele>43.6197586</ele>
        <time>2016-10-25T08:41:33Z</time>
      </trkpt>
      <trkpt lat="47.25542" lon="-1.61458">
        <ele>43.6604729</ele>
        <time>2016-10-25T08:41:35Z</time>
      </trkpt>
      <trkpt lat="47.25542" lon="-1.61452">
        <ele>43.7173386</ele>
        <time>2016-10-25T08:41:38Z</time>
      </trkpt>
      <trkpt lat="47.25543" lon="-1.61448">
        <ele>43.7848969</ele>
        <time>2016-10-25T08:41:40Z</time>
      </trkpt>
      <trkpt lat="47.25543" lon="-1.61443">
        <ele>43.8697319</ele>
        <time>2016-10-25T08:41:43Z</time>
      </trkpt>
      <trkpt lat="47.25544" lon="-1.6144">
        <ele>43.9522018</ele>
        <time>2016-10-25T08:41:45Z</time>
      </trkpt>
      <trkpt lat="47.25544" lon="-1.61434">
        <ele>44.0459137</ele>
        <time>2016-10-25T08:41:48Z</time>
      </trkpt>
      <trkpt lat="47.25546" lon="-1.61428">
        <ele>44.1399155</ele>
        <time>2016-10-25T08:41:51Z</time>
      </trkpt>
      <trkpt lat="47.25546" lon="-1.61426">
        <ele>44.2287102</ele>
        <time>2016-10-25T08:41:53Z</time>
      </trkpt>
      <trkpt lat="47.25546" lon="-1.6142">
        <ele>44.3161125</ele>
        <time>2016-10-25T08:41:56Z</time>
      </trkpt>
      <trkpt lat="47.25547" lon="-1.61417">
        <ele>44.4029541</ele>
        <time>2016-10-25T08:41:58Z</time>
      </trkpt>
      <trkpt lat="47.25547" lon="-1.61413">
        <ele>44.4448967</ele>
        <time>2016-10-25T08:42:00Z</time>
      </trkpt>
      <trkpt lat="47.25548" lon="-1.61408">
        <ele>44.4233131</ele>
        <time>2016-10-25T08:42:03Z</time>
      </trkpt>
      <trkpt lat="47.25548" lon="-1.61405">
        <ele>44.367321</ele>
        <time>2016-10-25T08:42:05Z</time>
      </trkpt>
      <trkpt lat="47.25547" lon="-1.61399">
        <ele>44.2495537</ele>
        <time>2016-10-25T08:42:08Z</time>
      </trkpt>
      <trkpt lat="47.25545" lon="-1.61397">
        <ele>44.1025772</ele>
        <time>2016-10-25T08:42:10Z</time>
      </trkpt>
      <trkpt lat="47.25541" lon="-1.61394">
        <ele>43.9519501</ele>
        <time>2016-10-25T08:42:13Z</time>
      </trkpt>
      <trkpt lat="47.25539" lon="-1.61394">
        <ele>43.8356705</ele>
        <time>2016-10-25T08:42:15Z</time>
      </trkpt>
      <trkpt lat="47.25535" lon="-1.61393">
        <ele>43.7384224</ele>
        <time>2016-10-25T08:42:18Z</time>
      </trkpt>
      <trkpt lat="47.25532" lon="-1.61394">
        <ele>43.6803513</ele>
        <time>2016-10-25T08:42:20Z</time>
      </trkpt>
      <trkpt lat="47.2553" lon="-1.61394">
        <ele>43.6390991</ele>
        <time>2016-10-25T08:42:22Z</time>
      </trkpt>
      <trkpt lat="47.25526" lon="-1.61393">
        <ele>43.6143036</ele>
        <time>2016-10-25T08:42:25Z</time>
      </trkpt>
      <trkpt lat="47.25523" lon="-1.61392">
        <ele>43.5852013</ele>
        <time>2016-10-25T08:42:28Z</time>
      </trkpt>
      <trkpt lat="47.25519" lon="-1.6139">
        <ele>43.5462532</ele>
        <time>2016-10-25T08:42:31Z</time>
      </trkpt>
      <trkpt lat="47.25515" lon="-1.61388">
        <ele>43.4977493</ele>
        <time>2016-10-25T08:42:34Z</time>
      </trkpt>
      <trkpt lat="47.25513" lon="-1.61387">
        <ele>43.4417</ele>
        <time>2016-10-25T08:42:36Z</time>
      </trkpt>
      <trkpt lat="47.25512" lon="-1.61385">
        <ele>43.3822403</ele>
        <time>2016-10-25T08:42:39Z</time>
      </trkpt>
      <trkpt lat="47.25512" lon="-1.61383">
        <ele>43.3256721</ele>
        <time>2016-10-25T08:42:42Z</time>
      </trkpt>
      <trkpt lat="47.25511" lon="-1.61382">
        <ele>43.2754211</ele>
        <time>2016-10-25T08:42:48Z</time>
      </trkpt>
      <trkpt lat="47.25511" lon="-1.6138">
        <ele>43.2291832</ele>
        <time>2016-10-25T08:42:51Z</time>
      </trkpt>
      <trkpt lat="47.25511" lon="-1.61379">
        <ele>43.1839561</ele>
        <time>2016-10-25T08:42:54Z</time>
      </trkpt>
      <trkpt lat="47.25511" lon="-1.61377">
        <ele>43.1409798</ele>
        <time>2016-10-25T08:42:58Z</time>
      </trkpt>
      <trkpt lat="47.25512" lon="-1.61373">
        <ele>43.087822</ele>
        <time>2016-10-25T08:43:01Z</time>
      </trkpt>
      <trkpt lat="47.25514" lon="-1.61369">
        <ele>43.0160561</ele>
        <time>2016-10-25T08:43:04Z</time>
      </trkpt>
      <trkpt lat="47.25517" lon="-1.61363">
        <ele>42.9180641</ele>
        <time>2016-10-25T08:43:06Z</time>
      </trkpt>
      <trkpt lat="47.25515" lon="-1.61359">
        <ele>42.8074684</ele>
        <time>2016-10-25T08:43:09Z</time>
      </trkpt>
      <trkpt lat="47.25511" lon="-1.61358">
        <ele>42.7031937</ele>
        <time>2016-10-25T08:43:12Z</time>
      </trkpt>
      <trkpt lat="47.25509" lon="-1.61355">
        <ele>42.6042671</ele>
        <time>2016-10-25T08:43:15Z</time>
      </trkpt>
      <trkpt lat="47.25507" lon="-1.61351">
        <ele>42.516674</ele>
        <time>2016-10-25T08:43:17Z</time>
      </trkpt>
      <trkpt lat="47.25507" lon="-1.61347">
        <ele>42.4397469</ele>
        <time>2016-10-25T08:43:19Z</time>
      </trkpt>
      <trkpt lat="47.25505" lon="-1.61341">
        <ele>42.3567085</ele>
        <time>2016-10-25T08:43:22Z</time>
      </trkpt>
      <trkpt lat="47.25503" lon="-1.61336">
        <ele>42.2581635</ele>
        <time>2016-10-25T08:43:25Z</time>
      </trkpt>
      <trkpt lat="47.25502" lon="-1.61333">
        <ele>42.1609116</ele>
        <time>2016-10-25T08:43:27Z</time>
      </trkpt>
      <trkpt lat="47.25501" lon="-1.61328">
        <ele>42.0542831</ele>
        <time>2016-10-25T08:43:30Z</time>
      </trkpt>
      <trkpt lat="47.25503" lon="-1.61323">
        <ele>41.9459801</ele>
        <time>2016-10-25T08:43:33Z</time>
      </trkpt>
      <trkpt lat="47.25503" lon="-1.61319">
        <ele>41.8404007</ele>
        <time>2016-10-25T08:43:36Z</time>
      </trkpt>
      <trkpt lat="47.25504" lon="-1.61316">
        <ele>41.737854</ele>
        <time>2016-10-25T08:43:38Z</time>
      </trkpt>
      <trkpt lat="47.25505" lon="-1.61312">
        <ele>41.6295776</ele>
        <time>2016-10-25T08:43:40Z</time>
      </trkpt>
      <trkpt lat="47.25506" lon="-1.61308">
        <ele>41.5232544</ele>
        <time>2016-10-25T08:43:43Z</time>
      </trkpt>
      <trkpt lat="47.25506" lon="-1.61305">
        <ele>41.4293213</ele>
        <time>2016-10-25T08:43:45Z</time>
      </trkpt>
      <trkpt lat="47.25506" lon="-1.61302">
        <ele>41.3446655</ele>
        <time>2016-10-25T08:43:47Z</time>
      </trkpt>
      <trkpt lat="47.25507" lon="-1.613">
        <ele>41.2623291</ele>
        <time>2016-10-25T08:43:49Z</time>
      </trkpt>
      <trkpt lat="47.25508" lon="-1.61296">
        <ele>41.1778564</ele>
        <time>2016-10-25T08:43:52Z</time>
      </trkpt>
      <trkpt lat="47.25508" lon="-1.61292">
        <ele>41.0983887</ele>
        <time>2016-10-25T08:43:55Z</time>
      </trkpt>
      <trkpt lat="47.25509" lon="-1.61288">
        <ele>41.0102539</ele>
        <time>2016-10-25T08:43:58Z</time>
      </trkpt>
      <trkpt lat="47.25509" lon="-1.61285">
        <ele>40.9205933</ele>
        <time>2016-10-25T08:44:00Z</time>
      </trkpt>
      <trkpt lat="47.2551" lon="-1.61282">
        <ele>40.8276367</ele>
        <time>2016-10-25T08:44:02Z</time>
      </trkpt>
      <trkpt lat="47.2551" lon="-1.61276">
        <ele>40.7265625</ele>
        <time>2016-10-25T08:44:05Z</time>
      </trkpt>
      <trkpt lat="47.25511" lon="-1.61273">
        <ele>40.6243286</ele>
        <time>2016-10-25T08:44:07Z</time>
      </trkpt>
      <trkpt lat="47.25512" lon="-1.61267">
        <ele>40.5148315</ele>
        <time>2016-10-25T08:44:10Z</time>
      </trkpt>
      <trkpt lat="47.25512" lon="-1.61261">
        <ele>40.3936157</ele>
        <time>2016-10-25T08:44:13Z</time>
      </trkpt>
      <trkpt lat="47.25514" lon="-1.61258">
        <ele>40.2712402</ele>
        <time>2016-10-25T08:44:15Z</time>
      </trkpt>
      <trkpt lat="47.25514" lon="-1.61254">
        <ele>40.1540527</ele>
        <time>2016-10-25T08:44:18Z</time>
      </trkpt>
      <trkpt lat="47.25513" lon="-1.6125">
        <ele>40.0415039</ele>
        <time>2016-10-25T08:44:20Z</time>
      </trkpt>
      <trkpt lat="47.25513" lon="-1.61246">
        <ele>39.9395638</ele>
        <time>2016-10-25T08:44:23Z</time>
      </trkpt>
      <trkpt lat="47.25514" lon="-1.61243">
        <ele>39.8502312</ele>
        <time>2016-10-25T08:44:25Z</time>
      </trkpt>
      <trkpt lat="47.25514" lon="-1.6124">
        <ele>39.7671204</ele>
        <time>2016-10-25T08:44:27Z</time>
      </trkpt>
      <trkpt lat="47.25515" lon="-1.61236">
        <ele>39.6847649</ele>
        <time>2016-10-25T08:44:30Z</time>
      </trkpt>
      <trkpt lat="47.25516" lon="-1.61233">
        <ele>39.6027489</ele>
        <time>2016-10-25T08:44:32Z</time>
      </trkpt>
      <trkpt lat="47.25518" lon="-1.61229">
        <ele>39.5196953</ele>
        <time>2016-10-25T08:44:35Z</time>
      </trkpt>
      <trkpt lat="47.25519" lon="-1.61223">
        <ele>39.4244003</ele>
        <time>2016-10-25T08:44:38Z</time>
      </trkpt>
      <trkpt lat="47.2552" lon="-1.6122">
        <ele>39.3247452</ele>
        <time>2016-10-25T08:44:40Z</time>
      </trkpt>
      <trkpt lat="47.25522" lon="-1.61218">
        <ele>39.2356987</ele>
        <time>2016-10-25T08:44:43Z</time>
      </trkpt>
      <trkpt lat="47.25527" lon="-1.6122">
        <ele>39.1622086</ele>
        <time>2016-10-25T08:44:46Z</time>
      </trkpt>
      <trkpt lat="47.2553" lon="-1.61222">
        <ele>39.10923</ele>
        <time>2016-10-25T08:44:48Z</time>
      </trkpt>
      <trkpt lat="47.25534" lon="-1.61221">
        <ele>39.0756798</ele>
        <time>2016-10-25T08:44:51Z</time>
      </trkpt>
      <trkpt lat="47.25539" lon="-1.61221">
        <ele>39.0508995</ele>
        <time>2016-10-25T08:44:54Z</time>
      </trkpt>
      <trkpt lat="47.25542" lon="-1.61223">
        <ele>39.0395584</ele>
        <time>2016-10-25T08:44:56Z</time>
      </trkpt>
      <trkpt lat="47.25545" lon="-1.61226">
        <ele>39.0321426</ele>
        <time>2016-10-25T08:44:59Z</time>
      </trkpt>
      <trkpt lat="47.25547" lon="-1.61227">
        <ele>39.0255966</ele>
        <time>2016-10-25T08:45:01Z</time>
      </trkpt>
      <trkpt lat="47.25549" lon="-1.61228">
        <ele>39.0261841</ele>
        <time>2016-10-25T08:45:03Z</time>
      </trkpt>
      <trkpt lat="47.25554" lon="-1.61229">
        <ele>39.0281448</ele>
        <time>2016-10-25T08:45:06Z</time>
      </trkpt>
      <trkpt lat="47.25556" lon="-1.6123">
        <ele>39.0273018</ele>
        <time>2016-10-25T08:45:08Z</time>
      </trkpt>
      <trkpt lat="47.25559" lon="-1.61233">
        <ele>39.0280533</ele>
        <time>2016-10-25T08:45:11Z</time>
      </trkpt>
      <trkpt lat="47.25563" lon="-1.61235">
        <ele>39.0247688</ele>
        <time>2016-10-25T08:45:14Z</time>
      </trkpt>
      <trkpt lat="47.25567" lon="-1.61238">
        <ele>39.0202904</ele>
        <time>2016-10-25T08:45:17Z</time>
      </trkpt>
      <trkpt lat="47.25572" lon="-1.61239">
        <ele>39.0171089</ele>
        <time>2016-10-25T08:45:20Z</time>
      </trkpt>
      <trkpt lat="47.25576" lon="-1.61239">
        <ele>39.0059586</ele>
        <time>2016-10-25T08:45:22Z</time>
      </trkpt>
      <trkpt lat="47.25581" lon="-1.61241">
        <ele>38.9826851</ele>
        <time>2016-10-25T08:45:25Z</time>
      </trkpt>
      <trkpt lat="47.25584" lon="-1.61242">
        <ele>38.9595108</ele>
        <time>2016-10-25T08:45:27Z</time>
      </trkpt>
      <trkpt lat="47.25588" lon="-1.61241">
        <ele>38.9547806</ele>
        <time>2016-10-25T08:45:30Z</time>
      </trkpt>
      <trkpt lat="47.25591" lon="-1.61241">
        <ele>38.9659424</ele>
        <time>2016-10-25T08:45:32Z</time>
      </trkpt>
      <trkpt lat="47.25596" lon="-1.61242">
        <ele>39.0095291</ele>
        <time>2016-10-25T08:45:35Z</time>
      </trkpt>
      <trkpt lat="47.25599" lon="-1.61241">
        <ele>39.072731</ele>
        <time>2016-10-25T08:45:38Z</time>
      </trkpt>
      <trkpt lat="47.25602" lon="-1.61241">
        <ele>39.1462936</ele>
        <time>2016-10-25T08:45:40Z</time>
      </trkpt>
      <trkpt lat="47.25605" lon="-1.61242">
        <ele>39.2188187</ele>
        <time>2016-10-25T08:45:42Z</time>
      </trkpt>
      <trkpt lat="47.25607" lon="-1.61242">
        <ele>39.294178</ele>
        <time>2016-10-25T08:45:44Z</time>
      </trkpt>
      <trkpt lat="47.2561" lon="-1.61243">
        <ele>39.360775</ele>
        <time>2016-10-25T08:45:47Z</time>
      </trkpt>
      <trkpt lat="47.25612" lon="-1.61243">
        <ele>39.4232178</ele>
        <time>2016-10-25T08:45:49Z</time>
      </trkpt>
      <trkpt lat="47.25615" lon="-1.61243">
        <ele>39.4859848</ele>
        <time>2016-10-25T08:45:51Z</time>
      </trkpt>
      <trkpt lat="47.25617" lon="-1.61243">
        <ele>39.5448112</ele>
        <time>2016-10-25T08:45:53Z</time>
      </trkpt>
      <trkpt lat="47.2562" lon="-1.61244">
        <ele>39.6070023</ele>
        <time>2016-10-25T08:45:56Z</time>
      </trkpt>
      <trkpt lat="47.25623" lon="-1.61244">
        <ele>39.6698532</ele>
        <time>2016-10-25T08:45:58Z</time>
      </trkpt>
      <trkpt lat="47.25628" lon="-1.61246">
        <ele>39.753746</ele>
        <time>2016-10-25T08:46:01Z</time>
      </trkpt>
      <trkpt lat="47.25632" lon="-1.61246">
        <ele>39.8466721</ele>
        <time>2016-10-25T08:46:04Z</time>
      </trkpt>
      <trkpt lat="47.25635" lon="-1.61244">
        <ele>39.9298553</ele>
        <time>2016-10-25T08:46:07Z</time>
      </trkpt>
      <trkpt lat="47.25638" lon="-1.61238">
        <ele>39.976078</ele>
        <time>2016-10-25T08:46:10Z</time>
      </trkpt>
      <trkpt lat="47.25639" lon="-1.61232">
        <ele>39.9825287</ele>
        <time>2016-10-25T08:46:13Z</time>
      </trkpt>
      <trkpt lat="47.25642" lon="-1.61226">
        <ele>39.9348335</ele>
        <time>2016-10-25T08:46:16Z</time>
      </trkpt>
      <trkpt lat="47.25644" lon="-1.61223">
        <ele>39.8550529</ele>
        <time>2016-10-25T08:46:18Z</time>
      </trkpt>
      <trkpt lat="47.25645" lon="-1.61219">
        <ele>39.7532234</ele>
        <time>2016-10-25T08:46:21Z</time>
      </trkpt>
      <trkpt lat="47.25647" lon="-1.61216">
        <ele>39.660511</ele>
        <time>2016-10-25T08:46:23Z</time>
      </trkpt>
      <trkpt lat="47.2565" lon="-1.61212">
        <ele>39.5743065</ele>
        <time>2016-10-25T08:46:26Z</time>
      </trkpt>
      <trkpt lat="47.25653" lon="-1.61207">
        <ele>39.4887466</ele>
        <time>2016-10-25T08:46:29Z</time>
      </trkpt>
      <trkpt lat="47.25657" lon="-1.61204">
        <ele>39.4033127</ele>
        <time>2016-10-25T08:46:32Z</time>
      </trkpt>
      <trkpt lat="47.25659" lon="-1.61201">
        <ele>39.32687</ele>
        <time>2016-10-25T08:46:34Z</time>
      </trkpt>
      <trkpt lat="47.25661" lon="-1.61199">
        <ele>39.2483177</ele>
        <time>2016-10-25T08:46:36Z</time>
      </trkpt>
      <trkpt lat="47.25661" lon="-1.61196">
        <ele>39.1710129</ele>
        <time>2016-10-25T08:46:38Z</time>
      </trkpt>
      <trkpt lat="47.25663" lon="-1.61193">
        <ele>39.0975342</ele>
        <time>2016-10-25T08:46:40Z</time>
      </trkpt>
      <trkpt lat="47.25665" lon="-1.6119">
        <ele>39.0147285</ele>
        <time>2016-10-25T08:46:43Z</time>
      </trkpt>
      <trkpt lat="47.25668" lon="-1.61186">
        <ele>38.9165955</ele>
        <time>2016-10-25T08:46:46Z</time>
      </trkpt>
      <trkpt lat="47.25671" lon="-1.61183">
        <ele>38.8088875</ele>
        <time>2016-10-25T08:46:48Z</time>
      </trkpt>
      <trkpt lat="47.25674" lon="-1.61179">
        <ele>38.6909866</ele>
        <time>2016-10-25T08:46:51Z</time>
      </trkpt>
      <trkpt lat="47.25676" lon="-1.61175">
        <ele>38.5614777</ele>
        <time>2016-10-25T08:46:54Z</time>
      </trkpt>
      <trkpt lat="47.25679" lon="-1.61171">
        <ele>38.4250412</ele>
        <time>2016-10-25T08:46:57Z</time>
      </trkpt>
      <trkpt lat="47.2568" lon="-1.61168">
        <ele>38.2961044</ele>
        <time>2016-10-25T08:46:59Z</time>
      </trkpt>
      <trkpt lat="47.25681" lon="-1.61165">
        <ele>38.1830673</ele>
        <time>2016-10-25T08:47:01Z</time>
      </trkpt>
      <trkpt lat="47.25684" lon="-1.61162">
        <ele>38.1002541</ele>
        <time>2016-10-25T08:47:04Z</time>
      </trkpt>
      <trkpt lat="47.25685" lon="-1.6116">
        <ele>38.0500755</ele>
        <time>2016-10-25T08:47:06Z</time>
      </trkpt>
      <trkpt lat="47.25687" lon="-1.61157">
        <ele>38.0338135</ele>
        <time>2016-10-25T08:47:08Z</time>
      </trkpt>
      <trkpt lat="47.25689" lon="-1.61153">
        <ele>38.0427856</ele>
        <time>2016-10-25T08:47:11Z</time>
      </trkpt>
      <trkpt lat="47.25691" lon="-1.61151">
        <ele>38.0641975</ele>
        <time>2016-10-25T08:47:13Z</time>
      </trkpt>
      <trkpt lat="47.25693" lon="-1.61147">
        <ele>38.0887337</ele>
        <time>2016-10-25T08:47:15Z</time>
      </trkpt>
      <trkpt lat="47.25697" lon="-1.61142">
        <ele>38.1230965</ele>
        <time>2016-10-25T08:47:18Z</time>
      </trkpt>
      <trkpt lat="47.25699" lon="-1.6114">
        <ele>38.1610031</ele>
        <time>2016-10-25T08:47:20Z</time>
      </trkpt>
      <trkpt lat="47.257" lon="-1.61138">
        <ele>38.1989517</ele>
        <time>2016-10-25T08:47:22Z</time>
      </trkpt>
      <trkpt lat="47.25702" lon="-1.61135">
        <ele>38.2400284</ele>
        <time>2016-10-25T08:47:25Z</time>
      </trkpt>
      <trkpt lat="47.25705" lon="-1.61132">
        <ele>38.2867889</ele>
        <time>2016-10-25T08:47:28Z</time>
      </trkpt>
      <trkpt lat="47.25708" lon="-1.61127">
        <ele>38.3380775</ele>
        <time>2016-10-25T08:47:31Z</time>
      </trkpt>
      <trkpt lat="47.25711" lon="-1.61123">
        <ele>38.4011841</ele>
        <time>2016-10-25T08:47:34Z</time>
      </trkpt>
      <trkpt lat="47.25713" lon="-1.6112">
        <ele>38.4698105</ele>
        <time>2016-10-25T08:47:36Z</time>
      </trkpt>
      <trkpt lat="47.25713" lon="-1.61116">
        <ele>38.5418205</ele>
        <time>2016-10-25T08:47:38Z</time>
      </trkpt>
      <trkpt lat="47.25712" lon="-1.61112">
        <ele>38.6082153</ele>
        <time>2016-10-25T08:47:40Z</time>
      </trkpt>
      <trkpt lat="47.25712" lon="-1.61105">
        <ele>38.6755791</ele>
        <time>2016-10-25T08:47:43Z</time>
      </trkpt>
      <trkpt lat="47.25711" lon="-1.61098">
        <ele>38.738884</ele>
        <time>2016-10-25T08:47:46Z</time>
      </trkpt>
      <trkpt lat="47.25711" lon="-1.61093">
        <ele>38.8029099</ele>
        <time>2016-10-25T08:47:49Z</time>
      </trkpt>
      <trkpt lat="47.2571" lon="-1.61089">
        <ele>38.8598442</ele>
        <time>2016-10-25T08:47:51Z</time>
      </trkpt>
      <trkpt lat="47.25708" lon="-1.61085">
        <ele>38.9098816</ele>
        <time>2016-10-25T08:47:54Z</time>
      </trkpt>
      <trkpt lat="47.25705" lon="-1.6108">
        <ele>38.9359512</ele>
        <time>2016-10-25T08:47:57Z</time>
      </trkpt>
      <trkpt lat="47.25705" lon="-1.61077">
        <ele>38.9471245</ele>
        <time>2016-10-25T08:47:59Z</time>
      </trkpt>
      <trkpt lat="47.25704" lon="-1.61073">
        <ele>38.9470215</ele>
        <time>2016-10-25T08:48:02Z</time>
      </trkpt>
      <trkpt lat="47.25703" lon="-1.61067">
        <ele>38.9431648</ele>
        <time>2016-10-25T08:48:05Z</time>
      </trkpt>
      <trkpt lat="47.25702" lon="-1.61063">
        <ele>38.942131</ele>
        <time>2016-10-25T08:48:08Z</time>
      </trkpt>
      <trkpt lat="47.25702" lon="-1.61057">
        <ele>38.953537</ele>
        <time>2016-10-25T08:48:11Z</time>
      </trkpt>
      <trkpt lat="47.25701" lon="-1.61055">
        <ele>38.9677391</ele>
        <time>2016-10-25T08:48:13Z</time>
      </trkpt>
      <trkpt lat="47.25701" lon="-1.61049">
        <ele>38.9882889</ele>
        <time>2016-10-25T08:48:16Z</time>
      </trkpt>
      <trkpt lat="47.257" lon="-1.61042">
        <ele>39.0175552</ele>
        <time>2016-10-25T08:48:19Z</time>
      </trkpt>
      <trkpt lat="47.25698" lon="-1.6104">
        <ele>39.0530014</ele>
        <time>2016-10-25T08:48:21Z</time>
      </trkpt>
      <trkpt lat="47.25694" lon="-1.61038">
        <ele>39.1007957</ele>
        <time>2016-10-25T08:48:24Z</time>
      </trkpt>
      <trkpt lat="47.25692" lon="-1.61035">
        <ele>39.1567917</ele>
        <time>2016-10-25T08:48:26Z</time>
      </trkpt>
      <trkpt lat="47.25691" lon="-1.61029">
        <ele>39.2260132</ele>
        <time>2016-10-25T08:48:29Z</time>
      </trkpt>
      <trkpt lat="47.25687" lon="-1.61025">
        <ele>39.3175964</ele>
        <time>2016-10-25T08:48:32Z</time>
      </trkpt>
      <trkpt lat="47.25685" lon="-1.6102">
        <ele>39.4305763</ele>
        <time>2016-10-25T08:48:35Z</time>
      </trkpt>
      <trkpt lat="47.25684" lon="-1.61018">
        <ele>39.5433731</ele>
        <time>2016-10-25T08:48:37Z</time>
      </trkpt>
      <trkpt lat="47.25683" lon="-1.61016">
        <ele>39.6585464</ele>
        <time>2016-10-25T08:48:39Z</time>
      </trkpt>
      <trkpt lat="47.25683" lon="-1.61013">
        <ele>39.7676353</ele>
        <time>2016-10-25T08:48:42Z</time>
      </trkpt>
      <trkpt lat="47.25682" lon="-1.61011">
        <ele>39.8565826</ele>
        <time>2016-10-25T08:48:45Z</time>
      </trkpt>
      <trkpt lat="47.25681" lon="-1.61009">
        <ele>39.9396744</ele>
        <time>2016-10-25T08:48:48Z</time>
      </trkpt>
      <trkpt lat="47.25682" lon="-1.61007">
        <ele>40.0057602</ele>
        <time>2016-10-25T08:48:51Z</time>
      </trkpt>
      <trkpt lat="47.25684" lon="-1.61005">
        <ele>40.0478745</ele>
        <time>2016-10-25T08:48:53Z</time>
      </trkpt>
      <trkpt lat="47.25684" lon="-1.61004">
        <ele>40.073925</ele>
        <time>2016-10-25T08:48:55Z</time>
      </trkpt>
      <trkpt lat="47.25685" lon="-1.61002">
        <ele>40.0925903</ele>
        <time>2016-10-25T08:48:58Z</time>
      </trkpt>
      <trkpt lat="47.25686" lon="-1.61001">
        <ele>40.0805588</ele>
        <time>2016-10-25T08:49:00Z</time>
      </trkpt>
      <trkpt lat="47.25687" lon="-1.60999">
        <ele>40.06493</ele>
        <time>2016-10-25T08:49:02Z</time>
      </trkpt>
      <trkpt lat="47.25688" lon="-1.60996">
        <ele>40.0648689</ele>
        <time>2016-10-25T08:49:04Z</time>
      </trkpt>
      <trkpt lat="47.25688" lon="-1.60991">
        <ele>40.0864487</ele>
        <time>2016-10-25T08:49:06Z</time>
      </trkpt>
      <trkpt lat="47.25688" lon="-1.60987">
        <ele>40.1205635</ele>
        <time>2016-10-25T08:49:08Z</time>
      </trkpt>
      <trkpt lat="47.25687" lon="-1.60984">
        <ele>40.1778564</ele>
        <time>2016-10-25T08:49:11Z</time>
      </trkpt>
      <trkpt lat="47.25685" lon="-1.60982">
        <ele>40.2691193</ele>
        <time>2016-10-25T08:49:14Z</time>
      </trkpt>
      <trkpt lat="47.25683" lon="-1.60981">
        <ele>40.3785019</ele>
        <time>2016-10-25T08:49:16Z</time>
      </trkpt>
      <trkpt lat="47.25682" lon="-1.6098">
        <ele>40.479351</ele>
        <time>2016-10-25T08:49:18Z</time>
      </trkpt>
      <trkpt lat="47.25681" lon="-1.60977">
        <ele>40.5915909</ele>
        <time>2016-10-25T08:49:21Z</time>
      </trkpt>
      <trkpt lat="47.2568" lon="-1.60976">
        <ele>40.7013435</ele>
        <time>2016-10-25T08:49:23Z</time>
      </trkpt>
      <trkpt lat="47.25677" lon="-1.60972">
        <ele>40.8273201</ele>
        <time>2016-10-25T08:49:26Z</time>
      </trkpt>
      <trkpt lat="47.25676" lon="-1.60969">
        <ele>40.9581528</ele>
        <time>2016-10-25T08:49:29Z</time>
      </trkpt>
      <trkpt lat="47.25676" lon="-1.60968">
        <ele>41.0855103</ele>
        <time>2016-10-25T08:49:32Z</time>
      </trkpt>
      <trkpt lat="47.25674" lon="-1.60968">
        <ele>41.193573</ele>
        <time>2016-10-25T08:49:34Z</time>
      </trkpt>
      <trkpt lat="47.25672" lon="-1.60967">
        <ele>41.3177605</ele>
        <time>2016-10-25T08:49:37Z</time>
      </trkpt>
      <trkpt lat="47.25669" lon="-1.60964">
        <ele>41.4453201</ele>
        <time>2016-10-25T08:49:40Z</time>
      </trkpt>
      <trkpt lat="47.25666" lon="-1.6096">
        <ele>41.5845757</ele>
        <time>2016-10-25T08:49:42Z</time>
      </trkpt>
      <trkpt lat="47.25661" lon="-1.60956">
        <ele>41.7504234</ele>
        <time>2016-10-25T08:49:45Z</time>
      </trkpt>
      <trkpt lat="47.2566" lon="-1.60957">
        <ele>41.9084435</ele>
        <time>2016-10-25T08:49:48Z</time>
      </trkpt>
      <trkpt lat="47.25658" lon="-1.60958">
        <ele>42.0395012</ele>
        <time>2016-10-25T08:49:50Z</time>
      </trkpt>
      <trkpt lat="47.25656" lon="-1.60957">
        <ele>42.1315308</ele>
        <time>2016-10-25T08:49:52Z</time>
      </trkpt>
      <trkpt lat="47.25655" lon="-1.60952">
        <ele>42.2099762</ele>
        <time>2016-10-25T08:49:55Z</time>
      </trkpt>
      <trkpt lat="47.25655" lon="-1.60947">
        <ele>42.2755203</ele>
        <time>2016-10-25T08:49:58Z</time>
      </trkpt>
      <trkpt lat="47.25656" lon="-1.60942">
        <ele>42.3556366</ele>
        <time>2016-10-25T08:50:01Z</time>
      </trkpt>
      <trkpt lat="47.25655" lon="-1.60939">
        <ele>42.4500351</ele>
        <time>2016-10-25T08:50:03Z</time>
      </trkpt>
      <trkpt lat="47.25653" lon="-1.60934">
        <ele>42.557579</ele>
        <time>2016-10-25T08:50:06Z</time>
      </trkpt>
      <trkpt lat="47.2565" lon="-1.60926">
        <ele>42.6828232</ele>
        <time>2016-10-25T08:50:09Z</time>
      </trkpt>
      <trkpt lat="47.25647" lon="-1.60921">
        <ele>42.8166885</ele>
        <time>2016-10-25T08:50:12Z</time>
      </trkpt>
      <trkpt lat="47.25645" lon="-1.60917">
        <ele>42.9572906</ele>
        <time>2016-10-25T08:50:14Z</time>
      </trkpt>
      <trkpt lat="47.25645" lon="-1.60911">
        <ele>43.0871201</ele>
        <time>2016-10-25T08:50:17Z</time>
      </trkpt>
      <trkpt lat="47.25645" lon="-1.60906">
        <ele>43.2000237</ele>
        <time>2016-10-25T08:50:20Z</time>
      </trkpt>
      <trkpt lat="47.25644" lon="-1.60903">
        <ele>43.2745514</ele>
        <time>2016-10-25T08:50:22Z</time>
      </trkpt>
      <trkpt lat="47.25643" lon="-1.60899">
        <ele>43.327858</ele>
        <time>2016-10-25T08:50:24Z</time>
      </trkpt>
      <trkpt lat="47.25641" lon="-1.60893">
        <ele>43.3720932</ele>
        <time>2016-10-25T08:50:27Z</time>
      </trkpt>
      <trkpt lat="47.25641" lon="-1.60888">
        <ele>43.4165764</ele>
        <time>2016-10-25T08:50:30Z</time>
      </trkpt>
      <trkpt lat="47.25642" lon="-1.60885">
        <ele>43.4540062</ele>
        <time>2016-10-25T08:50:32Z</time>
      </trkpt>
      <trkpt lat="47.25642" lon="-1.6088">
        <ele>43.4916611</ele>
        <time>2016-10-25T08:50:35Z</time>
      </trkpt>
      <trkpt lat="47.25643" lon="-1.60874">
        <ele>43.5257797</ele>
        <time>2016-10-25T08:50:38Z</time>
      </trkpt>
      <trkpt lat="47.25643" lon="-1.60869">
        <ele>43.5526924</ele>
        <time>2016-10-25T08:50:41Z</time>
      </trkpt>
      <trkpt lat="47.25644" lon="-1.60868">
        <ele>43.5673294</ele>
        <time>2016-10-25T08:50:43Z</time>
      </trkpt>
      <trkpt lat="47.25647" lon="-1.6087">
        <ele>43.5664825</ele>
        <time>2016-10-25T08:50:45Z</time>
      </trkpt>
      <trkpt lat="47.2565" lon="-1.60871">
        <ele>43.5398598</ele>
        <time>2016-10-25T08:50:48Z</time>
      </trkpt>
      <trkpt lat="47.25652" lon="-1.60873">
        <ele>43.4995804</ele>
        <time>2016-10-25T08:50:50Z</time>
      </trkpt>
      <trkpt lat="47.25653" lon="-1.60875">
        <ele>43.4413795</ele>
        <time>2016-10-25T08:50:52Z</time>
      </trkpt>
      <trkpt lat="47.25656" lon="-1.60877">
        <ele>43.374897</ele>
        <time>2016-10-25T08:50:55Z</time>
      </trkpt>
      <trkpt lat="47.25658" lon="-1.60878">
        <ele>43.3122826</ele>
        <time>2016-10-25T08:50:57Z</time>
      </trkpt>
      <trkpt lat="47.25661" lon="-1.60881">
        <ele>43.2554245</ele>
        <time>2016-10-25T08:51:00Z</time>
      </trkpt>
      <trkpt lat="47.25662" lon="-1.60884">
        <ele>43.1985245</ele>
        <time>2016-10-25T08:51:02Z</time>
      </trkpt>
      <trkpt lat="47.25665" lon="-1.60889">
        <ele>43.1420975</ele>
        <time>2016-10-25T08:51:05Z</time>
      </trkpt>
      <trkpt lat="47.25666" lon="-1.60892">
        <ele>43.0923843</ele>
        <time>2016-10-25T08:51:07Z</time>
      </trkpt>
      <trkpt lat="47.25669" lon="-1.60895">
        <ele>43.0233002</ele>
        <time>2016-10-25T08:51:10Z</time>
      </trkpt>
      <trkpt lat="47.25673" lon="-1.60897">
        <ele>42.9280968</ele>
        <time>2016-10-25T08:51:13Z</time>
      </trkpt>
      <trkpt lat="47.25675" lon="-1.60899">
        <ele>42.8224869</ele>
        <time>2016-10-25T08:51:15Z</time>
      </trkpt>
      <trkpt lat="47.25678" lon="-1.609">
        <ele>42.6865082</ele>
        <time>2016-10-25T08:51:18Z</time>
      </trkpt>
      <trkpt lat="47.25681" lon="-1.60901">
        <ele>42.5344315</ele>
        <time>2016-10-25T08:51:20Z</time>
      </trkpt>
      <trkpt lat="47.25684" lon="-1.60902">
        <ele>42.3652725</ele>
        <time>2016-10-25T08:51:23Z</time>
      </trkpt>
      <trkpt lat="47.25687" lon="-1.60904">
        <ele>42.2074928</ele>
        <time>2016-10-25T08:51:25Z</time>
      </trkpt>
      <trkpt lat="47.25692" lon="-1.60904">
        <ele>42.0126648</ele>
        <time>2016-10-25T08:51:28Z</time>
      </trkpt>
      <trkpt lat="47.25695" lon="-1.60904">
        <ele>41.8218918</ele>
        <time>2016-10-25T08:51:31Z</time>
      </trkpt>
      <trkpt lat="47.25698" lon="-1.60903">
        <ele>41.6140022</ele>
        <time>2016-10-25T08:51:34Z</time>
      </trkpt>
      <trkpt lat="47.25702" lon="-1.60904">
        <ele>41.4197159</ele>
        <time>2016-10-25T08:51:37Z</time>
      </trkpt>
      <trkpt lat="47.25704" lon="-1.60904">
        <ele>41.2272148</ele>
        <time>2016-10-25T08:51:39Z</time>
      </trkpt>
      <trkpt lat="47.25706" lon="-1.60902">
        <ele>41.0715523</ele>
        <time>2016-10-25T08:51:41Z</time>
      </trkpt>
      <trkpt lat="47.25707" lon="-1.60899">
        <ele>40.9458694</ele>
        <time>2016-10-25T08:51:43Z</time>
      </trkpt>
      <trkpt lat="47.2571" lon="-1.60891">
        <ele>40.8529587</ele>
        <time>2016-10-25T08:51:46Z</time>
      </trkpt>
      <trkpt lat="47.2571" lon="-1.60884">
        <ele>40.8024826</ele>
        <time>2016-10-25T08:51:49Z</time>
      </trkpt>
      <trkpt lat="47.2571" lon="-1.60877">
        <ele>40.8014717</ele>
        <time>2016-10-25T08:51:52Z</time>
      </trkpt>
      <trkpt lat="47.2571" lon="-1.6087">
        <ele>40.8357582</ele>
        <time>2016-10-25T08:51:55Z</time>
      </trkpt>
      <trkpt lat="47.2571" lon="-1.60864">
        <ele>40.8948555</ele>
        <time>2016-10-25T08:51:58Z</time>
      </trkpt>
      <trkpt lat="47.25711" lon="-1.60859">
        <ele>40.9644089</ele>
        <time>2016-10-25T08:52:01Z</time>
      </trkpt>
      <trkpt lat="47.25711" lon="-1.60852">
        <ele>41.0377388</ele>
        <time>2016-10-25T08:52:04Z</time>
      </trkpt>
      <trkpt lat="47.2571" lon="-1.60846">
        <ele>41.1101799</ele>
        <time>2016-10-25T08:52:07Z</time>
      </trkpt>
      <trkpt lat="47.2571" lon="-1.6084">
        <ele>41.1888657</ele>
        <time>2016-10-25T08:52:10Z</time>
      </trkpt>
      <trkpt lat="47.25709" lon="-1.60836">
        <ele>41.2631607</ele>
        <time>2016-10-25T08:52:12Z</time>
      </trkpt>
      <trkpt lat="47.25709" lon="-1.60832">
        <ele>41.3394852</ele>
        <time>2016-10-25T08:52:14Z</time>
      </trkpt>
      <trkpt lat="47.2571" lon="-1.60826">
        <ele>41.4000969</ele>
        <time>2016-10-25T08:52:17Z</time>
      </trkpt>
      <trkpt lat="47.2571" lon="-1.60822">
        <ele>41.4368553</ele>
        <time>2016-10-25T08:52:19Z</time>
      </trkpt>
      <trkpt lat="47.2571" lon="-1.60819">
        <ele>41.450901</ele>
        <time>2016-10-25T08:52:21Z</time>
      </trkpt>
      <trkpt lat="47.25709" lon="-1.60814">
        <ele>41.4597588</ele>
        <time>2016-10-25T08:52:24Z</time>
      </trkpt>
      <trkpt lat="47.25708" lon="-1.60811">
        <ele>41.4656525</ele>
        <time>2016-10-25T08:52:27Z</time>
      </trkpt>
      <trkpt lat="47.25708" lon="-1.60806">
        <ele>41.4763107</ele>
        <time>2016-10-25T08:52:30Z</time>
      </trkpt>
      <trkpt lat="47.25708" lon="-1.608">
        <ele>41.4892197</ele>
        <time>2016-10-25T08:52:33Z</time>
      </trkpt>
      <trkpt lat="47.25708" lon="-1.60797">
        <ele>41.4996872</ele>
        <time>2016-10-25T08:52:36Z</time>
      </trkpt>
      <trkpt lat="47.25708" lon="-1.60793">
        <ele>41.5022621</ele>
        <time>2016-10-25T08:52:38Z</time>
      </trkpt>
      <trkpt lat="47.25708" lon="-1.60788">
        <ele>41.5042381</ele>
        <time>2016-10-25T08:52:41Z</time>
      </trkpt>
      <trkpt lat="47.25709" lon="-1.60783">
        <ele>41.5002937</ele>
        <time>2016-10-25T08:52:43Z</time>
      </trkpt>
      <trkpt lat="47.2571" lon="-1.60776">
        <ele>41.4919357</ele>
        <time>2016-10-25T08:52:46Z</time>
      </trkpt>
      <trkpt lat="47.2571" lon="-1.6077">
        <ele>41.4848022</ele>
        <time>2016-10-25T08:52:48Z</time>
      </trkpt>
      <trkpt lat="47.2571" lon="-1.60766">
        <ele>41.4795303</ele>
        <time>2016-10-25T08:52:50Z</time>
      </trkpt>
      <trkpt lat="47.2571" lon="-1.6076">
        <ele>41.4729233</ele>
        <time>2016-10-25T08:52:53Z</time>
      </trkpt>
      <trkpt lat="47.25709" lon="-1.60756">
        <ele>41.4725609</ele>
        <time>2016-10-25T08:52:55Z</time>
      </trkpt>
      <trkpt lat="47.25708" lon="-1.60749">
        <ele>41.4797173</ele>
        <time>2016-10-25T08:52:58Z</time>
      </trkpt>
      <trkpt lat="47.25708" lon="-1.60744">
        <ele>41.4948578</ele>
        <time>2016-10-25T08:53:01Z</time>
      </trkpt>
      <trkpt lat="47.25706" lon="-1.60742">
        <ele>41.5155144</ele>
        <time>2016-10-25T08:53:03Z</time>
      </trkpt>
      <trkpt lat="47.25705" lon="-1.60739">
        <ele>41.5436935</ele>
        <time>2016-10-25T08:53:05Z</time>
      </trkpt>
      <trkpt lat="47.25704" lon="-1.60734">
        <ele>41.5776787</ele>
        <time>2016-10-25T08:53:08Z</time>
      </trkpt>
      <trkpt lat="47.25703" lon="-1.6073">
        <ele>41.6173515</ele>
        <time>2016-10-25T08:53:11Z</time>
      </trkpt>
      <trkpt lat="47.25704" lon="-1.60724">
        <ele>41.6551018</ele>
        <time>2016-10-25T08:53:14Z</time>
      </trkpt>
      <trkpt lat="47.25704" lon="-1.60719">
        <ele>41.6905136</ele>
        <time>2016-10-25T08:53:16Z</time>
      </trkpt>
      <trkpt lat="47.25703" lon="-1.60713">
        <ele>41.7318192</ele>
        <time>2016-10-25T08:53:19Z</time>
      </trkpt>
      <trkpt lat="47.25701" lon="-1.60706">
        <ele>41.7811699</ele>
        <time>2016-10-25T08:53:22Z</time>
      </trkpt>
      <trkpt lat="47.257" lon="-1.607">
        <ele>41.8344803</ele>
        <time>2016-10-25T08:53:25Z</time>
      </trkpt>
      <trkpt lat="47.257" lon="-1.60697">
        <ele>41.8853989</ele>
        <time>2016-10-25T08:53:27Z</time>
      </trkpt>
      <trkpt lat="47.257" lon="-1.60695">
        <ele>41.9332886</ele>
        <time>2016-10-25T08:53:29Z</time>
      </trkpt>
      <trkpt lat="47.25703" lon="-1.60693">
        <ele>41.9606628</ele>
        <time>2016-10-25T08:53:32Z</time>
      </trkpt>
      <trkpt lat="47.25705" lon="-1.60691">
        <ele>41.9648819</ele>
        <time>2016-10-25T08:53:34Z</time>
      </trkpt>
      <trkpt lat="47.25707" lon="-1.60688">
        <ele>41.9524994</ele>
        <time>2016-10-25T08:53:37Z</time>
      </trkpt>
      <trkpt lat="47.25707" lon="-1.60685">
        <ele>41.9412766</ele>
        <time>2016-10-25T08:53:39Z</time>
      </trkpt>
      <trkpt lat="47.25707" lon="-1.60678">
        <ele>41.9345856</ele>
        <time>2016-10-25T08:53:42Z</time>
      </trkpt>
      <trkpt lat="47.25709" lon="-1.60674">
        <ele>41.9318848</ele>
        <time>2016-10-25T08:53:44Z</time>
      </trkpt>
      <trkpt lat="47.25711" lon="-1.6067">
        <ele>41.9287453</ele>
        <time>2016-10-25T08:53:47Z</time>
      </trkpt>
      <trkpt lat="47.25714" lon="-1.6067">
        <ele>41.91605</ele>
        <time>2016-10-25T08:53:49Z</time>
      </trkpt>
      <trkpt lat="47.25717" lon="-1.60673">
        <ele>41.8834915</ele>
        <time>2016-10-25T08:53:52Z</time>
      </trkpt>
      <trkpt lat="47.25718" lon="-1.60675">
        <ele>41.8367805</ele>
        <time>2016-10-25T08:53:54Z</time>
      </trkpt>
      <trkpt lat="47.25719" lon="-1.60679">
        <ele>41.7873917</ele>
        <time>2016-10-25T08:53:57Z</time>
      </trkpt>
      <trkpt lat="47.25723" lon="-1.60682">
        <ele>41.7243118</ele>
        <time>2016-10-25T08:54:00Z</time>
      </trkpt>
      <trkpt lat="47.25725" lon="-1.60685">
        <ele>41.6622391</ele>
        <time>2016-10-25T08:54:03Z</time>
      </trkpt>
      <trkpt lat="47.25727" lon="-1.60687">
        <ele>41.6061478</ele>
        <time>2016-10-25T08:54:05Z</time>
      </trkpt>
      <trkpt lat="47.2573" lon="-1.6069">
        <ele>41.5438538</ele>
        <time>2016-10-25T08:54:08Z</time>
      </trkpt>
      <trkpt lat="47.25732" lon="-1.60693">
        <ele>41.4771461</ele>
        <time>2016-10-25T08:54:10Z</time>
      </trkpt>
      <trkpt lat="47.25735" lon="-1.60696">
        <ele>41.4167442</ele>
        <time>2016-10-25T08:54:13Z</time>
      </trkpt>
      <trkpt lat="47.25737" lon="-1.60697">
        <ele>41.3600693</ele>
        <time>2016-10-25T08:54:15Z</time>
      </trkpt>
      <trkpt lat="47.25741" lon="-1.60701">
        <ele>41.2964478</ele>
        <time>2016-10-25T08:54:18Z</time>
      </trkpt>
      <trkpt lat="47.25744" lon="-1.60704">
        <ele>41.2368164</ele>
        <time>2016-10-25T08:54:20Z</time>
      </trkpt>
      <trkpt lat="47.25747" lon="-1.60707">
        <ele>41.1760254</ele>
        <time>2016-10-25T08:54:23Z</time>
      </trkpt>
      <trkpt lat="47.2575" lon="-1.60708">
        <ele>41.1178513</ele>
        <time>2016-10-25T08:54:26Z</time>
      </trkpt>
      <trkpt lat="47.25753" lon="-1.60709">
        <ele>41.0300102</ele>
        <time>2016-10-25T08:54:29Z</time>
      </trkpt>
      <trkpt lat="47.25755" lon="-1.60709">
        <ele>40.9344788</ele>
        <time>2016-10-25T08:54:31Z</time>
      </trkpt>
      <trkpt lat="47.2576" lon="-1.60711">
        <ele>40.7940178</ele>
        <time>2016-10-25T08:54:34Z</time>
      </trkpt>
      <trkpt lat="47.25766" lon="-1.6071">
        <ele>40.5911713</ele>
        <time>2016-10-25T08:54:37Z</time>
      </trkpt>
      <trkpt lat="47.25771" lon="-1.6071">
        <ele>40.3365173</ele>
        <time>2016-10-25T08:54:40Z</time>
      </trkpt>
      <trkpt lat="47.25776" lon="-1.60709">
        <ele>40.0675507</ele>
        <time>2016-10-25T08:54:43Z</time>
      </trkpt>
      <trkpt lat="47.25779" lon="-1.60709">
        <ele>39.7790909</ele>
        <time>2016-10-25T08:54:46Z</time>
      </trkpt>
      <trkpt lat="47.25784" lon="-1.60708">
        <ele>39.487133</ele>
        <time>2016-10-25T08:54:49Z</time>
      </trkpt>
      <trkpt lat="47.25787" lon="-1.60709">
        <ele>39.2386208</ele>
        <time>2016-10-25T08:54:51Z</time>
      </trkpt>
      <trkpt lat="47.2579" lon="-1.60708">
        <ele>39.0153389</ele>
        <time>2016-10-25T08:54:54Z</time>
      </trkpt>
      <trkpt lat="47.25792" lon="-1.60708">
        <ele>38.8259811</ele>
        <time>2016-10-25T08:54:57Z</time>
      </trkpt>
      <trkpt lat="47.25794" lon="-1.60709">
        <ele>38.6437454</ele>
        <time>2016-10-25T08:55:00Z</time>
      </trkpt>
      <trkpt lat="47.25795" lon="-1.60711">
        <ele>38.501564</ele>
        <time>2016-10-25T08:55:03Z</time>
      </trkpt>
      <trkpt lat="47.25799" lon="-1.60711">
        <ele>38.3478775</ele>
        <time>2016-10-25T08:55:06Z</time>
      </trkpt>
      <trkpt lat="47.258" lon="-1.60712">
        <ele>38.2100105</ele>
        <time>2016-10-25T08:55:08Z</time>
      </trkpt>
      <trkpt lat="47.25806" lon="-1.60712">
        <ele>38.0219193</ele>
        <time>2016-10-25T08:55:11Z</time>
      </trkpt>
      <trkpt lat="47.25811" lon="-1.60711">
        <ele>37.8186913</ele>
        <time>2016-10-25T08:55:13Z</time>
      </trkpt>
      <trkpt lat="47.25815" lon="-1.6071">
        <ele>37.5833244</ele>
        <time>2016-10-25T08:55:16Z</time>
      </trkpt>
      <trkpt lat="47.25819" lon="-1.6071">
        <ele>37.3396149</ele>
        <time>2016-10-25T08:55:19Z</time>
      </trkpt>
      <trkpt lat="47.25822" lon="-1.6071">
        <ele>37.0781364</ele>
        <time>2016-10-25T08:55:22Z</time>
      </trkpt>
      <trkpt lat="47.25825" lon="-1.6071">
        <ele>36.8595314</ele>
        <time>2016-10-25T08:55:24Z</time>
      </trkpt>
      <trkpt lat="47.25826" lon="-1.6071">
        <ele>36.6728821</ele>
        <time>2016-10-25T08:55:27Z</time>
      </trkpt>
      <trkpt lat="47.25829" lon="-1.60709">
        <ele>36.5034676</ele>
        <time>2016-10-25T08:55:30Z</time>
      </trkpt>
      <trkpt lat="47.25832" lon="-1.60708">
        <ele>36.3512688</ele>
        <time>2016-10-25T08:55:32Z</time>
      </trkpt>
      <trkpt lat="47.25835" lon="-1.60707">
        <ele>36.2209053</ele>
        <time>2016-10-25T08:55:35Z</time>
      </trkpt>
      <trkpt lat="47.25839" lon="-1.60706">
        <ele>36.0915756</ele>
        <time>2016-10-25T08:55:38Z</time>
      </trkpt>
      <trkpt lat="47.25845" lon="-1.60707">
        <ele>35.9377136</ele>
        <time>2016-10-25T08:55:41Z</time>
      </trkpt>
      <trkpt lat="47.25849" lon="-1.60707">
        <ele>35.7858353</ele>
        <time>2016-10-25T08:55:44Z</time>
      </trkpt>
      <trkpt lat="47.25851" lon="-1.60706">
        <ele>35.6530457</ele>
        <time>2016-10-25T08:55:46Z</time>
      </trkpt>
      <trkpt lat="47.25854" lon="-1.60706">
        <ele>35.5164566</ele>
        <time>2016-10-25T08:55:48Z</time>
      </trkpt>
      <trkpt lat="47.2586" lon="-1.60704">
        <ele>35.3695679</ele>
        <time>2016-10-25T08:55:51Z</time>
      </trkpt>
      <trkpt lat="47.25863" lon="-1.60702">
        <ele>35.2482834</ele>
        <time>2016-10-25T08:55:53Z</time>
      </trkpt>
      <trkpt lat="47.25867" lon="-1.607">
        <ele>35.1402702</ele>
        <time>2016-10-25T08:55:55Z</time>
      </trkpt>
      <trkpt lat="47.2587" lon="-1.60698">
        <ele>35.0257492</ele>
        <time>2016-10-25T08:55:57Z</time>
      </trkpt>
      <trkpt lat="47.25874" lon="-1.60696">
        <ele>34.9043121</ele>
        <time>2016-10-25T08:56:00Z</time>
      </trkpt>
      <trkpt lat="47.25878" lon="-1.60695">
        <ele>34.7918587</ele>
        <time>2016-10-25T08:56:03Z</time>
      </trkpt>
      <trkpt lat="47.25882" lon="-1.60693">
        <ele>34.6691055</ele>
        <time>2016-10-25T08:56:06Z</time>
      </trkpt>
      <trkpt lat="47.25884" lon="-1.60691">
        <ele>34.5519485</ele>
        <time>2016-10-25T08:56:08Z</time>
      </trkpt>
      <trkpt lat="47.25888" lon="-1.60688">
        <ele>34.428997</ele>
        <time>2016-10-25T08:56:11Z</time>
      </trkpt>
      <trkpt lat="47.2589" lon="-1.60687">
        <ele>34.316658</ele>
        <time>2016-10-25T08:56:14Z</time>
      </trkpt>
      <trkpt lat="47.25893" lon="-1.60684">
        <ele>34.2073555</ele>
        <time>2016-10-25T08:56:17Z</time>
      </trkpt>
      <trkpt lat="47.25897" lon="-1.6068">
        <ele>34.1044579</ele>
        <time>2016-10-25T08:56:20Z</time>
      </trkpt>
      <trkpt lat="47.25901" lon="-1.60674">
        <ele>33.986351</ele>
        <time>2016-10-25T08:56:23Z</time>
      </trkpt>
      <trkpt lat="47.25904" lon="-1.60671">
        <ele>33.8590164</ele>
        <time>2016-10-25T08:56:26Z</time>
      </trkpt>
      <trkpt lat="47.25907" lon="-1.60669">
        <ele>33.7286606</ele>
        <time>2016-10-25T08:56:28Z</time>
      </trkpt>
      <trkpt lat="47.25909" lon="-1.60667">
        <ele>33.5994148</ele>
        <time>2016-10-25T08:56:30Z</time>
      </trkpt>
      <trkpt lat="47.25911" lon="-1.60665">
        <ele>33.484024</ele>
        <time>2016-10-25T08:56:32Z</time>
      </trkpt>
      <trkpt lat="47.25912" lon="-1.60665">
        <ele>33.3912659</ele>
        <time>2016-10-25T08:56:34Z</time>
      </trkpt>
      <trkpt lat="47.25915" lon="-1.60663">
        <ele>33.3200531</ele>
        <time>2016-10-25T08:56:37Z</time>
      </trkpt>
      <trkpt lat="47.25917" lon="-1.60662">
        <ele>33.2580032</ele>
        <time>2016-10-25T08:56:40Z</time>
      </trkpt>
      <trkpt lat="47.25921" lon="-1.60661">
        <ele>33.1898651</ele>
        <time>2016-10-25T08:56:43Z</time>
      </trkpt>
      <trkpt lat="47.25924" lon="-1.6066">
        <ele>33.1055069</ele>
        <time>2016-10-25T08:56:45Z</time>
      </trkpt>
      <trkpt lat="47.2593" lon="-1.60658">
        <ele>32.9870605</ele>
        <time>2016-10-25T08:56:48Z</time>
      </trkpt>
      <trkpt lat="47.25933" lon="-1.60657">
        <ele>32.8612747</ele>
        <time>2016-10-25T08:56:51Z</time>
      </trkpt>
      <trkpt lat="47.25935" lon="-1.60654">
        <ele>32.7546768</ele>
        <time>2016-10-25T08:56:54Z</time>
      </trkpt>
      <trkpt lat="47.25935" lon="-1.60652">
        <ele>32.6869125</ele>
        <time>2016-10-25T08:56:57Z</time>
      </trkpt>
      <trkpt lat="47.25938" lon="-1.60649">
        <ele>32.6381645</ele>
        <time>2016-10-25T08:57:00Z</time>
      </trkpt>
      <trkpt lat="47.25942" lon="-1.60647">
        <ele>32.6178627</ele>
        <time>2016-10-25T08:57:03Z</time>
      </trkpt>
      <trkpt lat="47.25945" lon="-1.60644">
        <ele>32.6105042</ele>
        <time>2016-10-25T08:57:06Z</time>
      </trkpt>
      <trkpt lat="47.25947" lon="-1.60642">
        <ele>32.5942688</ele>
        <time>2016-10-25T08:57:08Z</time>
      </trkpt>
      <trkpt lat="47.2595" lon="-1.60639">
        <ele>32.5670929</ele>
        <time>2016-10-25T08:57:11Z</time>
      </trkpt>
      <trkpt lat="47.25953" lon="-1.60636">
        <ele>32.5367279</ele>
        <time>2016-10-25T08:57:13Z</time>
      </trkpt>
      <trkpt lat="47.25956" lon="-1.60634">
        <ele>32.5154839</ele>
        <time>2016-10-25T08:57:16Z</time>
      </trkpt>
      <trkpt lat="47.25959" lon="-1.60632">
        <ele>32.4950027</ele>
        <time>2016-10-25T08:57:18Z</time>
      </trkpt>
      <trkpt lat="47.25962" lon="-1.60631">
        <ele>32.4529228</ele>
        <time>2016-10-25T08:57:21Z</time>
      </trkpt>
      <trkpt lat="47.25965" lon="-1.6063">
        <ele>32.3961143</ele>
        <time>2016-10-25T08:57:23Z</time>
      </trkpt>
      <trkpt lat="47.25969" lon="-1.6063">
        <ele>32.3145218</ele>
        <time>2016-10-25T08:57:26Z</time>
      </trkpt>
      <trkpt lat="47.25972" lon="-1.6063">
        <ele>32.212059</ele>
        <time>2016-10-25T08:57:28Z</time>
      </trkpt>
      <trkpt lat="47.25975" lon="-1.60629">
        <ele>32.0947685</ele>
        <time>2016-10-25T08:57:30Z</time>
      </trkpt>
      <trkpt lat="47.25979" lon="-1.60629">
        <ele>31.9702549</ele>
        <time>2016-10-25T08:57:33Z</time>
      </trkpt>
      <trkpt lat="47.25982" lon="-1.60629">
        <ele>31.8418217</ele>
        <time>2016-10-25T08:57:35Z</time>
      </trkpt>
      <trkpt lat="47.25985" lon="-1.6063">
        <ele>31.7119541</ele>
        <time>2016-10-25T08:57:38Z</time>
      </trkpt>
      <trkpt lat="47.25987" lon="-1.60631">
        <ele>31.5722771</ele>
        <time>2016-10-25T08:57:40Z</time>
      </trkpt>
      <trkpt lat="47.2599" lon="-1.60632">
        <ele>31.4199409</ele>
        <time>2016-10-25T08:57:43Z</time>
      </trkpt>
      <trkpt lat="47.25991" lon="-1.60633">
        <ele>31.2751656</ele>
        <time>2016-10-25T08:57:45Z</time>
      </trkpt>
      <trkpt lat="47.25993" lon="-1.60634">
        <ele>31.129715</ele>
        <time>2016-10-25T08:57:48Z</time>
      </trkpt>
      <trkpt lat="47.25995" lon="-1.60641">
        <ele>30.9394073</ele>
        <time>2016-10-25T08:58:23Z</time>
      </trkpt>
      <trkpt lat="47.25996" lon="-1.60644">
        <ele>30.7381229</ele>
        <time>2016-10-25T08:58:26Z</time>
      </trkpt>
      <trkpt lat="47.25996" lon="-1.60647">
        <ele>30.5430794</ele>
        <time>2016-10-25T08:58:28Z</time>
      </trkpt>
      <trkpt lat="47.25996" lon="-1.6065">
        <ele>30.3444862</ele>
        <time>2016-10-25T08:58:30Z</time>
      </trkpt>
      <trkpt lat="47.25996" lon="-1.60653">
        <ele>30.1355801</ele>
        <time>2016-10-25T08:58:32Z</time>
      </trkpt>
      <trkpt lat="47.25996" lon="-1.60658">
        <ele>29.9550896</ele>
        <time>2016-10-25T08:58:35Z</time>
      </trkpt>
      <trkpt lat="47.25997" lon="-1.60661">
        <ele>29.779583</ele>
        <time>2016-10-25T08:58:37Z</time>
      </trkpt>
      <trkpt lat="47.25998" lon="-1.60666">
        <ele>29.577795</ele>
        <time>2016-10-25T08:58:40Z</time>
      </trkpt>
      <trkpt lat="47.25999" lon="-1.60669">
        <ele>29.3969307</ele>
        <time>2016-10-25T08:58:42Z</time>
      </trkpt>
      <trkpt lat="47.25999" lon="-1.60673">
        <ele>29.2515564</ele>
        <time>2016-10-25T08:58:44Z</time>
      </trkpt>
      <trkpt lat="47.26" lon="-1.60677">
        <ele>29.1630497</ele>
        <time>2016-10-25T08:58:46Z</time>
      </trkpt>
      <trkpt lat="47.26" lon="-1.6068">
        <ele>29.119854</ele>
        <time>2016-10-25T08:58:48Z</time>
      </trkpt>
      <trkpt lat="47.26" lon="-1.60683">
        <ele>29.1368103</ele>
        <time>2016-10-25T08:58:50Z</time>
      </trkpt>
      <trkpt lat="47.26001" lon="-1.60685">
        <ele>29.168438</ele>
        <time>2016-10-25T08:58:52Z</time>
      </trkpt>
      <trkpt lat="47.26001" lon="-1.60689">
        <ele>29.2043056</ele>
        <time>2016-10-25T08:58:55Z</time>
      </trkpt>
      <trkpt lat="47.26" lon="-1.60692">
        <ele>29.2419167</ele>
        <time>2016-10-25T08:58:58Z</time>
      </trkpt>
      <trkpt lat="47.25999" lon="-1.60695">
        <ele>29.2896938</ele>
        <time>2016-10-25T08:59:00Z</time>
      </trkpt>
      <trkpt lat="47.25998" lon="-1.60698">
        <ele>29.3455296</ele>
        <time>2016-10-25T08:59:02Z</time>
      </trkpt>
      <trkpt lat="47.25997" lon="-1.60702">
        <ele>29.4054012</ele>
        <time>2016-10-25T08:59:05Z</time>
      </trkpt>
      <trkpt lat="47.25997" lon="-1.60704">
        <ele>29.4613132</ele>
        <time>2016-10-25T08:59:07Z</time>
      </trkpt>
      <trkpt lat="47.25998" lon="-1.60708">
        <ele>29.5167656</ele>
        <time>2016-10-25T08:59:10Z</time>
      </trkpt>
      <trkpt lat="47.26002" lon="-1.60708">
        <ele>29.5389709</ele>
        <time>2016-10-25T08:59:13Z</time>
      </trkpt>
      <trkpt lat="47.26004" lon="-1.60706">
        <ele>29.5487919</ele>
        <time>2016-10-25T08:59:15Z</time>
      </trkpt>
      <trkpt lat="47.26005" lon="-1.60704">
        <ele>29.5431919</ele>
        <time>2016-10-25T08:59:18Z</time>
      </trkpt>
      <trkpt lat="47.26007" lon="-1.60703">
        <ele>29.5370789</ele>
        <time>2016-10-25T08:59:21Z</time>
      </trkpt>
      <trkpt lat="47.26009" lon="-1.60702">
        <ele>29.5265656</ele>
        <time>2016-10-25T08:59:23Z</time>
      </trkpt>
      <trkpt lat="47.2601" lon="-1.60702">
        <ele>29.5359592</ele>
        <time>2016-10-25T08:59:26Z</time>
      </trkpt>
      <trkpt lat="47.26011" lon="-1.60701">
        <ele>29.5441132</ele>
        <time>2016-10-25T08:59:28Z</time>
      </trkpt>
      <trkpt lat="47.26014" lon="-1.60698">
        <ele>29.5573483</ele>
        <time>2016-10-25T08:59:31Z</time>
      </trkpt>
      <trkpt lat="47.26017" lon="-1.60697">
        <ele>29.5727291</ele>
        <time>2016-10-25T08:59:34Z</time>
      </trkpt>
      <trkpt lat="47.26018" lon="-1.60697">
        <ele>29.5923519</ele>
        <time>2016-10-25T08:59:36Z</time>
      </trkpt>
      <trkpt lat="47.26021" lon="-1.60698">
        <ele>29.6190548</ele>
        <time>2016-10-25T08:59:39Z</time>
      </trkpt>
      <trkpt lat="47.26023" lon="-1.60699">
        <ele>29.6525631</ele>
        <time>2016-10-25T08:59:41Z</time>
      </trkpt>
      <trkpt lat="47.26026" lon="-1.607">
        <ele>29.6929588</ele>
        <time>2016-10-25T08:59:44Z</time>
      </trkpt>
      <trkpt lat="47.26028" lon="-1.60701">
        <ele>29.73386</ele>
        <time>2016-10-25T08:59:47Z</time>
      </trkpt>
      <trkpt lat="47.2603" lon="-1.60703">
        <ele>29.7723083</ele>
        <time>2016-10-25T08:59:50Z</time>
      </trkpt>
      <trkpt lat="47.26032" lon="-1.60704">
        <ele>29.8060093</ele>
        <time>2016-10-25T08:59:52Z</time>
      </trkpt>
      <trkpt lat="47.26035" lon="-1.60706">
        <ele>29.8430271</ele>
        <time>2016-10-25T08:59:55Z</time>
      </trkpt>
      <trkpt lat="47.26038" lon="-1.60707">
        <ele>29.8771706</ele>
        <time>2016-10-25T08:59:57Z</time>
      </trkpt>
      <trkpt lat="47.2604" lon="-1.60708">
        <ele>29.9097042</ele>
        <time>2016-10-25T08:59:59Z</time>
      </trkpt>
      <trkpt lat="47.26043" lon="-1.60707">
        <ele>29.9458733</ele>
        <time>2016-10-25T09:00:02Z</time>
      </trkpt>
      <trkpt lat="47.26044" lon="-1.60707">
        <ele>29.9795876</ele>
        <time>2016-10-25T09:00:05Z</time>
      </trkpt>
      <trkpt lat="47.26045" lon="-1.60708">
        <ele>30.0048409</ele>
        <time>2016-10-25T09:00:07Z</time>
      </trkpt>
      <trkpt lat="47.26048" lon="-1.60709">
        <ele>30.0293522</ele>
        <time>2016-10-25T09:00:10Z</time>
      </trkpt>
      <trkpt lat="47.2605" lon="-1.60713">
        <ele>30.0508671</ele>
        <time>2016-10-25T09:00:13Z</time>
      </trkpt>
      <trkpt lat="47.26051" lon="-1.60713">
        <ele>30.0685177</ele>
        <time>2016-10-25T09:00:15Z</time>
      </trkpt>
      <trkpt lat="47.26054" lon="-1.60714">
        <ele>30.088007</ele>
        <time>2016-10-25T09:00:18Z</time>
      </trkpt>
      <trkpt lat="47.26057" lon="-1.60715">
        <ele>30.1092529</ele>
        <time>2016-10-25T09:00:20Z</time>
      </trkpt>
      <trkpt lat="47.26059" lon="-1.60717">
        <ele>30.12854</ele>
        <time>2016-10-25T09:00:23Z</time>
      </trkpt>
      <trkpt lat="47.26063" lon="-1.60717">
        <ele>30.1511631</ele>
        <time>2016-10-25T09:00:26Z</time>
      </trkpt>
      <trkpt lat="47.26065" lon="-1.60716">
        <ele>30.1760712</ele>
        <time>2016-10-25T09:00:28Z</time>
      </trkpt>
      <trkpt lat="47.26067" lon="-1.60718">
        <ele>30.1956444</ele>
        <time>2016-10-25T09:00:31Z</time>
      </trkpt>
      <trkpt lat="47.26068" lon="-1.60718">
        <ele>30.2149239</ele>
        <time>2016-10-25T09:00:35Z</time>
      </trkpt>
      <trkpt lat="47.26071" lon="-1.60719">
        <ele>30.2341499</ele>
        <time>2016-10-25T09:00:37Z</time>
      </trkpt>
      <trkpt lat="47.26074" lon="-1.6072">
        <ele>30.248764</ele>
        <time>2016-10-25T09:00:39Z</time>
      </trkpt>
      <trkpt lat="47.26077" lon="-1.60719">
        <ele>30.2649784</ele>
        <time>2016-10-25T09:00:42Z</time>
      </trkpt>
      <trkpt lat="47.26078" lon="-1.60717">
        <ele>30.2878838</ele>
        <time>2016-10-25T09:00:44Z</time>
      </trkpt>
      <trkpt lat="47.26081" lon="-1.60714">
        <ele>30.32131</ele>
        <time>2016-10-25T09:00:47Z</time>
      </trkpt>
      <trkpt lat="47.26084" lon="-1.60713">
        <ele>30.3486748</ele>
        <time>2016-10-25T09:00:49Z</time>
      </trkpt>
      <trkpt lat="47.26085" lon="-1.60713">
        <ele>30.3593082</ele>
        <time>2016-10-25T09:00:52Z</time>
      </trkpt>
      <trkpt lat="47.26089" lon="-1.60712">
        <ele>30.315136</ele>
        <time>2016-10-25T09:00:55Z</time>
      </trkpt>
      <trkpt lat="47.26093" lon="-1.6071">
        <ele>30.2132778</ele>
        <time>2016-10-25T09:00:57Z</time>
      </trkpt>
      <trkpt lat="47.26097" lon="-1.60709">
        <ele>30.044733</ele>
        <time>2016-10-25T09:01:00Z</time>
      </trkpt>
      <trkpt lat="47.261" lon="-1.60707">
        <ele>29.8396358</ele>
        <time>2016-10-25T09:01:02Z</time>
      </trkpt>
      <trkpt lat="47.26102" lon="-1.60707">
        <ele>29.6272373</ele>
        <time>2016-10-25T09:01:05Z</time>
      </trkpt>
      <trkpt lat="47.26104" lon="-1.60707">
        <ele>29.4349422</ele>
        <time>2016-10-25T09:01:07Z</time>
      </trkpt>
      <trkpt lat="47.26108" lon="-1.60708">
        <ele>29.2404594</ele>
        <time>2016-10-25T09:01:10Z</time>
      </trkpt>
      <trkpt lat="47.2611" lon="-1.60708">
        <ele>29.0717812</ele>
        <time>2016-10-25T09:01:12Z</time>
      </trkpt>
      <trkpt lat="47.26114" lon="-1.60708">
        <ele>28.8958797</ele>
        <time>2016-10-25T09:01:15Z</time>
      </trkpt>
      <trkpt lat="47.26117" lon="-1.60708">
        <ele>28.6974087</ele>
        <time>2016-10-25T09:01:18Z</time>
      </trkpt>
      <trkpt lat="47.26123" lon="-1.60707">
        <ele>28.4413204</ele>
        <time>2016-10-25T09:01:21Z</time>
      </trkpt>
      <trkpt lat="47.26129" lon="-1.60707">
        <ele>28.1597443</ele>
        <time>2016-10-25T09:01:24Z</time>
      </trkpt>
      <trkpt lat="47.26133" lon="-1.60707">
        <ele>27.8576775</ele>
        <time>2016-10-25T09:01:27Z</time>
      </trkpt>
      <trkpt lat="47.26135" lon="-1.60707">
        <ele>27.5672798</ele>
        <time>2016-10-25T09:01:29Z</time>
      </trkpt>
      <trkpt lat="47.2614" lon="-1.60705">
        <ele>27.2420139</ele>
        <time>2016-10-25T09:01:32Z</time>
      </trkpt>
      <trkpt lat="47.26143" lon="-1.60705">
        <ele>26.9501648</ele>
        <time>2016-10-25T09:01:35Z</time>
      </trkpt>
      <trkpt lat="47.26147" lon="-1.60707">
        <ele>26.7055969</ele>
        <time>2016-10-25T09:01:38Z</time>
      </trkpt>
      <trkpt lat="47.26147" lon="-1.60708">
        <ele>26.519558</ele>
        <time>2016-10-25T09:01:40Z</time>
      </trkpt>
      <trkpt lat="47.26151" lon="-1.60711">
        <ele>26.3457336</ele>
        <time>2016-10-25T09:01:43Z</time>
      </trkpt>
      <trkpt lat="47.26154" lon="-1.60711">
        <ele>26.2225189</ele>
        <time>2016-10-25T09:01:45Z</time>
      </trkpt>
      <trkpt lat="47.26155" lon="-1.60712">
        <ele>26.1347504</ele>
        <time>2016-10-25T09:01:47Z</time>
      </trkpt>
      <trkpt lat="47.26159" lon="-1.60713">
        <ele>26.0471077</ele>
        <time>2016-10-25T09:01:50Z</time>
      </trkpt>
      <trkpt lat="47.26162" lon="-1.60715">
        <ele>25.9286442</ele>
        <time>2016-10-25T09:01:53Z</time>
      </trkpt>
      <trkpt lat="47.26164" lon="-1.60717">
        <ele>25.846283</ele>
        <time>2016-10-25T09:01:55Z</time>
      </trkpt>
      <trkpt lat="47.26167" lon="-1.6072">
        <ele>25.8033543</ele>
        <time>2016-10-25T09:01:58Z</time>
      </trkpt>
      <trkpt lat="47.2617" lon="-1.60721">
        <ele>25.7640228</ele>
        <time>2016-10-25T09:02:00Z</time>
      </trkpt>
      <trkpt lat="47.26174" lon="-1.6072">
        <ele>25.686367</ele>
        <time>2016-10-25T09:02:03Z</time>
      </trkpt>
      <trkpt lat="47.26176" lon="-1.6072">
        <ele>25.6253166</ele>
        <time>2016-10-25T09:02:05Z</time>
      </trkpt>
      <trkpt lat="47.26179" lon="-1.60721">
        <ele>25.5304642</ele>
        <time>2016-10-25T09:02:08Z</time>
      </trkpt>
      <trkpt lat="47.26182" lon="-1.6072">
        <ele>25.3726559</ele>
        <time>2016-10-25T09:02:10Z</time>
      </trkpt>
      <trkpt lat="47.26187" lon="-1.60718">
        <ele>25.1367741</ele>
        <time>2016-10-25T09:02:13Z</time>
      </trkpt>
      <trkpt lat="47.26191" lon="-1.60717">
        <ele>24.9221134</ele>
        <time>2016-10-25T09:02:15Z</time>
      </trkpt>
      <trkpt lat="47.26194" lon="-1.60716">
        <ele>24.6504211</ele>
        <time>2016-10-25T09:02:18Z</time>
      </trkpt>
      <trkpt lat="47.26197" lon="-1.60715">
        <ele>24.3485584</ele>
        <time>2016-10-25T09:02:21Z</time>
      </trkpt>
      <trkpt lat="47.26201" lon="-1.60716">
        <ele>24.0612869</ele>
        <time>2016-10-25T09:02:24Z</time>
      </trkpt>
      <trkpt lat="47.26204" lon="-1.60716">
        <ele>23.8478317</ele>
        <time>2016-10-25T09:02:26Z</time>
      </trkpt>
      <trkpt lat="47.26206" lon="-1.60716">
        <ele>23.6639671</ele>
        <time>2016-10-25T09:02:28Z</time>
      </trkpt>
      <trkpt lat="47.2621" lon="-1.60717">
        <ele>23.5023499</ele>
        <time>2016-10-25T09:02:31Z</time>
      </trkpt>
      <trkpt lat="47.26212" lon="-1.60718">
        <ele>23.3848324</ele>
        <time>2016-10-25T09:02:34Z</time>
      </trkpt>
      <trkpt lat="47.26213" lon="-1.6072">
        <ele>23.3375664</ele>
        <time>2016-10-25T09:02:36Z</time>
      </trkpt>
      <trkpt lat="47.26217" lon="-1.60725">
        <ele>23.3684883</ele>
        <time>2016-10-25T09:02:39Z</time>
      </trkpt>
      <trkpt lat="47.2622" lon="-1.60729">
        <ele>23.4665031</ele>
        <time>2016-10-25T09:02:41Z</time>
      </trkpt>
      <trkpt lat="47.26223" lon="-1.6073">
        <ele>23.6029282</ele>
        <time>2016-10-25T09:02:44Z</time>
      </trkpt>
      <trkpt lat="47.26225" lon="-1.60731">
        <ele>23.7503204</ele>
        <time>2016-10-25T09:02:46Z</time>
      </trkpt>
      <trkpt lat="47.26226" lon="-1.60732">
        <ele>23.8721313</ele>
        <time>2016-10-25T09:02:49Z</time>
      </trkpt>
      <trkpt lat="47.26228" lon="-1.60732">
        <ele>23.9215508</ele>
        <time>2016-10-25T09:02:51Z</time>
      </trkpt>
      <trkpt lat="47.2623" lon="-1.60732">
        <ele>23.8995857</ele>
        <time>2016-10-25T09:02:54Z</time>
      </trkpt>
      <trkpt lat="47.26233" lon="-1.60733">
        <ele>23.8720131</ele>
        <time>2016-10-25T09:02:56Z</time>
      </trkpt>
      <trkpt lat="47.26238" lon="-1.60732">
        <ele>23.7737255</ele>
        <time>2016-10-25T09:02:59Z</time>
      </trkpt>
      <trkpt lat="47.26241" lon="-1.6073">
        <ele>23.5813103</ele>
        <time>2016-10-25T09:03:01Z</time>
      </trkpt>
      <trkpt lat="47.26243" lon="-1.60728">
        <ele>23.3345451</ele>
        <time>2016-10-25T09:03:03Z</time>
      </trkpt>
      <trkpt lat="47.26248" lon="-1.60723">
        <ele>22.9421501</ele>
        <time>2016-10-25T09:03:06Z</time>
      </trkpt>
      <trkpt lat="47.2625" lon="-1.60719">
        <ele>22.4430084</ele>
        <time>2016-10-25T09:03:08Z</time>
      </trkpt>
      <trkpt lat="47.26252" lon="-1.60713">
        <ele>21.8748436</ele>
        <time>2016-10-25T09:03:11Z</time>
      </trkpt>
      <trkpt lat="47.26255" lon="-1.60708">
        <ele>21.263813</ele>
        <time>2016-10-25T09:03:14Z</time>
      </trkpt>
      <trkpt lat="47.26257" lon="-1.60704">
        <ele>20.6408596</ele>
        <time>2016-10-25T09:03:16Z</time>
      </trkpt>
      <trkpt lat="47.26258" lon="-1.60701">
        <ele>20.1302738</ele>
        <time>2016-10-25T09:03:18Z</time>
      </trkpt>
      <trkpt lat="47.26261" lon="-1.60697">
        <ele>19.6563416</ele>
        <time>2016-10-25T09:03:20Z</time>
      </trkpt>
      <trkpt lat="47.26264" lon="-1.60691">
        <ele>19.2143841</ele>
        <time>2016-10-25T09:03:23Z</time>
      </trkpt>
      <trkpt lat="47.26265" lon="-1.60687">
        <ele>18.8227119</ele>
        <time>2016-10-25T09:03:25Z</time>
      </trkpt>
      <trkpt lat="47.26265" lon="-1.60682">
        <ele>18.4277611</ele>
        <time>2016-10-25T09:03:27Z</time>
      </trkpt>
      <trkpt lat="47.26265" lon="-1.60678">
        <ele>18.0167046</ele>
        <time>2016-10-25T09:03:29Z</time>
      </trkpt>
      <trkpt lat="47.26263" lon="-1.60675">
        <ele>17.596899</ele>
        <time>2016-10-25T09:03:32Z</time>
      </trkpt>
      <trkpt lat="47.26263" lon="-1.60671">
        <ele>17.2014866</ele>
        <time>2016-10-25T09:03:35Z</time>
      </trkpt>
      <trkpt lat="47.26264" lon="-1.60668">
        <ele>16.8304749</ele>
        <time>2016-10-25T09:03:37Z</time>
      </trkpt>
      <trkpt lat="47.26265" lon="-1.60663">
        <ele>16.5879784</ele>
        <time>2016-10-25T09:03:40Z</time>
      </trkpt>
      <trkpt lat="47.26267" lon="-1.60659">
        <ele>16.4946938</ele>
        <time>2016-10-25T09:03:42Z</time>
      </trkpt>
      <trkpt lat="47.26269" lon="-1.60656">
        <ele>16.5669804</ele>
        <time>2016-10-25T09:03:44Z</time>
      </trkpt>
      <trkpt lat="47.26271" lon="-1.60652">
        <ele>16.7892799</ele>
        <time>2016-10-25T09:03:46Z</time>
      </trkpt>
      <trkpt lat="47.26273" lon="-1.6065">
        <ele>17.1128635</ele>
        <time>2016-10-25T09:03:48Z</time>
      </trkpt>
      <trkpt lat="47.26273" lon="-1.60645">
        <ele>17.4573879</ele>
        <time>2016-10-25T09:03:51Z</time>
      </trkpt>
      <trkpt lat="47.26272" lon="-1.6064">
        <ele>17.7790108</ele>
        <time>2016-10-25T09:03:54Z</time>
      </trkpt>
      <trkpt lat="47.26273" lon="-1.60638">
        <ele>18.0580711</ele>
        <time>2016-10-25T09:03:56Z</time>
      </trkpt>
      <trkpt lat="47.26273" lon="-1.60634">
        <ele>18.3231907</ele>
        <time>2016-10-25T09:03:59Z</time>
      </trkpt>
      <trkpt lat="47.26274" lon="-1.60629">
        <ele>18.6100731</ele>
        <time>2016-10-25T09:04:02Z</time>
      </trkpt>
      <trkpt lat="47.26275" lon="-1.60625">
        <ele>18.8859291</ele>
        <time>2016-10-25T09:04:04Z</time>
      </trkpt>
      <trkpt lat="47.26276" lon="-1.60621">
        <ele>19.1546612</ele>
        <time>2016-10-25T09:04:06Z</time>
      </trkpt>
      <trkpt lat="47.26275" lon="-1.60615">
        <ele>19.4565487</ele>
        <time>2016-10-25T09:04:09Z</time>
      </trkpt>
      <trkpt lat="47.26275" lon="-1.60613">
        <ele>19.7313061</ele>
        <time>2016-10-25T09:04:11Z</time>
      </trkpt>
      <trkpt lat="47.26274" lon="-1.60612">
        <ele>19.9550209</ele>
        <time>2016-10-25T09:04:13Z</time>
      </trkpt>
      <trkpt lat="47.26273" lon="-1.60607">
        <ele>20.1822243</ele>
        <time>2016-10-25T09:04:16Z</time>
      </trkpt>
      <trkpt lat="47.26273" lon="-1.60603">
        <ele>20.4090309</ele>
        <time>2016-10-25T09:04:18Z</time>
      </trkpt>
      <trkpt lat="47.26276" lon="-1.60597">
        <ele>20.6436329</ele>
        <time>2016-10-25T09:04:21Z</time>
      </trkpt>
      <trkpt lat="47.26278" lon="-1.60592">
        <ele>20.9000435</ele>
        <time>2016-10-25T09:04:23Z</time>
      </trkpt>
      <trkpt lat="47.2628" lon="-1.60587">
        <ele>21.1839542</ele>
        <time>2016-10-25T09:04:26Z</time>
      </trkpt>
      <trkpt lat="47.26283" lon="-1.60582">
        <ele>21.4345741</ele>
        <time>2016-10-25T09:04:28Z</time>
      </trkpt>
      <trkpt lat="47.26284" lon="-1.60579">
        <ele>21.6569214</ele>
        <time>2016-10-25T09:04:30Z</time>
      </trkpt>
      <trkpt lat="47.26283" lon="-1.60574">
        <ele>21.8628922</ele>
        <time>2016-10-25T09:04:33Z</time>
      </trkpt>
      <trkpt lat="47.26283" lon="-1.6057">
        <ele>22.047781</ele>
        <time>2016-10-25T09:04:35Z</time>
      </trkpt>
      <trkpt lat="47.26283" lon="-1.60562">
        <ele>22.2653446</ele>
        <time>2016-10-25T09:04:37Z</time>
      </trkpt>
      <trkpt lat="47.26284" lon="-1.60554">
        <ele>22.5242653</ele>
        <time>2016-10-25T09:04:40Z</time>
      </trkpt>
      <trkpt lat="47.26283" lon="-1.60549">
        <ele>22.8411732</ele>
        <time>2016-10-25T09:04:43Z</time>
      </trkpt>
      <trkpt lat="47.26283" lon="-1.60545">
        <ele>23.1149406</ele>
        <time>2016-10-25T09:04:45Z</time>
      </trkpt>
      <trkpt lat="47.26284" lon="-1.60541">
        <ele>23.3893414</ele>
        <time>2016-10-25T09:04:47Z</time>
      </trkpt>
      <trkpt lat="47.26284" lon="-1.60535">
        <ele>23.6277161</ele>
        <time>2016-10-25T09:04:50Z</time>
      </trkpt>
      <trkpt lat="47.26284" lon="-1.60529">
        <ele>23.8503799</ele>
        <time>2016-10-25T09:04:53Z</time>
      </trkpt>
      <trkpt lat="47.26284" lon="-1.60523">
        <ele>24.0597992</ele>
        <time>2016-10-25T09:04:56Z</time>
      </trkpt>
      <trkpt lat="47.26283" lon="-1.6052">
        <ele>24.3195286</ele>
        <time>2016-10-25T09:04:59Z</time>
      </trkpt>
      <trkpt lat="47.26282" lon="-1.60516">
        <ele>24.6045723</ele>
        <time>2016-10-25T09:05:02Z</time>
      </trkpt>
      <trkpt lat="47.26282" lon="-1.60513">
        <ele>24.8735504</ele>
        <time>2016-10-25T09:05:04Z</time>
      </trkpt>
      <trkpt lat="47.26281" lon="-1.60509">
        <ele>25.1555843</ele>
        <time>2016-10-25T09:05:06Z</time>
      </trkpt>
      <trkpt lat="47.2628" lon="-1.60504">
        <ele>25.4581242</ele>
        <time>2016-10-25T09:05:08Z</time>
      </trkpt>
      <trkpt lat="47.26279" lon="-1.605">
        <ele>25.7703209</ele>
        <time>2016-10-25T09:05:10Z</time>
      </trkpt>
      <trkpt lat="47.26277" lon="-1.60495">
        <ele>26.1205788</ele>
        <time>2016-10-25T09:05:13Z</time>
      </trkpt>
      <trkpt lat="47.26275" lon="-1.6049">
        <ele>26.5653381</ele>
        <time>2016-10-25T09:05:16Z</time>
      </trkpt>
      <trkpt lat="47.26273" lon="-1.60487">
        <ele>27.0442657</ele>
        <time>2016-10-25T09:05:18Z</time>
      </trkpt>
      <trkpt lat="47.2627" lon="-1.60483">
        <ele>27.5639839</ele>
        <time>2016-10-25T09:05:21Z</time>
      </trkpt>
      <trkpt lat="47.26268" lon="-1.60481">
        <ele>28.1045322</ele>
        <time>2016-10-25T09:05:23Z</time>
      </trkpt>
      <trkpt lat="47.26267" lon="-1.60479">
        <ele>28.58601</ele>
        <time>2016-10-25T09:05:25Z</time>
      </trkpt>
      <trkpt lat="47.26268" lon="-1.60476">
        <ele>28.9683285</ele>
        <time>2016-10-25T09:05:27Z</time>
      </trkpt>
      <trkpt lat="47.26268" lon="-1.60473">
        <ele>29.2509766</ele>
        <time>2016-10-25T09:05:29Z</time>
      </trkpt>
      <trkpt lat="47.2627" lon="-1.60468">
        <ele>29.4112434</ele>
        <time>2016-10-25T09:05:32Z</time>
      </trkpt>
      <trkpt lat="47.26271" lon="-1.60465">
        <ele>29.4481449</ele>
        <time>2016-10-25T09:05:34Z</time>
      </trkpt>
      <trkpt lat="47.26275" lon="-1.6046">
        <ele>29.3669395</ele>
        <time>2016-10-25T09:05:37Z</time>
      </trkpt>
      <trkpt lat="47.26277" lon="-1.60455">
        <ele>29.2316685</ele>
        <time>2016-10-25T09:05:40Z</time>
      </trkpt>
      <trkpt lat="47.26278" lon="-1.60451">
        <ele>29.0880032</ele>
        <time>2016-10-25T09:05:43Z</time>
      </trkpt>
      <trkpt lat="47.26279" lon="-1.60447">
        <ele>28.9276161</ele>
        <time>2016-10-25T09:05:46Z</time>
      </trkpt>
      <trkpt lat="47.26282" lon="-1.60445">
        <ele>28.7158623</ele>
        <time>2016-10-25T09:05:48Z</time>
      </trkpt>
      <trkpt lat="47.26284" lon="-1.60443">
        <ele>28.5316715</ele>
        <time>2016-10-25T09:05:50Z</time>
      </trkpt>
      <trkpt lat="47.26285" lon="-1.60438">
        <ele>28.3695011</ele>
        <time>2016-10-25T09:05:53Z</time>
      </trkpt>
      <trkpt lat="47.26287" lon="-1.60434">
        <ele>28.1875095</ele>
        <time>2016-10-25T09:05:56Z</time>
      </trkpt>
      <trkpt lat="47.26289" lon="-1.60431">
        <ele>27.9342747</ele>
        <time>2016-10-25T09:05:59Z</time>
      </trkpt>
      <trkpt lat="47.26292" lon="-1.60427">
        <ele>27.683979</ele>
        <time>2016-10-25T09:06:01Z</time>
      </trkpt>
      <trkpt lat="47.26295" lon="-1.60424">
        <ele>27.3985558</ele>
        <time>2016-10-25T09:06:03Z</time>
      </trkpt>
      <trkpt lat="47.26295" lon="-1.6042">
        <ele>27.1181984</ele>
        <time>2016-10-25T09:06:05Z</time>
      </trkpt>
      <trkpt lat="47.26295" lon="-1.60417">
        <ele>26.9024963</ele>
        <time>2016-10-25T09:06:07Z</time>
      </trkpt>
      <trkpt lat="47.26295" lon="-1.60414">
        <ele>26.7837734</ele>
        <time>2016-10-25T09:06:09Z</time>
      </trkpt>
      <trkpt lat="47.26297" lon="-1.60408">
        <ele>26.6267948</ele>
        <time>2016-10-25T09:06:12Z</time>
      </trkpt>
      <trkpt lat="47.26299" lon="-1.60403">
        <ele>26.5031013</ele>
        <time>2016-10-25T09:06:15Z</time>
      </trkpt>
      <trkpt lat="47.263" lon="-1.60398">
        <ele>26.3308659</ele>
        <time>2016-10-25T09:06:18Z</time>
      </trkpt>
      <trkpt lat="47.26301" lon="-1.60392">
        <ele>26.0512142</ele>
        <time>2016-10-25T09:06:21Z</time>
      </trkpt>
      <trkpt lat="47.26302" lon="-1.60388">
        <ele>25.7391968</ele>
        <time>2016-10-25T09:06:24Z</time>
      </trkpt>
      <trkpt lat="47.26305" lon="-1.60382">
        <ele>25.4242001</ele>
        <time>2016-10-25T09:06:27Z</time>
      </trkpt>
      <trkpt lat="47.26305" lon="-1.60379">
        <ele>25.1333427</ele>
        <time>2016-10-25T09:06:29Z</time>
      </trkpt>
      <trkpt lat="47.26308" lon="-1.60375">
        <ele>24.8068123</ele>
        <time>2016-10-25T09:06:32Z</time>
      </trkpt>
      <trkpt lat="47.2631" lon="-1.6037">
        <ele>24.4610996</ele>
        <time>2016-10-25T09:06:35Z</time>
      </trkpt>
      <trkpt lat="47.26311" lon="-1.60366">
        <ele>24.121048</ele>
        <time>2016-10-25T09:06:38Z</time>
      </trkpt>
      <trkpt lat="47.26311" lon="-1.60361">
        <ele>23.8779182</ele>
        <time>2016-10-25T09:06:41Z</time>
      </trkpt>
      <trkpt lat="47.26311" lon="-1.60356">
        <ele>23.6799126</ele>
        <time>2016-10-25T09:06:44Z</time>
      </trkpt>
      <trkpt lat="47.26311" lon="-1.60353">
        <ele>23.5725517</ele>
        <time>2016-10-25T09:06:46Z</time>
      </trkpt>
      <trkpt lat="47.26311" lon="-1.6035">
        <ele>23.5537682</ele>
        <time>2016-10-25T09:06:48Z</time>
      </trkpt>
      <trkpt lat="47.2631" lon="-1.60347">
        <ele>23.5764732</ele>
        <time>2016-10-25T09:06:51Z</time>
      </trkpt>
      <trkpt lat="47.26309" lon="-1.60343">
        <ele>23.6390877</ele>
        <time>2016-10-25T09:06:54Z</time>
      </trkpt>
      <trkpt lat="47.26308" lon="-1.60338">
        <ele>23.72575</ele>
        <time>2016-10-25T09:06:57Z</time>
      </trkpt>
      <trkpt lat="47.26307" lon="-1.60335">
        <ele>23.8498726</ele>
        <time>2016-10-25T09:06:59Z</time>
      </trkpt>
      <trkpt lat="47.26305" lon="-1.60332">
        <ele>24.0088158</ele>
        <time>2016-10-25T09:07:02Z</time>
      </trkpt>
      <trkpt lat="47.26306" lon="-1.60329">
        <ele>24.1218967</ele>
        <time>2016-10-25T09:07:04Z</time>
      </trkpt>
      <trkpt lat="47.26306" lon="-1.60326">
        <ele>24.2013435</ele>
        <time>2016-10-25T09:07:06Z</time>
      </trkpt>
      <trkpt lat="47.26306" lon="-1.60321">
        <ele>24.23386</ele>
        <time>2016-10-25T09:07:09Z</time>
      </trkpt>
      <trkpt lat="47.26307" lon="-1.60319">
        <ele>24.1886997</ele>
        <time>2016-10-25T09:07:11Z</time>
      </trkpt>
      <trkpt lat="47.26306" lon="-1.60317">
        <ele>24.1272945</ele>
        <time>2016-10-25T09:07:13Z</time>
      </trkpt>
      <trkpt lat="47.26303" lon="-1.60312">
        <ele>24.1661396</ele>
        <time>2016-10-25T09:07:16Z</time>
      </trkpt>
      <trkpt lat="47.26303" lon="-1.6031">
        <ele>24.1950817</ele>
        <time>2016-10-25T09:07:18Z</time>
      </trkpt>
      <trkpt lat="47.26303" lon="-1.60305">
        <ele>24.2215691</ele>
        <time>2016-10-25T09:07:21Z</time>
      </trkpt>
      <trkpt lat="47.26303" lon="-1.60303">
        <ele>24.2926865</ele>
        <time>2016-10-25T09:07:23Z</time>
      </trkpt>
      <trkpt lat="47.26302" lon="-1.60299">
        <ele>24.3554096</ele>
        <time>2016-10-25T09:07:26Z</time>
      </trkpt>
      <trkpt lat="47.26302" lon="-1.60297">
        <ele>24.3410759</ele>
        <time>2016-10-25T09:07:28Z</time>
      </trkpt>
      <trkpt lat="47.263" lon="-1.60294">
        <ele>24.3656502</ele>
        <time>2016-10-25T09:07:30Z</time>
      </trkpt>
      <trkpt lat="47.26299" lon="-1.60291">
        <ele>24.4417095</ele>
        <time>2016-10-25T09:07:33Z</time>
      </trkpt>
      <trkpt lat="47.26296" lon="-1.60289">
        <ele>24.5538483</ele>
        <time>2016-10-25T09:07:35Z</time>
      </trkpt>
      <trkpt lat="47.26297" lon="-1.60284">
        <ele>24.6275177</ele>
        <time>2016-10-25T09:07:38Z</time>
      </trkpt>
      <trkpt lat="47.26297" lon="-1.60279">
        <ele>24.6719398</ele>
        <time>2016-10-25T09:07:40Z</time>
      </trkpt>
      <trkpt lat="47.26296" lon="-1.60273">
        <ele>24.689312</ele>
        <time>2016-10-25T09:07:43Z</time>
      </trkpt>
      <trkpt lat="47.26295" lon="-1.6027">
        <ele>24.6795616</ele>
        <time>2016-10-25T09:07:45Z</time>
      </trkpt>
      <trkpt lat="47.26294" lon="-1.60267">
        <ele>24.6412582</ele>
        <time>2016-10-25T09:07:47Z</time>
      </trkpt>
      <trkpt lat="47.26291" lon="-1.60263">
        <ele>24.6675358</ele>
        <time>2016-10-25T09:07:50Z</time>
      </trkpt>
      <trkpt lat="47.26289" lon="-1.60259">
        <ele>24.7332401</ele>
        <time>2016-10-25T09:07:53Z</time>
      </trkpt>
      <trkpt lat="47.26289" lon="-1.60255">
        <ele>24.796442</ele>
        <time>2016-10-25T09:07:55Z</time>
      </trkpt>
      <trkpt lat="47.26288" lon="-1.60249">
        <ele>24.8192635</ele>
        <time>2016-10-25T09:07:58Z</time>
      </trkpt>
      <trkpt lat="47.26289" lon="-1.60243">
        <ele>24.7662735</ele>
        <time>2016-10-25T09:08:01Z</time>
      </trkpt>
      <trkpt lat="47.26289" lon="-1.6024">
        <ele>24.6510277</ele>
        <time>2016-10-25T09:08:03Z</time>
      </trkpt>
      <trkpt lat="47.2629" lon="-1.60235">
        <ele>24.4595108</ele>
        <time>2016-10-25T09:08:06Z</time>
      </trkpt>
      <trkpt lat="47.26289" lon="-1.6023">
        <ele>24.2465763</ele>
        <time>2016-10-25T09:08:08Z</time>
      </trkpt>
      <trkpt lat="47.26288" lon="-1.60226">
        <ele>24.0317955</ele>
        <time>2016-10-25T09:08:11Z</time>
      </trkpt>
      <trkpt lat="47.26287" lon="-1.60219">
        <ele>23.8296299</ele>
        <time>2016-10-25T09:08:14Z</time>
      </trkpt>
      <trkpt lat="47.26287" lon="-1.60215">
        <ele>23.6117821</ele>
        <time>2016-10-25T09:08:16Z</time>
      </trkpt>
      <trkpt lat="47.26289" lon="-1.60211">
        <ele>23.4028587</ele>
        <time>2016-10-25T09:08:18Z</time>
      </trkpt>
      <trkpt lat="47.26291" lon="-1.60206">
        <ele>23.1791229</ele>
        <time>2016-10-25T09:08:21Z</time>
      </trkpt>
      <trkpt lat="47.26291" lon="-1.60204">
        <ele>22.9620361</ele>
        <time>2016-10-25T09:08:23Z</time>
      </trkpt>
      <trkpt lat="47.26292" lon="-1.602">
        <ele>22.7614441</ele>
        <time>2016-10-25T09:08:25Z</time>
      </trkpt>
      <trkpt lat="47.26293" lon="-1.60196">
        <ele>22.5694389</ele>
        <time>2016-10-25T09:08:28Z</time>
      </trkpt>
      <trkpt lat="47.26292" lon="-1.60194">
        <ele>22.4120884</ele>
        <time>2016-10-25T09:08:30Z</time>
      </trkpt>
      <trkpt lat="47.2629" lon="-1.6019">
        <ele>22.2734489</ele>
        <time>2016-10-25T09:08:32Z</time>
      </trkpt>
      <trkpt lat="47.26287" lon="-1.60188">
        <ele>22.1402245</ele>
        <time>2016-10-25T09:08:35Z</time>
      </trkpt>
      <trkpt lat="47.26284" lon="-1.60183">
        <ele>21.9906139</ele>
        <time>2016-10-25T09:08:38Z</time>
      </trkpt>
      <trkpt lat="47.26281" lon="-1.60179">
        <ele>21.8347054</ele>
        <time>2016-10-25T09:08:41Z</time>
      </trkpt>
      <trkpt lat="47.26278" lon="-1.60177">
        <ele>21.6673584</ele>
        <time>2016-10-25T09:08:44Z</time>
      </trkpt>
      <trkpt lat="47.26274" lon="-1.60175">
        <ele>21.4873962</ele>
        <time>2016-10-25T09:08:47Z</time>
      </trkpt>
      <trkpt lat="47.26271" lon="-1.6017">
        <ele>21.2580509</ele>
        <time>2016-10-25T09:08:50Z</time>
      </trkpt>
      <trkpt lat="47.26268" lon="-1.60166">
        <ele>21.0116673</ele>
        <time>2016-10-25T09:08:53Z</time>
      </trkpt>
      <trkpt lat="47.26265" lon="-1.60165">
        <ele>20.7852459</ele>
        <time>2016-10-25T09:08:55Z</time>
      </trkpt>
      <trkpt lat="47.26262" lon="-1.60164">
        <ele>20.566576</ele>
        <time>2016-10-25T09:08:57Z</time>
      </trkpt>
      <trkpt lat="47.26259" lon="-1.60163">
        <ele>20.365078</ele>
        <time>2016-10-25T09:08:59Z</time>
      </trkpt>
      <trkpt lat="47.26255" lon="-1.60163">
        <ele>20.1980953</ele>
        <time>2016-10-25T09:09:02Z</time>
      </trkpt>
      <trkpt lat="47.26252" lon="-1.6016">
        <ele>20.0594711</ele>
        <time>2016-10-25T09:09:04Z</time>
      </trkpt>
      <trkpt lat="47.26247" lon="-1.60159">
        <ele>19.9787598</ele>
        <time>2016-10-25T09:09:07Z</time>
      </trkpt>
      <trkpt lat="47.26243" lon="-1.60158">
        <ele>19.9947338</ele>
        <time>2016-10-25T09:09:10Z</time>
      </trkpt>
      <trkpt lat="47.26241" lon="-1.60157">
        <ele>20.0643787</ele>
        <time>2016-10-25T09:09:12Z</time>
      </trkpt>
      <trkpt lat="47.26237" lon="-1.60158">
        <ele>20.2406273</ele>
        <time>2016-10-25T09:09:15Z</time>
      </trkpt>
      <trkpt lat="47.26235" lon="-1.60158">
        <ele>20.4959717</ele>
        <time>2016-10-25T09:09:17Z</time>
      </trkpt>
      <trkpt lat="47.26233" lon="-1.60157">
        <ele>20.7436523</ele>
        <time>2016-10-25T09:09:19Z</time>
      </trkpt>
      <trkpt lat="47.2623" lon="-1.60153">
        <ele>20.9405518</ele>
        <time>2016-10-25T09:09:22Z</time>
      </trkpt>
      <trkpt lat="47.26228" lon="-1.60151">
        <ele>21.1247559</ele>
        <time>2016-10-25T09:09:24Z</time>
      </trkpt>
      <trkpt lat="47.26225" lon="-1.60149">
        <ele>21.2727051</ele>
        <time>2016-10-25T09:09:26Z</time>
      </trkpt>
      <trkpt lat="47.26223" lon="-1.60146">
        <ele>21.3929443</ele>
        <time>2016-10-25T09:09:28Z</time>
      </trkpt>
      <trkpt lat="47.26221" lon="-1.60143">
        <ele>21.49646</ele>
        <time>2016-10-25T09:09:31Z</time>
      </trkpt>
      <trkpt lat="47.26218" lon="-1.60139">
        <ele>21.604126</ele>
        <time>2016-10-25T09:09:34Z</time>
      </trkpt>
      <trkpt lat="47.26216" lon="-1.60138">
        <ele>21.7062988</ele>
        <time>2016-10-25T09:09:36Z</time>
      </trkpt>
      <trkpt lat="47.26214" lon="-1.60136">
        <ele>21.7897949</ele>
        <time>2016-10-25T09:09:39Z</time>
      </trkpt>
      <trkpt lat="47.26213" lon="-1.60134">
        <ele>21.8596191</ele>
        <time>2016-10-25T09:09:41Z</time>
      </trkpt>
      <trkpt lat="47.2621" lon="-1.60128">
        <ele>21.9276123</ele>
        <time>2016-10-25T09:09:44Z</time>
      </trkpt>
      <trkpt lat="47.26209" lon="-1.60127">
        <ele>21.9785156</ele>
        <time>2016-10-25T09:09:47Z</time>
      </trkpt>
      <trkpt lat="47.26208" lon="-1.60126">
        <ele>22.0198975</ele>
        <time>2016-10-25T09:09:49Z</time>
      </trkpt>
      <trkpt lat="47.26207" lon="-1.60123">
        <ele>22.041748</ele>
        <time>2016-10-25T09:09:52Z</time>
      </trkpt>
      <trkpt lat="47.26204" lon="-1.6012">
        <ele>22.0897217</ele>
        <time>2016-10-25T09:09:55Z</time>
      </trkpt>
      <trkpt lat="47.26202" lon="-1.60116">
        <ele>22.1306152</ele>
        <time>2016-10-25T09:09:57Z</time>
      </trkpt>
      <trkpt lat="47.26199" lon="-1.60111">
        <ele>22.1494141</ele>
        <time>2016-10-25T09:10:00Z</time>
      </trkpt>
      <trkpt lat="47.26198" lon="-1.60108">
        <ele>22.1721191</ele>
        <time>2016-10-25T09:10:02Z</time>
      </trkpt>
      <trkpt lat="47.26196" lon="-1.60107">
        <ele>22.2208252</ele>
        <time>2016-10-25T09:10:05Z</time>
      </trkpt>
      <trkpt lat="47.26197" lon="-1.60108">
        <ele>22.2320557</ele>
        <time>2016-10-25T09:10:08Z</time>
      </trkpt>
      <trkpt lat="47.26198" lon="-1.60112">
        <ele>22.2556152</ele>
        <time>2016-10-25T09:10:11Z</time>
      </trkpt>
      <trkpt lat="47.26196" lon="-1.60108">
        <ele>22.2952881</ele>
        <time>2016-10-25T09:10:14Z</time>
      </trkpt>
      <trkpt lat="47.26194" lon="-1.60104">
        <ele>22.3276367</ele>
        <time>2016-10-25T09:10:16Z</time>
      </trkpt>
      <trkpt lat="47.26191" lon="-1.60099">
        <ele>22.3427734</ele>
        <time>2016-10-25T09:10:18Z</time>
      </trkpt>
      <trkpt lat="47.26189" lon="-1.60092">
        <ele>22.3549805</ele>
        <time>2016-10-25T09:10:20Z</time>
      </trkpt>
      <trkpt lat="47.26188" lon="-1.60086">
        <ele>22.3153076</ele>
        <time>2016-10-25T09:10:22Z</time>
      </trkpt>
      <trkpt lat="47.26187" lon="-1.60081">
        <ele>22.2440376</ele>
        <time>2016-10-25T09:10:24Z</time>
      </trkpt>
      <trkpt lat="47.26188" lon="-1.60075">
        <ele>22.133564</ele>
        <time>2016-10-25T09:10:27Z</time>
      </trkpt>
      <trkpt lat="47.26187" lon="-1.60069">
        <ele>21.9936066</ele>
        <time>2016-10-25T09:10:30Z</time>
      </trkpt>
      <trkpt lat="47.26185" lon="-1.60065">
        <ele>21.8777351</ele>
        <time>2016-10-25T09:10:32Z</time>
      </trkpt>
      <trkpt lat="47.26184" lon="-1.60061">
        <ele>21.7980213</ele>
        <time>2016-10-25T09:10:35Z</time>
      </trkpt>
      <trkpt lat="47.26184" lon="-1.60058">
        <ele>21.7361126</ele>
        <time>2016-10-25T09:10:37Z</time>
      </trkpt>
      <trkpt lat="47.26183" lon="-1.60053">
        <ele>21.7056332</ele>
        <time>2016-10-25T09:10:40Z</time>
      </trkpt>
      <trkpt lat="47.26182" lon="-1.60046">
        <ele>21.6650238</ele>
        <time>2016-10-25T09:10:43Z</time>
      </trkpt>
      <trkpt lat="47.26181" lon="-1.6004">
        <ele>21.5967808</ele>
        <time>2016-10-25T09:10:46Z</time>
      </trkpt>
      <trkpt lat="47.2618" lon="-1.60036">
        <ele>21.5305252</ele>
        <time>2016-10-25T09:10:48Z</time>
      </trkpt>
      <trkpt lat="47.26178" lon="-1.60032">
        <ele>21.477272</ele>
        <time>2016-10-25T09:10:51Z</time>
      </trkpt>
      <trkpt lat="47.2618" lon="-1.60029">
        <ele>21.3790932</ele>
        <time>2016-10-25T09:10:54Z</time>
      </trkpt>
      <trkpt lat="47.26184" lon="-1.60026">
        <ele>21.2443523</ele>
        <time>2016-10-25T09:10:57Z</time>
      </trkpt>
      <trkpt lat="47.26186" lon="-1.60023">
        <ele>21.0933418</ele>
        <time>2016-10-25T09:10:59Z</time>
      </trkpt>
      <trkpt lat="47.26189" lon="-1.60016">
        <ele>20.8781147</ele>
        <time>2016-10-25T09:11:02Z</time>
      </trkpt>
      <trkpt lat="47.26192" lon="-1.60012">
        <ele>20.5929909</ele>
        <time>2016-10-25T09:11:04Z</time>
      </trkpt>
      <trkpt lat="47.26194" lon="-1.60007">
        <ele>20.3255138</ele>
        <time>2016-10-25T09:11:07Z</time>
      </trkpt>
      <trkpt lat="47.26192" lon="-1.60003">
        <ele>20.1333427</ele>
        <time>2016-10-25T09:11:10Z</time>
      </trkpt>
      <trkpt lat="47.26194" lon="-1.6">
        <ele>19.94981</ele>
        <time>2016-10-25T09:11:12Z</time>
      </trkpt>
      <trkpt lat="47.26195" lon="-1.59996">
        <ele>19.7903805</ele>
        <time>2016-10-25T09:11:15Z</time>
      </trkpt>
      <trkpt lat="47.26195" lon="-1.59992">
        <ele>19.6733017</ele>
        <time>2016-10-25T09:11:17Z</time>
      </trkpt>
      <trkpt lat="47.26195" lon="-1.59988">
        <ele>19.5700493</ele>
        <time>2016-10-25T09:11:19Z</time>
      </trkpt>
      <trkpt lat="47.26193" lon="-1.59981">
        <ele>19.4348049</ele>
        <time>2016-10-25T09:11:22Z</time>
      </trkpt>
      <trkpt lat="47.26193" lon="-1.59977">
        <ele>19.3045731</ele>
        <time>2016-10-25T09:11:24Z</time>
      </trkpt>
      <trkpt lat="47.26191" lon="-1.59972">
        <ele>19.1991844</ele>
        <time>2016-10-25T09:11:27Z</time>
      </trkpt>
      <trkpt lat="47.2619" lon="-1.59967">
        <ele>19.0965157</ele>
        <time>2016-10-25T09:11:29Z</time>
      </trkpt>
      <trkpt lat="47.2619" lon="-1.59963">
        <ele>18.9930782</ele>
        <time>2016-10-25T09:11:31Z</time>
      </trkpt>
      <trkpt lat="47.2619" lon="-1.59961">
        <ele>18.8991547</ele>
        <time>2016-10-25T09:11:34Z</time>
      </trkpt>
      <trkpt lat="47.26191" lon="-1.59957">
        <ele>18.8035812</ele>
        <time>2016-10-25T09:11:36Z</time>
      </trkpt>
      <trkpt lat="47.26194" lon="-1.59952">
        <ele>18.6669865</ele>
        <time>2016-10-25T09:11:39Z</time>
      </trkpt>
      <trkpt lat="47.26196" lon="-1.59948">
        <ele>18.516161</ele>
        <time>2016-10-25T09:11:41Z</time>
      </trkpt>
      <trkpt lat="47.26201" lon="-1.59943">
        <ele>18.3282776</ele>
        <time>2016-10-25T09:11:44Z</time>
      </trkpt>
      <trkpt lat="47.26204" lon="-1.5994">
        <ele>18.1258831</ele>
        <time>2016-10-25T09:11:46Z</time>
      </trkpt>
      <trkpt lat="47.26205" lon="-1.59936">
        <ele>17.9186497</ele>
        <time>2016-10-25T09:11:48Z</time>
      </trkpt>
      <trkpt lat="47.26204" lon="-1.59932">
        <ele>17.7496738</ele>
        <time>2016-10-25T09:11:50Z</time>
      </trkpt>
      <trkpt lat="47.26202" lon="-1.59926">
        <ele>17.6002007</ele>
        <time>2016-10-25T09:11:53Z</time>
      </trkpt>
      <trkpt lat="47.262" lon="-1.59921">
        <ele>17.4893703</ele>
        <time>2016-10-25T09:11:56Z</time>
      </trkpt>
      <trkpt lat="47.26201" lon="-1.59916">
        <ele>17.3803196</ele>
        <time>2016-10-25T09:11:58Z</time>
      </trkpt>
      <trkpt lat="47.26203" lon="-1.5991">
        <ele>17.2520714</ele>
        <time>2016-10-25T09:12:01Z</time>
      </trkpt>
      <trkpt lat="47.26204" lon="-1.59907">
        <ele>17.1110382</ele>
        <time>2016-10-25T09:12:03Z</time>
      </trkpt>
      <trkpt lat="47.26206" lon="-1.59901">
        <ele>16.9468536</ele>
        <time>2016-10-25T09:12:06Z</time>
      </trkpt>
      <trkpt lat="47.26208" lon="-1.59899">
        <ele>16.7815685</ele>
        <time>2016-10-25T09:12:08Z</time>
      </trkpt>
      <trkpt lat="47.26209" lon="-1.59895">
        <ele>16.6173515</ele>
        <time>2016-10-25T09:12:10Z</time>
      </trkpt>
      <trkpt lat="47.2621" lon="-1.5989">
        <ele>16.4729328</ele>
        <time>2016-10-25T09:12:13Z</time>
      </trkpt>
      <trkpt lat="47.26209" lon="-1.59884">
        <ele>16.3231926</ele>
        <time>2016-10-25T09:12:16Z</time>
      </trkpt>
      <trkpt lat="47.26207" lon="-1.5988">
        <ele>16.1871185</ele>
        <time>2016-10-25T09:12:18Z</time>
      </trkpt>
      <trkpt lat="47.26208" lon="-1.59875">
        <ele>16.0444202</ele>
        <time>2016-10-25T09:12:21Z</time>
      </trkpt>
      <trkpt lat="47.26211" lon="-1.59873">
        <ele>15.9137173</ele>
        <time>2016-10-25T09:12:24Z</time>
      </trkpt>
      <trkpt lat="47.26213" lon="-1.59872">
        <ele>15.8009586</ele>
        <time>2016-10-25T09:12:27Z</time>
      </trkpt>
      <trkpt lat="47.26216" lon="-1.5987">
        <ele>15.7108231</ele>
        <time>2016-10-25T09:12:29Z</time>
      </trkpt>
      <trkpt lat="47.26218" lon="-1.59869">
        <ele>15.6364698</ele>
        <time>2016-10-25T09:12:31Z</time>
      </trkpt>
      <trkpt lat="47.2622" lon="-1.59864">
        <ele>15.5627956</ele>
        <time>2016-10-25T09:12:34Z</time>
      </trkpt>
      <trkpt lat="47.2622" lon="-1.59859">
        <ele>15.4810581</ele>
        <time>2016-10-25T09:12:37Z</time>
      </trkpt>
      <trkpt lat="47.26222" lon="-1.59853">
        <ele>15.381465</ele>
        <time>2016-10-25T09:12:40Z</time>
      </trkpt>
      <trkpt lat="47.26224" lon="-1.5985">
        <ele>15.2790756</ele>
        <time>2016-10-25T09:12:42Z</time>
      </trkpt>
      <trkpt lat="47.26226" lon="-1.59845">
        <ele>15.1670456</ele>
        <time>2016-10-25T09:12:45Z</time>
      </trkpt>
      <trkpt lat="47.26227" lon="-1.59841">
        <ele>15.0663347</ele>
        <time>2016-10-25T09:12:48Z</time>
      </trkpt>
      <trkpt lat="47.26228" lon="-1.59839">
        <ele>14.9854994</ele>
        <time>2016-10-25T09:12:50Z</time>
      </trkpt>
      <trkpt lat="47.26229" lon="-1.59838">
        <ele>14.9270306</ele>
        <time>2016-10-25T09:12:53Z</time>
      </trkpt>
      <trkpt lat="47.26228" lon="-1.59835">
        <ele>14.8702211</ele>
        <time>2016-10-25T09:12:56Z</time>
      </trkpt>
      <trkpt lat="47.26231" lon="-1.59831">
        <ele>14.8250885</ele>
        <time>2016-10-25T09:12:59Z</time>
      </trkpt>
      <trkpt lat="47.26235" lon="-1.59827">
        <ele>14.7956295</ele>
        <time>2016-10-25T09:13:02Z</time>
      </trkpt>
      <trkpt lat="47.26239" lon="-1.59823">
        <ele>14.7690525</ele>
        <time>2016-10-25T09:13:05Z</time>
      </trkpt>
      <trkpt lat="47.26241" lon="-1.5982">
        <ele>14.7482176</ele>
        <time>2016-10-25T09:13:07Z</time>
      </trkpt>
      <trkpt lat="47.26244" lon="-1.59817">
        <ele>14.7380066</ele>
        <time>2016-10-25T09:13:10Z</time>
      </trkpt>
      <trkpt lat="47.26246" lon="-1.59815">
        <ele>14.7352905</ele>
        <time>2016-10-25T09:13:12Z</time>
      </trkpt>
      <trkpt lat="47.26247" lon="-1.59814">
        <ele>14.7315369</ele>
        <time>2016-10-25T09:13:14Z</time>
      </trkpt>
      <trkpt lat="47.26248" lon="-1.59811">
        <ele>14.7247925</ele>
        <time>2016-10-25T09:13:16Z</time>
      </trkpt>
      <trkpt lat="47.2625" lon="-1.59805">
        <ele>14.7095642</ele>
        <time>2016-10-25T09:13:19Z</time>
      </trkpt>
      <trkpt lat="47.2625" lon="-1.59801">
        <ele>14.686676</ele>
        <time>2016-10-25T09:13:21Z</time>
      </trkpt>
      <trkpt lat="47.26251" lon="-1.59799">
        <ele>14.6783266</ele>
        <time>2016-10-25T09:13:23Z</time>
      </trkpt>
      <trkpt lat="47.26252" lon="-1.59797">
        <ele>14.6875134</ele>
        <time>2016-10-25T09:13:25Z</time>
      </trkpt>
      <trkpt lat="47.26251" lon="-1.59795">
        <ele>14.6860867</ele>
        <time>2016-10-25T09:13:28Z</time>
      </trkpt>
      <trkpt lat="47.26251" lon="-1.59794">
        <ele>14.6806183</ele>
        <time>2016-10-25T09:13:30Z</time>
      </trkpt>
      <trkpt lat="47.26249" lon="-1.59791">
        <ele>14.6529083</ele>
        <time>2016-10-25T09:13:33Z</time>
      </trkpt>
      <trkpt lat="47.26249" lon="-1.59788">
        <ele>14.6027861</ele>
        <time>2016-10-25T09:13:35Z</time>
      </trkpt>
      <trkpt lat="47.26247" lon="-1.59785">
        <ele>14.5282621</ele>
        <time>2016-10-25T09:13:37Z</time>
      </trkpt>
      <trkpt lat="47.26246" lon="-1.59783">
        <ele>14.457819</ele>
        <time>2016-10-25T09:13:39Z</time>
      </trkpt>
      <trkpt lat="47.26244" lon="-1.59778">
        <ele>14.3822327</ele>
        <time>2016-10-25T09:13:42Z</time>
      </trkpt>
      <trkpt lat="47.26242" lon="-1.59775">
        <ele>14.3277588</ele>
        <time>2016-10-25T09:13:44Z</time>
      </trkpt>
      <trkpt lat="47.26241" lon="-1.59772">
        <ele>14.2710571</ele>
        <time>2016-10-25T09:13:46Z</time>
      </trkpt>
      <trkpt lat="47.26238" lon="-1.59769">
        <ele>14.2068176</ele>
        <time>2016-10-25T09:13:49Z</time>
      </trkpt>
      <trkpt lat="47.26235" lon="-1.59766">
        <ele>14.1410217</ele>
        <time>2016-10-25T09:13:52Z</time>
      </trkpt>
      <trkpt lat="47.26234" lon="-1.59764">
        <ele>14.0849609</ele>
        <time>2016-10-25T09:13:54Z</time>
      </trkpt>
      <trkpt lat="47.26232" lon="-1.59762">
        <ele>14.030426</ele>
        <time>2016-10-25T09:13:56Z</time>
      </trkpt>
      <trkpt lat="47.26229" lon="-1.59759">
        <ele>13.9703064</ele>
        <time>2016-10-25T09:13:59Z</time>
      </trkpt>
      <trkpt lat="47.26227" lon="-1.59756">
        <ele>13.9139099</ele>
        <time>2016-10-25T09:14:01Z</time>
      </trkpt>
      <trkpt lat="47.26225" lon="-1.59753">
        <ele>13.8569031</ele>
        <time>2016-10-25T09:14:03Z</time>
      </trkpt>
      <trkpt lat="47.26223" lon="-1.59749">
        <ele>13.8018799</ele>
        <time>2016-10-25T09:14:05Z</time>
      </trkpt>
      <trkpt lat="47.26221" lon="-1.59747">
        <ele>13.7765198</ele>
        <time>2016-10-25T09:14:07Z</time>
      </trkpt>
      <trkpt lat="47.26218" lon="-1.59743">
        <ele>13.800293</ele>
        <time>2016-10-25T09:14:10Z</time>
      </trkpt>
      <trkpt lat="47.26215" lon="-1.59738">
        <ele>13.8718872</ele>
        <time>2016-10-25T09:14:13Z</time>
      </trkpt>
      <trkpt lat="47.26213" lon="-1.59735">
        <ele>13.9755859</ele>
        <time>2016-10-25T09:14:15Z</time>
      </trkpt>
      <trkpt lat="47.26209" lon="-1.59732">
        <ele>14.1074219</ele>
        <time>2016-10-25T09:14:18Z</time>
      </trkpt>
      <trkpt lat="47.26206" lon="-1.59728">
        <ele>14.2467041</ele>
        <time>2016-10-25T09:14:21Z</time>
      </trkpt>
      <trkpt lat="47.26203" lon="-1.59726">
        <ele>14.3693848</ele>
        <time>2016-10-25T09:14:23Z</time>
      </trkpt>
      <trkpt lat="47.262" lon="-1.59724">
        <ele>14.4726563</ele>
        <time>2016-10-25T09:14:26Z</time>
      </trkpt>
      <trkpt lat="47.26196" lon="-1.59723">
        <ele>14.5563965</ele>
        <time>2016-10-25T09:14:29Z</time>
      </trkpt>
      <trkpt lat="47.26193" lon="-1.59721">
        <ele>14.6234131</ele>
        <time>2016-10-25T09:14:32Z</time>
      </trkpt>
      <trkpt lat="47.26189" lon="-1.5972">
        <ele>14.6695557</ele>
        <time>2016-10-25T09:14:35Z</time>
      </trkpt>
      <trkpt lat="47.26187" lon="-1.59719">
        <ele>14.6999512</ele>
        <time>2016-10-25T09:14:37Z</time>
      </trkpt>
      <trkpt lat="47.26184" lon="-1.59718">
        <ele>14.7133789</ele>
        <time>2016-10-25T09:14:40Z</time>
      </trkpt>
      <trkpt lat="47.26181" lon="-1.59718">
        <ele>14.7248535</ele>
        <time>2016-10-25T09:14:43Z</time>
      </trkpt>
      <trkpt lat="47.26178" lon="-1.59718">
        <ele>14.7186279</ele>
        <time>2016-10-25T09:14:45Z</time>
      </trkpt>
      <trkpt lat="47.26176" lon="-1.59719">
        <ele>14.6867676</ele>
        <time>2016-10-25T09:14:47Z</time>
      </trkpt>
      <trkpt lat="47.26172" lon="-1.59721">
        <ele>14.6346436</ele>
        <time>2016-10-25T09:14:50Z</time>
      </trkpt>
      <trkpt lat="47.2617" lon="-1.5972">
        <ele>14.5805664</ele>
        <time>2016-10-25T09:14:52Z</time>
      </trkpt>
      <trkpt lat="47.26166" lon="-1.5972">
        <ele>14.5257845</ele>
        <time>2016-10-25T09:14:55Z</time>
      </trkpt>
      <trkpt lat="47.26163" lon="-1.5972">
        <ele>14.47363</ele>
        <time>2016-10-25T09:14:58Z</time>
      </trkpt>
      <trkpt lat="47.26159" lon="-1.59721">
        <ele>14.4316883</ele>
        <time>2016-10-25T09:15:01Z</time>
      </trkpt>
      <trkpt lat="47.26157" lon="-1.59721">
        <ele>14.403491</ele>
        <time>2016-10-25T09:15:03Z</time>
      </trkpt>
      <trkpt lat="47.26154" lon="-1.59721">
        <ele>14.3802767</ele>
        <time>2016-10-25T09:15:05Z</time>
      </trkpt>
      <trkpt lat="47.2615" lon="-1.5972">
        <ele>14.3636017</ele>
        <time>2016-10-25T09:15:08Z</time>
      </trkpt>
      <trkpt lat="47.26147" lon="-1.59718">
        <ele>14.3650494</ele>
        <time>2016-10-25T09:15:10Z</time>
      </trkpt>
      <trkpt lat="47.26144" lon="-1.59717">
        <ele>14.3786974</ele>
        <time>2016-10-25T09:15:13Z</time>
      </trkpt>
      <trkpt lat="47.26141" lon="-1.59716">
        <ele>14.3998003</ele>
        <time>2016-10-25T09:15:16Z</time>
      </trkpt>
      <trkpt lat="47.26138" lon="-1.59715">
        <ele>14.4195509</ele>
        <time>2016-10-25T09:15:18Z</time>
      </trkpt>
      <trkpt lat="47.26136" lon="-1.59713">
        <ele>14.4436617</ele>
        <time>2016-10-25T09:15:20Z</time>
      </trkpt>
      <trkpt lat="47.26132" lon="-1.59711">
        <ele>14.4631443</ele>
        <time>2016-10-25T09:15:23Z</time>
      </trkpt>
      <trkpt lat="47.2613" lon="-1.59711">
        <ele>14.4743328</ele>
        <time>2016-10-25T09:15:25Z</time>
      </trkpt>
      <trkpt lat="47.26127" lon="-1.59711">
        <ele>14.4794922</ele>
        <time>2016-10-25T09:15:27Z</time>
      </trkpt>
      <trkpt lat="47.26125" lon="-1.5971">
        <ele>14.4807405</ele>
        <time>2016-10-25T09:15:29Z</time>
      </trkpt>
      <trkpt lat="47.26121" lon="-1.5971">
        <ele>14.4675493</ele>
        <time>2016-10-25T09:15:32Z</time>
      </trkpt>
      <trkpt lat="47.26117" lon="-1.59709">
        <ele>14.4470644</ele>
        <time>2016-10-25T09:15:35Z</time>
      </trkpt>
      <trkpt lat="47.26115" lon="-1.59709">
        <ele>14.4210262</ele>
        <time>2016-10-25T09:15:37Z</time>
      </trkpt>
      <trkpt lat="47.26113" lon="-1.5971">
        <ele>14.3916721</ele>
        <time>2016-10-25T09:15:39Z</time>
      </trkpt>
      <trkpt lat="47.26109" lon="-1.5971">
        <ele>14.3596039</ele>
        <time>2016-10-25T09:15:42Z</time>
      </trkpt>
      <trkpt lat="47.26106" lon="-1.59708">
        <ele>14.3299656</ele>
        <time>2016-10-25T09:15:45Z</time>
      </trkpt>
      <trkpt lat="47.26104" lon="-1.59706">
        <ele>14.3026304</ele>
        <time>2016-10-25T09:15:47Z</time>
      </trkpt>
      <trkpt lat="47.26102" lon="-1.59705">
        <ele>14.2829103</ele>
        <time>2016-10-25T09:15:49Z</time>
      </trkpt>
      <trkpt lat="47.26098" lon="-1.59703">
        <ele>14.2633514</ele>
        <time>2016-10-25T09:15:52Z</time>
      </trkpt>
      <trkpt lat="47.26095" lon="-1.59702">
        <ele>14.241704</ele>
        <time>2016-10-25T09:15:54Z</time>
      </trkpt>
      <trkpt lat="47.26093" lon="-1.597">
        <ele>14.2178631</ele>
        <time>2016-10-25T09:15:56Z</time>
      </trkpt>
      <trkpt lat="47.26089" lon="-1.59698">
        <ele>14.1857758</ele>
        <time>2016-10-25T09:15:59Z</time>
      </trkpt>
      <trkpt lat="47.26086" lon="-1.59698">
        <ele>14.1448078</ele>
        <time>2016-10-25T09:16:01Z</time>
      </trkpt>
      <trkpt lat="47.26084" lon="-1.59698">
        <ele>14.1027908</ele>
        <time>2016-10-25T09:16:04Z</time>
      </trkpt>
      <trkpt lat="47.26081" lon="-1.59696">
        <ele>14.0877028</ele>
        <time>2016-10-25T09:16:06Z</time>
      </trkpt>
      <trkpt lat="47.26077" lon="-1.59693">
        <ele>14.124814</ele>
        <time>2016-10-25T09:16:09Z</time>
      </trkpt>
      <trkpt lat="47.26073" lon="-1.5969">
        <ele>14.2235365</ele>
        <time>2016-10-25T09:16:12Z</time>
      </trkpt>
      <trkpt lat="47.26069" lon="-1.59686">
        <ele>14.3609409</ele>
        <time>2016-10-25T09:16:15Z</time>
      </trkpt>
      <trkpt lat="47.26067" lon="-1.59684">
        <ele>14.5222721</ele>
        <time>2016-10-25T09:16:17Z</time>
      </trkpt>
      <trkpt lat="47.26064" lon="-1.59682">
        <ele>14.6849442</ele>
        <time>2016-10-25T09:16:20Z</time>
      </trkpt>
      <trkpt lat="47.26061" lon="-1.59679">
        <ele>14.8276978</ele>
        <time>2016-10-25T09:16:23Z</time>
      </trkpt>
      <trkpt lat="47.26059" lon="-1.59678">
        <ele>14.9320011</ele>
        <time>2016-10-25T09:16:25Z</time>
      </trkpt>
      <trkpt lat="47.26056" lon="-1.59676">
        <ele>15.0250731</ele>
        <time>2016-10-25T09:16:28Z</time>
      </trkpt>
      <trkpt lat="47.26054" lon="-1.59674">
        <ele>15.1127958</ele>
        <time>2016-10-25T09:16:30Z</time>
      </trkpt>
      <trkpt lat="47.26051" lon="-1.59672">
        <ele>15.1939163</ele>
        <time>2016-10-25T09:16:33Z</time>
      </trkpt>
      <trkpt lat="47.26048" lon="-1.59671">
        <ele>15.2656193</ele>
        <time>2016-10-25T09:16:36Z</time>
      </trkpt>
      <trkpt lat="47.26045" lon="-1.59669">
        <ele>15.3279419</ele>
        <time>2016-10-25T09:16:38Z</time>
      </trkpt>
      <trkpt lat="47.26042" lon="-1.59666">
        <ele>15.3939075</ele>
        <time>2016-10-25T09:16:41Z</time>
      </trkpt>
      <trkpt lat="47.2604" lon="-1.59664">
        <ele>15.4728146</ele>
        <time>2016-10-25T09:16:43Z</time>
      </trkpt>
      <trkpt lat="47.26036" lon="-1.59662">
        <ele>15.576746</ele>
        <time>2016-10-25T09:16:46Z</time>
      </trkpt>
      <trkpt lat="47.26033" lon="-1.5966">
        <ele>15.6935291</ele>
        <time>2016-10-25T09:16:49Z</time>
      </trkpt>
      <trkpt lat="47.26031" lon="-1.59658">
        <ele>15.8325405</ele>
        <time>2016-10-25T09:16:51Z</time>
      </trkpt>
      <trkpt lat="47.26028" lon="-1.59655">
        <ele>15.9789295</ele>
        <time>2016-10-25T09:16:54Z</time>
      </trkpt>
      <trkpt lat="47.26025" lon="-1.59652">
        <ele>16.1321011</ele>
        <time>2016-10-25T09:16:57Z</time>
      </trkpt>
      <trkpt lat="47.26021" lon="-1.59649">
        <ele>16.2726555</ele>
        <time>2016-10-25T09:17:00Z</time>
      </trkpt>
      <trkpt lat="47.26018" lon="-1.59647">
        <ele>16.4054565</ele>
        <time>2016-10-25T09:17:03Z</time>
      </trkpt>
      <trkpt lat="47.26014" lon="-1.59644">
        <ele>16.533123</ele>
        <time>2016-10-25T09:17:06Z</time>
      </trkpt>
      <trkpt lat="47.26012" lon="-1.59641">
        <ele>16.6481438</ele>
        <time>2016-10-25T09:17:09Z</time>
      </trkpt>
      <trkpt lat="47.2601" lon="-1.59638">
        <ele>16.7421188</ele>
        <time>2016-10-25T09:17:11Z</time>
      </trkpt>
      <trkpt lat="47.26008" lon="-1.59635">
        <ele>16.8175087</ele>
        <time>2016-10-25T09:17:13Z</time>
      </trkpt>
      <trkpt lat="47.26006" lon="-1.59631">
        <ele>16.8796272</ele>
        <time>2016-10-25T09:17:16Z</time>
      </trkpt>
      <trkpt lat="47.26003" lon="-1.59627">
        <ele>16.9250946</ele>
        <time>2016-10-25T09:17:18Z</time>
      </trkpt>
      <trkpt lat="47.26" lon="-1.59622">
        <ele>16.961998</ele>
        <time>2016-10-25T09:17:21Z</time>
      </trkpt>
      <trkpt lat="47.25997" lon="-1.59617">
        <ele>17.0438576</ele>
        <time>2016-10-25T09:17:24Z</time>
      </trkpt>
      <trkpt lat="47.25994" lon="-1.59612">
        <ele>17.1749382</ele>
        <time>2016-10-25T09:17:27Z</time>
      </trkpt>
      <trkpt lat="47.25992" lon="-1.59607">
        <ele>17.3390446</ele>
        <time>2016-10-25T09:17:30Z</time>
      </trkpt>
      <trkpt lat="47.25992" lon="-1.59604">
        <ele>17.4924965</ele>
        <time>2016-10-25T09:17:33Z</time>
      </trkpt>
      <trkpt lat="47.25991" lon="-1.59599">
        <ele>17.652338</ele>
        <time>2016-10-25T09:17:36Z</time>
      </trkpt>
      <trkpt lat="47.2599" lon="-1.59596">
        <ele>17.766346</ele>
        <time>2016-10-25T09:17:38Z</time>
      </trkpt>
      <trkpt lat="47.25988" lon="-1.59591">
        <ele>17.8374882</ele>
        <time>2016-10-25T09:17:41Z</time>
      </trkpt>
      <trkpt lat="47.25988" lon="-1.59586">
        <ele>17.864399</ele>
        <time>2016-10-25T09:17:44Z</time>
      </trkpt>
      <trkpt lat="47.25986" lon="-1.5958">
        <ele>17.9115791</ele>
        <time>2016-10-25T09:17:47Z</time>
      </trkpt>
      <trkpt lat="47.25985" lon="-1.59574">
        <ele>17.9545937</ele>
        <time>2016-10-25T09:17:50Z</time>
      </trkpt>
      <trkpt lat="47.25984" lon="-1.59572">
        <ele>17.9967957</ele>
        <time>2016-10-25T09:17:52Z</time>
      </trkpt>
      <trkpt lat="47.25983" lon="-1.59566">
        <ele>18.0220242</ele>
        <time>2016-10-25T09:17:55Z</time>
      </trkpt>
      <trkpt lat="47.25983" lon="-1.59562">
        <ele>18.0483704</ele>
        <time>2016-10-25T09:17:58Z</time>
      </trkpt>
      <trkpt lat="47.25983" lon="-1.59557">
        <ele>18.0594482</ele>
        <time>2016-10-25T09:18:01Z</time>
      </trkpt>
      <trkpt lat="47.25981" lon="-1.59552">
        <ele>18.0729942</ele>
        <time>2016-10-25T09:18:04Z</time>
      </trkpt>
      <trkpt lat="47.25981" lon="-1.59549">
        <ele>18.0739555</ele>
        <time>2016-10-25T09:18:06Z</time>
      </trkpt>
      <trkpt lat="47.25982" lon="-1.59543">
        <ele>18.0553131</ele>
        <time>2016-10-25T09:18:09Z</time>
      </trkpt>
      <trkpt lat="47.25984" lon="-1.59541">
        <ele>18.0160866</ele>
        <time>2016-10-25T09:18:11Z</time>
      </trkpt>
      <trkpt lat="47.25984" lon="-1.59537">
        <ele>17.9729881</ele>
        <time>2016-10-25T09:18:13Z</time>
      </trkpt>
      <trkpt lat="47.25983" lon="-1.59531">
        <ele>17.9175453</ele>
        <time>2016-10-25T09:18:16Z</time>
      </trkpt>
      <trkpt lat="47.25982" lon="-1.59526">
        <ele>17.8732014</ele>
        <time>2016-10-25T09:18:19Z</time>
      </trkpt>
      <trkpt lat="47.25981" lon="-1.59522">
        <ele>17.8516636</ele>
        <time>2016-10-25T09:18:22Z</time>
      </trkpt>
      <trkpt lat="47.2598" lon="-1.59517">
        <ele>17.8505478</ele>
        <time>2016-10-25T09:18:25Z</time>
      </trkpt>
      <trkpt lat="47.25981" lon="-1.59514">
        <ele>17.8420219</ele>
        <time>2016-10-25T09:18:27Z</time>
      </trkpt>
      <trkpt lat="47.25983" lon="-1.59508">
        <ele>17.8123589</ele>
        <time>2016-10-25T09:18:30Z</time>
      </trkpt>
      <trkpt lat="47.25983" lon="-1.59505">
        <ele>17.7722073</ele>
        <time>2016-10-25T09:18:32Z</time>
      </trkpt>
      <trkpt lat="47.25983" lon="-1.59501">
        <ele>17.7256069</ele>
        <time>2016-10-25T09:18:34Z</time>
      </trkpt>
      <trkpt lat="47.25982" lon="-1.59496">
        <ele>17.6842518</ele>
        <time>2016-10-25T09:18:37Z</time>
      </trkpt>
      <trkpt lat="47.25981" lon="-1.59492">
        <ele>17.6595039</ele>
        <time>2016-10-25T09:18:39Z</time>
      </trkpt>
      <trkpt lat="47.25979" lon="-1.59488">
        <ele>17.6630974</ele>
        <time>2016-10-25T09:18:42Z</time>
      </trkpt>
      <trkpt lat="47.25978" lon="-1.59485">
        <ele>17.6767578</ele>
        <time>2016-10-25T09:18:44Z</time>
      </trkpt>
      <trkpt lat="47.25976" lon="-1.5948">
        <ele>17.7191467</ele>
        <time>2016-10-25T09:18:47Z</time>
      </trkpt>
      <trkpt lat="47.25975" lon="-1.59478">
        <ele>17.7678928</ele>
        <time>2016-10-25T09:18:49Z</time>
      </trkpt>
      <trkpt lat="47.25973" lon="-1.59472">
        <ele>17.8274498</ele>
        <time>2016-10-25T09:18:52Z</time>
      </trkpt>
      <trkpt lat="47.25972" lon="-1.59466">
        <ele>17.8882408</ele>
        <time>2016-10-25T09:18:55Z</time>
      </trkpt>
      <trkpt lat="47.25971" lon="-1.5946">
        <ele>17.9526939</ele>
        <time>2016-10-25T09:18:58Z</time>
      </trkpt>
      <trkpt lat="47.25972" lon="-1.59454">
        <ele>17.9901123</ele>
        <time>2016-10-25T09:19:01Z</time>
      </trkpt>
      <trkpt lat="47.25973" lon="-1.59448">
        <ele>18.0031185</ele>
        <time>2016-10-25T09:19:04Z</time>
      </trkpt>
      <trkpt lat="47.25973" lon="-1.59444">
        <ele>17.9965687</ele>
        <time>2016-10-25T09:19:06Z</time>
      </trkpt>
      <trkpt lat="47.25975" lon="-1.59439">
        <ele>17.9664822</ele>
        <time>2016-10-25T09:19:09Z</time>
      </trkpt>
      <trkpt lat="47.25976" lon="-1.59436">
        <ele>17.911459</ele>
        <time>2016-10-25T09:19:11Z</time>
      </trkpt>
      <trkpt lat="47.25978" lon="-1.59431">
        <ele>17.8320808</ele>
        <time>2016-10-25T09:19:14Z</time>
      </trkpt>
      <trkpt lat="47.25979" lon="-1.59428">
        <ele>17.7488594</ele>
        <time>2016-10-25T09:19:16Z</time>
      </trkpt>
      <trkpt lat="47.2598" lon="-1.59425">
        <ele>17.652729</ele>
        <time>2016-10-25T09:19:18Z</time>
      </trkpt>
      <trkpt lat="47.25983" lon="-1.59422">
        <ele>17.5243912</ele>
        <time>2016-10-25T09:19:21Z</time>
      </trkpt>
      <trkpt lat="47.25986" lon="-1.5942">
        <ele>17.3756542</ele>
        <time>2016-10-25T09:19:23Z</time>
      </trkpt>
      <trkpt lat="47.25988" lon="-1.59418">
        <ele>17.2302666</ele>
        <time>2016-10-25T09:19:25Z</time>
      </trkpt>
      <trkpt lat="47.2599" lon="-1.59414">
        <ele>17.080759</ele>
        <time>2016-10-25T09:19:28Z</time>
      </trkpt>
      <trkpt lat="47.25992" lon="-1.59411">
        <ele>16.9403229</ele>
        <time>2016-10-25T09:19:30Z</time>
      </trkpt>
      <trkpt lat="47.25994" lon="-1.59407">
        <ele>16.8422127</ele>
        <time>2016-10-25T09:19:33Z</time>
      </trkpt>
      <trkpt lat="47.25998" lon="-1.59401">
        <ele>16.7744141</ele>
        <time>2016-10-25T09:19:36Z</time>
      </trkpt>
      <trkpt lat="47.25999" lon="-1.59398">
        <ele>16.7370491</ele>
        <time>2016-10-25T09:19:38Z</time>
      </trkpt>
      <trkpt lat="47.26002" lon="-1.59394">
        <ele>16.7741241</ele>
        <time>2016-10-25T09:19:41Z</time>
      </trkpt>
      <trkpt lat="47.26003" lon="-1.59391">
        <ele>16.8656158</ele>
        <time>2016-10-25T09:19:43Z</time>
      </trkpt>
      <trkpt lat="47.26006" lon="-1.59386">
        <ele>17.0478325</ele>
        <time>2016-10-25T09:19:46Z</time>
      </trkpt>
      <trkpt lat="47.26008" lon="-1.59382">
        <ele>17.3050747</ele>
        <time>2016-10-25T09:19:49Z</time>
      </trkpt>
      <trkpt lat="47.26011" lon="-1.59377">
        <ele>17.6329689</ele>
        <time>2016-10-25T09:19:52Z</time>
      </trkpt>
      <trkpt lat="47.26012" lon="-1.59374">
        <ele>17.9559746</ele>
        <time>2016-10-25T09:19:54Z</time>
      </trkpt>
      <trkpt lat="47.26014" lon="-1.5937">
        <ele>18.2949314</ele>
        <time>2016-10-25T09:19:57Z</time>
      </trkpt>
      <trkpt lat="47.26014" lon="-1.59364">
        <ele>18.5995369</ele>
        <time>2016-10-25T09:20:00Z</time>
      </trkpt>
      <trkpt lat="47.26017" lon="-1.59358">
        <ele>18.9119301</ele>
        <time>2016-10-25T09:20:03Z</time>
      </trkpt>
      <trkpt lat="47.26019" lon="-1.59355">
        <ele>19.2148705</ele>
        <time>2016-10-25T09:20:05Z</time>
      </trkpt>
      <trkpt lat="47.26022" lon="-1.59349">
        <ele>19.5644436</ele>
        <time>2016-10-25T09:20:08Z</time>
      </trkpt>
      <trkpt lat="47.26023" lon="-1.59346">
        <ele>19.8964291</ele>
        <time>2016-10-25T09:20:10Z</time>
      </trkpt>
      <trkpt lat="47.26027" lon="-1.5934">
        <ele>20.2689018</ele>
        <time>2016-10-25T09:20:13Z</time>
      </trkpt>
      <trkpt lat="47.26027" lon="-1.59336">
        <ele>20.6062965</ele>
        <time>2016-10-25T09:20:16Z</time>
      </trkpt>
      <trkpt lat="47.2603" lon="-1.59329">
        <ele>20.9555378</ele>
        <time>2016-10-25T09:20:19Z</time>
      </trkpt>
      <trkpt lat="47.26033" lon="-1.59321">
        <ele>21.29245</ele>
        <time>2016-10-25T09:20:22Z</time>
      </trkpt>
      <trkpt lat="47.26036" lon="-1.59313">
        <ele>21.6527214</ele>
        <time>2016-10-25T09:20:25Z</time>
      </trkpt>
      <trkpt lat="47.26036" lon="-1.59309">
        <ele>21.9432411</ele>
        <time>2016-10-25T09:20:27Z</time>
      </trkpt>
      <trkpt lat="47.26036" lon="-1.59305">
        <ele>22.2060184</ele>
        <time>2016-10-25T09:20:29Z</time>
      </trkpt>
      <trkpt lat="47.26036" lon="-1.59297">
        <ele>22.4199467</ele>
        <time>2016-10-25T09:20:32Z</time>
      </trkpt>
      <trkpt lat="47.26035" lon="-1.59289">
        <ele>22.5563202</ele>
        <time>2016-10-25T09:20:35Z</time>
      </trkpt>
      <trkpt lat="47.26034" lon="-1.59285">
        <ele>22.6178093</ele>
        <time>2016-10-25T09:20:37Z</time>
      </trkpt>
      <trkpt lat="47.26033" lon="-1.59278">
        <ele>22.6566601</ele>
        <time>2016-10-25T09:20:40Z</time>
      </trkpt>
      <trkpt lat="47.26031" lon="-1.59271">
        <ele>22.6771755</ele>
        <time>2016-10-25T09:20:43Z</time>
      </trkpt>
      <trkpt lat="47.26031" lon="-1.59264">
        <ele>22.6808243</ele>
        <time>2016-10-25T09:20:45Z</time>
      </trkpt>
      <trkpt lat="47.26031" lon="-1.59258">
        <ele>22.7006111</ele>
        <time>2016-10-25T09:20:48Z</time>
      </trkpt>
      <trkpt lat="47.26031" lon="-1.59255">
        <ele>22.7388916</ele>
        <time>2016-10-25T09:20:50Z</time>
      </trkpt>
      <trkpt lat="47.2603" lon="-1.59246">
        <ele>22.7821617</ele>
        <time>2016-10-25T09:20:53Z</time>
      </trkpt>
      <trkpt lat="47.26029" lon="-1.5924">
        <ele>22.8438225</ele>
        <time>2016-10-25T09:20:55Z</time>
      </trkpt>
      <trkpt lat="47.26028" lon="-1.59232">
        <ele>22.8948193</ele>
        <time>2016-10-25T09:20:58Z</time>
      </trkpt>
      <trkpt lat="47.26026" lon="-1.59228">
        <ele>22.899765</ele>
        <time>2016-10-25T09:21:00Z</time>
      </trkpt>
      <trkpt lat="47.26023" lon="-1.59223">
        <ele>22.8607998</ele>
        <time>2016-10-25T09:21:03Z</time>
      </trkpt>
      <trkpt lat="47.2602" lon="-1.59221">
        <ele>22.784235</ele>
        <time>2016-10-25T09:21:05Z</time>
      </trkpt>
      <trkpt lat="47.26015" lon="-1.59217">
        <ele>22.6170063</ele>
        <time>2016-10-25T09:21:08Z</time>
      </trkpt>
      <trkpt lat="47.26012" lon="-1.59215">
        <ele>22.3980122</ele>
        <time>2016-10-25T09:21:10Z</time>
      </trkpt>
      <trkpt lat="47.26008" lon="-1.59213">
        <ele>22.1508694</ele>
        <time>2016-10-25T09:21:12Z</time>
      </trkpt>
      <trkpt lat="47.26003" lon="-1.59209">
        <ele>21.8632679</ele>
        <time>2016-10-25T09:21:15Z</time>
      </trkpt>
      <trkpt lat="47.25999" lon="-1.59207">
        <ele>21.5709076</ele>
        <time>2016-10-25T09:21:17Z</time>
      </trkpt>
      <trkpt lat="47.25996" lon="-1.59205">
        <ele>21.3702221</ele>
        <time>2016-10-25T09:21:19Z</time>
      </trkpt>
      <trkpt lat="47.25991" lon="-1.59202">
        <ele>21.2439213</ele>
        <time>2016-10-25T09:21:22Z</time>
      </trkpt>
      <trkpt lat="47.25989" lon="-1.59201">
        <ele>21.182703</ele>
        <time>2016-10-25T09:21:24Z</time>
      </trkpt>
      <trkpt lat="47.25986" lon="-1.592">
        <ele>21.2016506</ele>
        <time>2016-10-25T09:21:26Z</time>
      </trkpt>
      <trkpt lat="47.25983" lon="-1.592">
        <ele>21.2650795</ele>
        <time>2016-10-25T09:21:28Z</time>
      </trkpt>
      <trkpt lat="47.25978" lon="-1.59198">
        <ele>21.3398228</ele>
        <time>2016-10-25T09:21:31Z</time>
      </trkpt>
      <trkpt lat="47.25974" lon="-1.59195">
        <ele>21.417347</ele>
        <time>2016-10-25T09:21:34Z</time>
      </trkpt>
      <trkpt lat="47.25972" lon="-1.59195">
        <ele>21.4908848</ele>
        <time>2016-10-25T09:21:36Z</time>
      </trkpt>
      <trkpt lat="47.25967" lon="-1.59194">
        <ele>21.5742607</ele>
        <time>2016-10-25T09:21:39Z</time>
      </trkpt>
      <trkpt lat="47.25964" lon="-1.59192">
        <ele>21.6719818</ele>
        <time>2016-10-25T09:21:41Z</time>
      </trkpt>
      <trkpt lat="47.25962" lon="-1.59192">
        <ele>21.7558174</ele>
        <time>2016-10-25T09:21:43Z</time>
      </trkpt>
      <trkpt lat="47.25959" lon="-1.59192">
        <ele>21.8190765</ele>
        <time>2016-10-25T09:21:45Z</time>
      </trkpt>
      <trkpt lat="47.25957" lon="-1.5919">
        <ele>21.898138</ele>
        <time>2016-10-25T09:21:47Z</time>
      </trkpt>
      <trkpt lat="47.25953" lon="-1.59188">
        <ele>21.9820595</ele>
        <time>2016-10-25T09:21:49Z</time>
      </trkpt>
      <trkpt lat="47.25948" lon="-1.59189">
        <ele>22.0568237</ele>
        <time>2016-10-25T09:21:52Z</time>
      </trkpt>
      <trkpt lat="47.25945" lon="-1.5919">
        <ele>22.1199627</ele>
        <time>2016-10-25T09:21:54Z</time>
      </trkpt>
      <trkpt lat="47.25943" lon="-1.5919">
        <ele>22.1771851</ele>
        <time>2016-10-25T09:21:56Z</time>
      </trkpt>
      <trkpt lat="47.25938" lon="-1.59191">
        <ele>22.2178764</ele>
        <time>2016-10-25T09:21:59Z</time>
      </trkpt>
      <trkpt lat="47.25935" lon="-1.59192">
        <ele>22.2367859</ele>
        <time>2016-10-25T09:22:01Z</time>
      </trkpt>
      <trkpt lat="47.25931" lon="-1.59195">
        <ele>22.2240181</ele>
        <time>2016-10-25T09:22:04Z</time>
      </trkpt>
      <trkpt lat="47.25928" lon="-1.59195">
        <ele>22.211977</ele>
        <time>2016-10-25T09:22:07Z</time>
      </trkpt>
      <trkpt lat="47.25925" lon="-1.59194">
        <ele>22.2146931</ele>
        <time>2016-10-25T09:22:09Z</time>
      </trkpt>
      <trkpt lat="47.25921" lon="-1.59196">
        <ele>22.2063522</ele>
        <time>2016-10-25T09:22:12Z</time>
      </trkpt>
      <trkpt lat="47.25919" lon="-1.59197">
        <ele>22.1869812</ele>
        <time>2016-10-25T09:22:14Z</time>
      </trkpt>
      <trkpt lat="47.25917" lon="-1.59199">
        <ele>22.1631737</ele>
        <time>2016-10-25T09:22:16Z</time>
      </trkpt>
      <trkpt lat="47.25915" lon="-1.59204">
        <ele>22.0826797</ele>
        <time>2016-10-25T09:22:19Z</time>
      </trkpt>
      <trkpt lat="47.25912" lon="-1.59208">
        <ele>21.9434509</ele>
        <time>2016-10-25T09:22:22Z</time>
      </trkpt>
      <trkpt lat="47.2591" lon="-1.59215">
        <ele>21.7363777</ele>
        <time>2016-10-25T09:22:25Z</time>
      </trkpt>
      <trkpt lat="47.25909" lon="-1.59219">
        <ele>21.5076561</ele>
        <time>2016-10-25T09:22:27Z</time>
      </trkpt>
      <trkpt lat="47.25908" lon="-1.59224">
        <ele>21.2493324</ele>
        <time>2016-10-25T09:22:30Z</time>
      </trkpt>
      <trkpt lat="47.25906" lon="-1.5923">
        <ele>20.981781</ele>
        <time>2016-10-25T09:22:33Z</time>
      </trkpt>
      <trkpt lat="47.25904" lon="-1.59235">
        <ele>20.7226601</ele>
        <time>2016-10-25T09:22:36Z</time>
      </trkpt>
      <trkpt lat="47.25902" lon="-1.59239">
        <ele>20.5063229</ele>
        <time>2016-10-25T09:22:39Z</time>
      </trkpt>
      <trkpt lat="47.259" lon="-1.59242">
        <ele>20.3081188</ele>
        <time>2016-10-25T09:22:41Z</time>
      </trkpt>
      <trkpt lat="47.25897" lon="-1.59245">
        <ele>20.1476231</ele>
        <time>2016-10-25T09:22:44Z</time>
      </trkpt>
      <trkpt lat="47.25895" lon="-1.5925">
        <ele>20.0211945</ele>
        <time>2016-10-25T09:22:47Z</time>
      </trkpt>
      <trkpt lat="47.25893" lon="-1.59253">
        <ele>19.9616203</ele>
        <time>2016-10-25T09:22:49Z</time>
      </trkpt>
      <trkpt lat="47.25891" lon="-1.59256">
        <ele>19.9742413</ele>
        <time>2016-10-25T09:22:52Z</time>
      </trkpt>
      <trkpt lat="47.25887" lon="-1.59258">
        <ele>20.043972</ele>
        <time>2016-10-25T09:22:55Z</time>
      </trkpt>
      <trkpt lat="47.25885" lon="-1.5926">
        <ele>20.1667118</ele>
        <time>2016-10-25T09:22:57Z</time>
      </trkpt>
      <trkpt lat="47.25883" lon="-1.59261">
        <ele>20.3502007</ele>
        <time>2016-10-25T09:22:59Z</time>
      </trkpt>
      <trkpt lat="47.25878" lon="-1.59261">
        <ele>20.5449181</ele>
        <time>2016-10-25T09:23:02Z</time>
      </trkpt>
      <trkpt lat="47.25875" lon="-1.59261">
        <ele>20.716671</ele>
        <time>2016-10-25T09:23:04Z</time>
      </trkpt>
      <trkpt lat="47.25871" lon="-1.5926">
        <ele>20.8716545</ele>
        <time>2016-10-25T09:23:06Z</time>
      </trkpt>
      <trkpt lat="47.25867" lon="-1.59261">
        <ele>21.0371742</ele>
        <time>2016-10-25T09:23:09Z</time>
      </trkpt>
      <trkpt lat="47.25864" lon="-1.59262">
        <ele>21.2031918</ele>
        <time>2016-10-25T09:23:11Z</time>
      </trkpt>
      <trkpt lat="47.25859" lon="-1.59262">
        <ele>21.3791695</ele>
        <time>2016-10-25T09:23:14Z</time>
      </trkpt>
      <trkpt lat="47.25855" lon="-1.59262">
        <ele>21.5629978</ele>
        <time>2016-10-25T09:23:16Z</time>
      </trkpt>
      <trkpt lat="47.25852" lon="-1.59263">
        <ele>21.7566166</ele>
        <time>2016-10-25T09:23:19Z</time>
      </trkpt>
      <trkpt lat="47.25851" lon="-1.59262">
        <ele>21.8964195</ele>
        <time>2016-10-25T09:23:23Z</time>
      </trkpt>
      <trkpt lat="47.25851" lon="-1.59259">
        <ele>21.9764748</ele>
        <time>2016-10-25T09:23:25Z</time>
      </trkpt>
      <trkpt lat="47.25849" lon="-1.59257">
        <ele>21.9868774</ele>
        <time>2016-10-25T09:23:28Z</time>
      </trkpt>
      <trkpt lat="47.25845" lon="-1.59254">
        <ele>21.9734268</ele>
        <time>2016-10-25T09:23:31Z</time>
      </trkpt>
      <trkpt lat="47.25843" lon="-1.59252">
        <ele>21.9104271</ele>
        <time>2016-10-25T09:23:33Z</time>
      </trkpt>
      <trkpt lat="47.25841" lon="-1.5925">
        <ele>21.8389473</ele>
        <time>2016-10-25T09:23:36Z</time>
      </trkpt>
      <trkpt lat="47.25838" lon="-1.59246">
        <ele>21.8241196</ele>
        <time>2016-10-25T09:23:39Z</time>
      </trkpt>
      <trkpt lat="47.25837" lon="-1.59243">
        <ele>21.8479519</ele>
        <time>2016-10-25T09:23:41Z</time>
      </trkpt>
      <trkpt lat="47.25834" lon="-1.5924">
        <ele>21.894949</ele>
        <time>2016-10-25T09:23:44Z</time>
      </trkpt>
      <trkpt lat="47.25832" lon="-1.59239">
        <ele>21.9676056</ele>
        <time>2016-10-25T09:23:46Z</time>
      </trkpt>
      <trkpt lat="47.2583" lon="-1.59236">
        <ele>22.0749054</ele>
        <time>2016-10-25T09:23:49Z</time>
      </trkpt>
      <trkpt lat="47.25828" lon="-1.59233">
        <ele>22.1787205</ele>
        <time>2016-10-25T09:23:52Z</time>
      </trkpt>
      <trkpt lat="47.25826" lon="-1.59227">
        <ele>22.2772636</ele>
        <time>2016-10-25T09:23:55Z</time>
      </trkpt>
      <trkpt lat="47.25823" lon="-1.59223">
        <ele>22.3640461</ele>
        <time>2016-10-25T09:23:57Z</time>
      </trkpt>
      <trkpt lat="47.25821" lon="-1.59219">
        <ele>22.4461918</ele>
        <time>2016-10-25T09:23:59Z</time>
      </trkpt>
      <trkpt lat="47.25819" lon="-1.59214">
        <ele>22.5145988</ele>
        <time>2016-10-25T09:24:02Z</time>
      </trkpt>
      <trkpt lat="47.25817" lon="-1.59211">
        <ele>22.5596924</ele>
        <time>2016-10-25T09:24:04Z</time>
      </trkpt>
      <trkpt lat="47.25815" lon="-1.59206">
        <ele>22.5860596</ele>
        <time>2016-10-25T09:24:07Z</time>
      </trkpt>
      <trkpt lat="47.25813" lon="-1.59204">
        <ele>22.5937843</ele>
        <time>2016-10-25T09:24:10Z</time>
      </trkpt>
      <trkpt lat="47.25811" lon="-1.59201">
        <ele>22.590168</ele>
        <time>2016-10-25T09:24:12Z</time>
      </trkpt>
      <trkpt lat="47.25809" lon="-1.59199">
        <ele>22.5747337</ele>
        <time>2016-10-25T09:24:15Z</time>
      </trkpt>
      <trkpt lat="47.25807" lon="-1.59195">
        <ele>22.5462055</ele>
        <time>2016-10-25T09:24:19Z</time>
      </trkpt>
      <trkpt lat="47.25807" lon="-1.59193">
        <ele>22.5124645</ele>
        <time>2016-10-25T09:24:20Z</time>
      </trkpt>
      <trkpt lat="47.25808" lon="-1.59189">
        <ele>22.4738083</ele>
        <time>2016-10-25T09:24:22Z</time>
      </trkpt>
      <trkpt lat="47.25809" lon="-1.59186">
        <ele>22.434433</ele>
        <time>2016-10-25T09:24:24Z</time>
      </trkpt>
      <trkpt lat="47.25811" lon="-1.59182">
        <ele>22.3985405</ele>
        <time>2016-10-25T09:24:27Z</time>
      </trkpt>
      <trkpt lat="47.25811" lon="-1.5918">
        <ele>22.3719234</ele>
        <time>2016-10-25T09:24:29Z</time>
      </trkpt>
      <trkpt lat="47.25812" lon="-1.59176">
        <ele>22.3490257</ele>
        <time>2016-10-25T09:24:31Z</time>
      </trkpt>
      <trkpt lat="47.25811" lon="-1.59173">
        <ele>22.3260593</ele>
        <time>2016-10-25T09:24:33Z</time>
      </trkpt>
      <trkpt lat="47.25809" lon="-1.59168">
        <ele>22.2847366</ele>
        <time>2016-10-25T09:24:36Z</time>
      </trkpt>
      <trkpt lat="47.25809" lon="-1.59164">
        <ele>22.2467079</ele>
        <time>2016-10-25T09:24:39Z</time>
      </trkpt>
      <trkpt lat="47.2581" lon="-1.5916">
        <ele>22.2275467</ele>
        <time>2016-10-25T09:24:42Z</time>
      </trkpt>
      <trkpt lat="47.25809" lon="-1.59158">
        <ele>22.2153358</ele>
        <time>2016-10-25T09:24:44Z</time>
      </trkpt>
      <trkpt lat="47.25808" lon="-1.59154">
        <ele>22.2091694</ele>
        <time>2016-10-25T09:24:47Z</time>
      </trkpt>
      <trkpt lat="47.25806" lon="-1.59151">
        <ele>22.2235336</ele>
        <time>2016-10-25T09:24:49Z</time>
      </trkpt>
      <trkpt lat="47.25805" lon="-1.59148">
        <ele>22.2337074</ele>
        <time>2016-10-25T09:24:52Z</time>
      </trkpt>
      <trkpt lat="47.25805" lon="-1.59146">
        <ele>22.2329292</ele>
        <time>2016-10-25T09:24:54Z</time>
      </trkpt>
      <trkpt lat="47.25806" lon="-1.59142">
        <ele>22.2503052</ele>
        <time>2016-10-25T09:24:57Z</time>
      </trkpt>
      <trkpt lat="47.25808" lon="-1.59138">
        <ele>22.2913933</ele>
        <time>2016-10-25T09:25:00Z</time>
      </trkpt>
      <trkpt lat="47.25808" lon="-1.59135">
        <ele>22.3479233</ele>
        <time>2016-10-25T09:25:03Z</time>
      </trkpt>
      <trkpt lat="47.25808" lon="-1.59132">
        <ele>22.4149666</ele>
        <time>2016-10-25T09:25:07Z</time>
      </trkpt>
      <trkpt lat="47.25806" lon="-1.59128">
        <ele>22.4670258</ele>
        <time>2016-10-25T09:25:08Z</time>
      </trkpt>
      <trkpt lat="47.25805" lon="-1.59124">
        <ele>22.4878693</ele>
        <time>2016-10-25T09:25:10Z</time>
      </trkpt>
      <trkpt lat="47.25801" lon="-1.59117">
        <ele>22.4676704</ele>
        <time>2016-10-25T09:25:13Z</time>
      </trkpt>
      <trkpt lat="47.25801" lon="-1.59113">
        <ele>22.4429817</ele>
        <time>2016-10-25T09:25:16Z</time>
      </trkpt>
      <trkpt lat="47.25801" lon="-1.59111">
        <ele>22.4108543</ele>
        <time>2016-10-25T09:25:18Z</time>
      </trkpt>
      <trkpt lat="47.258" lon="-1.59107">
        <ele>22.3914261</ele>
        <time>2016-10-25T09:25:20Z</time>
      </trkpt>
      <trkpt lat="47.258" lon="-1.59101">
        <ele>22.393261</ele>
        <time>2016-10-25T09:25:23Z</time>
      </trkpt>
      <trkpt lat="47.25801" lon="-1.59096">
        <ele>22.4348221</ele>
        <time>2016-10-25T09:25:26Z</time>
      </trkpt>
      <trkpt lat="47.25803" lon="-1.59093">
        <ele>22.4928169</ele>
        <time>2016-10-25T09:25:28Z</time>
      </trkpt>
      <trkpt lat="47.25803" lon="-1.59088">
        <ele>22.5658112</ele>
        <time>2016-10-25T09:25:30Z</time>
      </trkpt>
      <trkpt lat="47.25803" lon="-1.59084">
        <ele>22.6451149</ele>
        <time>2016-10-25T09:25:33Z</time>
      </trkpt>
      <trkpt lat="47.25803" lon="-1.59082">
        <ele>22.7142239</ele>
        <time>2016-10-25T09:25:36Z</time>
      </trkpt>
      <trkpt lat="47.25803" lon="-1.59081">
        <ele>22.7728424</ele>
        <time>2016-10-25T09:25:38Z</time>
      </trkpt>
      <trkpt lat="47.25804" lon="-1.59079">
        <ele>22.8325214</ele>
        <time>2016-10-25T09:25:41Z</time>
      </trkpt>
      <trkpt lat="47.25806" lon="-1.59081">
        <ele>22.8986931</ele>
        <time>2016-10-25T09:25:43Z</time>
      </trkpt>
      <trkpt lat="47.25807" lon="-1.5908">
        <ele>22.9859066</ele>
        <time>2016-10-25T09:25:46Z</time>
      </trkpt>
      <trkpt lat="47.25808" lon="-1.59077">
        <ele>23.1059246</ele>
        <time>2016-10-25T09:25:48Z</time>
      </trkpt>
      <trkpt lat="47.25809" lon="-1.5907">
        <ele>23.2652245</ele>
        <time>2016-10-25T09:25:51Z</time>
      </trkpt>
      <trkpt lat="47.25809" lon="-1.59066">
        <ele>23.4271603</ele>
        <time>2016-10-25T09:25:54Z</time>
      </trkpt>
      <trkpt lat="47.25811" lon="-1.59062">
        <ele>23.6135311</ele>
        <time>2016-10-25T09:25:56Z</time>
      </trkpt>
      <trkpt lat="47.25814" lon="-1.59059">
        <ele>23.8478718</ele>
        <time>2016-10-25T09:25:59Z</time>
      </trkpt>
      <trkpt lat="47.25816" lon="-1.59057">
        <ele>24.0844536</ele>
        <time>2016-10-25T09:26:01Z</time>
      </trkpt>
      <trkpt lat="47.25821" lon="-1.59055">
        <ele>24.3640594</ele>
        <time>2016-10-25T09:26:04Z</time>
      </trkpt>
      <trkpt lat="47.25824" lon="-1.59054">
        <ele>24.666935</ele>
        <time>2016-10-25T09:26:07Z</time>
      </trkpt>
      <trkpt lat="47.25825" lon="-1.59052">
        <ele>24.9538612</ele>
        <time>2016-10-25T09:26:10Z</time>
      </trkpt>
      <trkpt lat="47.25826" lon="-1.5905">
        <ele>25.1908112</ele>
        <time>2016-10-25T09:26:12Z</time>
      </trkpt>
      <trkpt lat="47.25827" lon="-1.59046">
        <ele>25.4377556</ele>
        <time>2016-10-25T09:26:15Z</time>
      </trkpt>
      <trkpt lat="47.2583" lon="-1.59043">
        <ele>25.6749668</ele>
        <time>2016-10-25T09:26:18Z</time>
      </trkpt>
      <trkpt lat="47.25835" lon="-1.59041">
        <ele>25.9473534</ele>
        <time>2016-10-25T09:26:21Z</time>
      </trkpt>
      <trkpt lat="47.25836" lon="-1.59039">
        <ele>26.2276802</ele>
        <time>2016-10-25T09:26:23Z</time>
      </trkpt>
      <trkpt lat="47.25837" lon="-1.59037">
        <ele>26.5310364</ele>
        <time>2016-10-25T09:26:26Z</time>
      </trkpt>
      <trkpt lat="47.2584" lon="-1.59034">
        <ele>26.8674221</ele>
        <time>2016-10-25T09:26:29Z</time>
      </trkpt>
      <trkpt lat="47.25844" lon="-1.59032">
        <ele>27.2120724</ele>
        <time>2016-10-25T09:26:32Z</time>
      </trkpt>
      <trkpt lat="47.25847" lon="-1.59031">
        <ele>27.5462799</ele>
        <time>2016-10-25T09:26:35Z</time>
      </trkpt>
      <trkpt lat="47.2585" lon="-1.59029">
        <ele>27.9038734</ele>
        <time>2016-10-25T09:26:37Z</time>
      </trkpt>
      <trkpt lat="47.25851" lon="-1.59029">
        <ele>28.2497349</ele>
        <time>2016-10-25T09:26:39Z</time>
      </trkpt>
      <trkpt lat="47.25853" lon="-1.59027">
        <ele>28.550745</ele>
        <time>2016-10-25T09:26:41Z</time>
      </trkpt>
      <trkpt lat="47.25853" lon="-1.59025">
        <ele>28.7872562</ele>
        <time>2016-10-25T09:26:43Z</time>
      </trkpt>
      <trkpt lat="47.25853" lon="-1.59022">
        <ele>28.9802399</ele>
        <time>2016-10-25T09:26:46Z</time>
      </trkpt>
      <trkpt lat="47.25854" lon="-1.5902">
        <ele>29.1466122</ele>
        <time>2016-10-25T09:26:48Z</time>
      </trkpt>
      <trkpt lat="47.25856" lon="-1.59016">
        <ele>29.3539581</ele>
        <time>2016-10-25T09:26:51Z</time>
      </trkpt>
      <trkpt lat="47.25858" lon="-1.59014">
        <ele>29.5700684</ele>
        <time>2016-10-25T09:26:53Z</time>
      </trkpt>
      <trkpt lat="47.2586" lon="-1.59013">
        <ele>29.8220329</ele>
        <time>2016-10-25T09:26:55Z</time>
      </trkpt>
      <trkpt lat="47.25862" lon="-1.59012">
        <ele>30.0822544</ele>
        <time>2016-10-25T09:26:57Z</time>
      </trkpt>
      <trkpt lat="47.25865" lon="-1.59011">
        <ele>30.3861084</ele>
        <time>2016-10-25T09:27:00Z</time>
      </trkpt>
      <trkpt lat="47.25867" lon="-1.5901">
        <ele>30.6689644</ele>
        <time>2016-10-25T09:27:02Z</time>
      </trkpt>
      <trkpt lat="47.2587" lon="-1.59008">
        <ele>30.9776001</ele>
        <time>2016-10-25T09:27:05Z</time>
      </trkpt>
      <trkpt lat="47.25871" lon="-1.59007">
        <ele>31.2601166</ele>
        <time>2016-10-25T09:27:07Z</time>
      </trkpt>
      <trkpt lat="47.25876" lon="-1.59007">
        <ele>31.596899</ele>
        <time>2016-10-25T09:27:10Z</time>
      </trkpt>
      <trkpt lat="47.25879" lon="-1.59008">
        <ele>31.9200649</ele>
        <time>2016-10-25T09:27:13Z</time>
      </trkpt>
      <trkpt lat="47.25881" lon="-1.59006">
        <ele>32.2407761</ele>
        <time>2016-10-25T09:27:16Z</time>
      </trkpt>
      <trkpt lat="47.25883" lon="-1.59003">
        <ele>32.5501518</ele>
        <time>2016-10-25T09:27:18Z</time>
      </trkpt>
      <trkpt lat="47.25886" lon="-1.59">
        <ele>32.9209862</ele>
        <time>2016-10-25T09:27:20Z</time>
      </trkpt>
      <trkpt lat="47.25889" lon="-1.58998">
        <ele>33.2673721</ele>
        <time>2016-10-25T09:27:22Z</time>
      </trkpt>
      <trkpt lat="47.25893" lon="-1.58995">
        <ele>33.6324806</ele>
        <time>2016-10-25T09:27:25Z</time>
      </trkpt>
      <trkpt lat="47.25896" lon="-1.58994">
        <ele>33.9892044</ele>
        <time>2016-10-25T09:27:27Z</time>
      </trkpt>
      <trkpt lat="47.25898" lon="-1.58993">
        <ele>34.3366318</ele>
        <time>2016-10-25T09:27:30Z</time>
      </trkpt>
      <trkpt lat="47.25899" lon="-1.58993">
        <ele>34.6111755</ele>
        <time>2016-10-25T09:27:32Z</time>
      </trkpt>
      <trkpt lat="47.25904" lon="-1.5899">
        <ele>34.9011345</ele>
        <time>2016-10-25T09:27:35Z</time>
      </trkpt>
      <trkpt lat="47.25908" lon="-1.58988">
        <ele>35.1833305</ele>
        <time>2016-10-25T09:27:38Z</time>
      </trkpt>
      <trkpt lat="47.25911" lon="-1.58988">
        <ele>35.4711113</ele>
        <time>2016-10-25T09:27:41Z</time>
      </trkpt>
      <trkpt lat="47.25913" lon="-1.58987">
        <ele>35.7454224</ele>
        <time>2016-10-25T09:27:43Z</time>
      </trkpt>
      <trkpt lat="47.25916" lon="-1.58984">
        <ele>36.0417404</ele>
        <time>2016-10-25T09:27:46Z</time>
      </trkpt>
      <trkpt lat="47.25917" lon="-1.58983">
        <ele>36.2625771</ele>
        <time>2016-10-25T09:27:48Z</time>
      </trkpt>
      <trkpt lat="47.25919" lon="-1.58982">
        <ele>36.389019</ele>
        <time>2016-10-25T09:27:50Z</time>
      </trkpt>
      <trkpt lat="47.25922" lon="-1.58979">
        <ele>36.4271355</ele>
        <time>2016-10-25T09:27:53Z</time>
      </trkpt>
      <trkpt lat="47.25924" lon="-1.58978">
        <ele>36.4131393</ele>
        <time>2016-10-25T09:27:55Z</time>
      </trkpt>
      <trkpt lat="47.25924" lon="-1.58974">
        <ele>36.3400955</ele>
        <time>2016-10-25T09:27:58Z</time>
      </trkpt>
      <trkpt lat="47.2593" lon="-1.58968">
        <ele>36.1964645</ele>
        <time>2016-10-25T09:28:13Z</time>
      </trkpt>
      <trkpt lat="47.25931" lon="-1.58967">
        <ele>36.0598755</ele>
        <time>2016-10-25T09:28:15Z</time>
      </trkpt>
      <trkpt lat="47.25932" lon="-1.58966">
        <ele>35.9500198</ele>
        <time>2016-10-25T09:28:17Z</time>
      </trkpt>
      <trkpt lat="47.25935" lon="-1.58963">
        <ele>35.8286743</ele>
        <time>2016-10-25T09:28:20Z</time>
      </trkpt>
      <trkpt lat="47.25938" lon="-1.58961">
        <ele>35.7033768</ele>
        <time>2016-10-25T09:28:22Z</time>
      </trkpt>
      <trkpt lat="47.2594" lon="-1.5896">
        <ele>35.6258774</ele>
        <time>2016-10-25T09:28:24Z</time>
      </trkpt>
      <trkpt lat="47.25943" lon="-1.58958">
        <ele>35.5421181</ele>
        <time>2016-10-25T09:28:27Z</time>
      </trkpt>
      <trkpt lat="47.25946" lon="-1.58956">
        <ele>35.4479179</ele>
        <time>2016-10-25T09:28:30Z</time>
      </trkpt>
      <trkpt lat="47.25948" lon="-1.58955">
        <ele>35.3696823</ele>
        <time>2016-10-25T09:28:32Z</time>
      </trkpt>
      <trkpt lat="47.25951" lon="-1.58953">
        <ele>35.2958908</ele>
        <time>2016-10-25T09:28:35Z</time>
      </trkpt>
      <trkpt lat="47.25952" lon="-1.58952">
        <ele>35.2303658</ele>
        <time>2016-10-25T09:28:37Z</time>
      </trkpt>
      <trkpt lat="47.25953" lon="-1.58949">
        <ele>35.1784286</ele>
        <time>2016-10-25T09:28:40Z</time>
      </trkpt>
      <trkpt lat="47.25954" lon="-1.58947">
        <ele>35.137352</ele>
        <time>2016-10-25T09:28:43Z</time>
      </trkpt>
      <trkpt lat="47.25956" lon="-1.58946">
        <ele>35.1009598</ele>
        <time>2016-10-25T09:28:46Z</time>
      </trkpt>
      <trkpt lat="47.2596" lon="-1.58943">
        <ele>35.0652046</ele>
        <time>2016-10-25T09:28:49Z</time>
      </trkpt>
      <trkpt lat="47.2596" lon="-1.58941">
        <ele>35.0328522</ele>
        <time>2016-10-25T09:28:51Z</time>
      </trkpt>
      <trkpt lat="47.25962" lon="-1.58939">
        <ele>35.0022163</ele>
        <time>2016-10-25T09:28:54Z</time>
      </trkpt>
      <trkpt lat="47.25964" lon="-1.58936">
        <ele>34.9760818</ele>
        <time>2016-10-25T09:28:57Z</time>
      </trkpt>
      <trkpt lat="47.25964" lon="-1.58933">
        <ele>34.9582787</ele>
        <time>2016-10-25T09:29:00Z</time>
      </trkpt>
      <trkpt lat="47.25966" lon="-1.58931">
        <ele>34.9500313</ele>
        <time>2016-10-25T09:29:02Z</time>
      </trkpt>
      <trkpt lat="47.25971" lon="-1.58929">
        <ele>34.9368095</ele>
        <time>2016-10-25T09:29:05Z</time>
      </trkpt>
      <trkpt lat="47.25974" lon="-1.58927">
        <ele>34.926651</ele>
        <time>2016-10-25T09:29:07Z</time>
      </trkpt>
      <trkpt lat="47.25976" lon="-1.58926">
        <ele>34.9194717</ele>
        <time>2016-10-25T09:29:09Z</time>
      </trkpt>
      <trkpt lat="47.2598" lon="-1.58922">
        <ele>34.9160805</ele>
        <time>2016-10-25T09:29:12Z</time>
      </trkpt>
      <trkpt lat="47.25982" lon="-1.5892">
        <ele>34.9192963</ele>
        <time>2016-10-25T09:29:15Z</time>
      </trkpt>
      <trkpt lat="47.25982" lon="-1.58919">
        <ele>34.9315491</ele>
        <time>2016-10-25T09:29:17Z</time>
      </trkpt>
      <trkpt lat="47.25985" lon="-1.58915">
        <ele>34.9614143</ele>
        <time>2016-10-25T09:29:20Z</time>
      </trkpt>
      <trkpt lat="47.25989" lon="-1.58912">
        <ele>35.0164452</ele>
        <time>2016-10-25T09:29:23Z</time>
      </trkpt>
      <trkpt lat="47.25992" lon="-1.58912">
        <ele>35.0759163</ele>
        <time>2016-10-25T09:29:25Z</time>
      </trkpt>
      <trkpt lat="47.25994" lon="-1.58911">
        <ele>35.1372452</ele>
        <time>2016-10-25T09:29:28Z</time>
      </trkpt>
      <trkpt lat="47.25995" lon="-1.5891">
        <ele>35.2063408</ele>
        <time>2016-10-25T09:29:30Z</time>
      </trkpt>
      <trkpt lat="47.25996" lon="-1.58908">
        <ele>35.277359</ele>
        <time>2016-10-25T09:29:32Z</time>
      </trkpt>
      <trkpt lat="47.25998" lon="-1.58906">
        <ele>35.3435745</ele>
        <time>2016-10-25T09:29:34Z</time>
      </trkpt>
      <trkpt lat="47.26001" lon="-1.58903">
        <ele>35.4328995</ele>
        <time>2016-10-25T09:29:37Z</time>
      </trkpt>
      <trkpt lat="47.26004" lon="-1.589">
        <ele>35.5397835</ele>
        <time>2016-10-25T09:29:39Z</time>
      </trkpt>
      <trkpt lat="47.26007" lon="-1.58896">
        <ele>35.6719589</ele>
        <time>2016-10-25T09:29:42Z</time>
      </trkpt>
      <trkpt lat="47.26009" lon="-1.58895">
        <ele>35.8027878</ele>
        <time>2016-10-25T09:29:44Z</time>
      </trkpt>
      <trkpt lat="47.26012" lon="-1.58892">
        <ele>35.9345703</ele>
        <time>2016-10-25T09:29:47Z</time>
      </trkpt>
      <trkpt lat="47.26015" lon="-1.5889">
        <ele>36.0528564</ele>
        <time>2016-10-25T09:29:50Z</time>
      </trkpt>
      <trkpt lat="47.26017" lon="-1.58889">
        <ele>36.1616211</ele>
        <time>2016-10-25T09:29:52Z</time>
      </trkpt>
      <trkpt lat="47.26019" lon="-1.58887">
        <ele>36.2542725</ele>
        <time>2016-10-25T09:29:54Z</time>
      </trkpt>
      <trkpt lat="47.26023" lon="-1.58885">
        <ele>36.3446045</ele>
        <time>2016-10-25T09:29:57Z</time>
      </trkpt>
      <trkpt lat="47.26027" lon="-1.58883">
        <ele>36.4290771</ele>
        <time>2016-10-25T09:30:00Z</time>
      </trkpt>
      <trkpt lat="47.26029" lon="-1.58882">
        <ele>36.5128174</ele>
        <time>2016-10-25T09:30:03Z</time>
      </trkpt>
      <trkpt lat="47.26033" lon="-1.58879">
        <ele>36.6115723</ele>
        <time>2016-10-25T09:30:05Z</time>
      </trkpt>
      <trkpt lat="47.26035" lon="-1.58877">
        <ele>36.7023926</ele>
        <time>2016-10-25T09:30:07Z</time>
      </trkpt>
      <trkpt lat="47.26038" lon="-1.58875">
        <ele>36.8006592</ele>
        <time>2016-10-25T09:30:10Z</time>
      </trkpt>
      <trkpt lat="47.26038" lon="-1.58872">
        <ele>36.9099121</ele>
        <time>2016-10-25T09:30:13Z</time>
      </trkpt>
      <trkpt lat="47.2604" lon="-1.5887">
        <ele>37.0179443</ele>
        <time>2016-10-25T09:30:15Z</time>
      </trkpt>
      <trkpt lat="47.26043" lon="-1.58869">
        <ele>37.1118164</ele>
        <time>2016-10-25T09:30:18Z</time>
      </trkpt>
      <trkpt lat="47.26044" lon="-1.58867">
        <ele>37.2109375</ele>
        <time>2016-10-25T09:30:20Z</time>
      </trkpt>
      <trkpt lat="47.26046" lon="-1.58864">
        <ele>37.3127441</ele>
        <time>2016-10-25T09:30:23Z</time>
      </trkpt>
      <trkpt lat="47.26048" lon="-1.58862">
        <ele>37.4139404</ele>
        <time>2016-10-25T09:30:25Z</time>
      </trkpt>
      <trkpt lat="47.2605" lon="-1.5886">
        <ele>37.5164795</ele>
        <time>2016-10-25T09:30:28Z</time>
      </trkpt>
      <trkpt lat="47.26053" lon="-1.58856">
        <ele>37.6373291</ele>
        <time>2016-10-25T09:30:31Z</time>
      </trkpt>
      <trkpt lat="47.26055" lon="-1.58854">
        <ele>37.7631836</ele>
        <time>2016-10-25T09:30:33Z</time>
      </trkpt>
      <trkpt lat="47.26057" lon="-1.5885">
        <ele>37.9007568</ele>
        <time>2016-10-25T09:30:36Z</time>
      </trkpt>
      <trkpt lat="47.26059" lon="-1.58846">
        <ele>38.0493164</ele>
        <time>2016-10-25T09:30:39Z</time>
      </trkpt>
      <trkpt lat="47.26061" lon="-1.58843">
        <ele>38.208252</ele>
        <time>2016-10-25T09:30:42Z</time>
      </trkpt>
      <trkpt lat="47.26062" lon="-1.58842">
        <ele>38.3458252</ele>
        <time>2016-10-25T09:30:44Z</time>
      </trkpt>
      <trkpt lat="47.26064" lon="-1.58839">
        <ele>38.4885254</ele>
        <time>2016-10-25T09:30:47Z</time>
      </trkpt>
      <trkpt lat="47.26065" lon="-1.58836">
        <ele>38.6218262</ele>
        <time>2016-10-25T09:30:49Z</time>
      </trkpt>
      <trkpt lat="47.26068" lon="-1.58832">
        <ele>38.7408829</ele>
        <time>2016-10-25T09:30:52Z</time>
      </trkpt>
      <trkpt lat="47.26069" lon="-1.58829">
        <ele>38.8263626</ele>
        <time>2016-10-25T09:30:54Z</time>
      </trkpt>
      <trkpt lat="47.2607" lon="-1.58827">
        <ele>38.8957863</ele>
        <time>2016-10-25T09:30:56Z</time>
      </trkpt>
      <trkpt lat="47.26072" lon="-1.58826">
        <ele>38.93507</ele>
        <time>2016-10-25T09:30:58Z</time>
      </trkpt>
      <trkpt lat="47.26075" lon="-1.58824">
        <ele>38.9405632</ele>
        <time>2016-10-25T09:31:01Z</time>
      </trkpt>
      <trkpt lat="47.26077" lon="-1.58822">
        <ele>38.9188232</ele>
        <time>2016-10-25T09:31:04Z</time>
      </trkpt>
      <trkpt lat="47.26078" lon="-1.58821">
        <ele>38.9003754</ele>
        <time>2016-10-25T09:31:07Z</time>
      </trkpt>
      <trkpt lat="47.26079" lon="-1.58821">
        <ele>38.8848381</ele>
        <time>2016-10-25T09:31:09Z</time>
      </trkpt>
      <trkpt lat="47.2608" lon="-1.5882">
        <ele>38.8691101</ele>
        <time>2016-10-25T09:31:12Z</time>
      </trkpt>
      <trkpt lat="47.26081" lon="-1.5882">
        <ele>38.859642</ele>
        <time>2016-10-25T09:31:15Z</time>
      </trkpt>
      <trkpt lat="47.26083" lon="-1.5882">
        <ele>38.8535385</ele>
        <time>2016-10-25T09:31:17Z</time>
      </trkpt>
      <trkpt lat="47.26087" lon="-1.5882">
        <ele>38.8445244</ele>
        <time>2016-10-25T09:31:20Z</time>
      </trkpt>
      <trkpt lat="47.2609" lon="-1.5882">
        <ele>38.8327141</ele>
        <time>2016-10-25T09:31:22Z</time>
      </trkpt>
      <trkpt lat="47.26094" lon="-1.5882">
        <ele>38.8183784</ele>
        <time>2016-10-25T09:31:25Z</time>
      </trkpt>
      <trkpt lat="47.26098" lon="-1.5882">
        <ele>38.7981148</ele>
        <time>2016-10-25T09:31:28Z</time>
      </trkpt>
      <trkpt lat="47.26101" lon="-1.58817">
        <ele>38.7733688</ele>
        <time>2016-10-25T09:31:31Z</time>
      </trkpt>
      <trkpt lat="47.26102" lon="-1.58816">
        <ele>38.7509499</ele>
        <time>2016-10-25T09:31:33Z</time>
      </trkpt>
      <trkpt lat="47.26104" lon="-1.5882">
        <ele>38.7327385</ele>
        <time>2016-10-25T09:31:36Z</time>
      </trkpt>
      <trkpt lat="47.26104" lon="-1.58824">
        <ele>38.7222519</ele>
        <time>2016-10-25T09:31:39Z</time>
      </trkpt>
      <trkpt lat="47.26104" lon="-1.58828">
        <ele>38.7189217</ele>
        <time>2016-10-25T09:31:42Z</time>
      </trkpt>
      <trkpt lat="47.26105" lon="-1.58831">
        <ele>38.7219734</ele>
        <time>2016-10-25T09:31:44Z</time>
      </trkpt>
      <trkpt lat="47.26105" lon="-1.58834">
        <ele>38.7252121</ele>
        <time>2016-10-25T09:31:46Z</time>
      </trkpt>
      <trkpt lat="47.26105" lon="-1.58838">
        <ele>38.6922379</ele>
        <time>2016-10-25T09:31:49Z</time>
      </trkpt>
      <trkpt lat="47.26105" lon="-1.58842">
        <ele>38.6308784</ele>
        <time>2016-10-25T09:31:51Z</time>
      </trkpt>
      <trkpt lat="47.26104" lon="-1.58845">
        <ele>38.5452919</ele>
        <time>2016-10-25T09:31:53Z</time>
      </trkpt>
      <trkpt lat="47.26103" lon="-1.5885">
        <ele>38.4183769</ele>
        <time>2016-10-25T09:31:56Z</time>
      </trkpt>
      <trkpt lat="47.26103" lon="-1.58853">
        <ele>38.2682877</ele>
        <time>2016-10-25T09:31:58Z</time>
      </trkpt>
      <trkpt lat="47.26104" lon="-1.58857">
        <ele>38.12603</ele>
        <time>2016-10-25T09:32:00Z</time>
      </trkpt>
      <trkpt lat="47.26104" lon="-1.58862">
        <ele>37.9693985</ele>
        <time>2016-10-25T09:32:03Z</time>
      </trkpt>
      <trkpt lat="47.26105" lon="-1.58865">
        <ele>37.8103867</ele>
        <time>2016-10-25T09:32:05Z</time>
      </trkpt>
      <trkpt lat="47.26106" lon="-1.58868">
        <ele>37.6673965</ele>
        <time>2016-10-25T09:32:07Z</time>
      </trkpt>
      <trkpt lat="47.26106" lon="-1.58873">
        <ele>37.5170479</ele>
        <time>2016-10-25T09:32:10Z</time>
      </trkpt>
      <trkpt lat="47.26107" lon="-1.58875">
        <ele>37.3795547</ele>
        <time>2016-10-25T09:32:12Z</time>
      </trkpt>
      <trkpt lat="47.26108" lon="-1.58878">
        <ele>37.2570152</ele>
        <time>2016-10-25T09:32:15Z</time>
      </trkpt>
      <trkpt lat="47.26109" lon="-1.5888">
        <ele>37.1469193</ele>
        <time>2016-10-25T09:32:17Z</time>
      </trkpt>
      <trkpt lat="47.2611" lon="-1.58883">
        <ele>37.0419731</ele>
        <time>2016-10-25T09:32:20Z</time>
      </trkpt>
      <trkpt lat="47.26111" lon="-1.58885">
        <ele>36.9598656</ele>
        <time>2016-10-25T09:32:23Z</time>
      </trkpt>
      <trkpt lat="47.26112" lon="-1.58886">
        <ele>36.8897934</ele>
        <time>2016-10-25T09:32:26Z</time>
      </trkpt>
      <trkpt lat="47.26114" lon="-1.58885">
        <ele>36.849926</ele>
        <time>2016-10-25T09:32:30Z</time>
      </trkpt>
      <trkpt lat="47.26115" lon="-1.58886">
        <ele>36.8168488</ele>
        <time>2016-10-25T09:32:32Z</time>
      </trkpt>
      <trkpt lat="47.26116" lon="-1.5889">
        <ele>36.7824287</ele>
        <time>2016-10-25T09:32:35Z</time>
      </trkpt>
      <trkpt lat="47.26116" lon="-1.58893">
        <ele>36.7367935</ele>
        <time>2016-10-25T09:32:38Z</time>
      </trkpt>
      <trkpt lat="47.26116" lon="-1.58893">
        <ele>36.7367935</ele>
        <time>2016-10-25T09:32:39Z</time>
      </trkpt>
    </trkseg>
  </trk>
</gpx>